<?xml version='1.0' encoding='UTF-8'?><gpx version="1.1" creator="JPX - https://github.com/jenetics/jpx" xmlns="http://www.topografix.com/GPX/1/1"><trk><trkseg><trkpt lat="38.0499986" lon="-1.2417249"><ele>85.5</ele><time>2026-03-28T07:36:54.747Z</time></trkpt><trkpt lat="38.0499542" lon="-1.2418097"><ele>85.0</ele><time>2026-03-28T07:36:56.747Z</time></trkpt><trkpt lat="38.0499127" lon="-1.241891"><ele>84.5</ele><time>2026-03-28T07:36:58.746Z</time></trkpt><trkpt lat="38.0498774" lon="-1.2419773"><ele>84.0</ele><time>2026-03-28T07:37:00.746Z</time></trkpt><trkpt lat="38.0498482" lon="-1.2420692"><ele>83.5</ele><time>2026-03-28T07:37:02.745Z</time></trkpt><trkpt lat="38.0498173" lon="-1.2421629"><ele>83.0</ele><time>2026-03-28T07:37:04.747Z</time></trkpt><trkpt lat="38.0497819" lon="-1.2422557"><ele>83.16666666666667</ele><time>2026-03-28T07:37:06.745Z</time></trkpt><trkpt lat="38.0497544" lon="-1.2423396"><ele>83.33333333333334</ele><time>2026-03-28T07:37:08.745Z</time></trkpt><trkpt lat="38.0497327" lon="-1.2424284"><ele>83.5</ele><time>2026-03-28T07:37:10.746Z</time></trkpt><trkpt lat="38.0497141" lon="-1.24253"><ele>83.66666666666667</ele><time>2026-03-28T07:37:12.747Z</time></trkpt><trkpt lat="38.0496948" lon="-1.2426379"><ele>83.83333333333333</ele><time>2026-03-28T07:37:14.746Z</time></trkpt><trkpt lat="38.0496792" lon="-1.2427363"><ele>84.0</ele><time>2026-03-28T07:37:16.745Z</time></trkpt><trkpt lat="38.0496734" lon="-1.2428317"><ele>84.0</ele><time>2026-03-28T07:37:18.746Z</time></trkpt><trkpt lat="38.0496735" lon="-1.2429337"><ele>84.0</ele><time>2026-03-28T07:37:20.745Z</time></trkpt><trkpt lat="38.0496855" lon="-1.2430253"><ele>84.0</ele><time>2026-03-28T07:37:22.744Z</time></trkpt><trkpt lat="38.0496883" lon="-1.2431383"><ele>84.0</ele><time>2026-03-28T07:37:24.746Z</time></trkpt><trkpt lat="38.0496946" lon="-1.2432455"><ele>84.0</ele><time>2026-03-28T07:37:26.745Z</time></trkpt><trkpt lat="38.0497201" lon="-1.2433569"><ele>84.0</ele><time>2026-03-28T07:37:28.746Z</time></trkpt><trkpt lat="38.0497432" lon="-1.2434677"><ele>84.0</ele><time>2026-03-28T07:37:30.747Z</time></trkpt><trkpt lat="38.049754" lon="-1.2436179"><ele>84.0</ele><time>2026-03-28T07:37:32.746Z</time></trkpt><trkpt lat="38.0497803" lon="-1.2437132"><ele>84.0</ele><time>2026-03-28T07:37:34.746Z</time></trkpt><trkpt lat="38.0498114" lon="-1.2438281"><ele>84.0</ele><time>2026-03-28T07:37:36.747Z</time></trkpt><trkpt lat="38.0498283" lon="-1.2439402"><ele>84.0</ele><time>2026-03-28T07:37:40.746Z</time></trkpt><trkpt lat="38.0498578" lon="-1.2440612"><ele>84.16666666666667</ele><time>2026-03-28T07:37:42.745Z</time></trkpt><trkpt lat="38.0498964" lon="-1.2441539"><ele>84.33333333333333</ele><time>2026-03-28T07:37:44.746Z</time></trkpt><trkpt lat="38.0499187" lon="-1.24423"><ele>84.5</ele><time>2026-03-28T07:37:45.745Z</time></trkpt><trkpt lat="38.049922" lon="-1.2443454"><ele>84.66666666666666</ele><time>2026-03-28T07:37:47.747Z</time></trkpt><trkpt lat="38.0499342" lon="-1.2444426"><ele>84.83333333333333</ele><time>2026-03-28T07:37:49.746Z</time></trkpt><trkpt lat="38.0499664" lon="-1.2445435"><ele>85.0</ele><time>2026-03-28T07:37:51.746Z</time></trkpt><trkpt lat="38.0499759" lon="-1.2446782"><ele>85.0</ele><time>2026-03-28T07:37:53.745Z</time></trkpt><trkpt lat="38.0499913" lon="-1.2447575"><ele>85.0</ele><time>2026-03-28T07:37:54.746Z</time></trkpt><trkpt lat="38.0500093" lon="-1.2448351"><ele>85.0</ele><time>2026-03-28T07:37:55.746Z</time></trkpt><trkpt lat="38.050034" lon="-1.2449665"><ele>85.0</ele><time>2026-03-28T07:37:57.744Z</time></trkpt><trkpt lat="38.0500535" lon="-1.2450848"><ele>85.0</ele><time>2026-03-28T07:37:59.746Z</time></trkpt><trkpt lat="38.0500715" lon="-1.2452399"><ele>85.0</ele><time>2026-03-28T07:38:01.746Z</time></trkpt><trkpt lat="38.0500828" lon="-1.2453388"><ele>85.0</ele><time>2026-03-28T07:38:02.745Z</time></trkpt><trkpt lat="38.0501104" lon="-1.2454819"><ele>85.0</ele><time>2026-03-28T07:38:04.745Z</time></trkpt><trkpt lat="38.0501344" lon="-1.2456063"><ele>85.0</ele><time>2026-03-28T07:38:06.746Z</time></trkpt><trkpt lat="38.0501471" lon="-1.2457234"><ele>85.0</ele><time>2026-03-28T07:38:08.745Z</time></trkpt><trkpt lat="38.050151" lon="-1.2458557"><ele>85.16666666666666</ele><time>2026-03-28T07:38:10.745Z</time></trkpt><trkpt lat="38.0501732" lon="-1.2459678"><ele>85.33333333333333</ele><time>2026-03-28T07:38:12.747Z</time></trkpt><trkpt lat="38.0502233" lon="-1.2460639"><ele>85.5</ele><time>2026-03-28T07:38:14.747Z</time></trkpt><trkpt lat="38.0502408" lon="-1.2461674"><ele>85.66666666666667</ele><time>2026-03-28T07:38:16.745Z</time></trkpt><trkpt lat="38.0502543" lon="-1.2462721"><ele>85.83333333333334</ele><time>2026-03-28T07:38:18.746Z</time></trkpt><trkpt lat="38.0502605" lon="-1.2463735"><ele>86.0</ele><time>2026-03-28T07:38:20.745Z</time></trkpt><trkpt lat="38.0502706" lon="-1.2464767"><ele>86.33333333333334</ele><time>2026-03-28T07:38:22.745Z</time></trkpt><trkpt lat="38.0502843" lon="-1.2465808"><ele>86.66666666666667</ele><time>2026-03-28T07:38:24.746Z</time></trkpt><trkpt lat="38.0502943" lon="-1.2466849"><ele>87.0</ele><time>2026-03-28T07:38:26.747Z</time></trkpt><trkpt lat="38.0503094" lon="-1.2467947"><ele>87.33333333333333</ele><time>2026-03-28T07:38:28.746Z</time></trkpt><trkpt lat="38.0503262" lon="-1.2469032"><ele>87.66666666666666</ele><time>2026-03-28T07:38:30.746Z</time></trkpt><trkpt lat="38.0503442" lon="-1.2470093"><ele>88.0</ele><time>2026-03-28T07:38:32.745Z</time></trkpt><trkpt lat="38.0503543" lon="-1.2471166"><ele>88.0</ele><time>2026-03-28T07:38:34.746Z</time></trkpt><trkpt lat="38.0503625" lon="-1.2472475"><ele>88.0</ele><time>2026-03-28T07:38:36.746Z</time></trkpt><trkpt lat="38.0503987" lon="-1.2473133"><ele>88.0</ele><time>2026-03-28T07:38:37.747Z</time></trkpt><trkpt lat="38.0504209" lon="-1.2474098"><ele>88.0</ele><time>2026-03-28T07:38:39.746Z</time></trkpt><trkpt lat="38.0504457" lon="-1.2475092"><ele>88.0</ele><time>2026-03-28T07:38:42.746Z</time></trkpt><trkpt lat="38.050469" lon="-1.2476306"><ele>88.0</ele><time>2026-03-28T07:38:45.746Z</time></trkpt><trkpt lat="38.0504882" lon="-1.2477276"><ele>88.33333333333333</ele><time>2026-03-28T07:38:47.746Z</time></trkpt><trkpt lat="38.0505166" lon="-1.2478214"><ele>88.66666666666666</ele><time>2026-03-28T07:38:49.745Z</time></trkpt><trkpt lat="38.0505555" lon="-1.2478967"><ele>89.0</ele><time>2026-03-28T07:38:51.747Z</time></trkpt><trkpt lat="38.0505596" lon="-1.2480061"><ele>89.33333333333333</ele><time>2026-03-28T07:38:54.747Z</time></trkpt><trkpt lat="38.0505538" lon="-1.2480977"><ele>89.66666666666667</ele><time>2026-03-28T07:38:56.746Z</time></trkpt><trkpt lat="38.0506329" lon="-1.2480739"><ele>90.0</ele><time>2026-03-28T07:39:00.746Z</time></trkpt><trkpt lat="38.0507276" lon="-1.248058"><ele>90.33333333333333</ele><time>2026-03-28T07:39:03.745Z</time></trkpt><trkpt lat="38.0507924" lon="-1.2480606"><ele>90.66666666666667</ele><time>2026-03-28T07:39:05.745Z</time></trkpt><trkpt lat="38.0508707" lon="-1.2480466"><ele>91.0</ele><time>2026-03-28T07:39:07.745Z</time></trkpt><trkpt lat="38.0509578" lon="-1.2480418"><ele>91.33333333333334</ele><time>2026-03-28T07:39:09.746Z</time></trkpt><trkpt lat="38.0510549" lon="-1.2480262"><ele>91.66666666666667</ele><time>2026-03-28T07:39:11.745Z</time></trkpt><trkpt lat="38.0511551" lon="-1.2480193"><ele>92.0</ele><time>2026-03-28T07:39:13.745Z</time></trkpt><trkpt lat="38.0512478" lon="-1.2480121"><ele>92.0</ele><time>2026-03-28T07:39:15.745Z</time></trkpt><trkpt lat="38.0513345" lon="-1.2480028"><ele>92.0</ele><time>2026-03-28T07:39:17.746Z</time></trkpt><trkpt lat="38.0514216" lon="-1.2480021"><ele>92.0</ele><time>2026-03-28T07:39:19.746Z</time></trkpt><trkpt lat="38.0515204" lon="-1.2479973"><ele>92.0</ele><time>2026-03-28T07:39:21.746Z</time></trkpt><trkpt lat="38.0516218" lon="-1.2479759"><ele>92.0</ele><time>2026-03-28T07:39:23.746Z</time></trkpt><trkpt lat="38.0517116" lon="-1.2479575"><ele>91.8</ele><time>2026-03-28T07:39:25.746Z</time></trkpt><trkpt lat="38.0518029" lon="-1.2479365"><ele>91.6</ele><time>2026-03-28T07:39:27.747Z</time></trkpt><trkpt lat="38.0518957" lon="-1.2479171"><ele>91.39999999999999</ele><time>2026-03-28T07:39:29.746Z</time></trkpt><trkpt lat="38.0520045" lon="-1.2478979"><ele>91.19999999999999</ele><time>2026-03-28T07:39:31.745Z</time></trkpt><trkpt lat="38.0520939" lon="-1.2478863"><ele>91.0</ele><time>2026-03-28T07:39:33.745Z</time></trkpt><trkpt lat="38.0521841" lon="-1.2479166"><ele>91.0</ele><time>2026-03-28T07:39:35.747Z</time></trkpt><trkpt lat="38.0522273" lon="-1.2480308"><ele>91.0</ele><time>2026-03-28T07:39:37.746Z</time></trkpt><trkpt lat="38.0522422" lon="-1.2481384"><ele>91.0</ele><time>2026-03-28T07:39:39.747Z</time></trkpt><trkpt lat="38.0522557" lon="-1.2482271"><ele>91.0</ele><time>2026-03-28T07:39:41.745Z</time></trkpt><trkpt lat="38.0522658" lon="-1.2483099"><ele>91.0</ele><time>2026-03-28T07:39:43.746Z</time></trkpt><trkpt lat="38.0522821" lon="-1.2484184"><ele>91.0</ele><time>2026-03-28T07:39:46.746Z</time></trkpt><trkpt lat="38.052303" lon="-1.2484992"><ele>91.16666666666666</ele><time>2026-03-28T07:39:48.745Z</time></trkpt><trkpt lat="38.0523215" lon="-1.2486017"><ele>91.33333333333333</ele><time>2026-03-28T07:39:50.747Z</time></trkpt><trkpt lat="38.0523382" lon="-1.2486806"><ele>91.5</ele><time>2026-03-28T07:39:52.747Z</time></trkpt><trkpt lat="38.0523671" lon="-1.2488186"><ele>91.66666666666667</ele><time>2026-03-28T07:39:54.746Z</time></trkpt><trkpt lat="38.052388" lon="-1.2489186"><ele>91.83333333333334</ele><time>2026-03-28T07:39:55.745Z</time></trkpt><trkpt lat="38.0524231" lon="-1.2490023"><ele>92.0</ele><time>2026-03-28T07:39:57.745Z</time></trkpt><trkpt lat="38.0524301" lon="-1.2491058"><ele>92.5</ele><time>2026-03-28T07:40:01.746Z</time></trkpt><trkpt lat="38.0524543" lon="-1.2491823"><ele>93.0</ele><time>2026-03-28T07:40:03.746Z</time></trkpt><trkpt lat="38.0524611" lon="-1.2492715"><ele>93.5</ele><time>2026-03-28T07:40:06.746Z</time></trkpt><trkpt lat="38.0524768" lon="-1.2494122"><ele>94.0</ele><time>2026-03-28T07:40:08.746Z</time></trkpt><trkpt lat="38.0524953" lon="-1.2495241"><ele>94.5</ele><time>2026-03-28T07:40:10.747Z</time></trkpt><trkpt lat="38.0525204" lon="-1.2496094"><ele>95.0</ele><time>2026-03-28T07:40:12.745Z</time></trkpt><trkpt lat="38.0525419" lon="-1.2497112"><ele>95.5</ele><time>2026-03-28T07:40:14.746Z</time></trkpt><trkpt lat="38.0525769" lon="-1.249812"><ele>96.0</ele><time>2026-03-28T07:40:16.746Z</time></trkpt><trkpt lat="38.0525938" lon="-1.2499057"><ele>96.5</ele><time>2026-03-28T07:40:18.745Z</time></trkpt><trkpt lat="38.0526186" lon="-1.2499895"><ele>97.0</ele><time>2026-03-28T07:40:20.747Z</time></trkpt><trkpt lat="38.0527029" lon="-1.2500115"><ele>97.49999999999999</ele><time>2026-03-28T07:40:23.745Z</time></trkpt><trkpt lat="38.0527687" lon="-1.2499908"><ele>98.0</ele><time>2026-03-28T07:40:25.746Z</time></trkpt><trkpt lat="38.0528583" lon="-1.2499764"><ele>97.99999999999999</ele><time>2026-03-28T07:40:28.746Z</time></trkpt><trkpt lat="38.0529352" lon="-1.2500037"><ele>98.0</ele><time>2026-03-28T07:40:30.747Z</time></trkpt><trkpt lat="38.0529904" lon="-1.2500821"><ele>98.0</ele><time>2026-03-28T07:40:32.745Z</time></trkpt><trkpt lat="38.053025" lon="-1.2501801"><ele>98.0</ele><time>2026-03-28T07:40:34.745Z</time></trkpt><trkpt lat="38.0530594" lon="-1.2502696"><ele>97.99999999999999</ele><time>2026-03-28T07:40:36.746Z</time></trkpt><trkpt lat="38.053093" lon="-1.2503526"><ele>98.0</ele><time>2026-03-28T07:40:38.746Z</time></trkpt><trkpt lat="38.0531282" lon="-1.2504352"><ele>98.0</ele><time>2026-03-28T07:40:40.747Z</time></trkpt><trkpt lat="38.0531625" lon="-1.2505127"><ele>98.0</ele><time>2026-03-28T07:40:42.747Z</time></trkpt><trkpt lat="38.0531944" lon="-1.2505934"><ele>98.0</ele><time>2026-03-28T07:40:44.747Z</time></trkpt><trkpt lat="38.053224" lon="-1.2506734"><ele>98.0</ele><time>2026-03-28T07:40:46.746Z</time></trkpt><trkpt lat="38.0532543" lon="-1.250748"><ele>98.0</ele><time>2026-03-28T07:40:48.746Z</time></trkpt><trkpt lat="38.0532765" lon="-1.2508294"><ele>98.0</ele><time>2026-03-28T07:40:50.746Z</time></trkpt><trkpt lat="38.0533037" lon="-1.2509156"><ele>98.0</ele><time>2026-03-28T07:40:52.747Z</time></trkpt><trkpt lat="38.0533468" lon="-1.2509891"><ele>98.33333333333333</ele><time>2026-03-28T07:40:54.747Z</time></trkpt><trkpt lat="38.0534073" lon="-1.2510264"><ele>98.66666666666666</ele><time>2026-03-28T07:40:56.747Z</time></trkpt><trkpt lat="38.0534717" lon="-1.2510252"><ele>99.0</ele><time>2026-03-28T07:40:58.747Z</time></trkpt><trkpt lat="38.0535621" lon="-1.2510115"><ele>99.33333333333334</ele><time>2026-03-28T07:41:01.746Z</time></trkpt><trkpt lat="38.0536386" lon="-1.250997"><ele>99.66666666666667</ele><time>2026-03-28T07:41:03.747Z</time></trkpt><trkpt lat="38.0537243" lon="-1.2509876"><ele>100.0</ele><time>2026-03-28T07:41:08.746Z</time></trkpt><trkpt lat="38.0538314" lon="-1.2509666"><ele>100.0</ele><time>2026-03-28T07:41:11.746Z</time></trkpt><trkpt lat="38.0539106" lon="-1.2509441"><ele>100.0</ele><time>2026-03-28T07:41:14.747Z</time></trkpt><trkpt lat="38.0539916" lon="-1.2509581"><ele>100.0</ele><time>2026-03-28T07:41:17.746Z</time></trkpt><trkpt lat="38.0541263" lon="-1.2509529"><ele>100.0</ele><time>2026-03-28T07:41:20.746Z</time></trkpt><trkpt lat="38.0542079" lon="-1.250948"><ele>100.0</ele><time>2026-03-28T07:41:22.747Z</time></trkpt><trkpt lat="38.0542956" lon="-1.250943"><ele>100.00000000000001</ele><time>2026-03-28T07:41:24.747Z</time></trkpt><trkpt lat="38.0543793" lon="-1.2509269"><ele>100.0</ele><time>2026-03-28T07:41:26.747Z</time></trkpt><trkpt lat="38.054467" lon="-1.2509166"><ele>100.0</ele><time>2026-03-28T07:41:28.747Z</time></trkpt><trkpt lat="38.0545603" lon="-1.2509028"><ele>100.0</ele><time>2026-03-28T07:41:30.747Z</time></trkpt><trkpt lat="38.0546438" lon="-1.2508918"><ele>100.00000000000001</ele><time>2026-03-28T07:41:32.746Z</time></trkpt><trkpt lat="38.0547327" lon="-1.2508948"><ele>100.0</ele><time>2026-03-28T07:41:34.747Z</time></trkpt><trkpt lat="38.054831" lon="-1.2508947"><ele>100.00000000000001</ele><time>2026-03-28T07:41:36.748Z</time></trkpt><trkpt lat="38.0549335" lon="-1.2508858"><ele>100.0</ele><time>2026-03-28T07:41:38.746Z</time></trkpt><trkpt lat="38.0550265" lon="-1.2508789"><ele>100.0</ele><time>2026-03-28T07:41:40.748Z</time></trkpt><trkpt lat="38.0551156" lon="-1.2508711"><ele>100.0</ele><time>2026-03-28T07:41:42.745Z</time></trkpt><trkpt lat="38.0551991" lon="-1.2508575"><ele>100.00000000000001</ele><time>2026-03-28T07:41:44.746Z</time></trkpt><trkpt lat="38.0552734" lon="-1.2508852"><ele>100.0</ele><time>2026-03-28T07:41:47.747Z</time></trkpt><trkpt lat="38.0553022" lon="-1.2509667"><ele>100.00000000000001</ele><time>2026-03-28T07:41:51.747Z</time></trkpt><trkpt lat="38.0553131" lon="-1.2510477"><ele>100.0</ele><time>2026-03-28T07:41:58.746Z</time></trkpt><trkpt lat="38.0553125" lon="-1.2511333"><ele>100.0</ele><time>2026-03-28T07:42:38.746Z</time></trkpt><trkpt lat="38.0553033" lon="-1.2512166"><ele>100.0</ele><time>2026-03-28T07:47:03.746Z</time></trkpt><trkpt lat="38.0553048" lon="-1.2513222"><ele>100.0</ele><time>2026-03-28T07:47:06.745Z</time></trkpt><trkpt lat="38.0552982" lon="-1.2514319"><ele>100.00000000000001</ele><time>2026-03-28T07:47:09.745Z</time></trkpt><trkpt lat="38.0552991" lon="-1.2515152"><ele>100.0</ele><time>2026-03-28T07:47:11.746Z</time></trkpt><trkpt lat="38.0553022" lon="-1.2516035"><ele>100.50000000000001</ele><time>2026-03-28T07:47:13.745Z</time></trkpt><trkpt lat="38.0553007" lon="-1.2516916"><ele>101.0</ele><time>2026-03-28T07:47:15.745Z</time></trkpt><trkpt lat="38.0553006" lon="-1.2517835"><ele>101.5</ele><time>2026-03-28T07:47:17.745Z</time></trkpt><trkpt lat="38.0553029" lon="-1.251868"><ele>102.0</ele><time>2026-03-28T07:47:20.746Z</time></trkpt><trkpt lat="38.0553025" lon="-1.2519986"><ele>102.50000000000001</ele><time>2026-03-28T07:47:23.746Z</time></trkpt><trkpt lat="38.055302" lon="-1.2521088"><ele>103.0</ele><time>2026-03-28T07:47:25.746Z</time></trkpt><trkpt lat="38.0553019" lon="-1.2522059"><ele>103.28571428571428</ele><time>2026-03-28T07:47:27.745Z</time></trkpt><trkpt lat="38.0553011" lon="-1.2522968"><ele>103.57142857142857</ele><time>2026-03-28T07:47:29.746Z</time></trkpt><trkpt lat="38.0552985" lon="-1.2523858"><ele>103.85714285714286</ele><time>2026-03-28T07:47:31.745Z</time></trkpt><trkpt lat="38.0553102" lon="-1.2524755"><ele>104.14285714285714</ele><time>2026-03-28T07:47:33.745Z</time></trkpt><trkpt lat="38.0553049" lon="-1.2525559"><ele>104.42857142857143</ele><time>2026-03-28T07:47:35.747Z</time></trkpt><trkpt lat="38.0552915" lon="-1.2526734"><ele>104.71428571428571</ele><time>2026-03-28T07:47:38.746Z</time></trkpt><trkpt lat="38.0552884" lon="-1.2527607"><ele>105.0</ele><time>2026-03-28T07:47:40.746Z</time></trkpt><trkpt lat="38.0552879" lon="-1.2528797"><ele>105.0</ele><time>2026-03-28T07:47:43.746Z</time></trkpt><trkpt lat="38.0552867" lon="-1.2529702"><ele>105.0</ele><time>2026-03-28T07:47:45.746Z</time></trkpt><trkpt lat="38.0552846" lon="-1.2530605"><ele>105.0</ele><time>2026-03-28T07:47:47.746Z</time></trkpt><trkpt lat="38.0552854" lon="-1.2531502"><ele>105.0</ele><time>2026-03-28T07:47:49.746Z</time></trkpt><trkpt lat="38.0552872" lon="-1.2532664"><ele>105.0</ele><time>2026-03-28T07:47:52.745Z</time></trkpt><trkpt lat="38.0552862" lon="-1.2533831"><ele>105.0</ele><time>2026-03-28T07:47:55.745Z</time></trkpt><trkpt lat="38.0552854" lon="-1.2534634"><ele>105.5</ele><time>2026-03-28T07:47:57.746Z</time></trkpt><trkpt lat="38.055281" lon="-1.2535474"><ele>106.0</ele><time>2026-03-28T07:47:59.746Z</time></trkpt><trkpt lat="38.0552781" lon="-1.2536432"><ele>106.5</ele><time>2026-03-28T07:48:01.747Z</time></trkpt><trkpt lat="38.0552743" lon="-1.2537397"><ele>107.0</ele><time>2026-03-28T07:48:03.746Z</time></trkpt><trkpt lat="38.0552746" lon="-1.2538349"><ele>107.5</ele><time>2026-03-28T07:48:05.746Z</time></trkpt><trkpt lat="38.0552793" lon="-1.2539244"><ele>108.0</ele><time>2026-03-28T07:48:07.747Z</time></trkpt><trkpt lat="38.0552777" lon="-1.2540338"><ele>108.33333333333333</ele><time>2026-03-28T07:48:10.745Z</time></trkpt><trkpt lat="38.0552763" lon="-1.2541286"><ele>108.66666666666666</ele><time>2026-03-28T07:48:12.746Z</time></trkpt><trkpt lat="38.0552748" lon="-1.2542266"><ele>109.0</ele><time>2026-03-28T07:48:14.746Z</time></trkpt><trkpt lat="38.0552632" lon="-1.2543188"><ele>109.33333333333333</ele><time>2026-03-28T07:48:16.746Z</time></trkpt><trkpt lat="38.0552569" lon="-1.2544202"><ele>109.66666666666666</ele><time>2026-03-28T07:48:18.746Z</time></trkpt><trkpt lat="38.0552602" lon="-1.2545286"><ele>110.0</ele><time>2026-03-28T07:48:21.746Z</time></trkpt><trkpt lat="38.0552629" lon="-1.2546121"><ele>109.99999999999999</ele><time>2026-03-28T07:48:23.746Z</time></trkpt><trkpt lat="38.0552705" lon="-1.2547249"><ele>110.0</ele><time>2026-03-28T07:48:26.746Z</time></trkpt><trkpt lat="38.0552642" lon="-1.2548682"><ele>110.0</ele><time>2026-03-28T07:48:29.747Z</time></trkpt><trkpt lat="38.055265" lon="-1.2549568"><ele>110.0</ele><time>2026-03-28T07:48:31.746Z</time></trkpt><trkpt lat="38.055256" lon="-1.2550647"><ele>109.99999999999999</ele><time>2026-03-28T07:48:35.747Z</time></trkpt><trkpt lat="38.0552486" lon="-1.2551641"><ele>110.0</ele><time>2026-03-28T07:48:37.746Z</time></trkpt><trkpt lat="38.0551969" lon="-1.2552334"><ele>110.28571428571428</ele><time>2026-03-28T07:48:39.746Z</time></trkpt><trkpt lat="38.0551277" lon="-1.2552609"><ele>110.57142857142857</ele><time>2026-03-28T07:48:41.746Z</time></trkpt><trkpt lat="38.0550642" lon="-1.255299"><ele>110.85714285714286</ele><time>2026-03-28T07:48:43.746Z</time></trkpt><trkpt lat="38.0549994" lon="-1.2553372"><ele>111.14285714285714</ele><time>2026-03-28T07:48:45.745Z</time></trkpt><trkpt lat="38.0549335" lon="-1.2553796"><ele>111.42857142857143</ele><time>2026-03-28T07:48:47.745Z</time></trkpt><trkpt lat="38.0548696" lon="-1.2554303"><ele>111.71428571428571</ele><time>2026-03-28T07:48:49.747Z</time></trkpt><trkpt lat="38.0548052" lon="-1.2554756"><ele>112.0</ele><time>2026-03-28T07:48:51.745Z</time></trkpt><trkpt lat="38.0547431" lon="-1.2555352"><ele>112.0</ele><time>2026-03-28T07:48:53.747Z</time></trkpt><trkpt lat="38.0546925" lon="-1.2556083"><ele>112.0</ele><time>2026-03-28T07:48:55.747Z</time></trkpt><trkpt lat="38.0546428" lon="-1.2556653"><ele>112.0</ele><time>2026-03-28T07:48:57.747Z</time></trkpt><trkpt lat="38.054583" lon="-1.2557039"><ele>112.0</ele><time>2026-03-28T07:48:59.747Z</time></trkpt><trkpt lat="38.0545201" lon="-1.2557552"><ele>112.0</ele><time>2026-03-28T07:49:01.747Z</time></trkpt><trkpt lat="38.0544575" lon="-1.2558185"><ele>112.0</ele><time>2026-03-28T07:49:03.747Z</time></trkpt><trkpt lat="38.05441" lon="-1.2558762"><ele>112.0</ele><time>2026-03-28T07:49:05.747Z</time></trkpt><trkpt lat="38.0543528" lon="-1.255943"><ele>112.00000000000001</ele><time>2026-03-28T07:49:07.746Z</time></trkpt><trkpt lat="38.0543007" lon="-1.2560086"><ele>112.0</ele><time>2026-03-28T07:49:09.746Z</time></trkpt><trkpt lat="38.0542476" lon="-1.2560833"><ele>112.0</ele><time>2026-03-28T07:49:11.746Z</time></trkpt><trkpt lat="38.0541917" lon="-1.2561592"><ele>112.0</ele><time>2026-03-28T07:49:13.746Z</time></trkpt><trkpt lat="38.0541217" lon="-1.2562344"><ele>112.00000000000001</ele><time>2026-03-28T07:49:15.745Z</time></trkpt><trkpt lat="38.0540535" lon="-1.2563177"><ele>112.0</ele><time>2026-03-28T07:49:17.746Z</time></trkpt><trkpt lat="38.0539837" lon="-1.2563922"><ele>112.19999999999999</ele><time>2026-03-28T07:49:19.745Z</time></trkpt><trkpt lat="38.0539176" lon="-1.2564653"><ele>112.39999999999999</ele><time>2026-03-28T07:49:21.746Z</time></trkpt><trkpt lat="38.0538508" lon="-1.2565498"><ele>112.60000000000001</ele><time>2026-03-28T07:49:23.746Z</time></trkpt><trkpt lat="38.0537819" lon="-1.2566252"><ele>112.80000000000001</ele><time>2026-03-28T07:49:25.747Z</time></trkpt><trkpt lat="38.0537125" lon="-1.2567181"><ele>113.0</ele><time>2026-03-28T07:49:27.745Z</time></trkpt><trkpt lat="38.0536391" lon="-1.2568005"><ele>112.99999999999999</ele><time>2026-03-28T07:49:29.747Z</time></trkpt><trkpt lat="38.0535716" lon="-1.2568782"><ele>113.0</ele><time>2026-03-28T07:49:31.745Z</time></trkpt><trkpt lat="38.053522" lon="-1.2569541"><ele>113.0</ele><time>2026-03-28T07:49:33.745Z</time></trkpt><trkpt lat="38.0534715" lon="-1.257013"><ele>113.0</ele><time>2026-03-28T07:49:35.745Z</time></trkpt><trkpt lat="38.0534235" lon="-1.257078"><ele>112.99999999999999</ele><time>2026-03-28T07:49:37.747Z</time></trkpt><trkpt lat="38.0533665" lon="-1.2571384"><ele>113.0</ele><time>2026-03-28T07:49:39.745Z</time></trkpt><trkpt lat="38.0532994" lon="-1.2571991"><ele>112.83333333333333</ele><time>2026-03-28T07:49:41.748Z</time></trkpt><trkpt lat="38.0532353" lon="-1.2572659"><ele>112.66666666666666</ele><time>2026-03-28T07:49:43.746Z</time></trkpt><trkpt lat="38.0531677" lon="-1.2573356"><ele>112.5</ele><time>2026-03-28T07:49:45.746Z</time></trkpt><trkpt lat="38.0530986" lon="-1.2574125"><ele>112.33333333333334</ele><time>2026-03-28T07:49:47.746Z</time></trkpt><trkpt lat="38.0530202" lon="-1.2574899"><ele>112.16666666666667</ele><time>2026-03-28T07:49:49.748Z</time></trkpt><trkpt lat="38.0529545" lon="-1.2575601"><ele>112.0</ele><time>2026-03-28T07:49:51.746Z</time></trkpt><trkpt lat="38.0528881" lon="-1.2576386"><ele>112.00000000000001</ele><time>2026-03-28T07:49:53.745Z</time></trkpt><trkpt lat="38.052818" lon="-1.2577152"><ele>112.0</ele><time>2026-03-28T07:49:55.746Z</time></trkpt><trkpt lat="38.0527457" lon="-1.257771"><ele>112.0</ele><time>2026-03-28T07:49:57.747Z</time></trkpt><trkpt lat="38.0526653" lon="-1.2577583"><ele>112.0</ele><time>2026-03-28T07:49:59.745Z</time></trkpt><trkpt lat="38.0526076" lon="-1.2577022"><ele>112.00000000000001</ele><time>2026-03-28T07:50:01.747Z</time></trkpt><trkpt lat="38.0525448" lon="-1.2576286"><ele>112.0</ele><time>2026-03-28T07:50:03.746Z</time></trkpt><trkpt lat="38.0525027" lon="-1.2575567"><ele>112.00000000000001</ele><time>2026-03-28T07:50:06.747Z</time></trkpt><trkpt lat="38.0524253" lon="-1.2575731"><ele>112.0</ele><time>2026-03-28T07:50:14.745Z</time></trkpt><trkpt lat="38.0524235" lon="-1.2576707"><ele>112.0</ele><time>2026-03-28T07:50:17.747Z</time></trkpt><trkpt lat="38.05245" lon="-1.257763"><ele>112.0</ele><time>2026-03-28T07:50:19.747Z</time></trkpt><trkpt lat="38.0524699" lon="-1.2578777"><ele>112.00000000000001</ele><time>2026-03-28T07:50:21.747Z</time></trkpt><trkpt lat="38.0524866" lon="-1.2579914"><ele>112.0</ele><time>2026-03-28T07:50:23.747Z</time></trkpt><trkpt lat="38.0525101" lon="-1.2581026"><ele>111.83333333333334</ele><time>2026-03-28T07:50:25.747Z</time></trkpt><trkpt lat="38.0525201" lon="-1.2582112"><ele>111.66666666666667</ele><time>2026-03-28T07:50:27.746Z</time></trkpt><trkpt lat="38.0525357" lon="-1.2583147"><ele>111.5</ele><time>2026-03-28T07:50:29.746Z</time></trkpt><trkpt lat="38.0525486" lon="-1.2584179"><ele>111.33333333333334</ele><time>2026-03-28T07:50:31.745Z</time></trkpt><trkpt lat="38.0525569" lon="-1.2585249"><ele>111.16666666666667</ele><time>2026-03-28T07:50:33.746Z</time></trkpt><trkpt lat="38.0525612" lon="-1.2586332"><ele>111.0</ele><time>2026-03-28T07:50:35.746Z</time></trkpt><trkpt lat="38.0525745" lon="-1.2587496"><ele>111.0</ele><time>2026-03-28T07:50:37.746Z</time></trkpt><trkpt lat="38.0525923" lon="-1.2588715"><ele>111.0</ele><time>2026-03-28T07:50:39.746Z</time></trkpt><trkpt lat="38.052613" lon="-1.2589953"><ele>111.0</ele><time>2026-03-28T07:50:41.747Z</time></trkpt><trkpt lat="38.0526266" lon="-1.2591194"><ele>111.0</ele><time>2026-03-28T07:50:43.746Z</time></trkpt><trkpt lat="38.0526365" lon="-1.2592982"><ele>111.0</ele><time>2026-03-28T07:50:46.746Z</time></trkpt><trkpt lat="38.0526445" lon="-1.2594076"><ele>110.85714285714285</ele><time>2026-03-28T07:50:48.748Z</time></trkpt><trkpt lat="38.0526515" lon="-1.2595028"><ele>110.71428571428572</ele><time>2026-03-28T07:50:50.746Z</time></trkpt><trkpt lat="38.052667" lon="-1.2595822"><ele>110.57142857142857</ele><time>2026-03-28T07:50:52.745Z</time></trkpt><trkpt lat="38.0526796" lon="-1.2596942"><ele>110.42857142857142</ele><time>2026-03-28T07:50:55.746Z</time></trkpt><trkpt lat="38.0526857" lon="-1.2597777"><ele>110.28571428571428</ele><time>2026-03-28T07:50:58.745Z</time></trkpt><trkpt lat="38.0526971" lon="-1.2598618"><ele>110.14285714285714</ele><time>2026-03-28T07:51:02.746Z</time></trkpt><trkpt lat="38.0527012" lon="-1.2599711"><ele>110.0</ele><time>2026-03-28T07:51:05.745Z</time></trkpt><trkpt lat="38.052707" lon="-1.2600566"><ele>110.28571428571428</ele><time>2026-03-28T07:51:07.746Z</time></trkpt><trkpt lat="38.0527056" lon="-1.2601413"><ele>110.57142857142857</ele><time>2026-03-28T07:51:09.747Z</time></trkpt><trkpt lat="38.0526792" lon="-1.2602467"><ele>110.85714285714286</ele><time>2026-03-28T07:51:12.746Z</time></trkpt><trkpt lat="38.0526078" lon="-1.2602864"><ele>111.14285714285714</ele><time>2026-03-28T07:51:15.748Z</time></trkpt><trkpt lat="38.0525418" lon="-1.2603073"><ele>111.42857142857143</ele><time>2026-03-28T07:51:18.747Z</time></trkpt><trkpt lat="38.0524654" lon="-1.2602959"><ele>111.71428571428571</ele><time>2026-03-28T07:51:35.746Z</time></trkpt><trkpt lat="38.0523995" lon="-1.2602974"><ele>112.0</ele><time>2026-03-28T07:51:41.746Z</time></trkpt><trkpt lat="38.0523342" lon="-1.2603123"><ele>112.0</ele><time>2026-03-28T07:51:44.746Z</time></trkpt><trkpt lat="38.0522593" lon="-1.2603131"><ele>112.0</ele><time>2026-03-28T07:51:47.746Z</time></trkpt><trkpt lat="38.0521719" lon="-1.2603351"><ele>112.0</ele><time>2026-03-28T07:51:51.745Z</time></trkpt><trkpt lat="38.0521081" lon="-1.2603585"><ele>112.0</ele><time>2026-03-28T07:52:01.747Z</time></trkpt><trkpt lat="38.0520315" lon="-1.2603663"><ele>112.0</ele><time>2026-03-28T07:52:08.746Z</time></trkpt><trkpt lat="38.0519591" lon="-1.2603702"><ele>112.0</ele><time>2026-03-28T07:52:14.746Z</time></trkpt><trkpt lat="38.0518929" lon="-1.2603807"><ele>112.0</ele><time>2026-03-28T07:52:17.745Z</time></trkpt><trkpt lat="38.0518247" lon="-1.260415"><ele>112.0</ele><time>2026-03-28T07:52:20.746Z</time></trkpt><trkpt lat="38.0517436" lon="-1.2604316"><ele>112.0</ele><time>2026-03-28T07:52:23.746Z</time></trkpt><trkpt lat="38.0516798" lon="-1.2604187"><ele>112.0</ele><time>2026-03-28T07:52:25.747Z</time></trkpt><trkpt lat="38.0516163" lon="-1.2603956"><ele>112.0</ele><time>2026-03-28T07:52:27.746Z</time></trkpt><trkpt lat="38.0515456" lon="-1.2603896"><ele>112.0</ele><time>2026-03-28T07:52:29.746Z</time></trkpt><trkpt lat="38.0514976" lon="-1.2603283"><ele>112.0</ele><time>2026-03-28T07:52:52.746Z</time></trkpt><trkpt lat="38.0514477" lon="-1.2602325"><ele>112.0</ele><time>2026-03-28T07:52:56.745Z</time></trkpt><trkpt lat="38.0513722" lon="-1.2602414"><ele>112.16666666666667</ele><time>2026-03-28T07:53:00.745Z</time></trkpt><trkpt lat="38.0513206" lon="-1.2603408"><ele>112.33333333333334</ele><time>2026-03-28T07:53:03.745Z</time></trkpt><trkpt lat="38.0512818" lon="-1.2604137"><ele>112.5</ele><time>2026-03-28T07:53:05.745Z</time></trkpt><trkpt lat="38.0512399" lon="-1.2604866"><ele>112.66666666666666</ele><time>2026-03-28T07:53:07.746Z</time></trkpt><trkpt lat="38.0512093" lon="-1.2606143"><ele>112.83333333333333</ele><time>2026-03-28T07:53:09.746Z</time></trkpt><trkpt lat="38.0511389" lon="-1.2606764"><ele>113.0</ele><time>2026-03-28T07:53:12.746Z</time></trkpt><trkpt lat="38.0510975" lon="-1.2607749"><ele>113.0</ele><time>2026-03-28T07:53:14.746Z</time></trkpt><trkpt lat="38.0510656" lon="-1.2608572"><ele>113.0</ele><time>2026-03-28T07:53:16.745Z</time></trkpt><trkpt lat="38.0510362" lon="-1.2609357"><ele>113.0</ele><time>2026-03-28T07:53:18.745Z</time></trkpt><trkpt lat="38.0510202" lon="-1.2610225"><ele>113.0</ele><time>2026-03-28T07:53:20.746Z</time></trkpt><trkpt lat="38.0510119" lon="-1.2611051"><ele>113.0</ele><time>2026-03-28T07:53:22.746Z</time></trkpt><trkpt lat="38.050999" lon="-1.2611861"><ele>113.0</ele><time>2026-03-28T07:53:24.747Z</time></trkpt><trkpt lat="38.0509899" lon="-1.2612959"><ele>113.0</ele><time>2026-03-28T07:53:27.746Z</time></trkpt><trkpt lat="38.0509931" lon="-1.2614174"><ele>113.33333333333333</ele><time>2026-03-28T07:53:30.747Z</time></trkpt><trkpt lat="38.051012" lon="-1.2615155"><ele>113.66666666666666</ele><time>2026-03-28T07:53:32.745Z</time></trkpt><trkpt lat="38.0510243" lon="-1.2616542"><ele>114.0</ele><time>2026-03-28T07:53:35.745Z</time></trkpt><trkpt lat="38.0510329" lon="-1.2617508"><ele>114.33333333333334</ele><time>2026-03-28T07:53:37.745Z</time></trkpt><trkpt lat="38.0510377" lon="-1.2618423"><ele>114.66666666666667</ele><time>2026-03-28T07:53:39.745Z</time></trkpt><trkpt lat="38.0510453" lon="-1.261945"><ele>115.0</ele><time>2026-03-28T07:53:41.745Z</time></trkpt><trkpt lat="38.0510397" lon="-1.2620443"><ele>115.00000000000001</ele><time>2026-03-28T07:53:43.745Z</time></trkpt><trkpt lat="38.0510244" lon="-1.2621447"><ele>115.0</ele><time>2026-03-28T07:53:45.747Z</time></trkpt><trkpt lat="38.0509988" lon="-1.2622467"><ele>115.0</ele><time>2026-03-28T07:53:47.746Z</time></trkpt><trkpt lat="38.0509501" lon="-1.2623399"><ele>115.0</ele><time>2026-03-28T07:53:49.746Z</time></trkpt><trkpt lat="38.0508862" lon="-1.2624127"><ele>115.00000000000001</ele><time>2026-03-28T07:53:51.746Z</time></trkpt><trkpt lat="38.0508205" lon="-1.26248"><ele>115.0</ele><time>2026-03-28T07:53:53.746Z</time></trkpt><trkpt lat="38.0507563" lon="-1.262556"><ele>114.83333333333334</ele><time>2026-03-28T07:53:55.745Z</time></trkpt><trkpt lat="38.0506935" lon="-1.2626135"><ele>114.66666666666667</ele><time>2026-03-28T07:53:57.747Z</time></trkpt><trkpt lat="38.0506281" lon="-1.2626801"><ele>114.5</ele><time>2026-03-28T07:53:59.746Z</time></trkpt><trkpt lat="38.0505699" lon="-1.2627548"><ele>114.33333333333334</ele><time>2026-03-28T07:54:01.745Z</time></trkpt><trkpt lat="38.0505144" lon="-1.262831"><ele>114.16666666666667</ele><time>2026-03-28T07:54:03.747Z</time></trkpt><trkpt lat="38.0504649" lon="-1.2629163"><ele>114.0</ele><time>2026-03-28T07:54:05.746Z</time></trkpt><trkpt lat="38.050414" lon="-1.2629997"><ele>114.0</ele><time>2026-03-28T07:54:07.747Z</time></trkpt><trkpt lat="38.0503632" lon="-1.2630784"><ele>114.0</ele><time>2026-03-28T07:54:09.746Z</time></trkpt><trkpt lat="38.050304" lon="-1.263151"><ele>114.0</ele><time>2026-03-28T07:54:11.746Z</time></trkpt><trkpt lat="38.0502358" lon="-1.2632223"><ele>114.0</ele><time>2026-03-28T07:54:13.746Z</time></trkpt><trkpt lat="38.050156" lon="-1.2632778"><ele>114.0</ele><time>2026-03-28T07:54:15.747Z</time></trkpt><trkpt lat="38.0500788" lon="-1.2633022"><ele>114.0</ele><time>2026-03-28T07:54:17.747Z</time></trkpt><trkpt lat="38.0499925" lon="-1.2633231"><ele>114.16666666666667</ele><time>2026-03-28T07:54:19.746Z</time></trkpt><trkpt lat="38.0499048" lon="-1.2633303"><ele>114.33333333333334</ele><time>2026-03-28T07:54:21.747Z</time></trkpt><trkpt lat="38.0498261" lon="-1.2633616"><ele>114.5</ele><time>2026-03-28T07:54:23.747Z</time></trkpt><trkpt lat="38.0497759" lon="-1.2634357"><ele>114.66666666666667</ele><time>2026-03-28T07:54:25.745Z</time></trkpt><trkpt lat="38.0497486" lon="-1.2635691"><ele>114.83333333333334</ele><time>2026-03-28T07:54:28.745Z</time></trkpt><trkpt lat="38.0497286" lon="-1.2636595"><ele>115.0</ele><time>2026-03-28T07:54:30.746Z</time></trkpt><trkpt lat="38.0497025" lon="-1.2637539"><ele>115.00000000000001</ele><time>2026-03-28T07:54:32.746Z</time></trkpt><trkpt lat="38.0496708" lon="-1.2638505"><ele>115.0</ele><time>2026-03-28T07:54:34.747Z</time></trkpt><trkpt lat="38.0496498" lon="-1.2639501"><ele>115.0</ele><time>2026-03-28T07:54:36.747Z</time></trkpt><trkpt lat="38.0496243" lon="-1.264054"><ele>115.0</ele><time>2026-03-28T07:54:38.745Z</time></trkpt><trkpt lat="38.0496033" lon="-1.2641481"><ele>115.00000000000001</ele><time>2026-03-28T07:54:40.746Z</time></trkpt><trkpt lat="38.0495711" lon="-1.2642458"><ele>115.0</ele><time>2026-03-28T07:54:42.746Z</time></trkpt><trkpt lat="38.0495357" lon="-1.2643376"><ele>115.42857142857142</ele><time>2026-03-28T07:54:44.748Z</time></trkpt><trkpt lat="38.049512" lon="-1.2644338"><ele>115.85714285714286</ele><time>2026-03-28T07:54:46.746Z</time></trkpt><trkpt lat="38.0494898" lon="-1.2645281"><ele>116.28571428571428</ele><time>2026-03-28T07:54:48.745Z</time></trkpt><trkpt lat="38.049465" lon="-1.2646211"><ele>116.71428571428571</ele><time>2026-03-28T07:54:50.747Z</time></trkpt><trkpt lat="38.049446" lon="-1.2647114"><ele>117.14285714285714</ele><time>2026-03-28T07:54:52.746Z</time></trkpt><trkpt lat="38.0494226" lon="-1.2647956"><ele>117.57142857142857</ele><time>2026-03-28T07:54:54.746Z</time></trkpt><trkpt lat="38.0494029" lon="-1.2648724"><ele>118.0</ele><time>2026-03-28T07:54:56.746Z</time></trkpt><trkpt lat="38.0493772" lon="-1.2649672"><ele>118.50000000000001</ele><time>2026-03-28T07:54:58.747Z</time></trkpt><trkpt lat="38.0493466" lon="-1.2650618"><ele>119.0</ele><time>2026-03-28T07:55:00.745Z</time></trkpt><trkpt lat="38.0493189" lon="-1.2651634"><ele>119.5</ele><time>2026-03-28T07:55:02.745Z</time></trkpt><trkpt lat="38.0492896" lon="-1.2652576"><ele>120.0</ele><time>2026-03-28T07:55:04.746Z</time></trkpt><trkpt lat="38.04927" lon="-1.2653389"><ele>120.50000000000001</ele><time>2026-03-28T07:55:06.745Z</time></trkpt><trkpt lat="38.0492468" lon="-1.2654264"><ele>121.0</ele><time>2026-03-28T07:55:08.745Z</time></trkpt><trkpt lat="38.0492221" lon="-1.2655143"><ele>121.00000000000001</ele><time>2026-03-28T07:55:10.745Z</time></trkpt><trkpt lat="38.049196" lon="-1.2656064"><ele>121.0</ele><time>2026-03-28T07:55:12.745Z</time></trkpt><trkpt lat="38.0491739" lon="-1.2656955"><ele>121.0</ele><time>2026-03-28T07:55:14.745Z</time></trkpt><trkpt lat="38.0491516" lon="-1.2657887"><ele>121.0</ele><time>2026-03-28T07:55:16.746Z</time></trkpt><trkpt lat="38.0491217" lon="-1.2658809"><ele>121.00000000000001</ele><time>2026-03-28T07:55:18.746Z</time></trkpt><trkpt lat="38.0490946" lon="-1.2659752"><ele>121.0</ele><time>2026-03-28T07:55:20.746Z</time></trkpt><trkpt lat="38.0490741" lon="-1.266057"><ele>121.0</ele><time>2026-03-28T07:55:22.745Z</time></trkpt><trkpt lat="38.0490538" lon="-1.2661492"><ele>120.99999999999999</ele><time>2026-03-28T07:55:24.746Z</time></trkpt><trkpt lat="38.0490299" lon="-1.2662326"><ele>121.0</ele><time>2026-03-28T07:55:26.746Z</time></trkpt><trkpt lat="38.049009" lon="-1.2663157"><ele>121.0</ele><time>2026-03-28T07:55:28.745Z</time></trkpt><trkpt lat="38.0489904" lon="-1.2663991"><ele>120.99999999999999</ele><time>2026-03-28T07:55:30.746Z</time></trkpt><trkpt lat="38.0489658" lon="-1.2664781"><ele>121.0</ele><time>2026-03-28T07:55:32.745Z</time></trkpt><trkpt lat="38.0489447" lon="-1.2665611"><ele>121.0</ele><time>2026-03-28T07:55:34.745Z</time></trkpt><trkpt lat="38.0489284" lon="-1.2666542"><ele>121.4</ele><time>2026-03-28T07:55:36.745Z</time></trkpt><trkpt lat="38.0489048" lon="-1.2667505"><ele>121.8</ele><time>2026-03-28T07:55:38.746Z</time></trkpt><trkpt lat="38.0488874" lon="-1.2668423"><ele>122.20000000000002</ele><time>2026-03-28T07:55:40.746Z</time></trkpt><trkpt lat="38.0488715" lon="-1.2669422"><ele>122.60000000000001</ele><time>2026-03-28T07:55:42.745Z</time></trkpt><trkpt lat="38.0488496" lon="-1.267118"><ele>123.0</ele><time>2026-03-28T07:55:44.746Z</time></trkpt><trkpt lat="38.0488385" lon="-1.2672484"><ele>123.2</ele><time>2026-03-28T07:55:46.745Z</time></trkpt><trkpt lat="38.0488356" lon="-1.2673524"><ele>123.4</ele><time>2026-03-28T07:55:48.746Z</time></trkpt><trkpt lat="38.048807" lon="-1.2674883"><ele>123.60000000000001</ele><time>2026-03-28T07:55:51.746Z</time></trkpt><trkpt lat="38.048826" lon="-1.2676237"><ele>123.80000000000001</ele><time>2026-03-28T07:55:53.745Z</time></trkpt><trkpt lat="38.0487993" lon="-1.26772"><ele>124.0</ele><time>2026-03-28T07:55:54.746Z</time></trkpt><trkpt lat="38.0488018" lon="-1.2678301"><ele>124.00000000000001</ele><time>2026-03-28T07:55:56.745Z</time></trkpt><trkpt lat="38.0487974" lon="-1.2679345"><ele>124.0</ele><time>2026-03-28T07:55:58.745Z</time></trkpt><trkpt lat="38.0487847" lon="-1.2680509"><ele>124.0</ele><time>2026-03-28T07:56:00.747Z</time></trkpt><trkpt lat="38.048772" lon="-1.2681613"><ele>124.0</ele><time>2026-03-28T07:56:02.746Z</time></trkpt><trkpt lat="38.0487762" lon="-1.268279"><ele>124.00000000000001</ele><time>2026-03-28T07:56:04.746Z</time></trkpt><trkpt lat="38.0487823" lon="-1.268395"><ele>124.0</ele><time>2026-03-28T07:56:06.746Z</time></trkpt><trkpt lat="38.0487949" lon="-1.2684984"><ele>124.0</ele><time>2026-03-28T07:56:08.746Z</time></trkpt><trkpt lat="38.0488225" lon="-1.2686411"><ele>124.0</ele><time>2026-03-28T07:56:11.746Z</time></trkpt><trkpt lat="38.0488462" lon="-1.2687523"><ele>124.0</ele><time>2026-03-28T07:56:13.746Z</time></trkpt><trkpt lat="38.0488706" lon="-1.2688649"><ele>124.0</ele><time>2026-03-28T07:56:15.748Z</time></trkpt><trkpt lat="38.0488952" lon="-1.2689688"><ele>124.0</ele><time>2026-03-28T07:56:17.747Z</time></trkpt><trkpt lat="38.0489136" lon="-1.269063"><ele>124.00000000000001</ele><time>2026-03-28T07:56:19.746Z</time></trkpt><trkpt lat="38.048919" lon="-1.2691662"><ele>124.0</ele><time>2026-03-28T07:56:21.746Z</time></trkpt><trkpt lat="38.0489017" lon="-1.2692649"><ele>124.0</ele><time>2026-03-28T07:56:23.746Z</time></trkpt><trkpt lat="38.0488754" lon="-1.2693639"><ele>124.0</ele><time>2026-03-28T07:56:25.745Z</time></trkpt><trkpt lat="38.0488485" lon="-1.2694626"><ele>124.00000000000001</ele><time>2026-03-28T07:56:27.745Z</time></trkpt><trkpt lat="38.0488176" lon="-1.2695586"><ele>124.0</ele><time>2026-03-28T07:56:29.745Z</time></trkpt><trkpt lat="38.0487822" lon="-1.2696551"><ele>124.0</ele><time>2026-03-28T07:56:31.746Z</time></trkpt><trkpt lat="38.04875" lon="-1.2697535"><ele>124.0</ele><time>2026-03-28T07:56:33.745Z</time></trkpt><trkpt lat="38.0487224" lon="-1.2698513"><ele>124.0</ele><time>2026-03-28T07:56:35.746Z</time></trkpt><trkpt lat="38.0486888" lon="-1.269948"><ele>124.0</ele><time>2026-03-28T07:56:37.745Z</time></trkpt><trkpt lat="38.048647" lon="-1.2700449"><ele>124.0</ele><time>2026-03-28T07:56:39.747Z</time></trkpt><trkpt lat="38.0485872" lon="-1.2701969"><ele>124.00000000000001</ele><time>2026-03-28T07:56:42.746Z</time></trkpt><trkpt lat="38.0485411" lon="-1.2702921"><ele>124.0</ele><time>2026-03-28T07:56:44.746Z</time></trkpt><trkpt lat="38.0485013" lon="-1.2703901"><ele>124.0</ele><time>2026-03-28T07:56:46.745Z</time></trkpt><trkpt lat="38.0484526" lon="-1.27049"><ele>124.0</ele><time>2026-03-28T07:56:48.746Z</time></trkpt><trkpt lat="38.0484095" lon="-1.2705885"><ele>124.00000000000001</ele><time>2026-03-28T07:56:50.746Z</time></trkpt><trkpt lat="38.0483832" lon="-1.2706895"><ele>124.0</ele><time>2026-03-28T07:56:52.747Z</time></trkpt><trkpt lat="38.0483627" lon="-1.2707991"><ele>124.00000000000001</ele><time>2026-03-28T07:56:54.747Z</time></trkpt><trkpt lat="38.0483327" lon="-1.2709086"><ele>124.0</ele><time>2026-03-28T07:56:56.746Z</time></trkpt><trkpt lat="38.0482995" lon="-1.2710091"><ele>124.0</ele><time>2026-03-28T07:56:58.747Z</time></trkpt><trkpt lat="38.0482823" lon="-1.2711038"><ele>124.0</ele><time>2026-03-28T07:57:00.746Z</time></trkpt><trkpt lat="38.0482997" lon="-1.2711978"><ele>124.00000000000001</ele><time>2026-03-28T07:57:02.746Z</time></trkpt><trkpt lat="38.0483427" lon="-1.2712771"><ele>124.0</ele><time>2026-03-28T07:57:04.745Z</time></trkpt><trkpt lat="38.0483806" lon="-1.2713684"><ele>124.50000000000001</ele><time>2026-03-28T07:57:06.747Z</time></trkpt><trkpt lat="38.0484183" lon="-1.2714589"><ele>125.0</ele><time>2026-03-28T07:57:08.746Z</time></trkpt><trkpt lat="38.0484608" lon="-1.2715571"><ele>125.5</ele><time>2026-03-28T07:57:10.747Z</time></trkpt><trkpt lat="38.0485034" lon="-1.2716511"><ele>126.0</ele><time>2026-03-28T07:57:12.746Z</time></trkpt><trkpt lat="38.0485441" lon="-1.2717537"><ele>126.50000000000001</ele><time>2026-03-28T07:57:14.747Z</time></trkpt><trkpt lat="38.0485939" lon="-1.2718535"><ele>127.0</ele><time>2026-03-28T07:57:16.746Z</time></trkpt><trkpt lat="38.0486444" lon="-1.2719477"><ele>127.0</ele><time>2026-03-28T07:57:18.746Z</time></trkpt><trkpt lat="38.048689" lon="-1.2720426"><ele>126.99999999999999</ele><time>2026-03-28T07:57:20.746Z</time></trkpt><trkpt lat="38.0487374" lon="-1.2721414"><ele>126.99999999999999</ele><time>2026-03-28T07:57:22.747Z</time></trkpt><trkpt lat="38.0487805" lon="-1.2722385"><ele>127.0</ele><time>2026-03-28T07:57:24.745Z</time></trkpt><trkpt lat="38.0488464" lon="-1.2723286"><ele>127.0</ele><time>2026-03-28T07:57:26.745Z</time></trkpt><trkpt lat="38.0489144" lon="-1.2724183"><ele>126.83333333333334</ele><time>2026-03-28T07:57:28.746Z</time></trkpt><trkpt lat="38.0489765" lon="-1.2725076"><ele>126.66666666666667</ele><time>2026-03-28T07:57:30.745Z</time></trkpt><trkpt lat="38.0490354" lon="-1.272595"><ele>126.5</ele><time>2026-03-28T07:57:32.745Z</time></trkpt><trkpt lat="38.0490928" lon="-1.2726821"><ele>126.33333333333334</ele><time>2026-03-28T07:57:34.746Z</time></trkpt><trkpt lat="38.0491453" lon="-1.2727676"><ele>126.16666666666667</ele><time>2026-03-28T07:57:36.746Z</time></trkpt><trkpt lat="38.0491885" lon="-1.2728525"><ele>126.0</ele><time>2026-03-28T07:57:38.745Z</time></trkpt><trkpt lat="38.0492334" lon="-1.2729345"><ele>126.5</ele><time>2026-03-28T07:57:40.746Z</time></trkpt><trkpt lat="38.0492834" lon="-1.2730133"><ele>127.0</ele><time>2026-03-28T07:57:42.746Z</time></trkpt><trkpt lat="38.049341" lon="-1.2730873"><ele>127.5</ele><time>2026-03-28T07:57:44.746Z</time></trkpt><trkpt lat="38.0493957" lon="-1.2731596"><ele>128.0</ele><time>2026-03-28T07:57:46.746Z</time></trkpt><trkpt lat="38.0494482" lon="-1.2732312"><ele>128.5</ele><time>2026-03-28T07:57:48.746Z</time></trkpt><trkpt lat="38.0495" lon="-1.2733106"><ele>129.0</ele><time>2026-03-28T07:57:50.746Z</time></trkpt><trkpt lat="38.0495465" lon="-1.2733908"><ele>129.14285714285714</ele><time>2026-03-28T07:57:52.747Z</time></trkpt><trkpt lat="38.0495979" lon="-1.2734688"><ele>129.28571428571428</ele><time>2026-03-28T07:57:54.746Z</time></trkpt><trkpt lat="38.0496494" lon="-1.2735439"><ele>129.42857142857144</ele><time>2026-03-28T07:57:56.746Z</time></trkpt><trkpt lat="38.0497045" lon="-1.2735996"><ele>129.57142857142856</ele><time>2026-03-28T07:57:58.745Z</time></trkpt><trkpt lat="38.049756" lon="-1.273658"><ele>129.71428571428572</ele><time>2026-03-28T07:58:00.745Z</time></trkpt><trkpt lat="38.0497945" lon="-1.2737327"><ele>129.85714285714286</ele><time>2026-03-28T07:58:02.745Z</time></trkpt><trkpt lat="38.0498349" lon="-1.2738052"><ele>130.0</ele><time>2026-03-28T07:58:04.746Z</time></trkpt><trkpt lat="38.0498764" lon="-1.2738807"><ele>130.0</ele><time>2026-03-28T07:58:06.746Z</time></trkpt><trkpt lat="38.0499277" lon="-1.2739586"><ele>130.0</ele><time>2026-03-28T07:58:08.745Z</time></trkpt><trkpt lat="38.0499896" lon="-1.2740742"><ele>130.0</ele><time>2026-03-28T07:58:10.746Z</time></trkpt><trkpt lat="38.050054" lon="-1.2741755"><ele>130.0</ele><time>2026-03-28T07:58:12.746Z</time></trkpt><trkpt lat="38.0501064" lon="-1.2742765"><ele>130.0</ele><time>2026-03-28T07:58:14.746Z</time></trkpt><trkpt lat="38.0501508" lon="-1.2743533"><ele>130.42857142857144</ele><time>2026-03-28T07:58:16.746Z</time></trkpt><trkpt lat="38.0502003" lon="-1.2744232"><ele>130.85714285714286</ele><time>2026-03-28T07:58:18.746Z</time></trkpt><trkpt lat="38.0502419" lon="-1.27449"><ele>131.28571428571428</ele><time>2026-03-28T07:58:20.746Z</time></trkpt><trkpt lat="38.0502812" lon="-1.2745542"><ele>131.71428571428572</ele><time>2026-03-28T07:58:22.746Z</time></trkpt><trkpt lat="38.05034" lon="-1.2746473"><ele>132.14285714285714</ele><time>2026-03-28T07:58:25.746Z</time></trkpt><trkpt lat="38.0503859" lon="-1.2747086"><ele>132.57142857142858</ele><time>2026-03-28T07:58:27.745Z</time></trkpt><trkpt lat="38.0504317" lon="-1.2747729"><ele>133.0</ele><time>2026-03-28T07:58:29.745Z</time></trkpt><trkpt lat="38.0504706" lon="-1.2748421"><ele>133.14285714285714</ele><time>2026-03-28T07:58:31.746Z</time></trkpt><trkpt lat="38.0505094" lon="-1.2749088"><ele>133.28571428571428</ele><time>2026-03-28T07:58:33.747Z</time></trkpt><trkpt lat="38.0505683" lon="-1.2750018"><ele>133.42857142857144</ele><time>2026-03-28T07:58:36.746Z</time></trkpt><trkpt lat="38.0506083" lon="-1.2750668"><ele>133.57142857142856</ele><time>2026-03-28T07:58:38.747Z</time></trkpt><trkpt lat="38.0506487" lon="-1.2751313"><ele>133.71428571428572</ele><time>2026-03-28T07:58:40.745Z</time></trkpt><trkpt lat="38.0506996" lon="-1.2751822"><ele>133.85714285714286</ele><time>2026-03-28T07:58:42.745Z</time></trkpt><trkpt lat="38.0507424" lon="-1.2752457"><ele>134.0</ele><time>2026-03-28T07:58:44.745Z</time></trkpt><trkpt lat="38.0507873" lon="-1.2753248"><ele>134.71428571428572</ele><time>2026-03-28T07:58:46.745Z</time></trkpt><trkpt lat="38.0508373" lon="-1.2753998"><ele>135.42857142857142</ele><time>2026-03-28T07:58:48.746Z</time></trkpt><trkpt lat="38.0508738" lon="-1.2754662"><ele>136.14285714285714</ele><time>2026-03-28T07:58:49.746Z</time></trkpt><trkpt lat="38.0509331" lon="-1.2755544"><ele>136.85714285714286</ele><time>2026-03-28T07:58:51.745Z</time></trkpt><trkpt lat="38.0509904" lon="-1.2756146"><ele>137.57142857142858</ele><time>2026-03-28T07:58:53.746Z</time></trkpt><trkpt lat="38.0510368" lon="-1.2756778"><ele>138.28571428571428</ele><time>2026-03-28T07:58:55.746Z</time></trkpt><trkpt lat="38.0510759" lon="-1.2757485"><ele>139.0</ele><time>2026-03-28T07:58:57.745Z</time></trkpt><trkpt lat="38.0511041" lon="-1.2758204"><ele>139.66666666666669</ele><time>2026-03-28T07:58:58.746Z</time></trkpt><trkpt lat="38.0511531" lon="-1.2759208"><ele>140.33333333333334</ele><time>2026-03-28T07:59:00.746Z</time></trkpt><trkpt lat="38.0512029" lon="-1.2760007"><ele>141.0</ele><time>2026-03-28T07:59:02.746Z</time></trkpt><trkpt lat="38.0512527" lon="-1.2760853"><ele>141.66666666666666</ele><time>2026-03-28T07:59:04.746Z</time></trkpt><trkpt lat="38.0513145" lon="-1.2761901"><ele>142.33333333333331</ele><time>2026-03-28T07:59:06.746Z</time></trkpt><trkpt lat="38.0513612" lon="-1.2762764"><ele>143.0</ele><time>2026-03-28T07:59:08.746Z</time></trkpt><trkpt lat="38.051416" lon="-1.2763535"><ele>142.99999999999997</ele><time>2026-03-28T07:59:10.745Z</time></trkpt><trkpt lat="38.0514502" lon="-1.2764243"><ele>143.0</ele><time>2026-03-28T07:59:12.747Z</time></trkpt><trkpt lat="38.0514827" lon="-1.2764931"><ele>143.0</ele><time>2026-03-28T07:59:14.745Z</time></trkpt><trkpt lat="38.0515305" lon="-1.2765615"><ele>143.0</ele><time>2026-03-28T07:59:16.745Z</time></trkpt><trkpt lat="38.051573" lon="-1.2766301"><ele>143.0</ele><time>2026-03-28T07:59:18.746Z</time></trkpt><trkpt lat="38.0516187" lon="-1.2766889"><ele>142.99999999999997</ele><time>2026-03-28T07:59:20.747Z</time></trkpt><trkpt lat="38.0516652" lon="-1.276748"><ele>143.0</ele><time>2026-03-28T07:59:22.745Z</time></trkpt><trkpt lat="38.0517047" lon="-1.2768143"><ele>143.0</ele><time>2026-03-28T07:59:24.745Z</time></trkpt><trkpt lat="38.0517459" lon="-1.2768842"><ele>143.0</ele><time>2026-03-28T07:59:26.746Z</time></trkpt><trkpt lat="38.0517764" lon="-1.2769844"><ele>143.0</ele><time>2026-03-28T07:59:29.746Z</time></trkpt><trkpt lat="38.0518446" lon="-1.2770533"><ele>143.0</ele><time>2026-03-28T07:59:31.746Z</time></trkpt><trkpt lat="38.0519007" lon="-1.2771191"><ele>143.0</ele><time>2026-03-28T07:59:33.747Z</time></trkpt><trkpt lat="38.051949" lon="-1.2772026"><ele>143.0</ele><time>2026-03-28T07:59:35.746Z</time></trkpt><trkpt lat="38.0519848" lon="-1.2772766"><ele>143.14285714285714</ele><time>2026-03-28T07:59:37.745Z</time></trkpt><trkpt lat="38.0520202" lon="-1.2773455"><ele>143.28571428571428</ele><time>2026-03-28T07:59:39.747Z</time></trkpt><trkpt lat="38.052062" lon="-1.2774332"><ele>143.42857142857144</ele><time>2026-03-28T07:59:41.746Z</time></trkpt><trkpt lat="38.0520961" lon="-1.2775137"><ele>143.57142857142856</ele><time>2026-03-28T07:59:43.747Z</time></trkpt><trkpt lat="38.0521311" lon="-1.2775886"><ele>143.71428571428572</ele><time>2026-03-28T07:59:45.746Z</time></trkpt><trkpt lat="38.0521602" lon="-1.2776605"><ele>143.85714285714286</ele><time>2026-03-28T07:59:47.747Z</time></trkpt><trkpt lat="38.0521899" lon="-1.2777344"><ele>144.0</ele><time>2026-03-28T07:59:49.746Z</time></trkpt><trkpt lat="38.0522307" lon="-1.2778318"><ele>144.00000000000003</ele><time>2026-03-28T07:59:52.745Z</time></trkpt><trkpt lat="38.0522638" lon="-1.27791"><ele>144.0</ele><time>2026-03-28T07:59:54.746Z</time></trkpt><trkpt lat="38.0522948" lon="-1.2780034"><ele>144.0</ele><time>2026-03-28T07:59:56.745Z</time></trkpt><trkpt lat="38.0523215" lon="-1.2780811"><ele>144.0</ele><time>2026-03-28T07:59:58.747Z</time></trkpt><trkpt lat="38.0523532" lon="-1.2781618"><ele>144.0</ele><time>2026-03-28T08:00:00.746Z</time></trkpt><trkpt lat="38.0523906" lon="-1.2782508"><ele>144.00000000000003</ele><time>2026-03-28T08:00:02.747Z</time></trkpt><trkpt lat="38.0524179" lon="-1.2783381"><ele>144.0</ele><time>2026-03-28T08:00:04.747Z</time></trkpt><trkpt lat="38.0524611" lon="-1.2784838"><ele>142.83333333333334</ele><time>2026-03-28T08:00:07.746Z</time></trkpt><trkpt lat="38.0524817" lon="-1.2785784"><ele>141.66666666666666</ele><time>2026-03-28T08:00:09.747Z</time></trkpt><trkpt lat="38.0524954" lon="-1.2786714"><ele>140.5</ele><time>2026-03-28T08:00:11.746Z</time></trkpt><trkpt lat="38.0525193" lon="-1.2787664"><ele>139.33333333333331</ele><time>2026-03-28T08:00:13.748Z</time></trkpt><trkpt lat="38.0525446" lon="-1.2788487"><ele>138.16666666666666</ele><time>2026-03-28T08:00:15.746Z</time></trkpt><trkpt lat="38.052564" lon="-1.2789427"><ele>137.0</ele><time>2026-03-28T08:00:17.746Z</time></trkpt><trkpt lat="38.0525787" lon="-1.2790529"><ele>137.0</ele><time>2026-03-28T08:00:19.747Z</time></trkpt><trkpt lat="38.0525888" lon="-1.2791594"><ele>137.0</ele><time>2026-03-28T08:00:21.746Z</time></trkpt><trkpt lat="38.0526038" lon="-1.2792775"><ele>137.0</ele><time>2026-03-28T08:00:23.747Z</time></trkpt><trkpt lat="38.0526173" lon="-1.2793758"><ele>137.0</ele><time>2026-03-28T08:00:25.746Z</time></trkpt><trkpt lat="38.0526251" lon="-1.2794739"><ele>137.0</ele><time>2026-03-28T08:00:27.746Z</time></trkpt><trkpt lat="38.0526343" lon="-1.2795678"><ele>137.0</ele><time>2026-03-28T08:00:29.748Z</time></trkpt><trkpt lat="38.0526383" lon="-1.2796605"><ele>137.0</ele><time>2026-03-28T08:00:31.746Z</time></trkpt><trkpt lat="38.0526396" lon="-1.2797495"><ele>137.0</ele><time>2026-03-28T08:00:33.746Z</time></trkpt><trkpt lat="38.0526407" lon="-1.2798427"><ele>137.0</ele><time>2026-03-28T08:00:35.748Z</time></trkpt><trkpt lat="38.0526418" lon="-1.2799408"><ele>137.0</ele><time>2026-03-28T08:00:37.747Z</time></trkpt><trkpt lat="38.05264" lon="-1.2800492"><ele>137.0</ele><time>2026-03-28T08:00:39.747Z</time></trkpt><trkpt lat="38.0526495" lon="-1.2801605"><ele>137.0</ele><time>2026-03-28T08:00:41.748Z</time></trkpt><trkpt lat="38.0526449" lon="-1.2802669"><ele>137.0</ele><time>2026-03-28T08:00:43.747Z</time></trkpt><trkpt lat="38.0526296" lon="-1.2803635"><ele>137.0</ele><time>2026-03-28T08:00:45.748Z</time></trkpt><trkpt lat="38.0526199" lon="-1.2804608"><ele>137.0</ele><time>2026-03-28T08:00:47.748Z</time></trkpt><trkpt lat="38.0526119" lon="-1.2805653"><ele>137.0</ele><time>2026-03-28T08:00:49.747Z</time></trkpt><trkpt lat="38.0526103" lon="-1.2806706"><ele>137.0</ele><time>2026-03-28T08:00:51.747Z</time></trkpt><trkpt lat="38.0526096" lon="-1.280775"><ele>137.0</ele><time>2026-03-28T08:00:53.747Z</time></trkpt><trkpt lat="38.0526025" lon="-1.280875"><ele>137.83333333333331</ele><time>2026-03-28T08:00:55.746Z</time></trkpt><trkpt lat="38.0525937" lon="-1.2809698"><ele>138.66666666666666</ele><time>2026-03-28T08:00:57.748Z</time></trkpt><trkpt lat="38.0525888" lon="-1.281054"><ele>139.5</ele><time>2026-03-28T08:00:59.747Z</time></trkpt><trkpt lat="38.0525815" lon="-1.2811406"><ele>140.33333333333334</ele><time>2026-03-28T08:01:01.747Z</time></trkpt><trkpt lat="38.0525692" lon="-1.281311"><ele>141.16666666666669</ele><time>2026-03-28T08:01:04.747Z</time></trkpt><trkpt lat="38.05256" lon="-1.2814145"><ele>142.0</ele><time>2026-03-28T08:01:06.746Z</time></trkpt><trkpt lat="38.052558" lon="-1.2815178"><ele>142.33333333333334</ele><time>2026-03-28T08:01:08.746Z</time></trkpt><trkpt lat="38.0525515" lon="-1.2816247"><ele>142.66666666666669</ele><time>2026-03-28T08:01:10.746Z</time></trkpt><trkpt lat="38.0525453" lon="-1.281733"><ele>143.0</ele><time>2026-03-28T08:01:12.746Z</time></trkpt><trkpt lat="38.0525395" lon="-1.2818418"><ele>143.33333333333334</ele><time>2026-03-28T08:01:14.747Z</time></trkpt><trkpt lat="38.0525309" lon="-1.2819407"><ele>143.66666666666666</ele><time>2026-03-28T08:01:16.747Z</time></trkpt><trkpt lat="38.0525264" lon="-1.2820395"><ele>144.0</ele><time>2026-03-28T08:01:18.748Z</time></trkpt><trkpt lat="38.0525215" lon="-1.2821313"><ele>144.0</ele><time>2026-03-28T08:01:20.746Z</time></trkpt><trkpt lat="38.0525054" lon="-1.2822169"><ele>144.0</ele><time>2026-03-28T08:01:22.747Z</time></trkpt><trkpt lat="38.0525029" lon="-1.2823251"><ele>144.0</ele><time>2026-03-28T08:01:24.747Z</time></trkpt><trkpt lat="38.052501" lon="-1.2824313"><ele>144.0</ele><time>2026-03-28T08:01:26.747Z</time></trkpt><trkpt lat="38.052496" lon="-1.2825283"><ele>144.0</ele><time>2026-03-28T08:01:28.747Z</time></trkpt><trkpt lat="38.0524897" lon="-1.2826308"><ele>144.0</ele><time>2026-03-28T08:01:30.747Z</time></trkpt><trkpt lat="38.0524878" lon="-1.2827314"><ele>143.71428571428572</ele><time>2026-03-28T08:01:32.747Z</time></trkpt><trkpt lat="38.0524862" lon="-1.2828408"><ele>143.42857142857144</ele><time>2026-03-28T08:01:34.748Z</time></trkpt><trkpt lat="38.0524826" lon="-1.2829264"><ele>143.14285714285714</ele><time>2026-03-28T08:01:36.747Z</time></trkpt><trkpt lat="38.052478" lon="-1.2830177"><ele>142.85714285714286</ele><time>2026-03-28T08:01:38.747Z</time></trkpt><trkpt lat="38.0524731" lon="-1.2831036"><ele>142.57142857142856</ele><time>2026-03-28T08:01:40.748Z</time></trkpt><trkpt lat="38.0524656" lon="-1.283188"><ele>142.28571428571428</ele><time>2026-03-28T08:01:42.747Z</time></trkpt><trkpt lat="38.0524562" lon="-1.2832849"><ele>142.0</ele><time>2026-03-28T08:01:44.747Z</time></trkpt><trkpt lat="38.052443" lon="-1.2833929"><ele>143.33333333333334</ele><time>2026-03-28T08:01:46.747Z</time></trkpt><trkpt lat="38.0524433" lon="-1.2835101"><ele>144.66666666666669</ele><time>2026-03-28T08:01:50.746Z</time></trkpt><trkpt lat="38.0524374" lon="-1.2835937"><ele>146.0</ele><time>2026-03-28T08:01:52.747Z</time></trkpt><trkpt lat="38.0524309" lon="-1.2836792"><ele>147.33333333333334</ele><time>2026-03-28T08:01:54.747Z</time></trkpt><trkpt lat="38.0524242" lon="-1.2837925"><ele>148.66666666666666</ele><time>2026-03-28T08:01:57.748Z</time></trkpt><trkpt lat="38.0524152" lon="-1.2838894"><ele>150.0</ele><time>2026-03-28T08:01:59.746Z</time></trkpt><trkpt lat="38.0524178" lon="-1.2839881"><ele>150.16666666666666</ele><time>2026-03-28T08:02:01.747Z</time></trkpt><trkpt lat="38.052419" lon="-1.2840814"><ele>150.33333333333334</ele><time>2026-03-28T08:02:03.747Z</time></trkpt><trkpt lat="38.052407" lon="-1.2841706"><ele>150.5</ele><time>2026-03-28T08:02:05.747Z</time></trkpt><trkpt lat="38.0523867" lon="-1.2843131"><ele>150.66666666666669</ele><time>2026-03-28T08:02:08.747Z</time></trkpt><trkpt lat="38.0523736" lon="-1.2844292"><ele>150.83333333333334</ele><time>2026-03-28T08:02:11.747Z</time></trkpt><trkpt lat="38.0523773" lon="-1.28452"><ele>151.0</ele><time>2026-03-28T08:02:13.747Z</time></trkpt><trkpt lat="38.052385" lon="-1.2846051"><ele>151.0</ele><time>2026-03-28T08:02:15.748Z</time></trkpt><trkpt lat="38.0523929" lon="-1.2846895"><ele>151.0</ele><time>2026-03-28T08:02:17.747Z</time></trkpt><trkpt lat="38.0523988" lon="-1.2847796"><ele>151.0</ele><time>2026-03-28T08:02:19.746Z</time></trkpt><trkpt lat="38.0524187" lon="-1.2848815"><ele>151.0</ele><time>2026-03-28T08:02:21.746Z</time></trkpt><trkpt lat="38.0524391" lon="-1.2850014"><ele>151.0</ele><time>2026-03-28T08:02:23.746Z</time></trkpt><trkpt lat="38.0524601" lon="-1.2851388"><ele>151.0</ele><time>2026-03-28T08:02:25.747Z</time></trkpt><trkpt lat="38.0524913" lon="-1.2852893"><ele>149.5</ele><time>2026-03-28T08:02:27.748Z</time></trkpt><trkpt lat="38.0524816" lon="-1.2853951"><ele>148.0</ele><time>2026-03-28T08:02:28.747Z</time></trkpt><trkpt lat="38.0524717" lon="-1.2854942"><ele>146.5</ele><time>2026-03-28T08:02:29.747Z</time></trkpt><trkpt lat="38.0524711" lon="-1.2855955"><ele>145.0</ele><time>2026-03-28T08:02:30.746Z</time></trkpt><trkpt lat="38.0524666" lon="-1.2857021"><ele>143.5</ele><time>2026-03-28T08:02:31.747Z</time></trkpt><trkpt lat="38.0524713" lon="-1.2858076"><ele>142.0</ele><time>2026-03-28T08:02:32.747Z</time></trkpt><trkpt lat="38.0524693" lon="-1.2859116"><ele>141.83333333333334</ele><time>2026-03-28T08:02:33.746Z</time></trkpt><trkpt lat="38.0524686" lon="-1.2860116"><ele>141.66666666666669</ele><time>2026-03-28T08:02:34.747Z</time></trkpt><trkpt lat="38.0524693" lon="-1.2861129"><ele>141.5</ele><time>2026-03-28T08:02:35.747Z</time></trkpt><trkpt lat="38.0524668" lon="-1.2862059"><ele>141.33333333333334</ele><time>2026-03-28T08:02:36.747Z</time></trkpt><trkpt lat="38.0524559" lon="-1.2862848"><ele>141.16666666666666</ele><time>2026-03-28T08:02:37.748Z</time></trkpt><trkpt lat="38.0524599" lon="-1.2864027"><ele>141.0</ele><time>2026-03-28T08:02:39.747Z</time></trkpt><trkpt lat="38.0524559" lon="-1.2865168"><ele>141.33333333333334</ele><time>2026-03-28T08:02:41.745Z</time></trkpt><trkpt lat="38.0524522" lon="-1.2866125"><ele>141.66666666666666</ele><time>2026-03-28T08:02:43.746Z</time></trkpt><trkpt lat="38.0524459" lon="-1.2867062"><ele>142.0</ele><time>2026-03-28T08:02:45.748Z</time></trkpt><trkpt lat="38.052445" lon="-1.2868161"><ele>142.33333333333331</ele><time>2026-03-28T08:02:48.747Z</time></trkpt><trkpt lat="38.0524547" lon="-1.2869338"><ele>142.66666666666666</ele><time>2026-03-28T08:02:51.748Z</time></trkpt><trkpt lat="38.0524618" lon="-1.2870464"><ele>143.0</ele><time>2026-03-28T08:02:54.747Z</time></trkpt><trkpt lat="38.0524682" lon="-1.2871511"><ele>143.42857142857142</ele><time>2026-03-28T08:02:57.746Z</time></trkpt><trkpt lat="38.0524584" lon="-1.2872621"><ele>143.85714285714286</ele><time>2026-03-28T08:03:00.747Z</time></trkpt><trkpt lat="38.0524699" lon="-1.287366"><ele>144.28571428571428</ele><time>2026-03-28T08:03:03.746Z</time></trkpt><trkpt lat="38.0524961" lon="-1.2874425"><ele>144.71428571428572</ele><time>2026-03-28T08:03:05.747Z</time></trkpt><trkpt lat="38.052529" lon="-1.2875193"><ele>145.14285714285714</ele><time>2026-03-28T08:03:07.746Z</time></trkpt><trkpt lat="38.0525606" lon="-1.287595"><ele>145.57142857142856</ele><time>2026-03-28T08:03:09.746Z</time></trkpt><trkpt lat="38.0525997" lon="-1.2876695"><ele>146.0</ele><time>2026-03-28T08:03:11.746Z</time></trkpt><trkpt lat="38.0526391" lon="-1.2877423"><ele>146.0</ele><time>2026-03-28T08:03:13.747Z</time></trkpt><trkpt lat="38.052671" lon="-1.2878143"><ele>146.0</ele><time>2026-03-28T08:03:15.745Z</time></trkpt><trkpt lat="38.0527097" lon="-1.2879069"><ele>146.0</ele><time>2026-03-28T08:03:17.745Z</time></trkpt><trkpt lat="38.052747" lon="-1.2879886"><ele>146.0</ele><time>2026-03-28T08:03:19.745Z</time></trkpt><trkpt lat="38.052785" lon="-1.2880699"><ele>146.0</ele><time>2026-03-28T08:03:21.745Z</time></trkpt><trkpt lat="38.0528325" lon="-1.2881357"><ele>146.0</ele><time>2026-03-28T08:03:23.746Z</time></trkpt><trkpt lat="38.0528932" lon="-1.288192"><ele>146.0</ele><time>2026-03-28T08:03:25.746Z</time></trkpt><trkpt lat="38.0529412" lon="-1.2882617"><ele>147.14285714285714</ele><time>2026-03-28T08:03:27.746Z</time></trkpt><trkpt lat="38.0529834" lon="-1.2883329"><ele>148.28571428571428</ele><time>2026-03-28T08:03:29.745Z</time></trkpt><trkpt lat="38.0530276" lon="-1.288411"><ele>149.42857142857144</ele><time>2026-03-28T08:03:31.746Z</time></trkpt><trkpt lat="38.0530708" lon="-1.2884869"><ele>150.57142857142856</ele><time>2026-03-28T08:03:33.747Z</time></trkpt><trkpt lat="38.0531121" lon="-1.2885654"><ele>151.71428571428572</ele><time>2026-03-28T08:03:35.747Z</time></trkpt><trkpt lat="38.0531492" lon="-1.2886471"><ele>152.85714285714286</ele><time>2026-03-28T08:03:37.746Z</time></trkpt><trkpt lat="38.0531921" lon="-1.2887213"><ele>154.0</ele><time>2026-03-28T08:03:39.746Z</time></trkpt><trkpt lat="38.0532594" lon="-1.288812"><ele>153.42857142857142</ele><time>2026-03-28T08:03:41.746Z</time></trkpt><trkpt lat="38.0533013" lon="-1.2888804"><ele>152.85714285714286</ele><time>2026-03-28T08:03:43.747Z</time></trkpt><trkpt lat="38.0533446" lon="-1.2889509"><ele>152.28571428571428</ele><time>2026-03-28T08:03:45.746Z</time></trkpt><trkpt lat="38.0533883" lon="-1.2890269"><ele>151.71428571428572</ele><time>2026-03-28T08:03:47.746Z</time></trkpt><trkpt lat="38.0534341" lon="-1.2890948"><ele>151.14285714285714</ele><time>2026-03-28T08:03:49.746Z</time></trkpt><trkpt lat="38.0534866" lon="-1.2891672"><ele>150.57142857142856</ele><time>2026-03-28T08:03:51.745Z</time></trkpt><trkpt lat="38.0535291" lon="-1.289245"><ele>150.0</ele><time>2026-03-28T08:03:53.747Z</time></trkpt><trkpt lat="38.0535826" lon="-1.2893255"><ele>150.0</ele><time>2026-03-28T08:03:55.745Z</time></trkpt><trkpt lat="38.0536467" lon="-1.2894125"><ele>150.0</ele><time>2026-03-28T08:03:57.745Z</time></trkpt><trkpt lat="38.0537124" lon="-1.2895039"><ele>150.0</ele><time>2026-03-28T08:03:59.745Z</time></trkpt><trkpt lat="38.0537761" lon="-1.2895908"><ele>150.0</ele><time>2026-03-28T08:04:01.746Z</time></trkpt><trkpt lat="38.0538352" lon="-1.2896714"><ele>150.0</ele><time>2026-03-28T08:04:03.746Z</time></trkpt><trkpt lat="38.0538928" lon="-1.2897612"><ele>149.16666666666666</ele><time>2026-03-28T08:04:05.746Z</time></trkpt><trkpt lat="38.0539617" lon="-1.289817"><ele>148.33333333333334</ele><time>2026-03-28T08:04:07.746Z</time></trkpt><trkpt lat="38.0540146" lon="-1.2899254"><ele>147.5</ele><time>2026-03-28T08:04:09.747Z</time></trkpt><trkpt lat="38.054067" lon="-1.2900092"><ele>146.66666666666669</ele><time>2026-03-28T08:04:11.745Z</time></trkpt><trkpt lat="38.0541276" lon="-1.2900938"><ele>145.83333333333334</ele><time>2026-03-28T08:04:13.746Z</time></trkpt><trkpt lat="38.0541895" lon="-1.2901789"><ele>145.0</ele><time>2026-03-28T08:04:15.747Z</time></trkpt><trkpt lat="38.0542478" lon="-1.2902656"><ele>145.0</ele><time>2026-03-28T08:04:17.748Z</time></trkpt><trkpt lat="38.0543077" lon="-1.2903507"><ele>145.0</ele><time>2026-03-28T08:04:19.747Z</time></trkpt><trkpt lat="38.0543684" lon="-1.2904339"><ele>145.0</ele><time>2026-03-28T08:04:21.747Z</time></trkpt><trkpt lat="38.0544274" lon="-1.29052"><ele>145.0</ele><time>2026-03-28T08:04:23.747Z</time></trkpt><trkpt lat="38.054484" lon="-1.2906073"><ele>145.0</ele><time>2026-03-28T08:04:25.746Z</time></trkpt><trkpt lat="38.0545332" lon="-1.2906964"><ele>145.0</ele><time>2026-03-28T08:04:27.747Z</time></trkpt><trkpt lat="38.0545876" lon="-1.2907878"><ele>145.5</ele><time>2026-03-28T08:04:29.747Z</time></trkpt><trkpt lat="38.0546355" lon="-1.2908839"><ele>146.0</ele><time>2026-03-28T08:04:31.746Z</time></trkpt><trkpt lat="38.0546795" lon="-1.2909817"><ele>146.5</ele><time>2026-03-28T08:04:33.746Z</time></trkpt><trkpt lat="38.0547227" lon="-1.2910784"><ele>147.0</ele><time>2026-03-28T08:04:35.746Z</time></trkpt><trkpt lat="38.0547615" lon="-1.291177"><ele>147.5</ele><time>2026-03-28T08:04:37.746Z</time></trkpt><trkpt lat="38.0548009" lon="-1.2912789"><ele>148.0</ele><time>2026-03-28T08:04:39.747Z</time></trkpt><trkpt lat="38.0548418" lon="-1.2913802"><ele>148.0</ele><time>2026-03-28T08:04:41.747Z</time></trkpt><trkpt lat="38.0548821" lon="-1.2914839"><ele>148.0</ele><time>2026-03-28T08:04:43.746Z</time></trkpt><trkpt lat="38.0549202" lon="-1.2915937"><ele>148.0</ele><time>2026-03-28T08:04:45.746Z</time></trkpt><trkpt lat="38.0549547" lon="-1.2917"><ele>148.0</ele><time>2026-03-28T08:04:47.746Z</time></trkpt><trkpt lat="38.0549806" lon="-1.2918055"><ele>148.0</ele><time>2026-03-28T08:04:49.748Z</time></trkpt><trkpt lat="38.0550051" lon="-1.2919062"><ele>148.0</ele><time>2026-03-28T08:04:51.747Z</time></trkpt><trkpt lat="38.0550215" lon="-1.2920222"><ele>148.16666666666669</ele><time>2026-03-28T08:04:53.748Z</time></trkpt><trkpt lat="38.0550146" lon="-1.292131"><ele>148.33333333333334</ele><time>2026-03-28T08:04:55.746Z</time></trkpt><trkpt lat="38.0550382" lon="-1.2922282"><ele>148.5</ele><time>2026-03-28T08:04:57.746Z</time></trkpt><trkpt lat="38.0550622" lon="-1.2923307"><ele>148.66666666666666</ele><time>2026-03-28T08:04:59.746Z</time></trkpt><trkpt lat="38.0550813" lon="-1.2924249"><ele>148.83333333333331</ele><time>2026-03-28T08:05:01.746Z</time></trkpt><trkpt lat="38.0550877" lon="-1.2925316"><ele>149.0</ele><time>2026-03-28T08:05:03.746Z</time></trkpt><trkpt lat="38.0550997" lon="-1.2926191"><ele>149.33333333333331</ele><time>2026-03-28T08:05:05.747Z</time></trkpt><trkpt lat="38.055109" lon="-1.2927326"><ele>149.66666666666666</ele><time>2026-03-28T08:05:07.747Z</time></trkpt><trkpt lat="38.0551197" lon="-1.2928363"><ele>150.0</ele><time>2026-03-28T08:05:09.746Z</time></trkpt><trkpt lat="38.0551169" lon="-1.2929382"><ele>150.33333333333334</ele><time>2026-03-28T08:05:11.746Z</time></trkpt><trkpt lat="38.0551125" lon="-1.2930308"><ele>150.66666666666669</ele><time>2026-03-28T08:05:13.746Z</time></trkpt><trkpt lat="38.055111" lon="-1.2931286"><ele>151.0</ele><time>2026-03-28T08:05:15.747Z</time></trkpt><trkpt lat="38.0551002" lon="-1.2932188"><ele>151.0</ele><time>2026-03-28T08:05:17.746Z</time></trkpt><trkpt lat="38.0550881" lon="-1.2933106"><ele>151.0</ele><time>2026-03-28T08:05:19.746Z</time></trkpt><trkpt lat="38.0550736" lon="-1.2933955"><ele>151.0</ele><time>2026-03-28T08:05:21.747Z</time></trkpt><trkpt lat="38.055058" lon="-1.2935038"><ele>151.0</ele><time>2026-03-28T08:05:23.747Z</time></trkpt><trkpt lat="38.0550389" lon="-1.2936034"><ele>151.0</ele><time>2026-03-28T08:05:25.747Z</time></trkpt><trkpt lat="38.0550152" lon="-1.2936978"><ele>151.0</ele><time>2026-03-28T08:05:27.746Z</time></trkpt><trkpt lat="38.054995" lon="-1.2938019"><ele>151.0</ele><time>2026-03-28T08:05:29.747Z</time></trkpt><trkpt lat="38.0549701" lon="-1.2939059"><ele>151.0</ele><time>2026-03-28T08:05:31.747Z</time></trkpt><trkpt lat="38.0549393" lon="-1.2940086"><ele>151.0</ele><time>2026-03-28T08:05:33.748Z</time></trkpt><trkpt lat="38.0549075" lon="-1.2941069"><ele>151.0</ele><time>2026-03-28T08:05:35.746Z</time></trkpt><trkpt lat="38.0548754" lon="-1.2941997"><ele>151.0</ele><time>2026-03-28T08:05:37.748Z</time></trkpt><trkpt lat="38.0548475" lon="-1.2942891"><ele>151.0</ele><time>2026-03-28T08:05:39.748Z</time></trkpt><trkpt lat="38.0548132" lon="-1.2943822"><ele>150.33333333333334</ele><time>2026-03-28T08:05:41.746Z</time></trkpt><trkpt lat="38.0547731" lon="-1.2944868"><ele>149.66666666666669</ele><time>2026-03-28T08:05:43.747Z</time></trkpt><trkpt lat="38.0547365" lon="-1.2945778"><ele>149.0</ele><time>2026-03-28T08:05:45.746Z</time></trkpt><trkpt lat="38.0546952" lon="-1.2946744"><ele>148.33333333333334</ele><time>2026-03-28T08:05:47.747Z</time></trkpt><trkpt lat="38.0546563" lon="-1.294769"><ele>147.66666666666666</ele><time>2026-03-28T08:05:49.746Z</time></trkpt><trkpt lat="38.0546311" lon="-1.2948721"><ele>147.0</ele><time>2026-03-28T08:05:51.747Z</time></trkpt><trkpt lat="38.0545995" lon="-1.2949705"><ele>147.0</ele><time>2026-03-28T08:05:53.746Z</time></trkpt><trkpt lat="38.0545648" lon="-1.2950418"><ele>147.0</ele><time>2026-03-28T08:05:54.746Z</time></trkpt><trkpt lat="38.0545037" lon="-1.2951565"><ele>147.0</ele><time>2026-03-28T08:05:56.747Z</time></trkpt><trkpt lat="38.0544564" lon="-1.2952585"><ele>147.0</ele><time>2026-03-28T08:05:58.748Z</time></trkpt><trkpt lat="38.0544082" lon="-1.2953538"><ele>147.0</ele><time>2026-03-28T08:06:00.747Z</time></trkpt><trkpt lat="38.0543621" lon="-1.2954612"><ele>147.0</ele><time>2026-03-28T08:06:02.747Z</time></trkpt><trkpt lat="38.0543158" lon="-1.2955697"><ele>147.0</ele><time>2026-03-28T08:06:04.746Z</time></trkpt><trkpt lat="38.0542681" lon="-1.295668"><ele>147.0</ele><time>2026-03-28T08:06:06.746Z</time></trkpt><trkpt lat="38.0542167" lon="-1.2957624"><ele>147.0</ele><time>2026-03-28T08:06:08.748Z</time></trkpt><trkpt lat="38.0541691" lon="-1.2958623"><ele>147.0</ele><time>2026-03-28T08:06:10.746Z</time></trkpt><trkpt lat="38.0541225" lon="-1.2959656"><ele>147.0</ele><time>2026-03-28T08:06:12.747Z</time></trkpt><trkpt lat="38.0540779" lon="-1.2960624"><ele>147.0</ele><time>2026-03-28T08:06:14.746Z</time></trkpt><trkpt lat="38.0540292" lon="-1.2961562"><ele>147.0</ele><time>2026-03-28T08:06:16.747Z</time></trkpt><trkpt lat="38.0539867" lon="-1.2962505"><ele>147.0</ele><time>2026-03-28T08:06:18.748Z</time></trkpt><trkpt lat="38.053945" lon="-1.2963447"><ele>147.0</ele><time>2026-03-28T08:06:20.746Z</time></trkpt><trkpt lat="38.0538988" lon="-1.2964499"><ele>147.0</ele><time>2026-03-28T08:06:22.746Z</time></trkpt><trkpt lat="38.0538506" lon="-1.2965666"><ele>147.0</ele><time>2026-03-28T08:06:24.747Z</time></trkpt><trkpt lat="38.0538054" lon="-1.296665"><ele>147.0</ele><time>2026-03-28T08:06:26.746Z</time></trkpt><trkpt lat="38.0537575" lon="-1.2967623"><ele>147.0</ele><time>2026-03-28T08:06:28.747Z</time></trkpt><trkpt lat="38.0537084" lon="-1.2968609"><ele>147.0</ele><time>2026-03-28T08:06:30.747Z</time></trkpt><trkpt lat="38.0536584" lon="-1.2969639"><ele>147.0</ele><time>2026-03-28T08:06:32.748Z</time></trkpt><trkpt lat="38.0536108" lon="-1.2970625"><ele>147.0</ele><time>2026-03-28T08:06:34.748Z</time></trkpt><trkpt lat="38.0535625" lon="-1.2971624"><ele>147.0</ele><time>2026-03-28T08:06:36.748Z</time></trkpt><trkpt lat="38.0535151" lon="-1.2972568"><ele>147.0</ele><time>2026-03-28T08:06:38.746Z</time></trkpt><trkpt lat="38.0534804" lon="-1.2973558"><ele>147.0</ele><time>2026-03-28T08:06:40.748Z</time></trkpt><trkpt lat="38.0534351" lon="-1.2974573"><ele>147.0</ele><time>2026-03-28T08:06:42.746Z</time></trkpt><trkpt lat="38.0533892" lon="-1.2975568"><ele>147.0</ele><time>2026-03-28T08:06:44.747Z</time></trkpt><trkpt lat="38.0533461" lon="-1.2976551"><ele>147.0</ele><time>2026-03-28T08:06:46.747Z</time></trkpt><trkpt lat="38.0532998" lon="-1.297753"><ele>147.0</ele><time>2026-03-28T08:06:48.747Z</time></trkpt><trkpt lat="38.0532619" lon="-1.2978396"><ele>147.0</ele><time>2026-03-28T08:06:50.746Z</time></trkpt><trkpt lat="38.0532126" lon="-1.2979632"><ele>147.0</ele><time>2026-03-28T08:06:53.746Z</time></trkpt><trkpt lat="38.0531672" lon="-1.2980568"><ele>147.0</ele><time>2026-03-28T08:06:55.747Z</time></trkpt><trkpt lat="38.0531243" lon="-1.2981493"><ele>147.0</ele><time>2026-03-28T08:06:57.747Z</time></trkpt><trkpt lat="38.0530757" lon="-1.2982427"><ele>147.83333333333334</ele><time>2026-03-28T08:06:59.747Z</time></trkpt><trkpt lat="38.0530288" lon="-1.2983378"><ele>148.66666666666666</ele><time>2026-03-28T08:07:01.746Z</time></trkpt><trkpt lat="38.0529834" lon="-1.2984359"><ele>149.5</ele><time>2026-03-28T08:07:03.746Z</time></trkpt><trkpt lat="38.052939" lon="-1.2985247"><ele>150.33333333333331</ele><time>2026-03-28T08:07:05.746Z</time></trkpt><trkpt lat="38.052897" lon="-1.2986125"><ele>151.16666666666666</ele><time>2026-03-28T08:07:07.747Z</time></trkpt><trkpt lat="38.0528566" lon="-1.2987016"><ele>152.0</ele><time>2026-03-28T08:07:09.748Z</time></trkpt><trkpt lat="38.0528128" lon="-1.2987864"><ele>152.0</ele><time>2026-03-28T08:07:11.747Z</time></trkpt><trkpt lat="38.0527708" lon="-1.2988899"><ele>152.0</ele><time>2026-03-28T08:07:13.746Z</time></trkpt><trkpt lat="38.0527291" lon="-1.298993"><ele>152.0</ele><time>2026-03-28T08:07:15.747Z</time></trkpt><trkpt lat="38.052692" lon="-1.2990758"><ele>152.0</ele><time>2026-03-28T08:07:17.746Z</time></trkpt><trkpt lat="38.0526549" lon="-1.2991704"><ele>152.0</ele><time>2026-03-28T08:07:19.746Z</time></trkpt><trkpt lat="38.0526188" lon="-1.2992675"><ele>152.0</ele><time>2026-03-28T08:07:21.746Z</time></trkpt><trkpt lat="38.0525776" lon="-1.2993573"><ele>151.83333333333331</ele><time>2026-03-28T08:07:23.747Z</time></trkpt><trkpt lat="38.0525353" lon="-1.2994405"><ele>151.66666666666666</ele><time>2026-03-28T08:07:25.747Z</time></trkpt><trkpt lat="38.052491" lon="-1.2995337"><ele>151.5</ele><time>2026-03-28T08:07:27.747Z</time></trkpt><trkpt lat="38.0524396" lon="-1.2996173"><ele>151.33333333333334</ele><time>2026-03-28T08:07:29.747Z</time></trkpt><trkpt lat="38.0523915" lon="-1.2997025"><ele>151.16666666666669</ele><time>2026-03-28T08:07:31.748Z</time></trkpt><trkpt lat="38.0523485" lon="-1.2997925"><ele>151.0</ele><time>2026-03-28T08:07:33.747Z</time></trkpt><trkpt lat="38.0523022" lon="-1.2998934"><ele>151.66666666666669</ele><time>2026-03-28T08:07:35.747Z</time></trkpt><trkpt lat="38.0522645" lon="-1.2999968"><ele>152.33333333333334</ele><time>2026-03-28T08:07:37.747Z</time></trkpt><trkpt lat="38.0522278" lon="-1.3000947"><ele>153.0</ele><time>2026-03-28T08:07:39.747Z</time></trkpt><trkpt lat="38.0521889" lon="-1.300191"><ele>153.66666666666666</ele><time>2026-03-28T08:07:41.746Z</time></trkpt><trkpt lat="38.0521517" lon="-1.3002828"><ele>154.33333333333331</ele><time>2026-03-28T08:07:43.747Z</time></trkpt><trkpt lat="38.0521121" lon="-1.300374"><ele>155.0</ele><time>2026-03-28T08:07:45.746Z</time></trkpt><trkpt lat="38.0520757" lon="-1.3004636"><ele>155.0</ele><time>2026-03-28T08:07:47.747Z</time></trkpt><trkpt lat="38.0520387" lon="-1.3005595"><ele>155.0</ele><time>2026-03-28T08:07:49.746Z</time></trkpt><trkpt lat="38.0520016" lon="-1.3006553"><ele>155.0</ele><time>2026-03-28T08:07:51.746Z</time></trkpt><trkpt lat="38.0519692" lon="-1.3007599"><ele>155.0</ele><time>2026-03-28T08:07:53.747Z</time></trkpt><trkpt lat="38.0519373" lon="-1.3008685"><ele>155.0</ele><time>2026-03-28T08:07:55.746Z</time></trkpt><trkpt lat="38.051906" lon="-1.300975"><ele>155.0</ele><time>2026-03-28T08:07:57.746Z</time></trkpt><trkpt lat="38.0518809" lon="-1.3010872"><ele>155.2</ele><time>2026-03-28T08:07:59.747Z</time></trkpt><trkpt lat="38.0518531" lon="-1.3011937"><ele>155.4</ele><time>2026-03-28T08:08:01.748Z</time></trkpt><trkpt lat="38.0518147" lon="-1.3013001"><ele>155.6</ele><time>2026-03-28T08:08:03.747Z</time></trkpt><trkpt lat="38.051786" lon="-1.3014182"><ele>155.8</ele><time>2026-03-28T08:08:05.746Z</time></trkpt><trkpt lat="38.0517635" lon="-1.3015324"><ele>156.0</ele><time>2026-03-28T08:08:07.747Z</time></trkpt><trkpt lat="38.0517435" lon="-1.3016317"><ele>156.0</ele><time>2026-03-28T08:08:09.747Z</time></trkpt><trkpt lat="38.0517212" lon="-1.3017404"><ele>156.0</ele><time>2026-03-28T08:08:11.746Z</time></trkpt><trkpt lat="38.0516973" lon="-1.3018479"><ele>156.0</ele><time>2026-03-28T08:08:13.746Z</time></trkpt><trkpt lat="38.0516773" lon="-1.3019639"><ele>156.0</ele><time>2026-03-28T08:08:15.747Z</time></trkpt><trkpt lat="38.0516601" lon="-1.3020806"><ele>156.0</ele><time>2026-03-28T08:08:17.747Z</time></trkpt><trkpt lat="38.0516377" lon="-1.302196"><ele>156.33333333333334</ele><time>2026-03-28T08:08:19.747Z</time></trkpt><trkpt lat="38.0516285" lon="-1.3022793"><ele>156.66666666666666</ele><time>2026-03-28T08:08:21.747Z</time></trkpt><trkpt lat="38.0516157" lon="-1.3023896"><ele>157.0</ele><time>2026-03-28T08:08:23.747Z</time></trkpt><trkpt lat="38.0516054" lon="-1.3025064"><ele>157.33333333333331</ele><time>2026-03-28T08:08:25.747Z</time></trkpt><trkpt lat="38.0515956" lon="-1.3026209"><ele>157.66666666666666</ele><time>2026-03-28T08:08:27.747Z</time></trkpt><trkpt lat="38.0515864" lon="-1.3027393"><ele>158.0</ele><time>2026-03-28T08:08:29.746Z</time></trkpt><trkpt lat="38.0515783" lon="-1.3028567"><ele>156.6</ele><time>2026-03-28T08:08:31.748Z</time></trkpt><trkpt lat="38.0515733" lon="-1.3029765"><ele>155.20000000000002</ele><time>2026-03-28T08:08:33.746Z</time></trkpt><trkpt lat="38.0515728" lon="-1.3031087"><ele>153.8</ele><time>2026-03-28T08:08:35.747Z</time></trkpt><trkpt lat="38.0515708" lon="-1.3032367"><ele>152.4</ele><time>2026-03-28T08:08:37.748Z</time></trkpt><trkpt lat="38.0515687" lon="-1.3033626"><ele>151.0</ele><time>2026-03-28T08:08:39.747Z</time></trkpt><trkpt lat="38.0515679" lon="-1.303489"><ele>151.0</ele><time>2026-03-28T08:08:41.746Z</time></trkpt><trkpt lat="38.0515614" lon="-1.3036155"><ele>151.0</ele><time>2026-03-28T08:08:43.747Z</time></trkpt><trkpt lat="38.0515575" lon="-1.3037427"><ele>151.0</ele><time>2026-03-28T08:08:45.748Z</time></trkpt><trkpt lat="38.0515526" lon="-1.3038677"><ele>151.0</ele><time>2026-03-28T08:08:47.748Z</time></trkpt><trkpt lat="38.0515464" lon="-1.3039918"><ele>151.0</ele><time>2026-03-28T08:08:49.748Z</time></trkpt><trkpt lat="38.0515466" lon="-1.3041271"><ele>150.8</ele><time>2026-03-28T08:08:51.749Z</time></trkpt><trkpt lat="38.0515458" lon="-1.3042597"><ele>150.6</ele><time>2026-03-28T08:08:53.747Z</time></trkpt><trkpt lat="38.0515419" lon="-1.3043961"><ele>150.4</ele><time>2026-03-28T08:08:55.747Z</time></trkpt><trkpt lat="38.0515375" lon="-1.3045155"><ele>150.2</ele><time>2026-03-28T08:08:57.748Z</time></trkpt><trkpt lat="38.0515311" lon="-1.3046464"><ele>150.0</ele><time>2026-03-28T08:08:59.748Z</time></trkpt><trkpt lat="38.0515238" lon="-1.3047695"><ele>150.0</ele><time>2026-03-28T08:09:01.748Z</time></trkpt><trkpt lat="38.0515198" lon="-1.3048944"><ele>150.0</ele><time>2026-03-28T08:09:03.749Z</time></trkpt><trkpt lat="38.0515193" lon="-1.3050168"><ele>150.0</ele><time>2026-03-28T08:09:05.747Z</time></trkpt><trkpt lat="38.0515194" lon="-1.305139"><ele>150.0</ele><time>2026-03-28T08:09:07.747Z</time></trkpt><trkpt lat="38.0515132" lon="-1.3052649"><ele>150.0</ele><time>2026-03-28T08:09:09.747Z</time></trkpt><trkpt lat="38.0515113" lon="-1.3053964"><ele>150.0</ele><time>2026-03-28T08:09:11.748Z</time></trkpt><trkpt lat="38.051504" lon="-1.3055191"><ele>150.0</ele><time>2026-03-28T08:09:13.748Z</time></trkpt><trkpt lat="38.051501" lon="-1.3056343"><ele>150.0</ele><time>2026-03-28T08:09:15.747Z</time></trkpt><trkpt lat="38.0514991" lon="-1.3057366"><ele>150.0</ele><time>2026-03-28T08:09:17.748Z</time></trkpt><trkpt lat="38.0515011" lon="-1.3058419"><ele>150.0</ele><time>2026-03-28T08:09:19.746Z</time></trkpt><trkpt lat="38.0514936" lon="-1.3059407"><ele>150.0</ele><time>2026-03-28T08:09:21.747Z</time></trkpt><trkpt lat="38.0514898" lon="-1.3060437"><ele>151.5</ele><time>2026-03-28T08:09:23.748Z</time></trkpt><trkpt lat="38.0514945" lon="-1.3061493"><ele>153.0</ele><time>2026-03-28T08:09:25.746Z</time></trkpt><trkpt lat="38.0514947" lon="-1.3062556"><ele>154.5</ele><time>2026-03-28T08:09:27.746Z</time></trkpt><trkpt lat="38.0514781" lon="-1.306358"><ele>156.0</ele><time>2026-03-28T08:09:29.747Z</time></trkpt><trkpt lat="38.0514705" lon="-1.306462"><ele>157.5</ele><time>2026-03-28T08:09:31.747Z</time></trkpt><trkpt lat="38.0514647" lon="-1.3065699"><ele>159.0</ele><time>2026-03-28T08:09:33.747Z</time></trkpt><trkpt lat="38.0514651" lon="-1.3066777"><ele>159.83333333333334</ele><time>2026-03-28T08:09:35.749Z</time></trkpt><trkpt lat="38.0514614" lon="-1.3067867"><ele>160.66666666666666</ele><time>2026-03-28T08:09:37.748Z</time></trkpt><trkpt lat="38.0514519" lon="-1.3069027"><ele>161.5</ele><time>2026-03-28T08:09:39.748Z</time></trkpt><trkpt lat="38.0514528" lon="-1.3070146"><ele>162.33333333333331</ele><time>2026-03-28T08:09:41.747Z</time></trkpt><trkpt lat="38.0514442" lon="-1.3071267"><ele>163.16666666666666</ele><time>2026-03-28T08:09:43.747Z</time></trkpt><trkpt lat="38.0514399" lon="-1.3072342"><ele>164.0</ele><time>2026-03-28T08:09:45.748Z</time></trkpt><trkpt lat="38.0514363" lon="-1.3073466"><ele>164.0</ele><time>2026-03-28T08:09:47.747Z</time></trkpt><trkpt lat="38.0514205" lon="-1.3074543"><ele>164.0</ele><time>2026-03-28T08:09:49.748Z</time></trkpt><trkpt lat="38.0514086" lon="-1.3075615"><ele>164.0</ele><time>2026-03-28T08:09:51.746Z</time></trkpt><trkpt lat="38.0513964" lon="-1.3076832"><ele>164.0</ele><time>2026-03-28T08:09:53.746Z</time></trkpt><trkpt lat="38.0513732" lon="-1.3077979"><ele>164.0</ele><time>2026-03-28T08:09:55.749Z</time></trkpt><trkpt lat="38.0513542" lon="-1.3079258"><ele>164.0</ele><time>2026-03-28T08:09:57.747Z</time></trkpt><trkpt lat="38.0513356" lon="-1.3080552"><ele>164.0</ele><time>2026-03-28T08:09:59.747Z</time></trkpt><trkpt lat="38.0513167" lon="-1.3081894"><ele>164.0</ele><time>2026-03-28T08:10:01.747Z</time></trkpt><trkpt lat="38.0512914" lon="-1.3083244"><ele>164.0</ele><time>2026-03-28T08:10:03.747Z</time></trkpt><trkpt lat="38.0512742" lon="-1.3084536"><ele>164.0</ele><time>2026-03-28T08:10:05.747Z</time></trkpt><trkpt lat="38.0512485" lon="-1.3085885"><ele>163.79999999999998</ele><time>2026-03-28T08:10:07.747Z</time></trkpt><trkpt lat="38.0512259" lon="-1.3087194"><ele>163.6</ele><time>2026-03-28T08:10:09.746Z</time></trkpt><trkpt lat="38.0512029" lon="-1.3088547"><ele>163.4</ele><time>2026-03-28T08:10:11.748Z</time></trkpt><trkpt lat="38.0511812" lon="-1.308996"><ele>163.2</ele><time>2026-03-28T08:10:13.746Z</time></trkpt><trkpt lat="38.0511604" lon="-1.3091347"><ele>163.0</ele><time>2026-03-28T08:10:15.748Z</time></trkpt><trkpt lat="38.051139" lon="-1.3092694"><ele>162.60000000000002</ele><time>2026-03-28T08:10:17.746Z</time></trkpt><trkpt lat="38.05111" lon="-1.3094087"><ele>162.20000000000002</ele><time>2026-03-28T08:10:19.746Z</time></trkpt><trkpt lat="38.0510777" lon="-1.3095428"><ele>161.8</ele><time>2026-03-28T08:10:21.747Z</time></trkpt><trkpt lat="38.0510455" lon="-1.3096784"><ele>161.4</ele><time>2026-03-28T08:10:23.747Z</time></trkpt><trkpt lat="38.0510123" lon="-1.3098073"><ele>161.0</ele><time>2026-03-28T08:10:25.747Z</time></trkpt><trkpt lat="38.050982" lon="-1.3099324"><ele>160.0</ele><time>2026-03-28T08:10:27.748Z</time></trkpt><trkpt lat="38.0509493" lon="-1.3100617"><ele>159.0</ele><time>2026-03-28T08:10:29.747Z</time></trkpt><trkpt lat="38.0509113" lon="-1.3101901"><ele>158.0</ele><time>2026-03-28T08:10:31.746Z</time></trkpt><trkpt lat="38.0508729" lon="-1.3103113"><ele>157.0</ele><time>2026-03-28T08:10:33.748Z</time></trkpt><trkpt lat="38.0508414" lon="-1.3104381"><ele>156.0</ele><time>2026-03-28T08:10:35.748Z</time></trkpt><trkpt lat="38.0508068" lon="-1.3105663"><ele>154.6</ele><time>2026-03-28T08:10:37.749Z</time></trkpt><trkpt lat="38.0507708" lon="-1.3106916"><ele>153.2</ele><time>2026-03-28T08:10:39.749Z</time></trkpt><trkpt lat="38.0507396" lon="-1.3108163"><ele>151.8</ele><time>2026-03-28T08:10:41.748Z</time></trkpt><trkpt lat="38.0507113" lon="-1.3109422"><ele>150.4</ele><time>2026-03-28T08:10:43.748Z</time></trkpt><trkpt lat="38.0506777" lon="-1.311069"><ele>149.0</ele><time>2026-03-28T08:10:45.746Z</time></trkpt><trkpt lat="38.0506435" lon="-1.3111921"><ele>149.0</ele><time>2026-03-28T08:10:47.747Z</time></trkpt><trkpt lat="38.0506116" lon="-1.3113183"><ele>149.0</ele><time>2026-03-28T08:10:49.748Z</time></trkpt><trkpt lat="38.0505763" lon="-1.3114466"><ele>149.0</ele><time>2026-03-28T08:10:51.746Z</time></trkpt><trkpt lat="38.050538" lon="-1.3115793"><ele>149.0</ele><time>2026-03-28T08:10:53.748Z</time></trkpt><trkpt lat="38.0504999" lon="-1.3117143"><ele>149.0</ele><time>2026-03-28T08:10:55.746Z</time></trkpt><trkpt lat="38.0504696" lon="-1.3118463"><ele>148.8</ele><time>2026-03-28T08:10:57.749Z</time></trkpt><trkpt lat="38.0504354" lon="-1.311977"><ele>148.60000000000002</ele><time>2026-03-28T08:10:59.747Z</time></trkpt><trkpt lat="38.0503994" lon="-1.3121108"><ele>148.4</ele><time>2026-03-28T08:11:01.748Z</time></trkpt><trkpt lat="38.0503635" lon="-1.3122453"><ele>148.20000000000002</ele><time>2026-03-28T08:11:03.748Z</time></trkpt><trkpt lat="38.0503312" lon="-1.3123765"><ele>148.0</ele><time>2026-03-28T08:11:05.748Z</time></trkpt><trkpt lat="38.050303" lon="-1.3125101"><ele>147.8</ele><time>2026-03-28T08:11:07.748Z</time></trkpt><trkpt lat="38.0502707" lon="-1.3126413"><ele>147.60000000000002</ele><time>2026-03-28T08:11:09.748Z</time></trkpt><trkpt lat="38.0502377" lon="-1.3127749"><ele>147.39999999999998</ele><time>2026-03-28T08:11:11.748Z</time></trkpt><trkpt lat="38.0502075" lon="-1.3129038"><ele>147.2</ele><time>2026-03-28T08:11:13.748Z</time></trkpt><trkpt lat="38.0501799" lon="-1.3130288"><ele>147.0</ele><time>2026-03-28T08:11:15.747Z</time></trkpt><trkpt lat="38.0501449" lon="-1.3131517"><ele>147.6</ele><time>2026-03-28T08:11:17.748Z</time></trkpt><trkpt lat="38.0501102" lon="-1.3132832"><ele>148.2</ele><time>2026-03-28T08:11:19.748Z</time></trkpt><trkpt lat="38.0500794" lon="-1.3134163"><ele>148.8</ele><time>2026-03-28T08:11:21.746Z</time></trkpt><trkpt lat="38.0500472" lon="-1.3135457"><ele>149.4</ele><time>2026-03-28T08:11:23.747Z</time></trkpt><trkpt lat="38.0500143" lon="-1.3136729"><ele>150.0</ele><time>2026-03-28T08:11:25.747Z</time></trkpt><trkpt lat="38.049985" lon="-1.3137955"><ele>148.6</ele><time>2026-03-28T08:11:27.746Z</time></trkpt><trkpt lat="38.0499536" lon="-1.313924"><ele>147.2</ele><time>2026-03-28T08:11:29.747Z</time></trkpt><trkpt lat="38.0499211" lon="-1.3140596"><ele>145.8</ele><time>2026-03-28T08:11:31.746Z</time></trkpt><trkpt lat="38.0498832" lon="-1.3141957"><ele>144.4</ele><time>2026-03-28T08:11:33.746Z</time></trkpt><trkpt lat="38.0498444" lon="-1.3143304"><ele>143.0</ele><time>2026-03-28T08:11:35.746Z</time></trkpt><trkpt lat="38.0498156" lon="-1.3144643"><ele>143.0</ele><time>2026-03-28T08:11:37.748Z</time></trkpt><trkpt lat="38.0497753" lon="-1.3145987"><ele>143.0</ele><time>2026-03-28T08:11:39.747Z</time></trkpt><trkpt lat="38.0497512" lon="-1.3146854"><ele>143.0</ele><time>2026-03-28T08:11:40.748Z</time></trkpt><trkpt lat="38.0497152" lon="-1.3148142"><ele>143.0</ele><time>2026-03-28T08:11:42.748Z</time></trkpt><trkpt lat="38.0496684" lon="-1.3149416"><ele>143.0</ele><time>2026-03-28T08:11:44.748Z</time></trkpt><trkpt lat="38.0496311" lon="-1.3150735"><ele>143.0</ele><time>2026-03-28T08:11:46.748Z</time></trkpt><trkpt lat="38.0496037" lon="-1.3152136"><ele>143.0</ele><time>2026-03-28T08:11:48.747Z</time></trkpt><trkpt lat="38.0495724" lon="-1.3153462"><ele>143.0</ele><time>2026-03-28T08:11:50.749Z</time></trkpt><trkpt lat="38.0495373" lon="-1.3154679"><ele>143.0</ele><time>2026-03-28T08:11:52.748Z</time></trkpt><trkpt lat="38.0494942" lon="-1.3155871"><ele>143.0</ele><time>2026-03-28T08:11:54.747Z</time></trkpt><trkpt lat="38.0494503" lon="-1.3157171"><ele>143.20000000000002</ele><time>2026-03-28T08:11:56.748Z</time></trkpt><trkpt lat="38.0494141" lon="-1.3158466"><ele>143.4</ele><time>2026-03-28T08:11:58.748Z</time></trkpt><trkpt lat="38.0493756" lon="-1.3159726"><ele>143.60000000000002</ele><time>2026-03-28T08:12:00.747Z</time></trkpt><trkpt lat="38.0493274" lon="-1.3160866"><ele>143.8</ele><time>2026-03-28T08:12:02.749Z</time></trkpt><trkpt lat="38.049282" lon="-1.3162003"><ele>144.0</ele><time>2026-03-28T08:12:04.747Z</time></trkpt><trkpt lat="38.049236" lon="-1.3163176"><ele>143.8</ele><time>2026-03-28T08:12:06.748Z</time></trkpt><trkpt lat="38.0491768" lon="-1.3164248"><ele>143.60000000000002</ele><time>2026-03-28T08:12:08.748Z</time></trkpt><trkpt lat="38.0491184" lon="-1.3165405"><ele>143.4</ele><time>2026-03-28T08:12:10.748Z</time></trkpt><trkpt lat="38.0490638" lon="-1.3166599"><ele>143.20000000000002</ele><time>2026-03-28T08:12:12.747Z</time></trkpt><trkpt lat="38.0490187" lon="-1.3167685"><ele>143.0</ele><time>2026-03-28T08:12:14.747Z</time></trkpt><trkpt lat="38.0489609" lon="-1.3168737"><ele>143.4</ele><time>2026-03-28T08:12:16.749Z</time></trkpt><trkpt lat="38.0489033" lon="-1.3169745"><ele>143.8</ele><time>2026-03-28T08:12:18.748Z</time></trkpt><trkpt lat="38.0488485" lon="-1.3170855"><ele>144.2</ele><time>2026-03-28T08:12:20.749Z</time></trkpt><trkpt lat="38.0487906" lon="-1.3171897"><ele>144.6</ele><time>2026-03-28T08:12:22.748Z</time></trkpt><trkpt lat="38.0487298" lon="-1.3172789"><ele>145.0</ele><time>2026-03-28T08:12:24.747Z</time></trkpt><trkpt lat="38.0486779" lon="-1.3173855"><ele>145.0</ele><time>2026-03-28T08:12:26.748Z</time></trkpt><trkpt lat="38.0486289" lon="-1.3174793"><ele>145.0</ele><time>2026-03-28T08:12:28.747Z</time></trkpt><trkpt lat="38.0485802" lon="-1.3175641"><ele>145.0</ele><time>2026-03-28T08:12:30.748Z</time></trkpt><trkpt lat="38.0485332" lon="-1.3176457"><ele>145.0</ele><time>2026-03-28T08:12:32.746Z</time></trkpt><trkpt lat="38.0484836" lon="-1.31773"><ele>145.0</ele><time>2026-03-28T08:12:34.748Z</time></trkpt><trkpt lat="38.048432" lon="-1.3178138"><ele>145.0</ele><time>2026-03-28T08:12:36.748Z</time></trkpt><trkpt lat="38.0483862" lon="-1.3178991"><ele>145.0</ele><time>2026-03-28T08:12:38.748Z</time></trkpt><trkpt lat="38.0483405" lon="-1.3179927"><ele>145.0</ele><time>2026-03-28T08:12:40.747Z</time></trkpt><trkpt lat="38.0482899" lon="-1.3180843"><ele>145.0</ele><time>2026-03-28T08:12:42.748Z</time></trkpt><trkpt lat="38.048241" lon="-1.3181785"><ele>145.0</ele><time>2026-03-28T08:12:44.748Z</time></trkpt><trkpt lat="38.048196" lon="-1.3182702"><ele>145.0</ele><time>2026-03-28T08:12:46.748Z</time></trkpt><trkpt lat="38.0481512" lon="-1.318357"><ele>145.0</ele><time>2026-03-28T08:12:48.748Z</time></trkpt><trkpt lat="38.0481043" lon="-1.31845"><ele>145.4</ele><time>2026-03-28T08:12:50.748Z</time></trkpt><trkpt lat="38.0480514" lon="-1.3185518"><ele>145.8</ele><time>2026-03-28T08:12:52.747Z</time></trkpt><trkpt lat="38.0479996" lon="-1.3186557"><ele>146.2</ele><time>2026-03-28T08:12:54.748Z</time></trkpt><trkpt lat="38.0479485" lon="-1.3187543"><ele>146.6</ele><time>2026-03-28T08:12:56.747Z</time></trkpt><trkpt lat="38.0479" lon="-1.3188469"><ele>147.0</ele><time>2026-03-28T08:12:58.748Z</time></trkpt><trkpt lat="38.0478522" lon="-1.3189401"><ele>147.5</ele><time>2026-03-28T08:13:00.748Z</time></trkpt><trkpt lat="38.0478018" lon="-1.3190318"><ele>148.0</ele><time>2026-03-28T08:13:02.747Z</time></trkpt><trkpt lat="38.0477498" lon="-1.3191247"><ele>148.5</ele><time>2026-03-28T08:13:04.748Z</time></trkpt><trkpt lat="38.0477015" lon="-1.3192166"><ele>149.0</ele><time>2026-03-28T08:13:06.748Z</time></trkpt><trkpt lat="38.0476535" lon="-1.319308"><ele>149.5</ele><time>2026-03-28T08:13:08.748Z</time></trkpt><trkpt lat="38.0476058" lon="-1.3194003"><ele>150.0</ele><time>2026-03-28T08:13:10.747Z</time></trkpt><trkpt lat="38.0475578" lon="-1.3194888"><ele>150.0</ele><time>2026-03-28T08:13:12.748Z</time></trkpt><trkpt lat="38.0475071" lon="-1.3195596"><ele>150.0</ele><time>2026-03-28T08:13:14.747Z</time></trkpt><trkpt lat="38.0474601" lon="-1.3196411"><ele>150.0</ele><time>2026-03-28T08:13:16.748Z</time></trkpt><trkpt lat="38.0474091" lon="-1.3197324"><ele>150.0</ele><time>2026-03-28T08:13:18.748Z</time></trkpt><trkpt lat="38.0473595" lon="-1.3198241"><ele>150.0</ele><time>2026-03-28T08:13:20.748Z</time></trkpt><trkpt lat="38.0473037" lon="-1.31993"><ele>150.0</ele><time>2026-03-28T08:13:22.749Z</time></trkpt><trkpt lat="38.047248" lon="-1.3200399"><ele>149.4</ele><time>2026-03-28T08:13:24.748Z</time></trkpt><trkpt lat="38.047197" lon="-1.320137"><ele>148.8</ele><time>2026-03-28T08:13:26.747Z</time></trkpt><trkpt lat="38.0471442" lon="-1.3202298"><ele>148.2</ele><time>2026-03-28T08:13:28.747Z</time></trkpt><trkpt lat="38.0470862" lon="-1.3203416"><ele>147.6</ele><time>2026-03-28T08:13:30.748Z</time></trkpt><trkpt lat="38.0470279" lon="-1.320451"><ele>147.0</ele><time>2026-03-28T08:13:32.748Z</time></trkpt><trkpt lat="38.0469741" lon="-1.3205414"><ele>147.16666666666666</ele><time>2026-03-28T08:13:34.748Z</time></trkpt><trkpt lat="38.0469235" lon="-1.3206188"><ele>147.33333333333334</ele><time>2026-03-28T08:13:36.748Z</time></trkpt><trkpt lat="38.0468745" lon="-1.320701"><ele>147.5</ele><time>2026-03-28T08:13:38.748Z</time></trkpt><trkpt lat="38.0468265" lon="-1.3207956"><ele>147.66666666666669</ele><time>2026-03-28T08:13:40.748Z</time></trkpt><trkpt lat="38.0467743" lon="-1.3208854"><ele>147.83333333333334</ele><time>2026-03-28T08:13:42.747Z</time></trkpt><trkpt lat="38.0467208" lon="-1.3209834"><ele>148.0</ele><time>2026-03-28T08:13:44.748Z</time></trkpt><trkpt lat="38.0466695" lon="-1.3210794"><ele>147.8</ele><time>2026-03-28T08:13:46.748Z</time></trkpt><trkpt lat="38.0466232" lon="-1.3211688"><ele>147.60000000000002</ele><time>2026-03-28T08:13:48.748Z</time></trkpt><trkpt lat="38.046581" lon="-1.3212585"><ele>147.39999999999998</ele><time>2026-03-28T08:13:50.748Z</time></trkpt><trkpt lat="38.0465348" lon="-1.3213513"><ele>147.2</ele><time>2026-03-28T08:13:52.747Z</time></trkpt><trkpt lat="38.0464899" lon="-1.3214626"><ele>147.0</ele><time>2026-03-28T08:13:54.749Z</time></trkpt><trkpt lat="38.0464406" lon="-1.3215718"><ele>147.4</ele><time>2026-03-28T08:13:56.748Z</time></trkpt><trkpt lat="38.046391" lon="-1.3216793"><ele>147.79999999999998</ele><time>2026-03-28T08:13:58.749Z</time></trkpt><trkpt lat="38.0463441" lon="-1.3217861"><ele>148.2</ele><time>2026-03-28T08:14:00.749Z</time></trkpt><trkpt lat="38.0463028" lon="-1.3218894"><ele>148.6</ele><time>2026-03-28T08:14:02.748Z</time></trkpt><trkpt lat="38.0462702" lon="-1.3219951"><ele>149.0</ele><time>2026-03-28T08:14:04.748Z</time></trkpt><trkpt lat="38.0462349" lon="-1.3220914"><ele>149.0</ele><time>2026-03-28T08:14:06.747Z</time></trkpt><trkpt lat="38.0462042" lon="-1.3221934"><ele>149.0</ele><time>2026-03-28T08:14:08.748Z</time></trkpt><trkpt lat="38.0461853" lon="-1.3222896"><ele>149.0</ele><time>2026-03-28T08:14:10.747Z</time></trkpt><trkpt lat="38.0461642" lon="-1.3223925"><ele>149.0</ele><time>2026-03-28T08:14:12.748Z</time></trkpt><trkpt lat="38.0461456" lon="-1.3224947"><ele>149.0</ele><time>2026-03-28T08:14:14.749Z</time></trkpt><trkpt lat="38.0461235" lon="-1.3225984"><ele>149.0</ele><time>2026-03-28T08:14:16.748Z</time></trkpt><trkpt lat="38.0461027" lon="-1.322707"><ele>149.6</ele><time>2026-03-28T08:14:18.748Z</time></trkpt><trkpt lat="38.0460817" lon="-1.3228138"><ele>150.2</ele><time>2026-03-28T08:14:20.748Z</time></trkpt><trkpt lat="38.0460628" lon="-1.3229152"><ele>150.79999999999998</ele><time>2026-03-28T08:14:22.748Z</time></trkpt><trkpt lat="38.0460461" lon="-1.3230405"><ele>151.4</ele><time>2026-03-28T08:14:24.747Z</time></trkpt><trkpt lat="38.0460254" lon="-1.3231666"><ele>152.0</ele><time>2026-03-28T08:14:26.748Z</time></trkpt><trkpt lat="38.0460071" lon="-1.3232657"><ele>152.0</ele><time>2026-03-28T08:14:28.748Z</time></trkpt><trkpt lat="38.0459894" lon="-1.3233581"><ele>152.0</ele><time>2026-03-28T08:14:30.747Z</time></trkpt><trkpt lat="38.0459712" lon="-1.3234507"><ele>152.0</ele><time>2026-03-28T08:14:32.748Z</time></trkpt><trkpt lat="38.0459519" lon="-1.3235498"><ele>152.0</ele><time>2026-03-28T08:14:34.749Z</time></trkpt><trkpt lat="38.0459292" lon="-1.3236491"><ele>152.0</ele><time>2026-03-28T08:14:36.749Z</time></trkpt><trkpt lat="38.045915" lon="-1.3237425"><ele>152.0</ele><time>2026-03-28T08:14:38.747Z</time></trkpt><trkpt lat="38.0458948" lon="-1.3238316"><ele>152.16666666666666</ele><time>2026-03-28T08:14:40.748Z</time></trkpt><trkpt lat="38.0458786" lon="-1.3239233"><ele>152.33333333333331</ele><time>2026-03-28T08:14:42.748Z</time></trkpt><trkpt lat="38.0458602" lon="-1.3240227"><ele>152.5</ele><time>2026-03-28T08:14:44.747Z</time></trkpt><trkpt lat="38.045841" lon="-1.3241269"><ele>152.66666666666666</ele><time>2026-03-28T08:14:46.748Z</time></trkpt><trkpt lat="38.0458231" lon="-1.3242276"><ele>152.83333333333334</ele><time>2026-03-28T08:14:48.747Z</time></trkpt><trkpt lat="38.0458044" lon="-1.3243199"><ele>153.0</ele><time>2026-03-28T08:14:50.747Z</time></trkpt><trkpt lat="38.0457891" lon="-1.3244185"><ele>153.20000000000002</ele><time>2026-03-28T08:14:52.747Z</time></trkpt><trkpt lat="38.045772" lon="-1.3245206"><ele>153.4</ele><time>2026-03-28T08:14:54.747Z</time></trkpt><trkpt lat="38.0457478" lon="-1.3246375"><ele>153.60000000000002</ele><time>2026-03-28T08:14:56.747Z</time></trkpt><trkpt lat="38.0457251" lon="-1.3247505"><ele>153.8</ele><time>2026-03-28T08:14:58.749Z</time></trkpt><trkpt lat="38.0457084" lon="-1.3248636"><ele>154.0</ele><time>2026-03-28T08:15:00.748Z</time></trkpt><trkpt lat="38.0456907" lon="-1.324979"><ele>154.4</ele><time>2026-03-28T08:15:02.747Z</time></trkpt><trkpt lat="38.045667" lon="-1.3250975"><ele>154.8</ele><time>2026-03-28T08:15:04.748Z</time></trkpt><trkpt lat="38.045644" lon="-1.3252167"><ele>155.2</ele><time>2026-03-28T08:15:06.749Z</time></trkpt><trkpt lat="38.0456346" lon="-1.3253303"><ele>155.6</ele><time>2026-03-28T08:15:08.749Z</time></trkpt><trkpt lat="38.0456164" lon="-1.3254394"><ele>156.0</ele><time>2026-03-28T08:15:10.747Z</time></trkpt><trkpt lat="38.0455924" lon="-1.3255499"><ele>156.4</ele><time>2026-03-28T08:15:12.747Z</time></trkpt><trkpt lat="38.0455655" lon="-1.3256825"><ele>156.8</ele><time>2026-03-28T08:15:14.748Z</time></trkpt><trkpt lat="38.0455408" lon="-1.3258107"><ele>157.20000000000002</ele><time>2026-03-28T08:15:16.749Z</time></trkpt><trkpt lat="38.0455195" lon="-1.3259401"><ele>157.6</ele><time>2026-03-28T08:15:18.747Z</time></trkpt><trkpt lat="38.0454967" lon="-1.3260752"><ele>158.0</ele><time>2026-03-28T08:15:20.748Z</time></trkpt><trkpt lat="38.0454723" lon="-1.3262011"><ele>158.0</ele><time>2026-03-28T08:15:22.748Z</time></trkpt><trkpt lat="38.045449" lon="-1.3263183"><ele>158.0</ele><time>2026-03-28T08:15:24.747Z</time></trkpt><trkpt lat="38.0454251" lon="-1.32644"><ele>158.0</ele><time>2026-03-28T08:15:26.748Z</time></trkpt><trkpt lat="38.0454086" lon="-1.3265612"><ele>158.0</ele><time>2026-03-28T08:15:28.748Z</time></trkpt><trkpt lat="38.0453908" lon="-1.3266736"><ele>158.0</ele><time>2026-03-28T08:15:30.748Z</time></trkpt><trkpt lat="38.0453652" lon="-1.3267801"><ele>157.66666666666666</ele><time>2026-03-28T08:15:32.747Z</time></trkpt><trkpt lat="38.045359" lon="-1.3268718"><ele>157.33333333333331</ele><time>2026-03-28T08:15:34.748Z</time></trkpt><trkpt lat="38.045353" lon="-1.3269737"><ele>157.0</ele><time>2026-03-28T08:15:36.747Z</time></trkpt><trkpt lat="38.0453418" lon="-1.3270671"><ele>156.66666666666666</ele><time>2026-03-28T08:15:38.748Z</time></trkpt><trkpt lat="38.045297" lon="-1.3271567"><ele>156.33333333333334</ele><time>2026-03-28T08:16:27.747Z</time></trkpt><trkpt lat="38.0452797" lon="-1.3272513"><ele>156.0</ele><time>2026-03-28T08:16:30.749Z</time></trkpt><trkpt lat="38.0452647" lon="-1.3273315"><ele>156.0</ele><time>2026-03-28T08:16:33.748Z</time></trkpt><trkpt lat="38.0452189" lon="-1.3274106"><ele>156.0</ele><time>2026-03-28T08:16:37.748Z</time></trkpt><trkpt lat="38.0451568" lon="-1.3274376"><ele>156.0</ele><time>2026-03-28T08:16:41.749Z</time></trkpt><trkpt lat="38.0451403" lon="-1.3275223"><ele>156.0</ele><time>2026-03-28T08:16:44.747Z</time></trkpt><trkpt lat="38.0451189" lon="-1.3275998"><ele>156.0</ele><time>2026-03-28T08:16:46.747Z</time></trkpt><trkpt lat="38.0450997" lon="-1.3276789"><ele>156.0</ele><time>2026-03-28T08:16:48.747Z</time></trkpt><trkpt lat="38.0450796" lon="-1.327756"><ele>156.0</ele><time>2026-03-28T08:16:50.75Z</time></trkpt><trkpt lat="38.0450585" lon="-1.3278393"><ele>156.0</ele><time>2026-03-28T08:16:52.749Z</time></trkpt><trkpt lat="38.0450405" lon="-1.327927"><ele>156.0</ele><time>2026-03-28T08:16:54.75Z</time></trkpt><trkpt lat="38.0450181" lon="-1.3280125"><ele>156.0</ele><time>2026-03-28T08:16:56.748Z</time></trkpt><trkpt lat="38.0449984" lon="-1.3281039"><ele>156.0</ele><time>2026-03-28T08:16:58.748Z</time></trkpt><trkpt lat="38.0449735" lon="-1.3281914"><ele>156.0</ele><time>2026-03-28T08:17:00.749Z</time></trkpt><trkpt lat="38.0449483" lon="-1.3282826"><ele>156.0</ele><time>2026-03-28T08:17:02.75Z</time></trkpt><trkpt lat="38.0449321" lon="-1.3283742"><ele>156.0</ele><time>2026-03-28T08:17:04.748Z</time></trkpt><trkpt lat="38.0449126" lon="-1.3284576"><ele>156.0</ele><time>2026-03-28T08:17:06.748Z</time></trkpt><trkpt lat="38.0448902" lon="-1.3285374"><ele>156.0</ele><time>2026-03-28T08:17:08.748Z</time></trkpt><trkpt lat="38.0448599" lon="-1.3286143"><ele>156.0</ele><time>2026-03-28T08:17:10.747Z</time></trkpt><trkpt lat="38.0448254" lon="-1.3286865"><ele>156.0</ele><time>2026-03-28T08:17:12.75Z</time></trkpt><trkpt lat="38.0447922" lon="-1.3287927"><ele>156.0</ele><time>2026-03-28T08:17:15.749Z</time></trkpt><trkpt lat="38.0447866" lon="-1.3289079"><ele>156.0</ele><time>2026-03-28T08:17:18.748Z</time></trkpt><trkpt lat="38.0447841" lon="-1.3289989"><ele>156.0</ele><time>2026-03-28T08:17:20.748Z</time></trkpt><trkpt lat="38.0447802" lon="-1.3290892"><ele>156.0</ele><time>2026-03-28T08:17:22.749Z</time></trkpt><trkpt lat="38.0447748" lon="-1.3291825"><ele>156.0</ele><time>2026-03-28T08:17:24.748Z</time></trkpt><trkpt lat="38.0447698" lon="-1.3292781"><ele>156.0</ele><time>2026-03-28T08:17:26.748Z</time></trkpt><trkpt lat="38.0447435" lon="-1.3294139"><ele>156.0</ele><time>2026-03-28T08:17:28.748Z</time></trkpt><trkpt lat="38.0447297" lon="-1.3295072"><ele>156.0</ele><time>2026-03-28T08:17:30.748Z</time></trkpt><trkpt lat="38.0447204" lon="-1.3296107"><ele>156.0</ele><time>2026-03-28T08:17:32.749Z</time></trkpt><trkpt lat="38.0447163" lon="-1.329709"><ele>156.0</ele><time>2026-03-28T08:17:34.749Z</time></trkpt><trkpt lat="38.0447146" lon="-1.3298086"><ele>156.0</ele><time>2026-03-28T08:17:36.749Z</time></trkpt><trkpt lat="38.0447103" lon="-1.3299059"><ele>156.0</ele><time>2026-03-28T08:17:38.749Z</time></trkpt><trkpt lat="38.0447081" lon="-1.3300008"><ele>156.0</ele><time>2026-03-28T08:17:40.749Z</time></trkpt><trkpt lat="38.044706" lon="-1.3300816"><ele>156.0</ele><time>2026-03-28T08:17:42.748Z</time></trkpt><trkpt lat="38.0446644" lon="-1.3302115"><ele>156.16666666666666</ele><time>2026-03-28T08:17:45.75Z</time></trkpt><trkpt lat="38.0445987" lon="-1.3302867"><ele>156.33333333333334</ele><time>2026-03-28T08:17:48.747Z</time></trkpt><trkpt lat="38.0445349" lon="-1.3303667"><ele>156.5</ele><time>2026-03-28T08:17:51.748Z</time></trkpt><trkpt lat="38.0444783" lon="-1.3304398"><ele>156.66666666666669</ele><time>2026-03-28T08:17:54.749Z</time></trkpt><trkpt lat="38.0444418" lon="-1.3305191"><ele>156.83333333333334</ele><time>2026-03-28T08:17:56.747Z</time></trkpt><trkpt lat="38.0444119" lon="-1.3305925"><ele>157.0</ele><time>2026-03-28T08:17:58.748Z</time></trkpt><trkpt lat="38.0443739" lon="-1.33068"><ele>156.99999999999997</ele><time>2026-03-28T08:18:01.748Z</time></trkpt><trkpt lat="38.0443397" lon="-1.3307495"><ele>157.0</ele><time>2026-03-28T08:18:04.748Z</time></trkpt><trkpt lat="38.0443069" lon="-1.330836"><ele>157.0</ele><time>2026-03-28T08:18:08.748Z</time></trkpt><trkpt lat="38.0442702" lon="-1.3309137"><ele>157.0</ele><time>2026-03-28T08:18:12.748Z</time></trkpt><trkpt lat="38.0442316" lon="-1.3310001"><ele>157.0</ele><time>2026-03-28T08:18:16.748Z</time></trkpt><trkpt lat="38.0441695" lon="-1.3310626"><ele>156.99999999999997</ele><time>2026-03-28T08:18:31.749Z</time></trkpt><trkpt lat="38.0441355" lon="-1.3311549"><ele>157.0</ele><time>2026-03-28T08:18:34.748Z</time></trkpt><trkpt lat="38.0441106" lon="-1.331233"><ele>154.66666666666669</ele><time>2026-03-28T08:18:36.748Z</time></trkpt><trkpt lat="38.0440723" lon="-1.3313152"><ele>152.33333333333334</ele><time>2026-03-28T08:18:38.747Z</time></trkpt><trkpt lat="38.0440296" lon="-1.3314415"><ele>150.0</ele><time>2026-03-28T08:18:40.748Z</time></trkpt><trkpt lat="38.0440029" lon="-1.3315153"><ele>147.66666666666666</ele><time>2026-03-28T08:18:41.747Z</time></trkpt><trkpt lat="38.0439762" lon="-1.3316127"><ele>145.33333333333331</ele><time>2026-03-28T08:18:42.749Z</time></trkpt><trkpt lat="38.043949" lon="-1.3317138"><ele>143.0</ele><time>2026-03-28T08:18:43.749Z</time></trkpt><trkpt lat="38.0439202" lon="-1.331817"><ele>142.4</ele><time>2026-03-28T08:18:44.748Z</time></trkpt><trkpt lat="38.0438919" lon="-1.3319197"><ele>141.8</ele><time>2026-03-28T08:18:45.747Z</time></trkpt><trkpt lat="38.0438422" lon="-1.332014"><ele>141.2</ele><time>2026-03-28T08:18:46.748Z</time></trkpt><trkpt lat="38.0437892" lon="-1.3321106"><ele>140.6</ele><time>2026-03-28T08:18:47.749Z</time></trkpt><trkpt lat="38.0437443" lon="-1.332175"><ele>140.0</ele><time>2026-03-28T08:18:48.749Z</time></trkpt><trkpt lat="38.0436618" lon="-1.3322764"><ele>139.66666666666666</ele><time>2026-03-28T08:18:50.749Z</time></trkpt><trkpt lat="38.043619" lon="-1.3323878"><ele>139.33333333333331</ele><time>2026-03-28T08:18:52.748Z</time></trkpt><trkpt lat="38.0436389" lon="-1.3324821"><ele>139.0</ele><time>2026-03-28T08:18:54.748Z</time></trkpt><trkpt lat="38.0436753" lon="-1.3325524"><ele>138.66666666666666</ele><time>2026-03-28T08:18:55.748Z</time></trkpt><trkpt lat="38.0437289" lon="-1.332658"><ele>138.33333333333334</ele><time>2026-03-28T08:18:57.747Z</time></trkpt><trkpt lat="38.0437766" lon="-1.332755"><ele>138.0</ele><time>2026-03-28T08:18:59.749Z</time></trkpt><trkpt lat="38.0438345" lon="-1.3328552"><ele>138.0</ele><time>2026-03-28T08:19:01.748Z</time></trkpt><trkpt lat="38.0438813" lon="-1.3329393"><ele>138.0</ele><time>2026-03-28T08:19:03.749Z</time></trkpt><trkpt lat="38.0439181" lon="-1.3330219"><ele>138.0</ele><time>2026-03-28T08:19:05.75Z</time></trkpt><trkpt lat="38.0439578" lon="-1.3331016"><ele>138.0</ele><time>2026-03-28T08:19:07.748Z</time></trkpt><trkpt lat="38.043989" lon="-1.3331795"><ele>138.0</ele><time>2026-03-28T08:19:09.75Z</time></trkpt><trkpt lat="38.044007" lon="-1.3332671"><ele>138.0</ele><time>2026-03-28T08:19:11.749Z</time></trkpt><trkpt lat="38.0440176" lon="-1.3333589"><ele>138.0</ele><time>2026-03-28T08:19:13.749Z</time></trkpt><trkpt lat="38.044019" lon="-1.333447"><ele>138.0</ele><time>2026-03-28T08:19:15.75Z</time></trkpt><trkpt lat="38.044008" lon="-1.3335283"><ele>138.0</ele><time>2026-03-28T08:19:17.749Z</time></trkpt><trkpt lat="38.0439838" lon="-1.3336038"><ele>138.0</ele><time>2026-03-28T08:19:19.749Z</time></trkpt><trkpt lat="38.0439602" lon="-1.3336827"><ele>138.0</ele><time>2026-03-28T08:19:21.748Z</time></trkpt><trkpt lat="38.0439348" lon="-1.3337638"><ele>138.0</ele><time>2026-03-28T08:19:23.749Z</time></trkpt><trkpt lat="38.0439101" lon="-1.3338443"><ele>138.0</ele><time>2026-03-28T08:19:25.748Z</time></trkpt><trkpt lat="38.0438873" lon="-1.3339249"><ele>138.0</ele><time>2026-03-28T08:19:27.749Z</time></trkpt><trkpt lat="38.0438688" lon="-1.3340067"><ele>138.0</ele><time>2026-03-28T08:19:29.749Z</time></trkpt><trkpt lat="38.0438598" lon="-1.334088"><ele>138.0</ele><time>2026-03-28T08:19:31.748Z</time></trkpt><trkpt lat="38.0438531" lon="-1.3341725"><ele>138.0</ele><time>2026-03-28T08:19:33.749Z</time></trkpt><trkpt lat="38.0438553" lon="-1.3342657"><ele>138.0</ele><time>2026-03-28T08:19:35.749Z</time></trkpt><trkpt lat="38.0438598" lon="-1.3343565"><ele>138.0</ele><time>2026-03-28T08:19:37.749Z</time></trkpt><trkpt lat="38.0438667" lon="-1.3344529"><ele>138.0</ele><time>2026-03-28T08:19:39.749Z</time></trkpt><trkpt lat="38.0438738" lon="-1.334552"><ele>138.0</ele><time>2026-03-28T08:19:41.75Z</time></trkpt><trkpt lat="38.043887" lon="-1.334644"><ele>138.5</ele><time>2026-03-28T08:19:43.748Z</time></trkpt><trkpt lat="38.0438992" lon="-1.3347427"><ele>139.0</ele><time>2026-03-28T08:19:45.749Z</time></trkpt><trkpt lat="38.0439127" lon="-1.3348333"><ele>139.5</ele><time>2026-03-28T08:19:47.748Z</time></trkpt><trkpt lat="38.0439438" lon="-1.334926"><ele>140.0</ele><time>2026-03-28T08:19:49.749Z</time></trkpt><trkpt lat="38.0439795" lon="-1.3350181"><ele>140.5</ele><time>2026-03-28T08:19:51.749Z</time></trkpt><trkpt lat="38.0440157" lon="-1.3351031"><ele>141.0</ele><time>2026-03-28T08:19:53.75Z</time></trkpt><trkpt lat="38.0440397" lon="-1.3351772"><ele>141.0</ele><time>2026-03-28T08:19:55.749Z</time></trkpt><trkpt lat="38.0440951" lon="-1.3352845"><ele>141.0</ele><time>2026-03-28T08:19:58.75Z</time></trkpt><trkpt lat="38.0441385" lon="-1.3353565"><ele>141.0</ele><time>2026-03-28T08:20:00.749Z</time></trkpt><trkpt lat="38.0441808" lon="-1.3354411"><ele>141.0</ele><time>2026-03-28T08:20:02.748Z</time></trkpt><trkpt lat="38.0442289" lon="-1.3355338"><ele>141.0</ele><time>2026-03-28T08:20:04.748Z</time></trkpt><trkpt lat="38.0442766" lon="-1.3356228"><ele>141.0</ele><time>2026-03-28T08:20:06.748Z</time></trkpt><trkpt lat="38.0443254" lon="-1.3357088"><ele>142.83333333333334</ele><time>2026-03-28T08:20:08.749Z</time></trkpt><trkpt lat="38.0443708" lon="-1.3357948"><ele>144.66666666666666</ele><time>2026-03-28T08:20:10.748Z</time></trkpt><trkpt lat="38.0444179" lon="-1.3358779"><ele>146.5</ele><time>2026-03-28T08:20:12.749Z</time></trkpt><trkpt lat="38.0444653" lon="-1.3359607"><ele>148.33333333333331</ele><time>2026-03-28T08:20:14.75Z</time></trkpt><trkpt lat="38.0445118" lon="-1.3360424"><ele>150.16666666666666</ele><time>2026-03-28T08:20:16.749Z</time></trkpt><trkpt lat="38.0445618" lon="-1.3361148"><ele>152.0</ele><time>2026-03-28T08:20:18.748Z</time></trkpt><trkpt lat="38.0446126" lon="-1.3361837"><ele>152.0</ele><time>2026-03-28T08:20:20.748Z</time></trkpt><trkpt lat="38.0446603" lon="-1.3362515"><ele>152.0</ele><time>2026-03-28T08:20:22.748Z</time></trkpt><trkpt lat="38.0447154" lon="-1.3363048"><ele>152.0</ele><time>2026-03-28T08:20:24.748Z</time></trkpt><trkpt lat="38.0447744" lon="-1.3363458"><ele>152.0</ele><time>2026-03-28T08:20:26.749Z</time></trkpt><trkpt lat="38.0448312" lon="-1.3363819"><ele>152.0</ele><time>2026-03-28T08:20:28.749Z</time></trkpt><trkpt lat="38.0448982" lon="-1.3364276"><ele>152.0</ele><time>2026-03-28T08:20:30.748Z</time></trkpt><trkpt lat="38.0449608" lon="-1.3364989"><ele>152.0</ele><time>2026-03-28T08:20:32.748Z</time></trkpt><trkpt lat="38.0449883" lon="-1.3366093"><ele>152.0</ele><time>2026-03-28T08:20:34.749Z</time></trkpt><trkpt lat="38.0449899" lon="-1.3367219"><ele>152.0</ele><time>2026-03-28T08:20:36.75Z</time></trkpt><trkpt lat="38.0449407" lon="-1.3368332"><ele>152.0</ele><time>2026-03-28T08:20:38.749Z</time></trkpt><trkpt lat="38.044757" lon="-1.3370441"><ele>152.0</ele><time>2026-03-28T08:20:40.748Z</time></trkpt><trkpt lat="38.0447214" lon="-1.3371188"><ele>152.83333333333331</ele><time>2026-03-28T08:20:41.749Z</time></trkpt><trkpt lat="38.044665" lon="-1.3372206"><ele>153.66666666666666</ele><time>2026-03-28T08:20:43.748Z</time></trkpt><trkpt lat="38.0446418" lon="-1.3373415"><ele>154.5</ele><time>2026-03-28T08:20:45.749Z</time></trkpt><trkpt lat="38.044622" lon="-1.337448"><ele>155.33333333333334</ele><time>2026-03-28T08:20:47.748Z</time></trkpt><trkpt lat="38.0446071" lon="-1.3375337"><ele>156.16666666666669</ele><time>2026-03-28T08:20:49.748Z</time></trkpt><trkpt lat="38.0445925" lon="-1.3376289"><ele>157.0</ele><time>2026-03-28T08:20:51.748Z</time></trkpt><trkpt lat="38.0445808" lon="-1.3377196"><ele>156.99999999999997</ele><time>2026-03-28T08:20:53.749Z</time></trkpt><trkpt lat="38.0445758" lon="-1.3378126"><ele>157.0</ele><time>2026-03-28T08:20:55.748Z</time></trkpt><trkpt lat="38.044568" lon="-1.3378944"><ele>157.0</ele><time>2026-03-28T08:20:57.748Z</time></trkpt><trkpt lat="38.0445567" lon="-1.3379774"><ele>157.0</ele><time>2026-03-28T08:20:59.749Z</time></trkpt><trkpt lat="38.0445551" lon="-1.3380712"><ele>157.0</ele><time>2026-03-28T08:21:01.748Z</time></trkpt><trkpt lat="38.0445642" lon="-1.3381788"><ele>156.99999999999997</ele><time>2026-03-28T08:21:04.748Z</time></trkpt><trkpt lat="38.0445728" lon="-1.3382815"><ele>157.0</ele><time>2026-03-28T08:21:06.748Z</time></trkpt><trkpt lat="38.0445748" lon="-1.3383985"><ele>156.66666666666669</ele><time>2026-03-28T08:21:08.748Z</time></trkpt><trkpt lat="38.0445749" lon="-1.338506"><ele>156.33333333333334</ele><time>2026-03-28T08:21:10.749Z</time></trkpt><trkpt lat="38.044579" lon="-1.3386158"><ele>156.0</ele><time>2026-03-28T08:21:12.749Z</time></trkpt><trkpt lat="38.0445884" lon="-1.3387236"><ele>155.66666666666666</ele><time>2026-03-28T08:21:14.749Z</time></trkpt><trkpt lat="38.0445868" lon="-1.3388384"><ele>155.33333333333331</ele><time>2026-03-28T08:21:16.748Z</time></trkpt><trkpt lat="38.0445965" lon="-1.3389403"><ele>155.0</ele><time>2026-03-28T08:21:18.749Z</time></trkpt><trkpt lat="38.0446109" lon="-1.3390439"><ele>154.42857142857144</ele><time>2026-03-28T08:21:20.748Z</time></trkpt><trkpt lat="38.044645" lon="-1.339135"><ele>153.85714285714286</ele><time>2026-03-28T08:21:22.75Z</time></trkpt><trkpt lat="38.0446913" lon="-1.3392186"><ele>153.28571428571428</ele><time>2026-03-28T08:21:24.748Z</time></trkpt><trkpt lat="38.0447504" lon="-1.3392829"><ele>152.71428571428572</ele><time>2026-03-28T08:21:26.748Z</time></trkpt><trkpt lat="38.0448156" lon="-1.3393243"><ele>152.14285714285714</ele><time>2026-03-28T08:21:28.748Z</time></trkpt><trkpt lat="38.0448834" lon="-1.3393503"><ele>151.57142857142858</ele><time>2026-03-28T08:21:30.75Z</time></trkpt><trkpt lat="38.0449481" lon="-1.3393745"><ele>151.0</ele><time>2026-03-28T08:21:32.749Z</time></trkpt><trkpt lat="38.0450168" lon="-1.3393879"><ele>152.83333333333334</ele><time>2026-03-28T08:21:35.748Z</time></trkpt><trkpt lat="38.0450818" lon="-1.3394062"><ele>154.66666666666669</ele><time>2026-03-28T08:21:37.748Z</time></trkpt><trkpt lat="38.0451467" lon="-1.3394238"><ele>156.5</ele><time>2026-03-28T08:21:39.747Z</time></trkpt><trkpt lat="38.0452334" lon="-1.3394517"><ele>158.33333333333334</ele><time>2026-03-28T08:21:42.748Z</time></trkpt><trkpt lat="38.0453024" lon="-1.3394519"><ele>160.16666666666666</ele><time>2026-03-28T08:21:44.748Z</time></trkpt><trkpt lat="38.0453755" lon="-1.3394503"><ele>162.0</ele><time>2026-03-28T08:21:46.75Z</time></trkpt><trkpt lat="38.045476" lon="-1.3394591"><ele>162.0</ele><time>2026-03-28T08:21:50.749Z</time></trkpt><trkpt lat="38.0455535" lon="-1.3394703"><ele>162.0</ele><time>2026-03-28T08:21:53.749Z</time></trkpt><trkpt lat="38.0456187" lon="-1.3394793"><ele>162.0</ele><time>2026-03-28T08:21:55.75Z</time></trkpt><trkpt lat="38.0456838" lon="-1.3394925"><ele>162.0</ele><time>2026-03-28T08:21:57.75Z</time></trkpt><trkpt lat="38.0457524" lon="-1.3395041"><ele>162.0</ele><time>2026-03-28T08:21:59.748Z</time></trkpt><trkpt lat="38.0458145" lon="-1.339519"><ele>162.0</ele><time>2026-03-28T08:22:01.749Z</time></trkpt><trkpt lat="38.0458814" lon="-1.3395388"><ele>162.0</ele><time>2026-03-28T08:22:03.749Z</time></trkpt><trkpt lat="38.0459497" lon="-1.3395605"><ele>161.85714285714286</ele><time>2026-03-28T08:22:05.748Z</time></trkpt><trkpt lat="38.0460166" lon="-1.339591"><ele>161.71428571428572</ele><time>2026-03-28T08:22:07.749Z</time></trkpt><trkpt lat="38.0461034" lon="-1.3396306"><ele>161.57142857142856</ele><time>2026-03-28T08:22:10.748Z</time></trkpt><trkpt lat="38.0461638" lon="-1.339659"><ele>161.42857142857144</ele><time>2026-03-28T08:22:12.749Z</time></trkpt><trkpt lat="38.0462371" lon="-1.3397225"><ele>161.28571428571428</ele><time>2026-03-28T08:22:15.749Z</time></trkpt><trkpt lat="38.0462921" lon="-1.3397661"><ele>161.14285714285714</ele><time>2026-03-28T08:22:17.748Z</time></trkpt><trkpt lat="38.0463489" lon="-1.3398082"><ele>161.0</ele><time>2026-03-28T08:22:19.748Z</time></trkpt><trkpt lat="38.0464042" lon="-1.3398505"><ele>161.0</ele><time>2026-03-28T08:22:21.75Z</time></trkpt><trkpt lat="38.0464749" lon="-1.3399083"><ele>161.0</ele><time>2026-03-28T08:22:24.749Z</time></trkpt><trkpt lat="38.0465439" lon="-1.3399769"><ele>161.0</ele><time>2026-03-28T08:22:27.749Z</time></trkpt><trkpt lat="38.0466201" lon="-1.3400395"><ele>161.0</ele><time>2026-03-28T08:22:30.749Z</time></trkpt><trkpt lat="38.0466889" lon="-1.3400911"><ele>161.0</ele><time>2026-03-28T08:22:32.749Z</time></trkpt><trkpt lat="38.0467436" lon="-1.3401366"><ele>161.0</ele><time>2026-03-28T08:22:34.749Z</time></trkpt><trkpt lat="38.0468017" lon="-1.340183"><ele>162.0</ele><time>2026-03-28T08:22:36.749Z</time></trkpt><trkpt lat="38.0468548" lon="-1.3402312"><ele>163.0</ele><time>2026-03-28T08:22:38.749Z</time></trkpt><trkpt lat="38.046919" lon="-1.3402805"><ele>164.0</ele><time>2026-03-28T08:22:40.75Z</time></trkpt><trkpt lat="38.046992" lon="-1.3403369"><ele>165.0</ele><time>2026-03-28T08:22:43.748Z</time></trkpt><trkpt lat="38.0470696" lon="-1.3403862"><ele>166.0</ele><time>2026-03-28T08:22:46.748Z</time></trkpt><trkpt lat="38.0471298" lon="-1.3404101"><ele>167.0</ele><time>2026-03-28T08:22:48.749Z</time></trkpt><trkpt lat="38.0472102" lon="-1.3404433"><ele>167.0</ele><time>2026-03-28T08:22:50.749Z</time></trkpt><trkpt lat="38.0472832" lon="-1.3404766"><ele>167.0</ele><time>2026-03-28T08:22:52.748Z</time></trkpt><trkpt lat="38.0473703" lon="-1.3405255"><ele>167.0</ele><time>2026-03-28T08:22:55.748Z</time></trkpt><trkpt lat="38.0474388" lon="-1.3405613"><ele>167.0</ele><time>2026-03-28T08:22:57.749Z</time></trkpt><trkpt lat="38.0475122" lon="-1.3405999"><ele>167.0</ele><time>2026-03-28T08:22:59.749Z</time></trkpt><trkpt lat="38.0475904" lon="-1.3406446"><ele>167.0</ele><time>2026-03-28T08:23:01.748Z</time></trkpt><trkpt lat="38.0476396" lon="-1.340702"><ele>167.16666666666666</ele><time>2026-03-28T08:23:03.75Z</time></trkpt><trkpt lat="38.047697" lon="-1.3407656"><ele>167.33333333333331</ele><time>2026-03-28T08:23:05.749Z</time></trkpt><trkpt lat="38.0477472" lon="-1.3408183"><ele>167.5</ele><time>2026-03-28T08:23:07.75Z</time></trkpt><trkpt lat="38.047783" lon="-1.3409064"><ele>167.66666666666666</ele><time>2026-03-28T08:23:09.75Z</time></trkpt><trkpt lat="38.0477972" lon="-1.3410052"><ele>167.83333333333334</ele><time>2026-03-28T08:23:11.748Z</time></trkpt><trkpt lat="38.0478139" lon="-1.3411442"><ele>168.0</ele><time>2026-03-28T08:23:14.75Z</time></trkpt><trkpt lat="38.0478328" lon="-1.3412278"><ele>168.0</ele><time>2026-03-28T08:23:16.75Z</time></trkpt><trkpt lat="38.0478385" lon="-1.3413129"><ele>168.0</ele><time>2026-03-28T08:23:17.749Z</time></trkpt><trkpt lat="38.0478353" lon="-1.3414128"><ele>168.0</ele><time>2026-03-28T08:23:20.749Z</time></trkpt><trkpt lat="38.0478455" lon="-1.3415155"><ele>168.0</ele><time>2026-03-28T08:23:23.749Z</time></trkpt><trkpt lat="38.0478597" lon="-1.3416271"><ele>168.0</ele><time>2026-03-28T08:23:26.75Z</time></trkpt><trkpt lat="38.0478811" lon="-1.3417261"><ele>168.0</ele><time>2026-03-28T08:23:28.748Z</time></trkpt><trkpt lat="38.0479164" lon="-1.341845"><ele>167.60000000000002</ele><time>2026-03-28T08:23:30.749Z</time></trkpt><trkpt lat="38.0479887" lon="-1.3419512"><ele>167.20000000000002</ele><time>2026-03-28T08:23:32.749Z</time></trkpt><trkpt lat="38.0480805" lon="-1.3420596"><ele>166.8</ele><time>2026-03-28T08:23:34.749Z</time></trkpt><trkpt lat="38.048134" lon="-1.3421216"><ele>166.4</ele><time>2026-03-28T08:23:35.749Z</time></trkpt><trkpt lat="38.0481879" lon="-1.3421869"><ele>166.0</ele><time>2026-03-28T08:23:36.748Z</time></trkpt><trkpt lat="38.0482476" lon="-1.3422507"><ele>165.83333333333334</ele><time>2026-03-28T08:23:37.749Z</time></trkpt><trkpt lat="38.0483088" lon="-1.3423178"><ele>165.66666666666669</ele><time>2026-03-28T08:23:38.748Z</time></trkpt><trkpt lat="38.048372" lon="-1.3423948"><ele>165.5</ele><time>2026-03-28T08:23:39.749Z</time></trkpt><trkpt lat="38.0484376" lon="-1.3424733"><ele>165.33333333333334</ele><time>2026-03-28T08:23:40.748Z</time></trkpt><trkpt lat="38.0485002" lon="-1.3425599"><ele>165.16666666666666</ele><time>2026-03-28T08:23:41.749Z</time></trkpt><trkpt lat="38.0485501" lon="-1.3426498"><ele>165.0</ele><time>2026-03-28T08:23:42.748Z</time></trkpt><trkpt lat="38.0485751" lon="-1.342735"><ele>165.0</ele><time>2026-03-28T08:23:43.748Z</time></trkpt><trkpt lat="38.0485548" lon="-1.3428825"><ele>165.0</ele><time>2026-03-28T08:23:45.748Z</time></trkpt><trkpt lat="38.0484988" lon="-1.3430074"><ele>165.0</ele><time>2026-03-28T08:23:47.748Z</time></trkpt><trkpt lat="38.0484183" lon="-1.3431212"><ele>165.0</ele><time>2026-03-28T08:23:49.748Z</time></trkpt><trkpt lat="38.0483691" lon="-1.3431801"><ele>165.0</ele><time>2026-03-28T08:23:50.748Z</time></trkpt><trkpt lat="38.0483198" lon="-1.343238"><ele>164.42857142857144</ele><time>2026-03-28T08:23:51.75Z</time></trkpt><trkpt lat="38.0482684" lon="-1.3432985"><ele>163.85714285714286</ele><time>2026-03-28T08:23:52.749Z</time></trkpt><trkpt lat="38.0482141" lon="-1.3433622"><ele>163.28571428571428</ele><time>2026-03-28T08:23:53.749Z</time></trkpt><trkpt lat="38.0481552" lon="-1.3434232"><ele>162.71428571428572</ele><time>2026-03-28T08:23:54.749Z</time></trkpt><trkpt lat="38.0480974" lon="-1.3434817"><ele>162.14285714285714</ele><time>2026-03-28T08:23:55.749Z</time></trkpt><trkpt lat="38.0480357" lon="-1.3435407"><ele>161.57142857142858</ele><time>2026-03-28T08:23:56.75Z</time></trkpt><trkpt lat="38.047978" lon="-1.3436066"><ele>161.0</ele><time>2026-03-28T08:23:57.748Z</time></trkpt><trkpt lat="38.0479159" lon="-1.3436764"><ele>161.0</ele><time>2026-03-28T08:23:58.749Z</time></trkpt><trkpt lat="38.0478501" lon="-1.3437449"><ele>161.0</ele><time>2026-03-28T08:23:59.748Z</time></trkpt><trkpt lat="38.0477806" lon="-1.3438148"><ele>161.0</ele><time>2026-03-28T08:24:00.747Z</time></trkpt><trkpt lat="38.0477105" lon="-1.3438863"><ele>161.0</ele><time>2026-03-28T08:24:01.748Z</time></trkpt><trkpt lat="38.0476402" lon="-1.3439666"><ele>161.0</ele><time>2026-03-28T08:24:02.748Z</time></trkpt><trkpt lat="38.0475696" lon="-1.3440394"><ele>161.0</ele><time>2026-03-28T08:24:03.748Z</time></trkpt><trkpt lat="38.0475018" lon="-1.3441181"><ele>159.0</ele><time>2026-03-28T08:24:04.749Z</time></trkpt><trkpt lat="38.0474269" lon="-1.3441971"><ele>157.0</ele><time>2026-03-28T08:24:05.749Z</time></trkpt><trkpt lat="38.0473633" lon="-1.3442407"><ele>155.0</ele><time>2026-03-28T08:24:06.748Z</time></trkpt><trkpt lat="38.0472895" lon="-1.3443186"><ele>153.0</ele><time>2026-03-28T08:24:07.75Z</time></trkpt><trkpt lat="38.0472126" lon="-1.3444072"><ele>151.0</ele><time>2026-03-28T08:24:08.749Z</time></trkpt><trkpt lat="38.0471301" lon="-1.344487"><ele>151.0</ele><time>2026-03-28T08:24:09.75Z</time></trkpt><trkpt lat="38.0470421" lon="-1.3445755"><ele>151.0</ele><time>2026-03-28T08:24:10.748Z</time></trkpt><trkpt lat="38.0469571" lon="-1.3446643"><ele>151.0</ele><time>2026-03-28T08:24:11.748Z</time></trkpt><trkpt lat="38.046873" lon="-1.3447432"><ele>151.0</ele><time>2026-03-28T08:24:12.75Z</time></trkpt><trkpt lat="38.0467885" lon="-1.3448371"><ele>151.0</ele><time>2026-03-28T08:24:13.748Z</time></trkpt><trkpt lat="38.0467064" lon="-1.3449271"><ele>151.0</ele><time>2026-03-28T08:24:14.748Z</time></trkpt><trkpt lat="38.0466247" lon="-1.3450176"><ele>151.0</ele><time>2026-03-28T08:24:15.749Z</time></trkpt><trkpt lat="38.0465474" lon="-1.3451004"><ele>151.0</ele><time>2026-03-28T08:24:16.749Z</time></trkpt><trkpt lat="38.0464674" lon="-1.3451908"><ele>151.0</ele><time>2026-03-28T08:24:17.749Z</time></trkpt><trkpt lat="38.0463899" lon="-1.3452754"><ele>151.0</ele><time>2026-03-28T08:24:18.749Z</time></trkpt><trkpt lat="38.0463153" lon="-1.3453565"><ele>151.0</ele><time>2026-03-28T08:24:19.749Z</time></trkpt><trkpt lat="38.0462441" lon="-1.3454328"><ele>151.0</ele><time>2026-03-28T08:24:20.749Z</time></trkpt><trkpt lat="38.0461731" lon="-1.3455081"><ele>151.0</ele><time>2026-03-28T08:24:21.748Z</time></trkpt><trkpt lat="38.0461061" lon="-1.3455781"><ele>151.0</ele><time>2026-03-28T08:24:22.75Z</time></trkpt><trkpt lat="38.0460388" lon="-1.3456454"><ele>151.0</ele><time>2026-03-28T08:24:23.749Z</time></trkpt><trkpt lat="38.0459776" lon="-1.3457091"><ele>151.0</ele><time>2026-03-28T08:24:24.748Z</time></trkpt><trkpt lat="38.0459119" lon="-1.3457599"><ele>151.0</ele><time>2026-03-28T08:24:25.749Z</time></trkpt><trkpt lat="38.0457947" lon="-1.3458893"><ele>151.0</ele><time>2026-03-28T08:24:27.749Z</time></trkpt><trkpt lat="38.0457356" lon="-1.3459399"><ele>151.0</ele><time>2026-03-28T08:24:28.748Z</time></trkpt><trkpt lat="38.0456688" lon="-1.3459849"><ele>151.0</ele><time>2026-03-28T08:24:29.75Z</time></trkpt><trkpt lat="38.045603" lon="-1.3460283"><ele>151.0</ele><time>2026-03-28T08:24:30.748Z</time></trkpt><trkpt lat="38.0455386" lon="-1.3460742"><ele>151.0</ele><time>2026-03-28T08:24:31.748Z</time></trkpt><trkpt lat="38.0454748" lon="-1.3461159"><ele>151.0</ele><time>2026-03-28T08:24:32.748Z</time></trkpt><trkpt lat="38.0454148" lon="-1.3461535"><ele>151.0</ele><time>2026-03-28T08:24:33.75Z</time></trkpt><trkpt lat="38.0453516" lon="-1.3461908"><ele>151.0</ele><time>2026-03-28T08:24:34.748Z</time></trkpt><trkpt lat="38.0452374" lon="-1.3462622"><ele>151.0</ele><time>2026-03-28T08:24:36.749Z</time></trkpt><trkpt lat="38.0451774" lon="-1.3462951"><ele>151.0</ele><time>2026-03-28T08:24:37.749Z</time></trkpt><trkpt lat="38.0450599" lon="-1.3463539"><ele>151.0</ele><time>2026-03-28T08:24:39.749Z</time></trkpt><trkpt lat="38.044953" lon="-1.3464188"><ele>151.0</ele><time>2026-03-28T08:24:41.748Z</time></trkpt><trkpt lat="38.0448463" lon="-1.3464899"><ele>151.0</ele><time>2026-03-28T08:24:43.749Z</time></trkpt><trkpt lat="38.0447409" lon="-1.3465659"><ele>151.0</ele><time>2026-03-28T08:24:45.748Z</time></trkpt><trkpt lat="38.0446859" lon="-1.346605"><ele>151.0</ele><time>2026-03-28T08:24:46.748Z</time></trkpt><trkpt lat="38.0445829" lon="-1.3466902"><ele>151.0</ele><time>2026-03-28T08:24:48.749Z</time></trkpt><trkpt lat="38.0444881" lon="-1.3467738"><ele>151.0</ele><time>2026-03-28T08:24:50.749Z</time></trkpt><trkpt lat="38.0443945" lon="-1.3468496"><ele>151.0</ele><time>2026-03-28T08:24:52.748Z</time></trkpt><trkpt lat="38.0443136" lon="-1.346932"><ele>151.0</ele><time>2026-03-28T08:24:54.748Z</time></trkpt><trkpt lat="38.0442382" lon="-1.3470095"><ele>151.0</ele><time>2026-03-28T08:24:56.748Z</time></trkpt><trkpt lat="38.0441646" lon="-1.3470888"><ele>151.33333333333334</ele><time>2026-03-28T08:24:58.75Z</time></trkpt><trkpt lat="38.0440956" lon="-1.3471738"><ele>151.66666666666669</ele><time>2026-03-28T08:25:00.749Z</time></trkpt><trkpt lat="38.0440263" lon="-1.3472508"><ele>152.0</ele><time>2026-03-28T08:25:02.75Z</time></trkpt><trkpt lat="38.0439603" lon="-1.3473269"><ele>152.33333333333334</ele><time>2026-03-28T08:25:04.749Z</time></trkpt><trkpt lat="38.0439024" lon="-1.3473998"><ele>152.66666666666666</ele><time>2026-03-28T08:25:06.748Z</time></trkpt><trkpt lat="38.0438521" lon="-1.3474624"><ele>153.0</ele><time>2026-03-28T08:25:08.749Z</time></trkpt><trkpt lat="38.0438027" lon="-1.3475348"><ele>153.5</ele><time>2026-03-28T08:25:10.748Z</time></trkpt><trkpt lat="38.0437511" lon="-1.3476119"><ele>154.0</ele><time>2026-03-28T08:25:12.748Z</time></trkpt><trkpt lat="38.0436994" lon="-1.3476834"><ele>154.5</ele><time>2026-03-28T08:25:14.748Z</time></trkpt><trkpt lat="38.0436559" lon="-1.3477626"><ele>155.0</ele><time>2026-03-28T08:25:16.75Z</time></trkpt><trkpt lat="38.0436138" lon="-1.3478371"><ele>155.5</ele><time>2026-03-28T08:25:18.749Z</time></trkpt><trkpt lat="38.0435702" lon="-1.3479124"><ele>156.0</ele><time>2026-03-28T08:25:20.749Z</time></trkpt><trkpt lat="38.0435285" lon="-1.3479929"><ele>156.42857142857144</ele><time>2026-03-28T08:25:22.749Z</time></trkpt><trkpt lat="38.0434862" lon="-1.3480709"><ele>156.85714285714283</ele><time>2026-03-28T08:25:24.749Z</time></trkpt><trkpt lat="38.0434474" lon="-1.3481498"><ele>157.28571428571428</ele><time>2026-03-28T08:25:26.749Z</time></trkpt><trkpt lat="38.0434077" lon="-1.3482226"><ele>157.71428571428572</ele><time>2026-03-28T08:25:28.748Z</time></trkpt><trkpt lat="38.0433697" lon="-1.348293"><ele>158.14285714285717</ele><time>2026-03-28T08:25:30.75Z</time></trkpt><trkpt lat="38.043327" lon="-1.348354"><ele>158.57142857142856</ele><time>2026-03-28T08:25:32.749Z</time></trkpt><trkpt lat="38.043272" lon="-1.3484384"><ele>159.0</ele><time>2026-03-28T08:25:35.75Z</time></trkpt><trkpt lat="38.0432359" lon="-1.3485274"><ele>159.7142857142857</ele><time>2026-03-28T08:25:38.75Z</time></trkpt><trkpt lat="38.0432432" lon="-1.3486133"><ele>160.42857142857144</ele><time>2026-03-28T08:25:42.748Z</time></trkpt><trkpt lat="38.0432323" lon="-1.3487015"><ele>161.14285714285714</ele><time>2026-03-28T08:26:28.749Z</time></trkpt><trkpt lat="38.04319" lon="-1.3487656"><ele>161.85714285714283</ele><time>2026-03-28T08:26:31.75Z</time></trkpt><trkpt lat="38.043133" lon="-1.3488192"><ele>162.57142857142856</ele><time>2026-03-28T08:26:34.75Z</time></trkpt><trkpt lat="38.0430519" lon="-1.3488412"><ele>163.28571428571428</ele><time>2026-03-28T08:26:37.749Z</time></trkpt><trkpt lat="38.0429764" lon="-1.3488406"><ele>164.0</ele><time>2026-03-28T08:26:40.75Z</time></trkpt><trkpt lat="38.0428995" lon="-1.3488559"><ele>164.28571428571428</ele><time>2026-03-28T08:26:45.751Z</time></trkpt><trkpt lat="38.0428605" lon="-1.3489372"><ele>164.57142857142856</ele><time>2026-03-28T08:26:47.751Z</time></trkpt><trkpt lat="38.0428021" lon="-1.3489935"><ele>164.85714285714283</ele><time>2026-03-28T08:26:50.75Z</time></trkpt><trkpt lat="38.0427382" lon="-1.3490247"><ele>165.14285714285714</ele><time>2026-03-28T08:26:54.749Z</time></trkpt><trkpt lat="38.042682" lon="-1.349064"><ele>165.42857142857144</ele><time>2026-03-28T08:26:57.749Z</time></trkpt><trkpt lat="38.042615" lon="-1.3491003"><ele>165.7142857142857</ele><time>2026-03-28T08:27:01.749Z</time></trkpt><trkpt lat="38.0425456" lon="-1.3491602"><ele>166.0</ele><time>2026-03-28T08:27:05.748Z</time></trkpt><trkpt lat="38.0424804" lon="-1.3492126"><ele>167.16666666666669</ele><time>2026-03-28T08:27:08.748Z</time></trkpt><trkpt lat="38.0424138" lon="-1.3492694"><ele>168.33333333333334</ele><time>2026-03-28T08:27:11.748Z</time></trkpt><trkpt lat="38.0423377" lon="-1.3493215"><ele>169.5</ele><time>2026-03-28T08:27:14.748Z</time></trkpt><trkpt lat="38.0422753" lon="-1.3493911"><ele>170.66666666666666</ele><time>2026-03-28T08:27:17.749Z</time></trkpt><trkpt lat="38.0422017" lon="-1.3494497"><ele>171.83333333333331</ele><time>2026-03-28T08:27:20.75Z</time></trkpt><trkpt lat="38.0421233" lon="-1.349521"><ele>173.0</ele><time>2026-03-28T08:27:23.749Z</time></trkpt><trkpt lat="38.0420668" lon="-1.3495694"><ele>173.0</ele><time>2026-03-28T08:27:25.75Z</time></trkpt><trkpt lat="38.0419916" lon="-1.3496367"><ele>173.0</ele><time>2026-03-28T08:27:28.749Z</time></trkpt><trkpt lat="38.0419379" lon="-1.3496864"><ele>173.0</ele><time>2026-03-28T08:27:30.75Z</time></trkpt><trkpt lat="38.0418824" lon="-1.3497315"><ele>173.0</ele><time>2026-03-28T08:27:32.748Z</time></trkpt><trkpt lat="38.0418065" lon="-1.3497956"><ele>173.0</ele><time>2026-03-28T08:27:35.749Z</time></trkpt><trkpt lat="38.0417374" lon="-1.3498506"><ele>173.0</ele><time>2026-03-28T08:27:38.749Z</time></trkpt><trkpt lat="38.0416636" lon="-1.3499038"><ele>173.83333333333331</ele><time>2026-03-28T08:27:41.749Z</time></trkpt><trkpt lat="38.0415839" lon="-1.3499608"><ele>174.66666666666666</ele><time>2026-03-28T08:27:44.749Z</time></trkpt><trkpt lat="38.0415264" lon="-1.3500133"><ele>175.5</ele><time>2026-03-28T08:27:46.748Z</time></trkpt><trkpt lat="38.0414695" lon="-1.3500733"><ele>176.33333333333334</ele><time>2026-03-28T08:27:48.749Z</time></trkpt><trkpt lat="38.0414001" lon="-1.3501263"><ele>177.16666666666669</ele><time>2026-03-28T08:27:51.749Z</time></trkpt><trkpt lat="38.0413288" lon="-1.3501865"><ele>178.0</ele><time>2026-03-28T08:27:54.749Z</time></trkpt><trkpt lat="38.0412596" lon="-1.3502417"><ele>178.0</ele><time>2026-03-28T08:27:57.748Z</time></trkpt><trkpt lat="38.0412" lon="-1.3502862"><ele>178.0</ele><time>2026-03-28T08:28:01.748Z</time></trkpt><trkpt lat="38.0411354" lon="-1.3503553"><ele>178.0</ele><time>2026-03-28T08:28:05.749Z</time></trkpt><trkpt lat="38.0410631" lon="-1.3504198"><ele>178.0</ele><time>2026-03-28T08:28:07.748Z</time></trkpt><trkpt lat="38.0410133" lon="-1.3504737"><ele>178.0</ele><time>2026-03-28T08:28:09.749Z</time></trkpt><trkpt lat="38.0409604" lon="-1.3505529"><ele>178.0</ele><time>2026-03-28T08:28:13.749Z</time></trkpt><trkpt lat="38.0409104" lon="-1.3506252"><ele>178.33333333333334</ele><time>2026-03-28T08:28:16.748Z</time></trkpt><trkpt lat="38.040863" lon="-1.3507145"><ele>178.66666666666669</ele><time>2026-03-28T08:28:19.749Z</time></trkpt><trkpt lat="38.0408238" lon="-1.3507883"><ele>179.0</ele><time>2026-03-28T08:28:21.749Z</time></trkpt><trkpt lat="38.0407603" lon="-1.3508678"><ele>179.33333333333334</ele><time>2026-03-28T08:28:24.749Z</time></trkpt><trkpt lat="38.0407194" lon="-1.3509524"><ele>179.66666666666666</ele><time>2026-03-28T08:28:28.749Z</time></trkpt><trkpt lat="38.0406854" lon="-1.3510513"><ele>180.0</ele><time>2026-03-28T08:28:31.75Z</time></trkpt><trkpt lat="38.0406474" lon="-1.3511492"><ele>180.0</ele><time>2026-03-28T08:28:34.748Z</time></trkpt><trkpt lat="38.0406117" lon="-1.3512499"><ele>180.0</ele><time>2026-03-28T08:28:37.75Z</time></trkpt><trkpt lat="38.0405864" lon="-1.3513366"><ele>180.0</ele><time>2026-03-28T08:28:39.748Z</time></trkpt><trkpt lat="38.0405594" lon="-1.3514166"><ele>180.0</ele><time>2026-03-28T08:28:41.751Z</time></trkpt><trkpt lat="38.0405418" lon="-1.3514965"><ele>180.0</ele><time>2026-03-28T08:28:43.749Z</time></trkpt><trkpt lat="38.0405107" lon="-1.35159"><ele>180.0</ele><time>2026-03-28T08:28:45.75Z</time></trkpt><trkpt lat="38.0404792" lon="-1.351683"><ele>180.33333333333334</ele><time>2026-03-28T08:28:47.75Z</time></trkpt><trkpt lat="38.0404516" lon="-1.3517785"><ele>180.66666666666666</ele><time>2026-03-28T08:28:49.749Z</time></trkpt><trkpt lat="38.0404215" lon="-1.3518607"><ele>181.0</ele><time>2026-03-28T08:28:51.749Z</time></trkpt><trkpt lat="38.0403808" lon="-1.3519407"><ele>181.33333333333331</ele><time>2026-03-28T08:28:53.75Z</time></trkpt><trkpt lat="38.0403142" lon="-1.3520083"><ele>181.66666666666666</ele><time>2026-03-28T08:28:55.749Z</time></trkpt><trkpt lat="38.0402572" lon="-1.3520761"><ele>182.0</ele><time>2026-03-28T08:28:57.748Z</time></trkpt><trkpt lat="38.0402089" lon="-1.3521733"><ele>182.0</ele><time>2026-03-28T08:28:59.75Z</time></trkpt><trkpt lat="38.0401618" lon="-1.3522805"><ele>182.0</ele><time>2026-03-28T08:29:01.75Z</time></trkpt><trkpt lat="38.0401292" lon="-1.3523683"><ele>182.0</ele><time>2026-03-28T08:29:03.748Z</time></trkpt><trkpt lat="38.0401088" lon="-1.3524863"><ele>182.0</ele><time>2026-03-28T08:29:05.749Z</time></trkpt><trkpt lat="38.0400731" lon="-1.3526013"><ele>182.0</ele><time>2026-03-28T08:29:07.75Z</time></trkpt><trkpt lat="38.040029" lon="-1.352714"><ele>182.0</ele><time>2026-03-28T08:29:09.749Z</time></trkpt><trkpt lat="38.0399992" lon="-1.3528112"><ele>182.0</ele><time>2026-03-28T08:29:11.748Z</time></trkpt><trkpt lat="38.03998" lon="-1.3529084"><ele>182.0</ele><time>2026-03-28T08:29:13.749Z</time></trkpt><trkpt lat="38.0399534" lon="-1.3530046"><ele>182.0</ele><time>2026-03-28T08:29:15.749Z</time></trkpt><trkpt lat="38.0399306" lon="-1.3531002"><ele>182.0</ele><time>2026-03-28T08:29:17.75Z</time></trkpt><trkpt lat="38.0398952" lon="-1.3531871"><ele>182.0</ele><time>2026-03-28T08:29:19.748Z</time></trkpt><trkpt lat="38.0398581" lon="-1.3532868"><ele>181.83333333333331</ele><time>2026-03-28T08:29:21.749Z</time></trkpt><trkpt lat="38.0398152" lon="-1.3533846"><ele>181.66666666666666</ele><time>2026-03-28T08:29:23.75Z</time></trkpt><trkpt lat="38.0397791" lon="-1.3534733"><ele>181.5</ele><time>2026-03-28T08:29:25.75Z</time></trkpt><trkpt lat="38.0397464" lon="-1.3535599"><ele>181.33333333333334</ele><time>2026-03-28T08:29:27.748Z</time></trkpt><trkpt lat="38.0397132" lon="-1.3536545"><ele>181.16666666666669</ele><time>2026-03-28T08:29:29.748Z</time></trkpt><trkpt lat="38.0396681" lon="-1.3537658"><ele>181.0</ele><time>2026-03-28T08:29:31.749Z</time></trkpt><trkpt lat="38.0396209" lon="-1.3538606"><ele>181.60000000000002</ele><time>2026-03-28T08:29:33.748Z</time></trkpt><trkpt lat="38.0395844" lon="-1.3539574"><ele>182.2</ele><time>2026-03-28T08:29:35.748Z</time></trkpt><trkpt lat="38.0395345" lon="-1.3540566"><ele>182.8</ele><time>2026-03-28T08:29:37.749Z</time></trkpt><trkpt lat="38.0394805" lon="-1.3541549"><ele>183.39999999999998</ele><time>2026-03-28T08:29:39.748Z</time></trkpt><trkpt lat="38.039437" lon="-1.3542534"><ele>184.0</ele><time>2026-03-28T08:29:41.749Z</time></trkpt><trkpt lat="38.039386" lon="-1.3543549"><ele>184.0</ele><time>2026-03-28T08:29:43.748Z</time></trkpt><trkpt lat="38.0393378" lon="-1.3544527"><ele>184.0</ele><time>2026-03-28T08:29:45.75Z</time></trkpt><trkpt lat="38.0392843" lon="-1.3545571"><ele>184.0</ele><time>2026-03-28T08:29:47.749Z</time></trkpt><trkpt lat="38.0392275" lon="-1.3546567"><ele>184.0</ele><time>2026-03-28T08:29:49.748Z</time></trkpt><trkpt lat="38.0391748" lon="-1.3547529"><ele>184.0</ele><time>2026-03-28T08:29:51.748Z</time></trkpt><trkpt lat="38.0391146" lon="-1.3548464"><ele>183.0</ele><time>2026-03-28T08:29:53.749Z</time></trkpt><trkpt lat="38.0390656" lon="-1.354946"><ele>182.0</ele><time>2026-03-28T08:29:55.749Z</time></trkpt><trkpt lat="38.0390118" lon="-1.3550397"><ele>181.0</ele><time>2026-03-28T08:29:57.748Z</time></trkpt><trkpt lat="38.0389629" lon="-1.3551282"><ele>180.0</ele><time>2026-03-28T08:29:59.749Z</time></trkpt><trkpt lat="38.0388959" lon="-1.3552182"><ele>179.0</ele><time>2026-03-28T08:30:01.749Z</time></trkpt><trkpt lat="38.0388273" lon="-1.355295"><ele>179.0</ele><time>2026-03-28T08:30:03.748Z</time></trkpt><trkpt lat="38.0387692" lon="-1.3554263"><ele>179.0</ele><time>2026-03-28T08:30:05.749Z</time></trkpt><trkpt lat="38.0387411" lon="-1.3555055"><ele>179.0</ele><time>2026-03-28T08:30:06.749Z</time></trkpt><trkpt lat="38.0386894" lon="-1.3556012"><ele>179.0</ele><time>2026-03-28T08:30:07.748Z</time></trkpt><trkpt lat="38.0386477" lon="-1.3556739"><ele>179.0</ele><time>2026-03-28T08:30:08.749Z</time></trkpt><trkpt lat="38.0386052" lon="-1.3557637"><ele>179.0</ele><time>2026-03-28T08:30:09.75Z</time></trkpt><trkpt lat="38.03857" lon="-1.3558498"><ele>178.5</ele><time>2026-03-28T08:30:10.749Z</time></trkpt><trkpt lat="38.038551" lon="-1.3559717"><ele>178.0</ele><time>2026-03-28T08:30:11.751Z</time></trkpt><trkpt lat="38.0385069" lon="-1.356061"><ele>177.5</ele><time>2026-03-28T08:30:12.749Z</time></trkpt><trkpt lat="38.0384632" lon="-1.3561525"><ele>177.0</ele><time>2026-03-28T08:30:13.751Z</time></trkpt><trkpt lat="38.0384211" lon="-1.356247"><ele>176.5</ele><time>2026-03-28T08:30:14.75Z</time></trkpt><trkpt lat="38.0383897" lon="-1.3563411"><ele>176.0</ele><time>2026-03-28T08:30:15.749Z</time></trkpt><trkpt lat="38.0383545" lon="-1.3564378"><ele>175.5</ele><time>2026-03-28T08:30:16.75Z</time></trkpt><trkpt lat="38.0383218" lon="-1.3565401"><ele>175.0</ele><time>2026-03-28T08:30:17.75Z</time></trkpt><trkpt lat="38.0382916" lon="-1.3566409"><ele>174.5</ele><time>2026-03-28T08:30:18.75Z</time></trkpt><trkpt lat="38.0382619" lon="-1.3567458"><ele>174.0</ele><time>2026-03-28T08:30:19.75Z</time></trkpt><trkpt lat="38.038231" lon="-1.3568481"><ele>173.5</ele><time>2026-03-28T08:30:20.75Z</time></trkpt><trkpt lat="38.0381982" lon="-1.3569482"><ele>173.0</ele><time>2026-03-28T08:30:21.75Z</time></trkpt><trkpt lat="38.0381689" lon="-1.3570407"><ele>172.28571428571428</ele><time>2026-03-28T08:30:22.749Z</time></trkpt><trkpt lat="38.0381399" lon="-1.3571345"><ele>171.57142857142858</ele><time>2026-03-28T08:30:23.75Z</time></trkpt><trkpt lat="38.038111" lon="-1.3572283"><ele>170.85714285714286</ele><time>2026-03-28T08:30:24.75Z</time></trkpt><trkpt lat="38.0380823" lon="-1.3573098"><ele>170.14285714285714</ele><time>2026-03-28T08:30:25.75Z</time></trkpt><trkpt lat="38.0380565" lon="-1.3573956"><ele>169.42857142857144</ele><time>2026-03-28T08:30:26.749Z</time></trkpt><trkpt lat="38.0380308" lon="-1.357478"><ele>168.71428571428572</ele><time>2026-03-28T08:30:27.75Z</time></trkpt><trkpt lat="38.0379973" lon="-1.357558"><ele>168.0</ele><time>2026-03-28T08:30:28.75Z</time></trkpt><trkpt lat="38.0379743" lon="-1.3576391"><ele>168.0</ele><time>2026-03-28T08:30:29.75Z</time></trkpt><trkpt lat="38.0379356" lon="-1.3577733"><ele>168.0</ele><time>2026-03-28T08:30:31.749Z</time></trkpt><trkpt lat="38.0379025" lon="-1.3579116"><ele>168.0</ele><time>2026-03-28T08:30:33.75Z</time></trkpt><trkpt lat="38.0378831" lon="-1.3579885"><ele>168.0</ele><time>2026-03-28T08:30:34.751Z</time></trkpt><trkpt lat="38.037858" lon="-1.3581272"><ele>168.0</ele><time>2026-03-28T08:30:36.749Z</time></trkpt><trkpt lat="38.0378303" lon="-1.3582687"><ele>168.0</ele><time>2026-03-28T08:30:38.75Z</time></trkpt><trkpt lat="38.0378078" lon="-1.3584081"><ele>168.0</ele><time>2026-03-28T08:30:40.749Z</time></trkpt><trkpt lat="38.0377919" lon="-1.3584885"><ele>168.0</ele><time>2026-03-28T08:30:41.748Z</time></trkpt><trkpt lat="38.0377649" lon="-1.3586397"><ele>168.0</ele><time>2026-03-28T08:30:43.748Z</time></trkpt><trkpt lat="38.0377394" lon="-1.3587885"><ele>168.0</ele><time>2026-03-28T08:30:45.749Z</time></trkpt><trkpt lat="38.0377288" lon="-1.3589401"><ele>168.8</ele><time>2026-03-28T08:30:47.749Z</time></trkpt><trkpt lat="38.037734" lon="-1.3590904"><ele>169.60000000000002</ele><time>2026-03-28T08:30:49.748Z</time></trkpt><trkpt lat="38.0377426" lon="-1.3592289"><ele>170.39999999999998</ele><time>2026-03-28T08:30:51.748Z</time></trkpt><trkpt lat="38.0377524" lon="-1.359363"><ele>171.2</ele><time>2026-03-28T08:30:53.75Z</time></trkpt><trkpt lat="38.0377575" lon="-1.3594922"><ele>172.0</ele><time>2026-03-28T08:30:55.749Z</time></trkpt><trkpt lat="38.0377718" lon="-1.3596179"><ele>172.0</ele><time>2026-03-28T08:30:57.75Z</time></trkpt><trkpt lat="38.0377842" lon="-1.3597404"><ele>172.0</ele><time>2026-03-28T08:30:59.75Z</time></trkpt><trkpt lat="38.0377984" lon="-1.3598574"><ele>172.0</ele><time>2026-03-28T08:31:01.749Z</time></trkpt><trkpt lat="38.0378076" lon="-1.3599728"><ele>172.0</ele><time>2026-03-28T08:31:03.749Z</time></trkpt><trkpt lat="38.0378121" lon="-1.3600882"><ele>172.0</ele><time>2026-03-28T08:31:05.75Z</time></trkpt><trkpt lat="38.0378126" lon="-1.3601883"><ele>172.0</ele><time>2026-03-28T08:31:07.748Z</time></trkpt><trkpt lat="38.0378062" lon="-1.3602851"><ele>172.0</ele><time>2026-03-28T08:31:09.749Z</time></trkpt><trkpt lat="38.0378007" lon="-1.3604278"><ele>172.0</ele><time>2026-03-28T08:31:12.749Z</time></trkpt><trkpt lat="38.0378206" lon="-1.3605129"><ele>172.0</ele><time>2026-03-28T08:31:14.749Z</time></trkpt><trkpt lat="38.0378755" lon="-1.3605767"><ele>172.0</ele><time>2026-03-28T08:31:16.749Z</time></trkpt><trkpt lat="38.0379487" lon="-1.3606143"><ele>172.0</ele><time>2026-03-28T08:31:18.749Z</time></trkpt><trkpt lat="38.0380224" lon="-1.360652"><ele>171.71428571428572</ele><time>2026-03-28T08:31:20.75Z</time></trkpt><trkpt lat="38.0380976" lon="-1.3606853"><ele>171.42857142857144</ele><time>2026-03-28T08:31:22.749Z</time></trkpt><trkpt lat="38.0381682" lon="-1.3607175"><ele>171.14285714285717</ele><time>2026-03-28T08:31:24.749Z</time></trkpt><trkpt lat="38.0382287" lon="-1.3607477"><ele>170.85714285714286</ele><time>2026-03-28T08:31:26.75Z</time></trkpt><trkpt lat="38.0382872" lon="-1.3607959"><ele>170.57142857142856</ele><time>2026-03-28T08:31:28.751Z</time></trkpt><trkpt lat="38.0383104" lon="-1.3608816"><ele>170.2857142857143</ele><time>2026-03-28T08:31:31.748Z</time></trkpt><trkpt lat="38.0382914" lon="-1.3609677"><ele>170.0</ele><time>2026-03-28T08:31:35.75Z</time></trkpt><trkpt lat="38.0382813" lon="-1.3610662"><ele>170.0</ele><time>2026-03-28T08:31:40.749Z</time></trkpt><trkpt lat="38.0382734" lon="-1.3611521"><ele>170.0</ele><time>2026-03-28T08:31:43.749Z</time></trkpt><trkpt lat="38.0382639" lon="-1.3612434"><ele>170.0</ele><time>2026-03-28T08:31:47.749Z</time></trkpt><trkpt lat="38.0382547" lon="-1.3613423"><ele>170.0</ele><time>2026-03-28T08:31:51.749Z</time></trkpt><trkpt lat="38.038252" lon="-1.3614347"><ele>170.0</ele><time>2026-03-28T08:31:55.749Z</time></trkpt><trkpt lat="38.0382479" lon="-1.3615305"><ele>170.0</ele><time>2026-03-28T08:31:59.749Z</time></trkpt><trkpt lat="38.0382354" lon="-1.3616312"><ele>170.0</ele><time>2026-03-28T08:32:03.749Z</time></trkpt><trkpt lat="38.0382183" lon="-1.3617125"><ele>170.57142857142858</ele><time>2026-03-28T08:32:06.749Z</time></trkpt><trkpt lat="38.0381998" lon="-1.3618074"><ele>171.14285714285714</ele><time>2026-03-28T08:32:10.75Z</time></trkpt><trkpt lat="38.0381763" lon="-1.3618858"><ele>171.71428571428572</ele><time>2026-03-28T08:32:14.75Z</time></trkpt><trkpt lat="38.0381627" lon="-1.3619706"><ele>172.28571428571428</ele><time>2026-03-28T08:32:17.748Z</time></trkpt><trkpt lat="38.0381409" lon="-1.3620634"><ele>172.85714285714286</ele><time>2026-03-28T08:32:20.749Z</time></trkpt><trkpt lat="38.0381148" lon="-1.3621535"><ele>173.42857142857142</ele><time>2026-03-28T08:32:23.748Z</time></trkpt><trkpt lat="38.0380896" lon="-1.3622309"><ele>174.0</ele><time>2026-03-28T08:32:26.75Z</time></trkpt><trkpt lat="38.0380679" lon="-1.3623113"><ele>175.5</ele><time>2026-03-28T08:32:29.75Z</time></trkpt><trkpt lat="38.0380504" lon="-1.3623978"><ele>177.0</ele><time>2026-03-28T08:32:31.749Z</time></trkpt><trkpt lat="38.0380235" lon="-1.3625003"><ele>178.5</ele><time>2026-03-28T08:32:34.749Z</time></trkpt><trkpt lat="38.0379925" lon="-1.3625966"><ele>180.0</ele><time>2026-03-28T08:32:37.749Z</time></trkpt><trkpt lat="38.037965" lon="-1.3626877"><ele>181.5</ele><time>2026-03-28T08:32:40.749Z</time></trkpt><trkpt lat="38.0379452" lon="-1.3627865"><ele>183.0</ele><time>2026-03-28T08:32:43.75Z</time></trkpt><trkpt lat="38.0379212" lon="-1.3628974"><ele>183.0</ele><time>2026-03-28T08:32:46.748Z</time></trkpt><trkpt lat="38.0378999" lon="-1.3630099"><ele>183.0</ele><time>2026-03-28T08:32:49.748Z</time></trkpt><trkpt lat="38.037883" lon="-1.3630927"><ele>183.0</ele><time>2026-03-28T08:32:51.75Z</time></trkpt><trkpt lat="38.0378573" lon="-1.3631991"><ele>183.0</ele><time>2026-03-28T08:32:54.75Z</time></trkpt><trkpt lat="38.037833" lon="-1.3632788"><ele>183.0</ele><time>2026-03-28T08:32:57.749Z</time></trkpt><trkpt lat="38.0378062" lon="-1.3633735"><ele>183.0</ele><time>2026-03-28T08:33:01.749Z</time></trkpt><trkpt lat="38.0377814" lon="-1.3634752"><ele>183.4</ele><time>2026-03-28T08:33:05.75Z</time></trkpt><trkpt lat="38.0377606" lon="-1.3635511"><ele>183.8</ele><time>2026-03-28T08:33:06.75Z</time></trkpt><trkpt lat="38.0377251" lon="-1.3636905"><ele>184.2</ele><time>2026-03-28T08:33:08.748Z</time></trkpt><trkpt lat="38.0376907" lon="-1.3638154"><ele>184.6</ele><time>2026-03-28T08:33:10.749Z</time></trkpt><trkpt lat="38.0376595" lon="-1.363935"><ele>185.0</ele><time>2026-03-28T08:33:12.748Z</time></trkpt><trkpt lat="38.0376254" lon="-1.3640436"><ele>185.66666666666666</ele><time>2026-03-28T08:33:14.748Z</time></trkpt><trkpt lat="38.0375976" lon="-1.3641539"><ele>186.33333333333331</ele><time>2026-03-28T08:33:16.749Z</time></trkpt><trkpt lat="38.0375717" lon="-1.3642597"><ele>187.0</ele><time>2026-03-28T08:33:18.748Z</time></trkpt><trkpt lat="38.0375437" lon="-1.3643488"><ele>187.66666666666666</ele><time>2026-03-28T08:33:20.749Z</time></trkpt><trkpt lat="38.0375205" lon="-1.3644288"><ele>188.33333333333334</ele><time>2026-03-28T08:33:21.749Z</time></trkpt><trkpt lat="38.0374904" lon="-1.3645551"><ele>189.0</ele><time>2026-03-28T08:33:24.748Z</time></trkpt><trkpt lat="38.0374689" lon="-1.3646394"><ele>187.5</ele><time>2026-03-28T08:33:26.748Z</time></trkpt><trkpt lat="38.0374387" lon="-1.364753"><ele>186.0</ele><time>2026-03-28T08:33:28.749Z</time></trkpt><trkpt lat="38.0373711" lon="-1.3647972"><ele>184.5</ele><time>2026-03-28T08:33:29.748Z</time></trkpt><trkpt lat="38.037341" lon="-1.3648896"><ele>183.0</ele><time>2026-03-28T08:33:31.748Z</time></trkpt><trkpt lat="38.0373483" lon="-1.3650002"><ele>181.5</ele><time>2026-03-28T08:33:34.748Z</time></trkpt><trkpt lat="38.0373225" lon="-1.365113"><ele>180.0</ele><time>2026-03-28T08:33:37.748Z</time></trkpt><trkpt lat="38.0373017" lon="-1.3651965"><ele>180.0</ele><time>2026-03-28T08:33:39.75Z</time></trkpt><trkpt lat="38.0372599" lon="-1.3653249"><ele>180.0</ele><time>2026-03-28T08:33:42.75Z</time></trkpt><trkpt lat="38.0372388" lon="-1.3654173"><ele>180.0</ele><time>2026-03-28T08:33:44.75Z</time></trkpt><trkpt lat="38.0372187" lon="-1.3655056"><ele>180.0</ele><time>2026-03-28T08:33:46.749Z</time></trkpt><trkpt lat="38.0371953" lon="-1.3655979"><ele>180.0</ele><time>2026-03-28T08:33:48.75Z</time></trkpt><trkpt lat="38.0371761" lon="-1.3656898"><ele>180.0</ele><time>2026-03-28T08:33:50.751Z</time></trkpt><trkpt lat="38.0371575" lon="-1.3657759"><ele>180.42857142857142</ele><time>2026-03-28T08:33:52.751Z</time></trkpt><trkpt lat="38.0371365" lon="-1.3658643"><ele>180.85714285714286</ele><time>2026-03-28T08:33:54.749Z</time></trkpt><trkpt lat="38.0371164" lon="-1.365953"><ele>181.28571428571428</ele><time>2026-03-28T08:33:56.749Z</time></trkpt><trkpt lat="38.0371" lon="-1.3660343"><ele>181.71428571428572</ele><time>2026-03-28T08:33:58.749Z</time></trkpt><trkpt lat="38.0370843" lon="-1.3661195"><ele>182.14285714285717</ele><time>2026-03-28T08:34:00.749Z</time></trkpt><trkpt lat="38.0370677" lon="-1.3662097"><ele>182.57142857142858</ele><time>2026-03-28T08:34:02.749Z</time></trkpt><trkpt lat="38.0370419" lon="-1.3663025"><ele>183.0</ele><time>2026-03-28T08:34:04.749Z</time></trkpt><trkpt lat="38.0370139" lon="-1.3663921"><ele>183.71428571428572</ele><time>2026-03-28T08:34:06.749Z</time></trkpt><trkpt lat="38.0369921" lon="-1.3664746"><ele>184.42857142857144</ele><time>2026-03-28T08:34:08.749Z</time></trkpt><trkpt lat="38.0369699" lon="-1.366564"><ele>185.14285714285714</ele><time>2026-03-28T08:34:10.75Z</time></trkpt><trkpt lat="38.0369489" lon="-1.3666559"><ele>185.85714285714286</ele><time>2026-03-28T08:34:12.749Z</time></trkpt><trkpt lat="38.0369264" lon="-1.366745"><ele>186.57142857142856</ele><time>2026-03-28T08:34:14.749Z</time></trkpt><trkpt lat="38.0369066" lon="-1.3668298"><ele>187.28571428571428</ele><time>2026-03-28T08:34:16.749Z</time></trkpt><trkpt lat="38.036887" lon="-1.3669139"><ele>188.0</ele><time>2026-03-28T08:34:18.749Z</time></trkpt><trkpt lat="38.0368662" lon="-1.3670017"><ele>188.0</ele><time>2026-03-28T08:34:20.75Z</time></trkpt><trkpt lat="38.0368578" lon="-1.3670933"><ele>188.0</ele><time>2026-03-28T08:34:22.75Z</time></trkpt><trkpt lat="38.0368358" lon="-1.3671862"><ele>188.0</ele><time>2026-03-28T08:34:24.75Z</time></trkpt><trkpt lat="38.0368113" lon="-1.3672679"><ele>188.0</ele><time>2026-03-28T08:34:26.749Z</time></trkpt><trkpt lat="38.0367924" lon="-1.3673509"><ele>188.0</ele><time>2026-03-28T08:34:28.749Z</time></trkpt><trkpt lat="38.0367814" lon="-1.3674396"><ele>188.0</ele><time>2026-03-28T08:34:30.75Z</time></trkpt><trkpt lat="38.0367642" lon="-1.3675291"><ele>188.0</ele><time>2026-03-28T08:34:32.749Z</time></trkpt><trkpt lat="38.0367484" lon="-1.3676131"><ele>188.66666666666666</ele><time>2026-03-28T08:34:34.749Z</time></trkpt><trkpt lat="38.0367349" lon="-1.3677043"><ele>189.33333333333331</ele><time>2026-03-28T08:34:36.749Z</time></trkpt><trkpt lat="38.0367211" lon="-1.3678055"><ele>190.0</ele><time>2026-03-28T08:34:38.75Z</time></trkpt><trkpt lat="38.0367128" lon="-1.3678994"><ele>190.66666666666666</ele><time>2026-03-28T08:34:40.749Z</time></trkpt><trkpt lat="38.036717" lon="-1.3679934"><ele>191.33333333333334</ele><time>2026-03-28T08:34:42.75Z</time></trkpt><trkpt lat="38.036717" lon="-1.3680896"><ele>192.0</ele><time>2026-03-28T08:34:44.749Z</time></trkpt><trkpt lat="38.0367141" lon="-1.3681954"><ele>192.33333333333334</ele><time>2026-03-28T08:34:46.75Z</time></trkpt><trkpt lat="38.0367078" lon="-1.3683051"><ele>192.66666666666669</ele><time>2026-03-28T08:34:49.75Z</time></trkpt><trkpt lat="38.0366969" lon="-1.3684154"><ele>193.0</ele><time>2026-03-28T08:34:52.751Z</time></trkpt><trkpt lat="38.0366938" lon="-1.3684959"><ele>193.33333333333334</ele><time>2026-03-28T08:34:54.75Z</time></trkpt><trkpt lat="38.0366925" lon="-1.3685897"><ele>193.66666666666669</ele><time>2026-03-28T08:34:56.749Z</time></trkpt><trkpt lat="38.036699" lon="-1.3686838"><ele>194.0</ele><time>2026-03-28T08:34:58.75Z</time></trkpt><trkpt lat="38.0367141" lon="-1.3687758"><ele>194.00000000000003</ele><time>2026-03-28T08:35:00.75Z</time></trkpt><trkpt lat="38.0367281" lon="-1.3688774"><ele>194.0</ele><time>2026-03-28T08:35:02.75Z</time></trkpt><trkpt lat="38.0367238" lon="-1.3689974"><ele>194.0</ele><time>2026-03-28T08:35:04.75Z</time></trkpt><trkpt lat="38.0367163" lon="-1.3691037"><ele>194.0</ele><time>2026-03-28T08:35:06.749Z</time></trkpt><trkpt lat="38.0367044" lon="-1.3692014"><ele>194.00000000000003</ele><time>2026-03-28T08:35:08.75Z</time></trkpt><trkpt lat="38.0366985" lon="-1.3692926"><ele>194.0</ele><time>2026-03-28T08:35:10.749Z</time></trkpt><trkpt lat="38.036711" lon="-1.3694649"><ele>194.00000000000003</ele><time>2026-03-28T08:35:12.749Z</time></trkpt><trkpt lat="38.0366944" lon="-1.3695527"><ele>194.0</ele><time>2026-03-28T08:35:14.75Z</time></trkpt><trkpt lat="38.0366845" lon="-1.3696452"><ele>194.0</ele><time>2026-03-28T08:35:16.75Z</time></trkpt><trkpt lat="38.0366919" lon="-1.3697507"><ele>194.0</ele><time>2026-03-28T08:35:18.749Z</time></trkpt><trkpt lat="38.0367034" lon="-1.3698578"><ele>194.00000000000003</ele><time>2026-03-28T08:35:20.75Z</time></trkpt><trkpt lat="38.0367202" lon="-1.3699665"><ele>194.0</ele><time>2026-03-28T08:35:22.751Z</time></trkpt><trkpt lat="38.0367341" lon="-1.3700773"><ele>193.50000000000003</ele><time>2026-03-28T08:35:24.75Z</time></trkpt><trkpt lat="38.0367387" lon="-1.3701984"><ele>193.0</ele><time>2026-03-28T08:35:26.749Z</time></trkpt><trkpt lat="38.0367451" lon="-1.3703102"><ele>192.5</ele><time>2026-03-28T08:35:28.75Z</time></trkpt><trkpt lat="38.0367505" lon="-1.3704245"><ele>192.0</ele><time>2026-03-28T08:35:30.75Z</time></trkpt><trkpt lat="38.0367583" lon="-1.370527"><ele>191.5</ele><time>2026-03-28T08:35:32.75Z</time></trkpt><trkpt lat="38.0367651" lon="-1.3706263"><ele>191.0</ele><time>2026-03-28T08:35:34.749Z</time></trkpt><trkpt lat="38.0367699" lon="-1.3707224"><ele>191.0</ele><time>2026-03-28T08:35:36.749Z</time></trkpt><trkpt lat="38.0367802" lon="-1.3708231"><ele>191.0</ele><time>2026-03-28T08:35:38.751Z</time></trkpt><trkpt lat="38.0367909" lon="-1.3709244"><ele>191.0</ele><time>2026-03-28T08:35:40.75Z</time></trkpt><trkpt lat="38.036797" lon="-1.3710163"><ele>191.0</ele><time>2026-03-28T08:35:42.749Z</time></trkpt><trkpt lat="38.0368013" lon="-1.3711136"><ele>191.0</ele><time>2026-03-28T08:35:44.749Z</time></trkpt><trkpt lat="38.036808" lon="-1.3712076"><ele>191.0</ele><time>2026-03-28T08:35:46.75Z</time></trkpt><trkpt lat="38.0368133" lon="-1.3713037"><ele>191.5</ele><time>2026-03-28T08:35:48.749Z</time></trkpt><trkpt lat="38.0368183" lon="-1.3714124"><ele>192.0</ele><time>2026-03-28T08:35:50.75Z</time></trkpt><trkpt lat="38.0368297" lon="-1.3715371"><ele>192.5</ele><time>2026-03-28T08:35:52.751Z</time></trkpt><trkpt lat="38.0368446" lon="-1.3716486"><ele>193.0</ele><time>2026-03-28T08:35:54.749Z</time></trkpt><trkpt lat="38.0368522" lon="-1.3717387"><ele>193.50000000000003</ele><time>2026-03-28T08:35:56.749Z</time></trkpt><trkpt lat="38.0368571" lon="-1.371854"><ele>194.0</ele><time>2026-03-28T08:35:59.749Z</time></trkpt><trkpt lat="38.0368609" lon="-1.3719406"><ele>194.0</ele><time>2026-03-28T08:36:01.749Z</time></trkpt><trkpt lat="38.0368669" lon="-1.3720304"><ele>194.0</ele><time>2026-03-28T08:36:03.75Z</time></trkpt><trkpt lat="38.0368738" lon="-1.3721205"><ele>194.0</ele><time>2026-03-28T08:36:05.75Z</time></trkpt><trkpt lat="38.0368834" lon="-1.3722061"><ele>194.0</ele><time>2026-03-28T08:36:07.751Z</time></trkpt><trkpt lat="38.0368895" lon="-1.3722872"><ele>194.0</ele><time>2026-03-28T08:36:09.749Z</time></trkpt><trkpt lat="38.0368966" lon="-1.3723781"><ele>194.0</ele><time>2026-03-28T08:36:11.75Z</time></trkpt><trkpt lat="38.0369033" lon="-1.3724646"><ele>194.0</ele><time>2026-03-28T08:36:13.75Z</time></trkpt><trkpt lat="38.0369098" lon="-1.3725562"><ele>194.42857142857142</ele><time>2026-03-28T08:36:15.75Z</time></trkpt><trkpt lat="38.0369086" lon="-1.3726483"><ele>194.85714285714286</ele><time>2026-03-28T08:36:17.749Z</time></trkpt><trkpt lat="38.036909" lon="-1.3727378"><ele>195.28571428571428</ele><time>2026-03-28T08:36:19.75Z</time></trkpt><trkpt lat="38.0369156" lon="-1.3728212"><ele>195.71428571428572</ele><time>2026-03-28T08:36:21.749Z</time></trkpt><trkpt lat="38.0369333" lon="-1.3728993"><ele>196.14285714285717</ele><time>2026-03-28T08:36:23.749Z</time></trkpt><trkpt lat="38.0369384" lon="-1.3730158"><ele>196.57142857142858</ele><time>2026-03-28T08:36:26.75Z</time></trkpt><trkpt lat="38.0369415" lon="-1.3731156"><ele>197.0</ele><time>2026-03-28T08:36:29.75Z</time></trkpt><trkpt lat="38.0369421" lon="-1.3731957"><ele>197.50000000000003</ele><time>2026-03-28T08:36:32.749Z</time></trkpt><trkpt lat="38.0369522" lon="-1.373301"><ele>198.0</ele><time>2026-03-28T08:36:35.75Z</time></trkpt><trkpt lat="38.0369669" lon="-1.3733859"><ele>198.5</ele><time>2026-03-28T08:36:38.75Z</time></trkpt><trkpt lat="38.0369939" lon="-1.3734637"><ele>199.0</ele><time>2026-03-28T08:36:42.751Z</time></trkpt><trkpt lat="38.0370092" lon="-1.3735492"><ele>199.50000000000003</ele><time>2026-03-28T08:36:45.75Z</time></trkpt><trkpt lat="38.0370237" lon="-1.3736446"><ele>200.0</ele><time>2026-03-28T08:36:48.749Z</time></trkpt><trkpt lat="38.0370234" lon="-1.3737562"><ele>200.00000000000003</ele><time>2026-03-28T08:36:51.75Z</time></trkpt><trkpt lat="38.0370049" lon="-1.373845"><ele>200.0</ele><time>2026-03-28T08:36:54.749Z</time></trkpt><trkpt lat="38.0369916" lon="-1.3739479"><ele>200.0</ele><time>2026-03-28T08:36:57.751Z</time></trkpt><trkpt lat="38.0369799" lon="-1.374031"><ele>200.0</ele><time>2026-03-28T08:37:00.75Z</time></trkpt><trkpt lat="38.0369583" lon="-1.374117"><ele>200.00000000000003</ele><time>2026-03-28T08:37:03.749Z</time></trkpt><trkpt lat="38.0369376" lon="-1.3742194"><ele>200.0</ele><time>2026-03-28T08:37:06.749Z</time></trkpt><trkpt lat="38.0369205" lon="-1.374328"><ele>199.71428571428572</ele><time>2026-03-28T08:37:09.75Z</time></trkpt><trkpt lat="38.0369059" lon="-1.3744071"><ele>199.42857142857144</ele><time>2026-03-28T08:37:11.75Z</time></trkpt><trkpt lat="38.0368966" lon="-1.3744872"><ele>199.14285714285717</ele><time>2026-03-28T08:37:13.751Z</time></trkpt><trkpt lat="38.0368817" lon="-1.3745783"><ele>198.85714285714286</ele><time>2026-03-28T08:37:15.75Z</time></trkpt><trkpt lat="38.0368659" lon="-1.3746666"><ele>198.57142857142856</ele><time>2026-03-28T08:37:17.751Z</time></trkpt><trkpt lat="38.036835" lon="-1.3747593"><ele>198.2857142857143</ele><time>2026-03-28T08:37:19.75Z</time></trkpt><trkpt lat="38.0367964" lon="-1.374846"><ele>198.0</ele><time>2026-03-28T08:37:21.749Z</time></trkpt><trkpt lat="38.0367685" lon="-1.3749412"><ele>198.0</ele><time>2026-03-28T08:37:23.75Z</time></trkpt><trkpt lat="38.036736" lon="-1.3750289"><ele>198.0</ele><time>2026-03-28T08:37:25.751Z</time></trkpt><trkpt lat="38.0366588" lon="-1.3753419"><ele>198.0</ele><time>2026-03-28T08:37:27.75Z</time></trkpt><trkpt lat="38.0366417" lon="-1.3754973"><ele>195.2</ele><time>2026-03-28T08:37:29.749Z</time></trkpt><trkpt lat="38.0366242" lon="-1.3756366"><ele>192.4</ele><time>2026-03-28T08:37:31.75Z</time></trkpt><trkpt lat="38.0366078" lon="-1.3757623"><ele>189.6</ele><time>2026-03-28T08:37:33.751Z</time></trkpt><trkpt lat="38.0366012" lon="-1.3758814"><ele>186.79999999999998</ele><time>2026-03-28T08:37:35.75Z</time></trkpt><trkpt lat="38.0365978" lon="-1.3759847"><ele>184.0</ele><time>2026-03-28T08:37:37.751Z</time></trkpt><trkpt lat="38.0365854" lon="-1.3760818"><ele>184.0</ele><time>2026-03-28T08:37:39.75Z</time></trkpt><trkpt lat="38.0365807" lon="-1.3761801"><ele>184.0</ele><time>2026-03-28T08:37:41.751Z</time></trkpt><trkpt lat="38.0365752" lon="-1.3762696"><ele>184.0</ele><time>2026-03-28T08:37:43.749Z</time></trkpt><trkpt lat="38.0365686" lon="-1.3763524"><ele>184.0</ele><time>2026-03-28T08:37:45.749Z</time></trkpt><trkpt lat="38.0365607" lon="-1.376462"><ele>184.0</ele><time>2026-03-28T08:37:48.75Z</time></trkpt><trkpt lat="38.0365414" lon="-1.3765606"><ele>184.0</ele><time>2026-03-28T08:37:51.749Z</time></trkpt><trkpt lat="38.0365474" lon="-1.3766621"><ele>185.14285714285714</ele><time>2026-03-28T08:37:54.749Z</time></trkpt><trkpt lat="38.0365212" lon="-1.376744"><ele>186.28571428571428</ele><time>2026-03-28T08:37:58.75Z</time></trkpt><trkpt lat="38.0365171" lon="-1.3768359"><ele>187.42857142857142</ele><time>2026-03-28T08:38:02.75Z</time></trkpt><trkpt lat="38.0365116" lon="-1.3769185"><ele>188.57142857142856</ele><time>2026-03-28T08:38:06.75Z</time></trkpt><trkpt lat="38.0364942" lon="-1.3770091"><ele>189.71428571428572</ele><time>2026-03-28T08:38:10.75Z</time></trkpt><trkpt lat="38.0365004" lon="-1.3771163"><ele>190.85714285714283</ele><time>2026-03-28T08:38:15.75Z</time></trkpt><trkpt lat="38.0364801" lon="-1.3771958"><ele>192.0</ele><time>2026-03-28T08:38:18.75Z</time></trkpt><trkpt lat="38.0364756" lon="-1.3772804"><ele>193.28571428571428</ele><time>2026-03-28T08:38:21.75Z</time></trkpt><trkpt lat="38.0364614" lon="-1.3773719"><ele>194.57142857142856</ele><time>2026-03-28T08:38:25.749Z</time></trkpt><trkpt lat="38.0364517" lon="-1.3774615"><ele>195.85714285714283</ele><time>2026-03-28T08:38:29.75Z</time></trkpt><trkpt lat="38.0364358" lon="-1.3775536"><ele>197.14285714285714</ele><time>2026-03-28T08:38:33.751Z</time></trkpt><trkpt lat="38.0364233" lon="-1.3776446"><ele>198.42857142857144</ele><time>2026-03-28T08:38:38.751Z</time></trkpt><trkpt lat="38.0364147" lon="-1.3777291"><ele>199.7142857142857</ele><time>2026-03-28T08:38:43.749Z</time></trkpt><trkpt lat="38.0364114" lon="-1.3778183"><ele>201.0</ele><time>2026-03-28T08:39:34.75Z</time></trkpt><trkpt lat="38.0364052" lon="-1.3779033"><ele>201.66666666666666</ele><time>2026-03-28T08:39:36.75Z</time></trkpt><trkpt lat="38.036395" lon="-1.3780226"><ele>202.33333333333331</ele><time>2026-03-28T08:39:38.749Z</time></trkpt><trkpt lat="38.0363918" lon="-1.378137"><ele>203.0</ele><time>2026-03-28T08:39:40.75Z</time></trkpt><trkpt lat="38.0363838" lon="-1.3782471"><ele>203.66666666666666</ele><time>2026-03-28T08:39:42.752Z</time></trkpt><trkpt lat="38.0363693" lon="-1.3783581"><ele>204.33333333333331</ele><time>2026-03-28T08:39:44.751Z</time></trkpt><trkpt lat="38.0363608" lon="-1.378468"><ele>205.0</ele><time>2026-03-28T08:39:46.752Z</time></trkpt><trkpt lat="38.0363494" lon="-1.3785719"><ele>204.99999999999997</ele><time>2026-03-28T08:39:48.75Z</time></trkpt><trkpt lat="38.0363405" lon="-1.3786736"><ele>205.0</ele><time>2026-03-28T08:39:50.75Z</time></trkpt><trkpt lat="38.0363295" lon="-1.3787796"><ele>205.0</ele><time>2026-03-28T08:39:52.751Z</time></trkpt><trkpt lat="38.0363164" lon="-1.3788871"><ele>205.0</ele><time>2026-03-28T08:39:54.751Z</time></trkpt><trkpt lat="38.0362999" lon="-1.3790005"><ele>204.99999999999997</ele><time>2026-03-28T08:39:56.752Z</time></trkpt><trkpt lat="38.0362856" lon="-1.3791015"><ele>205.0</ele><time>2026-03-28T08:39:58.752Z</time></trkpt><trkpt lat="38.0362799" lon="-1.3792136"><ele>204.49999999999997</ele><time>2026-03-28T08:40:00.751Z</time></trkpt><trkpt lat="38.0362729" lon="-1.3793156"><ele>204.0</ele><time>2026-03-28T08:40:02.752Z</time></trkpt><trkpt lat="38.03626" lon="-1.3794248"><ele>203.5</ele><time>2026-03-28T08:40:04.751Z</time></trkpt><trkpt lat="38.0362492" lon="-1.3795289"><ele>203.0</ele><time>2026-03-28T08:40:06.751Z</time></trkpt><trkpt lat="38.0362432" lon="-1.379645"><ele>202.49999999999997</ele><time>2026-03-28T08:40:08.75Z</time></trkpt><trkpt lat="38.0362288" lon="-1.379753"><ele>202.0</ele><time>2026-03-28T08:40:10.75Z</time></trkpt><trkpt lat="38.0362136" lon="-1.379875"><ele>201.99999999999997</ele><time>2026-03-28T08:40:12.751Z</time></trkpt><trkpt lat="38.0361994" lon="-1.3799907"><ele>202.0</ele><time>2026-03-28T08:40:14.752Z</time></trkpt><trkpt lat="38.0361869" lon="-1.3800959"><ele>202.0</ele><time>2026-03-28T08:40:16.75Z</time></trkpt><trkpt lat="38.0361727" lon="-1.3801925"><ele>202.0</ele><time>2026-03-28T08:40:18.751Z</time></trkpt><trkpt lat="38.036177" lon="-1.3802938"><ele>201.99999999999997</ele><time>2026-03-28T08:40:20.75Z</time></trkpt><trkpt lat="38.0361652" lon="-1.3803923"><ele>202.0</ele><time>2026-03-28T08:40:22.751Z</time></trkpt><trkpt lat="38.0361412" lon="-1.3804824"><ele>201.8</ele><time>2026-03-28T08:40:24.752Z</time></trkpt><trkpt lat="38.0360795" lon="-1.3805178"><ele>201.6</ele><time>2026-03-28T08:40:25.751Z</time></trkpt><trkpt lat="38.0360276" lon="-1.3805944"><ele>201.4</ele><time>2026-03-28T08:40:27.752Z</time></trkpt><trkpt lat="38.0360406" lon="-1.3807332"><ele>201.20000000000002</ele><time>2026-03-28T08:40:29.752Z</time></trkpt><trkpt lat="38.0360467" lon="-1.3808849"><ele>201.0</ele><time>2026-03-28T08:40:31.751Z</time></trkpt><trkpt lat="38.0360488" lon="-1.3810307"><ele>201.0</ele><time>2026-03-28T08:40:33.752Z</time></trkpt><trkpt lat="38.0360597" lon="-1.3811103"><ele>201.0</ele><time>2026-03-28T08:40:34.751Z</time></trkpt><trkpt lat="38.036078" lon="-1.3811999"><ele>201.0</ele><time>2026-03-28T08:40:35.751Z</time></trkpt><trkpt lat="38.0360608" lon="-1.3813174"><ele>201.0</ele><time>2026-03-28T08:40:37.75Z</time></trkpt><trkpt lat="38.0360424" lon="-1.381424"><ele>201.0</ele><time>2026-03-28T08:40:39.751Z</time></trkpt><trkpt lat="38.0360364" lon="-1.3815261"><ele>201.0</ele><time>2026-03-28T08:40:41.751Z</time></trkpt><trkpt lat="38.0360256" lon="-1.3816182"><ele>201.83333333333334</ele><time>2026-03-28T08:40:43.75Z</time></trkpt><trkpt lat="38.0360208" lon="-1.3817396"><ele>202.66666666666669</ele><time>2026-03-28T08:40:46.751Z</time></trkpt><trkpt lat="38.0360105" lon="-1.3818352"><ele>203.5</ele><time>2026-03-28T08:40:48.751Z</time></trkpt><trkpt lat="38.0360022" lon="-1.3819263"><ele>204.33333333333334</ele><time>2026-03-28T08:40:50.751Z</time></trkpt><trkpt lat="38.0359966" lon="-1.3820155"><ele>205.16666666666669</ele><time>2026-03-28T08:40:52.75Z</time></trkpt><trkpt lat="38.0359872" lon="-1.3821075"><ele>206.0</ele><time>2026-03-28T08:40:54.751Z</time></trkpt><trkpt lat="38.0359782" lon="-1.3822033"><ele>206.42857142857142</ele><time>2026-03-28T08:40:56.75Z</time></trkpt><trkpt lat="38.035954" lon="-1.3823014"><ele>206.85714285714286</ele><time>2026-03-28T08:40:58.751Z</time></trkpt><trkpt lat="38.0359023" lon="-1.3823716"><ele>207.28571428571428</ele><time>2026-03-28T08:41:00.75Z</time></trkpt><trkpt lat="38.0358602" lon="-1.3824324"><ele>207.71428571428572</ele><time>2026-03-28T08:41:02.751Z</time></trkpt><trkpt lat="38.0358114" lon="-1.3825324"><ele>208.14285714285714</ele><time>2026-03-28T08:41:05.75Z</time></trkpt><trkpt lat="38.0358055" lon="-1.3826133"><ele>208.57142857142856</ele><time>2026-03-28T08:41:07.751Z</time></trkpt><trkpt lat="38.035811" lon="-1.3826944"><ele>209.0</ele><time>2026-03-28T08:41:09.751Z</time></trkpt><trkpt lat="38.0358083" lon="-1.3828072"><ele>209.16666666666669</ele><time>2026-03-28T08:41:12.75Z</time></trkpt><trkpt lat="38.0357996" lon="-1.3829303"><ele>209.33333333333334</ele><time>2026-03-28T08:41:15.75Z</time></trkpt><trkpt lat="38.0358039" lon="-1.3830284"><ele>209.5</ele><time>2026-03-28T08:41:17.75Z</time></trkpt><trkpt lat="38.0357996" lon="-1.3831229"><ele>209.66666666666669</ele><time>2026-03-28T08:41:19.75Z</time></trkpt><trkpt lat="38.0357972" lon="-1.3832167"><ele>209.83333333333334</ele><time>2026-03-28T08:41:21.75Z</time></trkpt><trkpt lat="38.0357948" lon="-1.3833056"><ele>210.0</ele><time>2026-03-28T08:41:23.751Z</time></trkpt><trkpt lat="38.0358068" lon="-1.3834161"><ele>210.0</ele><time>2026-03-28T08:41:25.751Z</time></trkpt><trkpt lat="38.0358213" lon="-1.3835324"><ele>210.0</ele><time>2026-03-28T08:41:27.752Z</time></trkpt><trkpt lat="38.035839" lon="-1.3836177"><ele>210.0</ele><time>2026-03-28T08:41:29.75Z</time></trkpt><trkpt lat="38.0358701" lon="-1.3836877"><ele>210.0</ele><time>2026-03-28T08:41:31.751Z</time></trkpt><trkpt lat="38.0359516" lon="-1.3837203"><ele>210.0</ele><time>2026-03-28T08:41:34.752Z</time></trkpt><trkpt lat="38.0358822" lon="-1.3837613"><ele>210.0</ele><time>2026-03-28T08:41:42.75Z</time></trkpt><trkpt lat="38.035817" lon="-1.3838586"><ele>210.16666666666666</ele><time>2026-03-28T08:41:45.751Z</time></trkpt><trkpt lat="38.0358068" lon="-1.3839749"><ele>210.33333333333331</ele><time>2026-03-28T08:41:47.75Z</time></trkpt><trkpt lat="38.0357893" lon="-1.3840685"><ele>210.5</ele><time>2026-03-28T08:41:49.752Z</time></trkpt><trkpt lat="38.0357824" lon="-1.3841714"><ele>210.66666666666666</ele><time>2026-03-28T08:41:51.751Z</time></trkpt><trkpt lat="38.0357699" lon="-1.384274"><ele>210.83333333333331</ele><time>2026-03-28T08:41:53.75Z</time></trkpt><trkpt lat="38.0357686" lon="-1.3843822"><ele>211.0</ele><time>2026-03-28T08:41:55.75Z</time></trkpt><trkpt lat="38.0357607" lon="-1.3844919"><ele>210.16666666666666</ele><time>2026-03-28T08:41:57.751Z</time></trkpt><trkpt lat="38.0357509" lon="-1.3845994"><ele>209.33333333333331</ele><time>2026-03-28T08:41:59.751Z</time></trkpt><trkpt lat="38.0357424" lon="-1.3847067"><ele>208.5</ele><time>2026-03-28T08:42:01.752Z</time></trkpt><trkpt lat="38.0357293" lon="-1.3848152"><ele>207.66666666666669</ele><time>2026-03-28T08:42:03.75Z</time></trkpt><trkpt lat="38.0357235" lon="-1.3849224"><ele>206.83333333333334</ele><time>2026-03-28T08:42:05.75Z</time></trkpt><trkpt lat="38.0357116" lon="-1.38503"><ele>206.0</ele><time>2026-03-28T08:42:07.751Z</time></trkpt><trkpt lat="38.0356997" lon="-1.3851371"><ele>204.99999999999997</ele><time>2026-03-28T08:42:09.751Z</time></trkpt><trkpt lat="38.035691" lon="-1.3852292"><ele>204.0</ele><time>2026-03-28T08:42:11.751Z</time></trkpt><trkpt lat="38.0356827" lon="-1.38532"><ele>203.0</ele><time>2026-03-28T08:42:13.75Z</time></trkpt><trkpt lat="38.0356728" lon="-1.3854151"><ele>202.0</ele><time>2026-03-28T08:42:15.75Z</time></trkpt><trkpt lat="38.035662" lon="-1.3855057"><ele>201.0</ele><time>2026-03-28T08:42:17.751Z</time></trkpt><trkpt lat="38.0356545" lon="-1.3855971"><ele>199.99999999999997</ele><time>2026-03-28T08:42:19.752Z</time></trkpt><trkpt lat="38.035639" lon="-1.3856887"><ele>199.0</ele><time>2026-03-28T08:42:21.752Z</time></trkpt><trkpt lat="38.0356307" lon="-1.3857831"><ele>198.49999999999997</ele><time>2026-03-28T08:42:23.751Z</time></trkpt><trkpt lat="38.035624" lon="-1.3858832"><ele>198.0</ele><time>2026-03-28T08:42:25.75Z</time></trkpt><trkpt lat="38.0356126" lon="-1.3859848"><ele>197.5</ele><time>2026-03-28T08:42:27.751Z</time></trkpt><trkpt lat="38.0355999" lon="-1.3860878"><ele>197.0</ele><time>2026-03-28T08:42:29.751Z</time></trkpt><trkpt lat="38.0355808" lon="-1.3861933"><ele>196.49999999999997</ele><time>2026-03-28T08:42:31.752Z</time></trkpt><trkpt lat="38.035563" lon="-1.3863011"><ele>196.0</ele><time>2026-03-28T08:42:33.751Z</time></trkpt><trkpt lat="38.035551" lon="-1.3864108"><ele>197.66666666666666</ele><time>2026-03-28T08:42:35.752Z</time></trkpt><trkpt lat="38.0355407" lon="-1.3865206"><ele>199.33333333333331</ele><time>2026-03-28T08:42:37.752Z</time></trkpt><trkpt lat="38.0355319" lon="-1.3866293"><ele>201.0</ele><time>2026-03-28T08:42:39.751Z</time></trkpt><trkpt lat="38.0355192" lon="-1.3867365"><ele>202.66666666666669</ele><time>2026-03-28T08:42:41.751Z</time></trkpt><trkpt lat="38.0355034" lon="-1.3868412"><ele>204.33333333333334</ele><time>2026-03-28T08:42:43.751Z</time></trkpt><trkpt lat="38.035482" lon="-1.3869399"><ele>206.0</ele><time>2026-03-28T08:42:45.751Z</time></trkpt><trkpt lat="38.0354644" lon="-1.3870349"><ele>206.00000000000003</ele><time>2026-03-28T08:42:47.75Z</time></trkpt><trkpt lat="38.0354466" lon="-1.3871366"><ele>206.0</ele><time>2026-03-28T08:42:49.751Z</time></trkpt><trkpt lat="38.0354211" lon="-1.3872349"><ele>206.0</ele><time>2026-03-28T08:42:51.751Z</time></trkpt><trkpt lat="38.0353899" lon="-1.3873389"><ele>206.0</ele><time>2026-03-28T08:42:53.751Z</time></trkpt><trkpt lat="38.0353648" lon="-1.3874479"><ele>206.00000000000003</ele><time>2026-03-28T08:42:55.752Z</time></trkpt><trkpt lat="38.0353389" lon="-1.3875464"><ele>206.0</ele><time>2026-03-28T08:42:57.75Z</time></trkpt><trkpt lat="38.0353121" lon="-1.3876462"><ele>207.00000000000003</ele><time>2026-03-28T08:42:59.75Z</time></trkpt><trkpt lat="38.0352905" lon="-1.3877563"><ele>208.0</ele><time>2026-03-28T08:43:01.75Z</time></trkpt><trkpt lat="38.0352611" lon="-1.387864"><ele>209.0</ele><time>2026-03-28T08:43:03.751Z</time></trkpt><trkpt lat="38.0352272" lon="-1.387969"><ele>210.0</ele><time>2026-03-28T08:43:05.751Z</time></trkpt><trkpt lat="38.0351961" lon="-1.388076"><ele>211.00000000000003</ele><time>2026-03-28T08:43:07.751Z</time></trkpt><trkpt lat="38.0351689" lon="-1.3881826"><ele>212.0</ele><time>2026-03-28T08:43:09.751Z</time></trkpt><trkpt lat="38.0351332" lon="-1.3882844"><ele>211.6</ele><time>2026-03-28T08:43:11.751Z</time></trkpt><trkpt lat="38.0351008" lon="-1.38839"><ele>211.2</ele><time>2026-03-28T08:43:13.751Z</time></trkpt><trkpt lat="38.0350646" lon="-1.3884976"><ele>210.8</ele><time>2026-03-28T08:43:15.75Z</time></trkpt><trkpt lat="38.0350236" lon="-1.3886028"><ele>210.4</ele><time>2026-03-28T08:43:17.751Z</time></trkpt><trkpt lat="38.0349825" lon="-1.3887086"><ele>210.0</ele><time>2026-03-28T08:43:19.751Z</time></trkpt><trkpt lat="38.0349397" lon="-1.3888131"><ele>211.0</ele><time>2026-03-28T08:43:21.75Z</time></trkpt><trkpt lat="38.0348956" lon="-1.3889135"><ele>212.0</ele><time>2026-03-28T08:43:23.751Z</time></trkpt><trkpt lat="38.0348466" lon="-1.3890103"><ele>213.0</ele><time>2026-03-28T08:43:25.75Z</time></trkpt><trkpt lat="38.0347944" lon="-1.3891032"><ele>214.0</ele><time>2026-03-28T08:43:27.751Z</time></trkpt><trkpt lat="38.0347516" lon="-1.3892024"><ele>215.0</ele><time>2026-03-28T08:43:29.751Z</time></trkpt><trkpt lat="38.0347054" lon="-1.3892923"><ele>216.0</ele><time>2026-03-28T08:43:31.75Z</time></trkpt><trkpt lat="38.0346335" lon="-1.3894238"><ele>216.0</ele><time>2026-03-28T08:43:34.751Z</time></trkpt><trkpt lat="38.0345873" lon="-1.3895139"><ele>216.0</ele><time>2026-03-28T08:43:36.751Z</time></trkpt><trkpt lat="38.0345384" lon="-1.3896044"><ele>216.0</ele><time>2026-03-28T08:43:38.751Z</time></trkpt><trkpt lat="38.034492" lon="-1.3896923"><ele>216.0</ele><time>2026-03-28T08:43:40.751Z</time></trkpt><trkpt lat="38.0344494" lon="-1.3897844"><ele>216.0</ele><time>2026-03-28T08:43:42.751Z</time></trkpt><trkpt lat="38.0344037" lon="-1.3898683"><ele>216.0</ele><time>2026-03-28T08:43:44.75Z</time></trkpt><trkpt lat="38.0343621" lon="-1.3899529"><ele>216.0</ele><time>2026-03-28T08:43:46.751Z</time></trkpt><trkpt lat="38.0343108" lon="-1.3900446"><ele>216.0</ele><time>2026-03-28T08:43:48.75Z</time></trkpt><trkpt lat="38.034262" lon="-1.3901315"><ele>216.0</ele><time>2026-03-28T08:43:50.751Z</time></trkpt><trkpt lat="38.03422" lon="-1.3902241"><ele>216.0</ele><time>2026-03-28T08:43:52.751Z</time></trkpt><trkpt lat="38.0341759" lon="-1.3903149"><ele>216.0</ele><time>2026-03-28T08:43:54.751Z</time></trkpt><trkpt lat="38.0341228" lon="-1.3903974"><ele>216.0</ele><time>2026-03-28T08:43:56.751Z</time></trkpt><trkpt lat="38.0340751" lon="-1.3904775"><ele>216.57142857142856</ele><time>2026-03-28T08:43:58.75Z</time></trkpt><trkpt lat="38.0340317" lon="-1.3905536"><ele>217.14285714285714</ele><time>2026-03-28T08:44:00.751Z</time></trkpt><trkpt lat="38.0340125" lon="-1.3906368"><ele>217.71428571428572</ele><time>2026-03-28T08:44:18.751Z</time></trkpt><trkpt lat="38.0339584" lon="-1.3907074"><ele>218.28571428571428</ele><time>2026-03-28T08:44:22.75Z</time></trkpt><trkpt lat="38.033922" lon="-1.3907885"><ele>218.85714285714286</ele><time>2026-03-28T08:44:25.751Z</time></trkpt><trkpt lat="38.0338729" lon="-1.390846"><ele>219.42857142857142</ele><time>2026-03-28T08:44:28.752Z</time></trkpt><trkpt lat="38.0338162" lon="-1.390924"><ele>220.0</ele><time>2026-03-28T08:44:31.75Z</time></trkpt><trkpt lat="38.0337792" lon="-1.3910291"><ele>219.99999999999997</ele><time>2026-03-28T08:44:34.751Z</time></trkpt><trkpt lat="38.0337387" lon="-1.3911229"><ele>220.0</ele><time>2026-03-28T08:44:37.75Z</time></trkpt><trkpt lat="38.0336945" lon="-1.3912232"><ele>220.0</ele><time>2026-03-28T08:44:40.75Z</time></trkpt><trkpt lat="38.0336641" lon="-1.3913043"><ele>220.0</ele><time>2026-03-28T08:44:42.751Z</time></trkpt><trkpt lat="38.0336329" lon="-1.3913912"><ele>219.99999999999997</ele><time>2026-03-28T08:44:44.752Z</time></trkpt><trkpt lat="38.0336107" lon="-1.3914837"><ele>220.0</ele><time>2026-03-28T08:44:46.75Z</time></trkpt><trkpt lat="38.033587" lon="-1.3915749"><ele>220.33333333333331</ele><time>2026-03-28T08:44:48.75Z</time></trkpt><trkpt lat="38.0335437" lon="-1.3916426"><ele>220.66666666666666</ele><time>2026-03-28T08:44:50.751Z</time></trkpt><trkpt lat="38.0335045" lon="-1.3917161"><ele>221.0</ele><time>2026-03-28T08:44:52.75Z</time></trkpt><trkpt lat="38.0334726" lon="-1.3918018"><ele>221.33333333333331</ele><time>2026-03-28T08:44:54.75Z</time></trkpt><trkpt lat="38.0334464" lon="-1.3918953"><ele>221.66666666666666</ele><time>2026-03-28T08:44:56.751Z</time></trkpt><trkpt lat="38.0334194" lon="-1.3920025"><ele>222.0</ele><time>2026-03-28T08:44:59.751Z</time></trkpt><trkpt lat="38.0333928" lon="-1.3920857"><ele>222.0</ele><time>2026-03-28T08:45:01.751Z</time></trkpt><trkpt lat="38.0333662" lon="-1.3921708"><ele>222.0</ele><time>2026-03-28T08:45:03.75Z</time></trkpt><trkpt lat="38.0333469" lon="-1.3922555"><ele>222.0</ele><time>2026-03-28T08:45:05.751Z</time></trkpt><trkpt lat="38.0333296" lon="-1.3923388"><ele>222.0</ele><time>2026-03-28T08:45:07.751Z</time></trkpt><trkpt lat="38.03332" lon="-1.3924254"><ele>222.0</ele><time>2026-03-28T08:45:09.751Z</time></trkpt><trkpt lat="38.0333121" lon="-1.3925064"><ele>222.0</ele><time>2026-03-28T08:45:11.751Z</time></trkpt><trkpt lat="38.0333019" lon="-1.3926057"><ele>222.0</ele><time>2026-03-28T08:45:13.751Z</time></trkpt><trkpt lat="38.0332889" lon="-1.3927164"><ele>221.66666666666666</ele><time>2026-03-28T08:45:15.751Z</time></trkpt><trkpt lat="38.0332857" lon="-1.3928209"><ele>221.33333333333331</ele><time>2026-03-28T08:45:17.751Z</time></trkpt><trkpt lat="38.0332763" lon="-1.3929187"><ele>221.0</ele><time>2026-03-28T08:45:19.75Z</time></trkpt><trkpt lat="38.0332686" lon="-1.3930135"><ele>220.66666666666666</ele><time>2026-03-28T08:45:21.75Z</time></trkpt><trkpt lat="38.0332601" lon="-1.3931199"><ele>220.33333333333331</ele><time>2026-03-28T08:45:23.75Z</time></trkpt><trkpt lat="38.0332412" lon="-1.3931992"><ele>220.0</ele><time>2026-03-28T08:45:25.75Z</time></trkpt><trkpt lat="38.0332322" lon="-1.3932837"><ele>219.83333333333331</ele><time>2026-03-28T08:45:27.752Z</time></trkpt><trkpt lat="38.0332567" lon="-1.3933954"><ele>219.66666666666666</ele><time>2026-03-28T08:45:30.75Z</time></trkpt><trkpt lat="38.0332763" lon="-1.3934998"><ele>219.5</ele><time>2026-03-28T08:45:33.751Z</time></trkpt><trkpt lat="38.0333016" lon="-1.3936113"><ele>219.33333333333331</ele><time>2026-03-28T08:45:36.75Z</time></trkpt><trkpt lat="38.0333227" lon="-1.3937135"><ele>219.16666666666666</ele><time>2026-03-28T08:45:38.751Z</time></trkpt><trkpt lat="38.0333544" lon="-1.3938044"><ele>219.0</ele><time>2026-03-28T08:45:40.752Z</time></trkpt><trkpt lat="38.0333829" lon="-1.3938919"><ele>219.33333333333334</ele><time>2026-03-28T08:45:42.751Z</time></trkpt><trkpt lat="38.0333879" lon="-1.3939907"><ele>219.66666666666669</ele><time>2026-03-28T08:45:44.752Z</time></trkpt><trkpt lat="38.0334091" lon="-1.3940925"><ele>220.0</ele><time>2026-03-28T08:45:46.751Z</time></trkpt><trkpt lat="38.0334422" lon="-1.3941946"><ele>220.33333333333334</ele><time>2026-03-28T08:45:48.751Z</time></trkpt><trkpt lat="38.0334656" lon="-1.394305"><ele>220.66666666666669</ele><time>2026-03-28T08:45:50.751Z</time></trkpt><trkpt lat="38.0334883" lon="-1.3944116"><ele>221.0</ele><time>2026-03-28T08:45:52.752Z</time></trkpt><trkpt lat="38.0335078" lon="-1.3945151"><ele>221.00000000000003</ele><time>2026-03-28T08:45:54.751Z</time></trkpt><trkpt lat="38.0335318" lon="-1.3946216"><ele>221.0</ele><time>2026-03-28T08:45:56.752Z</time></trkpt><trkpt lat="38.0335586" lon="-1.3947285"><ele>221.0</ele><time>2026-03-28T08:45:58.752Z</time></trkpt><trkpt lat="38.0335765" lon="-1.3948313"><ele>221.0</ele><time>2026-03-28T08:46:00.752Z</time></trkpt><trkpt lat="38.033586" lon="-1.3949237"><ele>221.00000000000003</ele><time>2026-03-28T08:46:02.752Z</time></trkpt><trkpt lat="38.0336002" lon="-1.3950125"><ele>221.0</ele><time>2026-03-28T08:46:04.753Z</time></trkpt><trkpt lat="38.0336117" lon="-1.3951135"><ele>221.20000000000002</ele><time>2026-03-28T08:46:06.752Z</time></trkpt><trkpt lat="38.0336329" lon="-1.3952237"><ele>221.40000000000003</ele><time>2026-03-28T08:46:08.751Z</time></trkpt><trkpt lat="38.0336484" lon="-1.3953447"><ele>221.6</ele><time>2026-03-28T08:46:10.751Z</time></trkpt><trkpt lat="38.0336838" lon="-1.3954597"><ele>221.8</ele><time>2026-03-28T08:46:12.752Z</time></trkpt><trkpt lat="38.0337225" lon="-1.3955701"><ele>222.0</ele><time>2026-03-28T08:46:14.752Z</time></trkpt><trkpt lat="38.033752" lon="-1.3956881"><ele>222.0</ele><time>2026-03-28T08:46:16.753Z</time></trkpt><trkpt lat="38.0337798" lon="-1.3958018"><ele>222.0</ele><time>2026-03-28T08:46:18.751Z</time></trkpt><trkpt lat="38.0338022" lon="-1.3959145"><ele>222.0</ele><time>2026-03-28T08:46:20.752Z</time></trkpt><trkpt lat="38.0338309" lon="-1.3960292"><ele>222.0</ele><time>2026-03-28T08:46:22.752Z</time></trkpt><trkpt lat="38.0338708" lon="-1.396138"><ele>222.0</ele><time>2026-03-28T08:46:24.752Z</time></trkpt><trkpt lat="38.0338928" lon="-1.3962563"><ele>220.0</ele><time>2026-03-28T08:46:26.752Z</time></trkpt><trkpt lat="38.033911" lon="-1.3963528"><ele>218.0</ele><time>2026-03-28T08:46:28.751Z</time></trkpt><trkpt lat="38.0339275" lon="-1.3964326"><ele>216.0</ele><time>2026-03-28T08:46:30.753Z</time></trkpt><trkpt lat="38.0339448" lon="-1.3965363"><ele>214.0</ele><time>2026-03-28T08:46:32.753Z</time></trkpt><trkpt lat="38.0339598" lon="-1.396648"><ele>212.0</ele><time>2026-03-28T08:46:34.752Z</time></trkpt><trkpt lat="38.0339732" lon="-1.3967557"><ele>210.0</ele><time>2026-03-28T08:46:36.751Z</time></trkpt><trkpt lat="38.0340099" lon="-1.3968576"><ele>210.0</ele><time>2026-03-28T08:46:38.751Z</time></trkpt><trkpt lat="38.0340298" lon="-1.3969808"><ele>210.0</ele><time>2026-03-28T08:46:40.752Z</time></trkpt><trkpt lat="38.0340503" lon="-1.3970881"><ele>210.0</ele><time>2026-03-28T08:46:42.751Z</time></trkpt><trkpt lat="38.0340529" lon="-1.3971917"><ele>210.0</ele><time>2026-03-28T08:46:44.752Z</time></trkpt><trkpt lat="38.0340755" lon="-1.3972973"><ele>210.0</ele><time>2026-03-28T08:46:46.753Z</time></trkpt><trkpt lat="38.0341182" lon="-1.3973999"><ele>210.0</ele><time>2026-03-28T08:46:48.751Z</time></trkpt><trkpt lat="38.0341276" lon="-1.3975049"><ele>212.0</ele><time>2026-03-28T08:46:50.752Z</time></trkpt><trkpt lat="38.0341464" lon="-1.397605"><ele>214.0</ele><time>2026-03-28T08:46:52.751Z</time></trkpt><trkpt lat="38.0341855" lon="-1.3977141"><ele>216.0</ele><time>2026-03-28T08:46:54.752Z</time></trkpt><trkpt lat="38.0342109" lon="-1.3978308"><ele>218.0</ele><time>2026-03-28T08:46:56.752Z</time></trkpt><trkpt lat="38.0342335" lon="-1.3979426"><ele>220.0</ele><time>2026-03-28T08:46:58.752Z</time></trkpt><trkpt lat="38.0342605" lon="-1.3980496"><ele>219.99999999999997</ele><time>2026-03-28T08:47:00.752Z</time></trkpt><trkpt lat="38.0342798" lon="-1.3981504"><ele>220.0</ele><time>2026-03-28T08:47:02.751Z</time></trkpt><trkpt lat="38.034307" lon="-1.3982424"><ele>220.0</ele><time>2026-03-28T08:47:04.751Z</time></trkpt><trkpt lat="38.0343322" lon="-1.3983388"><ele>220.0</ele><time>2026-03-28T08:47:06.751Z</time></trkpt><trkpt lat="38.0343633" lon="-1.398439"><ele>219.99999999999997</ele><time>2026-03-28T08:47:08.753Z</time></trkpt><trkpt lat="38.0343905" lon="-1.3985403"><ele>220.0</ele><time>2026-03-28T08:47:10.752Z</time></trkpt><trkpt lat="38.0344155" lon="-1.398627"><ele>219.99999999999997</ele><time>2026-03-28T08:47:12.751Z</time></trkpt><trkpt lat="38.0344335" lon="-1.3987243"><ele>220.0</ele><time>2026-03-28T08:47:14.752Z</time></trkpt><trkpt lat="38.0344504" lon="-1.3988359"><ele>220.0</ele><time>2026-03-28T08:47:16.752Z</time></trkpt><trkpt lat="38.0344692" lon="-1.3989493"><ele>220.0</ele><time>2026-03-28T08:47:18.752Z</time></trkpt><trkpt lat="38.0344917" lon="-1.3990594"><ele>219.99999999999997</ele><time>2026-03-28T08:47:20.752Z</time></trkpt><trkpt lat="38.0345135" lon="-1.3991707"><ele>220.0</ele><time>2026-03-28T08:47:22.751Z</time></trkpt><trkpt lat="38.0345275" lon="-1.399283"><ele>218.4</ele><time>2026-03-28T08:47:24.752Z</time></trkpt><trkpt lat="38.0345611" lon="-1.3993945"><ele>216.8</ele><time>2026-03-28T08:47:26.751Z</time></trkpt><trkpt lat="38.0345844" lon="-1.3995047"><ele>215.2</ele><time>2026-03-28T08:47:28.752Z</time></trkpt><trkpt lat="38.0346091" lon="-1.3996148"><ele>213.6</ele><time>2026-03-28T08:47:30.751Z</time></trkpt><trkpt lat="38.0346354" lon="-1.3997213"><ele>212.0</ele><time>2026-03-28T08:47:32.752Z</time></trkpt><trkpt lat="38.0346616" lon="-1.3998283"><ele>211.50000000000003</ele><time>2026-03-28T08:47:34.751Z</time></trkpt><trkpt lat="38.0346879" lon="-1.3999326"><ele>211.0</ele><time>2026-03-28T08:47:36.752Z</time></trkpt><trkpt lat="38.0347042" lon="-1.4000392"><ele>210.5</ele><time>2026-03-28T08:47:38.752Z</time></trkpt><trkpt lat="38.0347304" lon="-1.4001418"><ele>210.0</ele><time>2026-03-28T08:47:40.753Z</time></trkpt><trkpt lat="38.0347539" lon="-1.4002435"><ele>209.50000000000003</ele><time>2026-03-28T08:47:42.751Z</time></trkpt><trkpt lat="38.0347789" lon="-1.4003437"><ele>209.0</ele><time>2026-03-28T08:47:44.752Z</time></trkpt><trkpt lat="38.0348043" lon="-1.4004466"><ele>209.16666666666669</ele><time>2026-03-28T08:47:46.751Z</time></trkpt><trkpt lat="38.0348272" lon="-1.4005486"><ele>209.33333333333334</ele><time>2026-03-28T08:47:48.752Z</time></trkpt><trkpt lat="38.0348503" lon="-1.400649"><ele>209.5</ele><time>2026-03-28T08:47:50.752Z</time></trkpt><trkpt lat="38.0348723" lon="-1.4007511"><ele>209.66666666666669</ele><time>2026-03-28T08:47:52.752Z</time></trkpt><trkpt lat="38.0348843" lon="-1.4008635"><ele>209.83333333333334</ele><time>2026-03-28T08:47:54.753Z</time></trkpt><trkpt lat="38.034908" lon="-1.4009742"><ele>210.0</ele><time>2026-03-28T08:47:56.751Z</time></trkpt><trkpt lat="38.0349365" lon="-1.4010791"><ele>210.0</ele><time>2026-03-28T08:47:58.751Z</time></trkpt><trkpt lat="38.0349617" lon="-1.4011745"><ele>210.0</ele><time>2026-03-28T08:48:00.753Z</time></trkpt><trkpt lat="38.0349833" lon="-1.4012661"><ele>210.0</ele><time>2026-03-28T08:48:02.752Z</time></trkpt><trkpt lat="38.0350028" lon="-1.4013565"><ele>210.0</ele><time>2026-03-28T08:48:04.752Z</time></trkpt><trkpt lat="38.0350311" lon="-1.4014519"><ele>210.0</ele><time>2026-03-28T08:48:06.751Z</time></trkpt><trkpt lat="38.0350398" lon="-1.4015367"><ele>210.0</ele><time>2026-03-28T08:48:08.753Z</time></trkpt><trkpt lat="38.0350566" lon="-1.4016291"><ele>213.5</ele><time>2026-03-28T08:48:10.752Z</time></trkpt><trkpt lat="38.0350921" lon="-1.4017142"><ele>217.0</ele><time>2026-03-28T08:48:12.751Z</time></trkpt><trkpt lat="38.0351559" lon="-1.4017828"><ele>220.5</ele><time>2026-03-28T08:48:14.752Z</time></trkpt><trkpt lat="38.0351963" lon="-1.401846"><ele>224.0</ele><time>2026-03-28T08:48:16.752Z</time></trkpt><trkpt lat="38.0352319" lon="-1.4019305"><ele>227.5</ele><time>2026-03-28T08:48:18.753Z</time></trkpt><trkpt lat="38.0352418" lon="-1.4020374"><ele>231.0</ele><time>2026-03-28T08:48:20.752Z</time></trkpt><trkpt lat="38.0352572" lon="-1.4021396"><ele>231.66666666666666</ele><time>2026-03-28T08:48:22.752Z</time></trkpt><trkpt lat="38.0352694" lon="-1.4022298"><ele>232.33333333333331</ele><time>2026-03-28T08:48:24.752Z</time></trkpt><trkpt lat="38.0352836" lon="-1.4023388"><ele>233.0</ele><time>2026-03-28T08:48:27.752Z</time></trkpt><trkpt lat="38.0352962" lon="-1.4024356"><ele>233.66666666666666</ele><time>2026-03-28T08:48:29.753Z</time></trkpt><trkpt lat="38.0353143" lon="-1.4025373"><ele>234.33333333333331</ele><time>2026-03-28T08:48:31.752Z</time></trkpt><trkpt lat="38.0353518" lon="-1.4026328"><ele>235.0</ele><time>2026-03-28T08:48:34.752Z</time></trkpt><trkpt lat="38.0353864" lon="-1.4027399"><ele>234.99999999999997</ele><time>2026-03-28T08:48:36.752Z</time></trkpt><trkpt lat="38.0354182" lon="-1.4028504"><ele>235.0</ele><time>2026-03-28T08:48:38.752Z</time></trkpt><trkpt lat="38.0354461" lon="-1.4029329"><ele>235.0</ele><time>2026-03-28T08:48:40.751Z</time></trkpt><trkpt lat="38.0354875" lon="-1.4030155"><ele>235.0</ele><time>2026-03-28T08:48:43.752Z</time></trkpt><trkpt lat="38.0355234" lon="-1.4030927"><ele>234.99999999999997</ele><time>2026-03-28T08:48:46.752Z</time></trkpt><trkpt lat="38.0355583" lon="-1.4031955"><ele>235.0</ele><time>2026-03-28T08:48:49.751Z</time></trkpt><trkpt lat="38.0356046" lon="-1.4033044"><ele>235.33333333333331</ele><time>2026-03-28T08:48:52.752Z</time></trkpt><trkpt lat="38.0356496" lon="-1.4033777"><ele>235.66666666666666</ele><time>2026-03-28T08:48:54.751Z</time></trkpt><trkpt lat="38.0356983" lon="-1.4034566"><ele>236.0</ele><time>2026-03-28T08:48:56.751Z</time></trkpt><trkpt lat="38.0357466" lon="-1.4035384"><ele>236.33333333333331</ele><time>2026-03-28T08:48:58.752Z</time></trkpt><trkpt lat="38.0357901" lon="-1.4036112"><ele>236.66666666666666</ele><time>2026-03-28T08:49:00.752Z</time></trkpt><trkpt lat="38.0358404" lon="-1.4036862"><ele>237.0</ele><time>2026-03-28T08:49:02.752Z</time></trkpt><trkpt lat="38.0358817" lon="-1.4037698"><ele>235.71428571428567</ele><time>2026-03-28T08:49:04.751Z</time></trkpt><trkpt lat="38.0359186" lon="-1.4038488"><ele>234.42857142857142</ele><time>2026-03-28T08:49:06.753Z</time></trkpt><trkpt lat="38.0359506" lon="-1.4039186"><ele>233.1428571428571</ele><time>2026-03-28T08:49:08.753Z</time></trkpt><trkpt lat="38.035993" lon="-1.4039931"><ele>231.85714285714283</ele><time>2026-03-28T08:49:11.753Z</time></trkpt><trkpt lat="38.0360499" lon="-1.4040474"><ele>230.57142857142856</ele><time>2026-03-28T08:49:15.753Z</time></trkpt><trkpt lat="38.036114" lon="-1.404092"><ele>229.28571428571428</ele><time>2026-03-28T08:49:18.753Z</time></trkpt><trkpt lat="38.0361696" lon="-1.4041301"><ele>228.0</ele><time>2026-03-28T08:49:21.751Z</time></trkpt><trkpt lat="38.0362157" lon="-1.404191"><ele>228.0</ele><time>2026-03-28T08:49:23.751Z</time></trkpt><trkpt lat="38.0362772" lon="-1.4042863"><ele>228.0</ele><time>2026-03-28T08:49:25.752Z</time></trkpt><trkpt lat="38.0363248" lon="-1.4043806"><ele>228.0</ele><time>2026-03-28T08:49:27.751Z</time></trkpt><trkpt lat="38.036364" lon="-1.4044703"><ele>228.0</ele><time>2026-03-28T08:49:29.752Z</time></trkpt><trkpt lat="38.0364127" lon="-1.4045533"><ele>228.0</ele><time>2026-03-28T08:49:31.753Z</time></trkpt><trkpt lat="38.0364623" lon="-1.404646"><ele>228.0</ele><time>2026-03-28T08:49:33.752Z</time></trkpt><trkpt lat="38.036514" lon="-1.4047298"><ele>228.5</ele><time>2026-03-28T08:49:35.752Z</time></trkpt><trkpt lat="38.0365793" lon="-1.4048329"><ele>229.0</ele><time>2026-03-28T08:49:37.752Z</time></trkpt><trkpt lat="38.0366342" lon="-1.4049139"><ele>229.5</ele><time>2026-03-28T08:49:39.753Z</time></trkpt><trkpt lat="38.0366867" lon="-1.4049874"><ele>230.0</ele><time>2026-03-28T08:49:41.752Z</time></trkpt><trkpt lat="38.0367397" lon="-1.4050688"><ele>230.5</ele><time>2026-03-28T08:49:43.752Z</time></trkpt><trkpt lat="38.0367852" lon="-1.4051559"><ele>231.0</ele><time>2026-03-28T08:49:45.752Z</time></trkpt><trkpt lat="38.0368221" lon="-1.4052608"><ele>231.0</ele><time>2026-03-28T08:49:47.751Z</time></trkpt><trkpt lat="38.036877" lon="-1.4053568"><ele>231.00000000000003</ele><time>2026-03-28T08:49:49.751Z</time></trkpt><trkpt lat="38.0369756" lon="-1.4054998"><ele>231.00000000000003</ele><time>2026-03-28T08:49:52.751Z</time></trkpt><trkpt lat="38.0370445" lon="-1.4055943"><ele>231.0</ele><time>2026-03-28T08:49:54.752Z</time></trkpt><trkpt lat="38.0371229" lon="-1.405682"><ele>231.0</ele><time>2026-03-28T08:49:56.751Z</time></trkpt><trkpt lat="38.0371964" lon="-1.4057804"><ele>230.4</ele><time>2026-03-28T08:49:58.753Z</time></trkpt><trkpt lat="38.0372604" lon="-1.4058886"><ele>229.8</ele><time>2026-03-28T08:50:00.752Z</time></trkpt><trkpt lat="38.037318" lon="-1.4060004"><ele>229.20000000000002</ele><time>2026-03-28T08:50:02.752Z</time></trkpt><trkpt lat="38.0373756" lon="-1.4060995"><ele>228.60000000000002</ele><time>2026-03-28T08:50:04.752Z</time></trkpt><trkpt lat="38.0374252" lon="-1.4061865"><ele>228.0</ele><time>2026-03-28T08:50:06.751Z</time></trkpt><trkpt lat="38.0374612" lon="-1.406291"><ele>227.8</ele><time>2026-03-28T08:50:08.752Z</time></trkpt><trkpt lat="38.0375242" lon="-1.4063845"><ele>227.60000000000002</ele><time>2026-03-28T08:50:10.751Z</time></trkpt><trkpt lat="38.0375746" lon="-1.4064719"><ele>227.39999999999998</ele><time>2026-03-28T08:50:12.752Z</time></trkpt><trkpt lat="38.037646" lon="-1.40662"><ele>227.2</ele><time>2026-03-28T08:50:14.752Z</time></trkpt><trkpt lat="38.0377049" lon="-1.4066812"><ele>227.0</ele><time>2026-03-28T08:50:16.752Z</time></trkpt><trkpt lat="38.0377598" lon="-1.4067487"><ele>227.00000000000003</ele><time>2026-03-28T08:50:18.752Z</time></trkpt><trkpt lat="38.0378198" lon="-1.406811"><ele>227.0</ele><time>2026-03-28T08:50:20.752Z</time></trkpt><trkpt lat="38.0378748" lon="-1.4068735"><ele>227.0</ele><time>2026-03-28T08:50:22.752Z</time></trkpt><trkpt lat="38.0379381" lon="-1.4069276"><ele>227.0</ele><time>2026-03-28T08:50:24.753Z</time></trkpt><trkpt lat="38.0380105" lon="-1.4069859"><ele>227.00000000000003</ele><time>2026-03-28T08:50:26.751Z</time></trkpt><trkpt lat="38.0380814" lon="-1.4070471"><ele>227.0</ele><time>2026-03-28T08:50:28.751Z</time></trkpt><trkpt lat="38.0381474" lon="-1.4071051"><ele>227.00000000000003</ele><time>2026-03-28T08:50:30.753Z</time></trkpt><trkpt lat="38.0382102" lon="-1.4071701"><ele>227.0</ele><time>2026-03-28T08:50:32.752Z</time></trkpt><trkpt lat="38.0382835" lon="-1.4072483"><ele>227.0</ele><time>2026-03-28T08:50:34.753Z</time></trkpt><trkpt lat="38.0383646" lon="-1.4073206"><ele>227.0</ele><time>2026-03-28T08:50:36.753Z</time></trkpt><trkpt lat="38.0384433" lon="-1.4073804"><ele>227.00000000000003</ele><time>2026-03-28T08:50:38.752Z</time></trkpt><trkpt lat="38.038501" lon="-1.4074537"><ele>227.0</ele><time>2026-03-28T08:50:40.752Z</time></trkpt><trkpt lat="38.0385778" lon="-1.4075039"><ele>227.0</ele><time>2026-03-28T08:50:42.752Z</time></trkpt></trkseg><trkseg><trkpt lat="38.0408244" lon="-1.4094624"><ele>246.99999999999997</ele><time>2026-03-28T08:51:51.752Z</time></trkpt><trkpt lat="38.0408962" lon="-1.4095241"><ele>247.0</ele><time>2026-03-28T08:51:53.752Z</time></trkpt><trkpt lat="38.0409655" lon="-1.4095819"><ele>247.0</ele><time>2026-03-28T08:51:55.753Z</time></trkpt><trkpt lat="38.0410345" lon="-1.4096395"><ele>247.0</ele><time>2026-03-28T08:51:57.751Z</time></trkpt><trkpt lat="38.0411072" lon="-1.4097036"><ele>246.99999999999997</ele><time>2026-03-28T08:51:59.752Z</time></trkpt><trkpt lat="38.041184" lon="-1.4097721"><ele>247.0</ele><time>2026-03-28T08:52:01.752Z</time></trkpt><trkpt lat="38.0412637" lon="-1.4098443"><ele>246.0</ele><time>2026-03-28T08:52:03.752Z</time></trkpt><trkpt lat="38.0413408" lon="-1.4099098"><ele>245.0</ele><time>2026-03-28T08:52:05.752Z</time></trkpt><trkpt lat="38.0414167" lon="-1.4099744"><ele>244.0</ele><time>2026-03-28T08:52:07.752Z</time></trkpt><trkpt lat="38.0414996" lon="-1.410039"><ele>243.0</ele><time>2026-03-28T08:52:09.753Z</time></trkpt><trkpt lat="38.0415808" lon="-1.410109"><ele>242.0</ele><time>2026-03-28T08:52:11.753Z</time></trkpt><trkpt lat="38.0416584" lon="-1.4101749"><ele>242.0</ele><time>2026-03-28T08:52:13.752Z</time></trkpt><trkpt lat="38.0417321" lon="-1.4102463"><ele>242.0</ele><time>2026-03-28T08:52:15.752Z</time></trkpt><trkpt lat="38.0418231" lon="-1.4103208"><ele>242.0</ele><time>2026-03-28T08:52:17.753Z</time></trkpt><trkpt lat="38.0419046" lon="-1.4104045"><ele>242.0</ele><time>2026-03-28T08:52:19.752Z</time></trkpt><trkpt lat="38.0419899" lon="-1.4104846"><ele>242.0</ele><time>2026-03-28T08:52:21.754Z</time></trkpt><trkpt lat="38.042081" lon="-1.4105649"><ele>239.8</ele><time>2026-03-28T08:52:23.752Z</time></trkpt><trkpt lat="38.0421584" lon="-1.4106597"><ele>237.6</ele><time>2026-03-28T08:52:25.752Z</time></trkpt><trkpt lat="38.0422187" lon="-1.4107683"><ele>235.40000000000003</ele><time>2026-03-28T08:52:27.752Z</time></trkpt><trkpt lat="38.0422823" lon="-1.4108773"><ele>233.20000000000002</ele><time>2026-03-28T08:52:29.752Z</time></trkpt><trkpt lat="38.042342" lon="-1.4109868"><ele>231.0</ele><time>2026-03-28T08:52:31.753Z</time></trkpt><trkpt lat="38.0423962" lon="-1.4111029"><ele>231.0</ele><time>2026-03-28T08:52:33.751Z</time></trkpt><trkpt lat="38.0424568" lon="-1.4112302"><ele>231.0</ele><time>2026-03-28T08:52:35.752Z</time></trkpt><trkpt lat="38.0425016" lon="-1.4113707"><ele>231.0</ele><time>2026-03-28T08:52:37.752Z</time></trkpt><trkpt lat="38.0425559" lon="-1.4115012"><ele>231.0</ele><time>2026-03-28T08:52:39.752Z</time></trkpt><trkpt lat="38.0425914" lon="-1.4116237"><ele>229.20000000000002</ele><time>2026-03-28T08:52:41.753Z</time></trkpt><trkpt lat="38.0426297" lon="-1.4117421"><ele>227.40000000000003</ele><time>2026-03-28T08:52:43.753Z</time></trkpt><trkpt lat="38.0426734" lon="-1.4118701"><ele>225.6</ele><time>2026-03-28T08:52:45.752Z</time></trkpt><trkpt lat="38.0427036" lon="-1.4119895"><ele>223.8</ele><time>2026-03-28T08:52:47.754Z</time></trkpt><trkpt lat="38.0427271" lon="-1.4121119"><ele>222.0</ele><time>2026-03-28T08:52:49.751Z</time></trkpt><trkpt lat="38.0427536" lon="-1.4122214"><ele>220.16666666666666</ele><time>2026-03-28T08:52:51.752Z</time></trkpt><trkpt lat="38.0427853" lon="-1.4123309"><ele>218.33333333333331</ele><time>2026-03-28T08:52:53.754Z</time></trkpt><trkpt lat="38.0428091" lon="-1.4124335"><ele>216.5</ele><time>2026-03-28T08:52:55.751Z</time></trkpt><trkpt lat="38.0428379" lon="-1.4125379"><ele>214.66666666666666</ele><time>2026-03-28T08:52:57.752Z</time></trkpt><trkpt lat="38.0428523" lon="-1.4126453"><ele>212.83333333333331</ele><time>2026-03-28T08:52:59.752Z</time></trkpt><trkpt lat="38.0428762" lon="-1.4127416"><ele>211.0</ele><time>2026-03-28T08:53:01.753Z</time></trkpt><trkpt lat="38.0428975" lon="-1.412833"><ele>210.99999999999997</ele><time>2026-03-28T08:53:03.753Z</time></trkpt><trkpt lat="38.0429133" lon="-1.4129339"><ele>211.0</ele><time>2026-03-28T08:53:05.753Z</time></trkpt><trkpt lat="38.0429385" lon="-1.4130511"><ele>211.0</ele><time>2026-03-28T08:53:07.752Z</time></trkpt><trkpt lat="38.0429649" lon="-1.4131637"><ele>211.0</ele><time>2026-03-28T08:53:09.752Z</time></trkpt><trkpt lat="38.0429946" lon="-1.4132786"><ele>210.99999999999997</ele><time>2026-03-28T08:53:11.752Z</time></trkpt><trkpt lat="38.0430202" lon="-1.4133798"><ele>211.0</ele><time>2026-03-28T08:53:13.752Z</time></trkpt><trkpt lat="38.0430462" lon="-1.4134874"><ele>212.8</ele><time>2026-03-28T08:53:15.752Z</time></trkpt><trkpt lat="38.0430739" lon="-1.4135965"><ele>214.60000000000002</ele><time>2026-03-28T08:53:17.752Z</time></trkpt><trkpt lat="38.0431049" lon="-1.4137071"><ele>216.4</ele><time>2026-03-28T08:53:19.751Z</time></trkpt><trkpt lat="38.0431318" lon="-1.4138252"><ele>218.2</ele><time>2026-03-28T08:53:21.752Z</time></trkpt><trkpt lat="38.0431614" lon="-1.4139395"><ele>220.0</ele><time>2026-03-28T08:53:23.754Z</time></trkpt><trkpt lat="38.0431924" lon="-1.4140461"><ele>222.2</ele><time>2026-03-28T08:53:25.751Z</time></trkpt><trkpt lat="38.0432209" lon="-1.4141559"><ele>224.4</ele><time>2026-03-28T08:53:27.751Z</time></trkpt><trkpt lat="38.0432424" lon="-1.4142601"><ele>226.60000000000002</ele><time>2026-03-28T08:53:29.753Z</time></trkpt><trkpt lat="38.0432661" lon="-1.4143673"><ele>228.8</ele><time>2026-03-28T08:53:31.752Z</time></trkpt><trkpt lat="38.0433016" lon="-1.4145151"><ele>231.0</ele><time>2026-03-28T08:53:34.753Z</time></trkpt><trkpt lat="38.0433212" lon="-1.4146113"><ele>231.83333333333334</ele><time>2026-03-28T08:53:36.752Z</time></trkpt><trkpt lat="38.0433356" lon="-1.4147136"><ele>232.66666666666669</ele><time>2026-03-28T08:53:38.753Z</time></trkpt><trkpt lat="38.0433557" lon="-1.4148102"><ele>233.5</ele><time>2026-03-28T08:53:40.751Z</time></trkpt><trkpt lat="38.0433768" lon="-1.4149071"><ele>234.33333333333334</ele><time>2026-03-28T08:53:42.752Z</time></trkpt><trkpt lat="38.0434074" lon="-1.4150051"><ele>235.16666666666669</ele><time>2026-03-28T08:53:44.754Z</time></trkpt><trkpt lat="38.0434312" lon="-1.4151063"><ele>236.0</ele><time>2026-03-28T08:53:46.753Z</time></trkpt><trkpt lat="38.0434509" lon="-1.415209"><ele>236.00000000000003</ele><time>2026-03-28T08:53:48.753Z</time></trkpt><trkpt lat="38.0434725" lon="-1.4153098"><ele>236.0</ele><time>2026-03-28T08:53:50.753Z</time></trkpt><trkpt lat="38.0434948" lon="-1.4154123"><ele>236.0</ele><time>2026-03-28T08:53:52.753Z</time></trkpt><trkpt lat="38.0435199" lon="-1.4155097"><ele>236.0</ele><time>2026-03-28T08:53:54.751Z</time></trkpt><trkpt lat="38.0435444" lon="-1.415611"><ele>236.00000000000003</ele><time>2026-03-28T08:53:56.752Z</time></trkpt><trkpt lat="38.0435754" lon="-1.415708"><ele>236.0</ele><time>2026-03-28T08:53:58.751Z</time></trkpt><trkpt lat="38.0435957" lon="-1.4158081"><ele>235.50000000000003</ele><time>2026-03-28T08:54:00.753Z</time></trkpt><trkpt lat="38.0436232" lon="-1.4159005"><ele>235.0</ele><time>2026-03-28T08:54:02.752Z</time></trkpt><trkpt lat="38.0436474" lon="-1.4159902"><ele>234.5</ele><time>2026-03-28T08:54:04.751Z</time></trkpt><trkpt lat="38.0436704" lon="-1.4160939"><ele>234.0</ele><time>2026-03-28T08:54:06.752Z</time></trkpt><trkpt lat="38.0436906" lon="-1.416189"><ele>233.50000000000003</ele><time>2026-03-28T08:54:08.754Z</time></trkpt><trkpt lat="38.0437178" lon="-1.4162874"><ele>233.0</ele><time>2026-03-28T08:54:10.753Z</time></trkpt><trkpt lat="38.0437438" lon="-1.4163918"><ele>232.66666666666669</ele><time>2026-03-28T08:54:12.753Z</time></trkpt><trkpt lat="38.0437705" lon="-1.4164959"><ele>232.33333333333334</ele><time>2026-03-28T08:54:14.754Z</time></trkpt><trkpt lat="38.0437994" lon="-1.4166014"><ele>232.0</ele><time>2026-03-28T08:54:16.752Z</time></trkpt><trkpt lat="38.0438252" lon="-1.4167018"><ele>231.66666666666669</ele><time>2026-03-28T08:54:18.753Z</time></trkpt><trkpt lat="38.0438551" lon="-1.4168062"><ele>231.33333333333334</ele><time>2026-03-28T08:54:20.752Z</time></trkpt><trkpt lat="38.0438839" lon="-1.416911"><ele>231.0</ele><time>2026-03-28T08:54:22.753Z</time></trkpt><trkpt lat="38.0439179" lon="-1.4170147"><ele>231.0</ele><time>2026-03-28T08:54:24.752Z</time></trkpt><trkpt lat="38.0439613" lon="-1.4171121"><ele>231.0</ele><time>2026-03-28T08:54:26.752Z</time></trkpt><trkpt lat="38.0439987" lon="-1.4172203"><ele>231.0</ele><time>2026-03-28T08:54:28.752Z</time></trkpt><trkpt lat="38.0440387" lon="-1.4173206"><ele>231.0</ele><time>2026-03-28T08:54:30.751Z</time></trkpt><trkpt lat="38.044069" lon="-1.4174304"><ele>231.0</ele><time>2026-03-28T08:54:32.753Z</time></trkpt><trkpt lat="38.0441044" lon="-1.4175278"><ele>231.0</ele><time>2026-03-28T08:54:34.753Z</time></trkpt><trkpt lat="38.0441426" lon="-1.4176277"><ele>231.33333333333334</ele><time>2026-03-28T08:54:36.753Z</time></trkpt><trkpt lat="38.0441732" lon="-1.4177322"><ele>231.66666666666669</ele><time>2026-03-28T08:54:38.752Z</time></trkpt><trkpt lat="38.044206" lon="-1.4178369"><ele>232.0</ele><time>2026-03-28T08:54:40.752Z</time></trkpt><trkpt lat="38.0442392" lon="-1.4179338"><ele>232.33333333333334</ele><time>2026-03-28T08:54:42.752Z</time></trkpt><trkpt lat="38.0442762" lon="-1.4180351"><ele>232.66666666666669</ele><time>2026-03-28T08:54:44.753Z</time></trkpt><trkpt lat="38.0443121" lon="-1.4181341"><ele>233.0</ele><time>2026-03-28T08:54:46.752Z</time></trkpt><trkpt lat="38.0443499" lon="-1.4182358"><ele>233.16666666666669</ele><time>2026-03-28T08:54:48.753Z</time></trkpt><trkpt lat="38.0443777" lon="-1.4183319"><ele>233.33333333333334</ele><time>2026-03-28T08:54:50.752Z</time></trkpt><trkpt lat="38.0443998" lon="-1.4184523"><ele>233.5</ele><time>2026-03-28T08:54:52.751Z</time></trkpt><trkpt lat="38.0444394" lon="-1.4185531"><ele>233.66666666666669</ele><time>2026-03-28T08:54:54.752Z</time></trkpt><trkpt lat="38.0444772" lon="-1.418652"><ele>233.83333333333334</ele><time>2026-03-28T08:54:56.752Z</time></trkpt><trkpt lat="38.0445141" lon="-1.4187492"><ele>234.0</ele><time>2026-03-28T08:54:58.753Z</time></trkpt><trkpt lat="38.0445487" lon="-1.4188495"><ele>234.5</ele><time>2026-03-28T08:55:00.754Z</time></trkpt><trkpt lat="38.0445884" lon="-1.4189506"><ele>235.0</ele><time>2026-03-28T08:55:02.752Z</time></trkpt><trkpt lat="38.0446309" lon="-1.4190472"><ele>235.5</ele><time>2026-03-28T08:55:04.752Z</time></trkpt><trkpt lat="38.0446668" lon="-1.4191455"><ele>236.0</ele><time>2026-03-28T08:55:06.753Z</time></trkpt><trkpt lat="38.0446956" lon="-1.4192426"><ele>236.5</ele><time>2026-03-28T08:55:08.752Z</time></trkpt><trkpt lat="38.0447282" lon="-1.4193376"><ele>237.0</ele><time>2026-03-28T08:55:10.752Z</time></trkpt><trkpt lat="38.0447656" lon="-1.4194286"><ele>237.0</ele><time>2026-03-28T08:55:12.753Z</time></trkpt><trkpt lat="38.0448003" lon="-1.4195226"><ele>237.0</ele><time>2026-03-28T08:55:14.753Z</time></trkpt><trkpt lat="38.0448311" lon="-1.4196156"><ele>237.0</ele><time>2026-03-28T08:55:16.752Z</time></trkpt><trkpt lat="38.0448645" lon="-1.4197064"><ele>237.0</ele><time>2026-03-28T08:55:18.754Z</time></trkpt><trkpt lat="38.0448976" lon="-1.4198"><ele>237.0</ele><time>2026-03-28T08:55:20.752Z</time></trkpt><trkpt lat="38.0449281" lon="-1.4198888"><ele>237.0</ele><time>2026-03-28T08:55:22.753Z</time></trkpt><trkpt lat="38.0449587" lon="-1.4199725"><ele>237.5</ele><time>2026-03-28T08:55:24.753Z</time></trkpt><trkpt lat="38.0449891" lon="-1.4200617"><ele>238.0</ele><time>2026-03-28T08:55:26.753Z</time></trkpt><trkpt lat="38.0450298" lon="-1.420148"><ele>238.5</ele><time>2026-03-28T08:55:28.753Z</time></trkpt><trkpt lat="38.0450612" lon="-1.4202363"><ele>239.0</ele><time>2026-03-28T08:55:30.753Z</time></trkpt><trkpt lat="38.0450865" lon="-1.4203242"><ele>239.5</ele><time>2026-03-28T08:55:32.752Z</time></trkpt><trkpt lat="38.045116" lon="-1.4204114"><ele>240.0</ele><time>2026-03-28T08:55:34.752Z</time></trkpt><trkpt lat="38.045146" lon="-1.4205006"><ele>240.16666666666666</ele><time>2026-03-28T08:55:36.752Z</time></trkpt><trkpt lat="38.0451794" lon="-1.4205841"><ele>240.33333333333331</ele><time>2026-03-28T08:55:38.754Z</time></trkpt><trkpt lat="38.0452124" lon="-1.4206678"><ele>240.5</ele><time>2026-03-28T08:55:40.753Z</time></trkpt><trkpt lat="38.0452423" lon="-1.4207539"><ele>240.66666666666666</ele><time>2026-03-28T08:55:42.753Z</time></trkpt><trkpt lat="38.0452702" lon="-1.4208557"><ele>240.83333333333331</ele><time>2026-03-28T08:55:44.754Z</time></trkpt><trkpt lat="38.0452988" lon="-1.4209416"><ele>241.0</ele><time>2026-03-28T08:55:46.753Z</time></trkpt><trkpt lat="38.0453258" lon="-1.4210308"><ele>241.0</ele><time>2026-03-28T08:55:48.752Z</time></trkpt><trkpt lat="38.0453579" lon="-1.4211176"><ele>241.00000000000003</ele><time>2026-03-28T08:55:50.753Z</time></trkpt><trkpt lat="38.0453903" lon="-1.4212049"><ele>241.0</ele><time>2026-03-28T08:55:52.752Z</time></trkpt><trkpt lat="38.0454216" lon="-1.4212916"><ele>241.0</ele><time>2026-03-28T08:55:54.754Z</time></trkpt><trkpt lat="38.04545" lon="-1.4213785"><ele>241.00000000000003</ele><time>2026-03-28T08:55:56.753Z</time></trkpt><trkpt lat="38.0454806" lon="-1.4214615"><ele>241.0</ele><time>2026-03-28T08:55:58.753Z</time></trkpt><trkpt lat="38.0455106" lon="-1.4215474"><ele>241.0</ele><time>2026-03-28T08:56:00.753Z</time></trkpt><trkpt lat="38.0455397" lon="-1.421634"><ele>240.85714285714286</ele><time>2026-03-28T08:56:02.752Z</time></trkpt><trkpt lat="38.0455729" lon="-1.4217163"><ele>240.71428571428572</ele><time>2026-03-28T08:56:04.752Z</time></trkpt><trkpt lat="38.0456069" lon="-1.4218008"><ele>240.57142857142858</ele><time>2026-03-28T08:56:06.753Z</time></trkpt><trkpt lat="38.0456368" lon="-1.4218813"><ele>240.42857142857144</ele><time>2026-03-28T08:56:08.752Z</time></trkpt><trkpt lat="38.0456644" lon="-1.4219622"><ele>240.28571428571428</ele><time>2026-03-28T08:56:10.752Z</time></trkpt><trkpt lat="38.0456876" lon="-1.4220471"><ele>240.14285714285717</ele><time>2026-03-28T08:56:12.753Z</time></trkpt><trkpt lat="38.0457167" lon="-1.4221254"><ele>240.0</ele><time>2026-03-28T08:56:14.753Z</time></trkpt><trkpt lat="38.0457465" lon="-1.4222016"><ele>240.42857142857144</ele><time>2026-03-28T08:56:16.754Z</time></trkpt><trkpt lat="38.0457738" lon="-1.4222851"><ele>240.85714285714283</ele><time>2026-03-28T08:56:18.752Z</time></trkpt><trkpt lat="38.0458018" lon="-1.4223648"><ele>241.28571428571428</ele><time>2026-03-28T08:56:20.752Z</time></trkpt><trkpt lat="38.0458178" lon="-1.4224472"><ele>241.71428571428572</ele><time>2026-03-28T08:56:22.753Z</time></trkpt><trkpt lat="38.0458081" lon="-1.4225652"><ele>242.14285714285717</ele><time>2026-03-28T08:56:25.754Z</time></trkpt><trkpt lat="38.0458067" lon="-1.4226464"><ele>242.57142857142856</ele><time>2026-03-28T08:56:27.752Z</time></trkpt><trkpt lat="38.0458092" lon="-1.42273"><ele>243.0</ele><time>2026-03-28T08:56:29.753Z</time></trkpt><trkpt lat="38.0458068" lon="-1.4228165"><ele>243.42857142857142</ele><time>2026-03-28T08:56:31.754Z</time></trkpt><trkpt lat="38.0458025" lon="-1.4228975"><ele>243.8571428571429</ele><time>2026-03-28T08:56:33.753Z</time></trkpt><trkpt lat="38.0458074" lon="-1.4230176"><ele>244.2857142857143</ele><time>2026-03-28T08:56:36.753Z</time></trkpt><trkpt lat="38.0458288" lon="-1.4230989"><ele>244.71428571428572</ele><time>2026-03-28T08:56:38.753Z</time></trkpt><trkpt lat="38.0458544" lon="-1.4231756"><ele>245.14285714285717</ele><time>2026-03-28T08:56:40.753Z</time></trkpt><trkpt lat="38.0458911" lon="-1.4232439"><ele>245.5714285714286</ele><time>2026-03-28T08:56:42.753Z</time></trkpt><trkpt lat="38.0459501" lon="-1.4233346"><ele>246.00000000000003</ele><time>2026-03-28T08:56:45.752Z</time></trkpt><trkpt lat="38.0460018" lon="-1.4234082"><ele>246.0</ele><time>2026-03-28T08:56:48.753Z</time></trkpt><trkpt lat="38.0459348" lon="-1.4233457"><ele>246.0</ele><time>2026-03-28T08:57:12.752Z</time></trkpt><trkpt lat="38.0458905" lon="-1.4232764"><ele>246.0</ele><time>2026-03-28T08:57:14.754Z</time></trkpt><trkpt lat="38.0458558" lon="-1.4232047"><ele>246.0</ele><time>2026-03-28T08:57:16.753Z</time></trkpt><trkpt lat="38.0458359" lon="-1.4231278"><ele>246.0</ele><time>2026-03-28T08:57:18.753Z</time></trkpt><trkpt lat="38.0458143" lon="-1.4230196"><ele>246.0</ele><time>2026-03-28T08:57:21.754Z</time></trkpt><trkpt lat="38.0458075" lon="-1.4229165"><ele>246.00000000000003</ele><time>2026-03-28T08:57:24.754Z</time></trkpt><trkpt lat="38.0458075" lon="-1.4228321"><ele>246.0</ele><time>2026-03-28T08:57:26.753Z</time></trkpt><trkpt lat="38.0457775" lon="-1.4227332"><ele>246.00000000000003</ele><time>2026-03-28T08:57:29.753Z</time></trkpt><trkpt lat="38.0458095" lon="-1.4228179"><ele>246.00000000000003</ele><time>2026-03-28T08:57:37.752Z</time></trkpt><trkpt lat="38.0457941" lon="-1.422912"><ele>246.0</ele><time>2026-03-28T08:57:42.754Z</time></trkpt><trkpt lat="38.0457749" lon="-1.4229934"><ele>246.00000000000003</ele><time>2026-03-28T08:57:45.754Z</time></trkpt><trkpt lat="38.0457603" lon="-1.4230744"><ele>246.00000000000003</ele><time>2026-03-28T08:57:49.753Z</time></trkpt><trkpt lat="38.0458144" lon="-1.4231504"><ele>246.0</ele><time>2026-03-28T08:57:53.753Z</time></trkpt><trkpt lat="38.0458665" lon="-1.4232262"><ele>246.0</ele><time>2026-03-28T08:57:56.752Z</time></trkpt><trkpt lat="38.0459104" lon="-1.423284"><ele>246.0</ele><time>2026-03-28T08:57:58.754Z</time></trkpt><trkpt lat="38.0459648" lon="-1.4233769"><ele>246.0</ele><time>2026-03-28T08:58:01.753Z</time></trkpt><trkpt lat="38.046023" lon="-1.4234492"><ele>246.0</ele><time>2026-03-28T08:58:04.752Z</time></trkpt><trkpt lat="38.0460907" lon="-1.4235287"><ele>246.0</ele><time>2026-03-28T08:58:07.753Z</time></trkpt><trkpt lat="38.0461296" lon="-1.4236147"><ele>246.0</ele><time>2026-03-28T08:58:09.751Z</time></trkpt><trkpt lat="38.0461421" lon="-1.4237215"><ele>246.0</ele><time>2026-03-28T08:58:11.754Z</time></trkpt><trkpt lat="38.0461438" lon="-1.4238263"><ele>246.0</ele><time>2026-03-28T08:58:13.753Z</time></trkpt><trkpt lat="38.0461442" lon="-1.4239339"><ele>246.0</ele><time>2026-03-28T08:58:15.754Z</time></trkpt><trkpt lat="38.0461374" lon="-1.4240438"><ele>246.0</ele><time>2026-03-28T08:58:17.753Z</time></trkpt><trkpt lat="38.04613" lon="-1.4241572"><ele>246.0</ele><time>2026-03-28T08:58:19.751Z</time></trkpt><trkpt lat="38.0461303" lon="-1.4242762"><ele>246.0</ele><time>2026-03-28T08:58:21.753Z</time></trkpt><trkpt lat="38.0461219" lon="-1.424387"><ele>246.00000000000003</ele><time>2026-03-28T08:58:23.753Z</time></trkpt><trkpt lat="38.0461038" lon="-1.4245042"><ele>246.00000000000003</ele><time>2026-03-28T08:58:25.751Z</time></trkpt><trkpt lat="38.0460889" lon="-1.4246271"><ele>246.0</ele><time>2026-03-28T08:58:27.753Z</time></trkpt><trkpt lat="38.0460671" lon="-1.424742"><ele>246.0</ele><time>2026-03-28T08:58:29.753Z</time></trkpt><trkpt lat="38.0460435" lon="-1.4248669"><ele>246.0</ele><time>2026-03-28T08:58:31.753Z</time></trkpt><trkpt lat="38.0460129" lon="-1.424996"><ele>246.00000000000003</ele><time>2026-03-28T08:58:33.753Z</time></trkpt><trkpt lat="38.0459856" lon="-1.4251175"><ele>246.00000000000003</ele><time>2026-03-28T08:58:35.754Z</time></trkpt><trkpt lat="38.0459533" lon="-1.4252445"><ele>246.0</ele><time>2026-03-28T08:58:37.751Z</time></trkpt><trkpt lat="38.0459076" lon="-1.425376"><ele>246.0</ele><time>2026-03-28T08:58:39.752Z</time></trkpt><trkpt lat="38.0458747" lon="-1.4254991"><ele>244.20000000000002</ele><time>2026-03-28T08:58:41.754Z</time></trkpt><trkpt lat="38.045836" lon="-1.4256164"><ele>242.40000000000003</ele><time>2026-03-28T08:58:43.753Z</time></trkpt><trkpt lat="38.0458027" lon="-1.4257222"><ele>240.6</ele><time>2026-03-28T08:58:45.752Z</time></trkpt><trkpt lat="38.0457732" lon="-1.4258438"><ele>238.8</ele><time>2026-03-28T08:58:47.753Z</time></trkpt><trkpt lat="38.045733" lon="-1.4259486"><ele>237.0</ele><time>2026-03-28T08:58:49.754Z</time></trkpt><trkpt lat="38.0456902" lon="-1.4260426"><ele>234.5</ele><time>2026-03-28T08:58:51.753Z</time></trkpt><trkpt lat="38.045647" lon="-1.4261381"><ele>232.0</ele><time>2026-03-28T08:58:53.753Z</time></trkpt><trkpt lat="38.0456073" lon="-1.4262204"><ele>229.5</ele><time>2026-03-28T08:58:55.752Z</time></trkpt><trkpt lat="38.0455595" lon="-1.4263066"><ele>227.0</ele><time>2026-03-28T08:58:57.754Z</time></trkpt><trkpt lat="38.0455207" lon="-1.4264046"><ele>224.5</ele><time>2026-03-28T08:58:59.752Z</time></trkpt><trkpt lat="38.0454709" lon="-1.4265125"><ele>222.0</ele><time>2026-03-28T08:59:01.753Z</time></trkpt><trkpt lat="38.0454339" lon="-1.4266351"><ele>221.8</ele><time>2026-03-28T08:59:03.754Z</time></trkpt><trkpt lat="38.0453881" lon="-1.4267441"><ele>221.6</ele><time>2026-03-28T08:59:05.752Z</time></trkpt><trkpt lat="38.0453516" lon="-1.4268478"><ele>221.40000000000003</ele><time>2026-03-28T08:59:07.753Z</time></trkpt><trkpt lat="38.045302" lon="-1.4269451"><ele>221.20000000000002</ele><time>2026-03-28T08:59:09.753Z</time></trkpt><trkpt lat="38.0452581" lon="-1.4270595"><ele>221.0</ele><time>2026-03-28T08:59:11.753Z</time></trkpt><trkpt lat="38.0452118" lon="-1.4271815"><ele>221.0</ele><time>2026-03-28T08:59:13.754Z</time></trkpt><trkpt lat="38.0451714" lon="-1.427282"><ele>221.00000000000003</ele><time>2026-03-28T08:59:15.752Z</time></trkpt><trkpt lat="38.0451337" lon="-1.4273906"><ele>221.00000000000003</ele><time>2026-03-28T08:59:17.751Z</time></trkpt><trkpt lat="38.0450872" lon="-1.4274957"><ele>221.0</ele><time>2026-03-28T08:59:19.752Z</time></trkpt><trkpt lat="38.0450534" lon="-1.4276083"><ele>221.0</ele><time>2026-03-28T08:59:21.753Z</time></trkpt><trkpt lat="38.0450159" lon="-1.4277134"><ele>221.0</ele><time>2026-03-28T08:59:23.752Z</time></trkpt><trkpt lat="38.0449829" lon="-1.4278201"><ele>221.00000000000003</ele><time>2026-03-28T08:59:25.754Z</time></trkpt><trkpt lat="38.0448996" lon="-1.4280126"><ele>221.00000000000003</ele><time>2026-03-28T08:59:29.753Z</time></trkpt><trkpt lat="38.0448639" lon="-1.4281091"><ele>221.0</ele><time>2026-03-28T08:59:31.753Z</time></trkpt><trkpt lat="38.0448293" lon="-1.4281999"><ele>221.0</ele><time>2026-03-28T08:59:33.753Z</time></trkpt><trkpt lat="38.0447968" lon="-1.4282848"><ele>225.0</ele><time>2026-03-28T08:59:35.753Z</time></trkpt><trkpt lat="38.0447666" lon="-1.4283638"><ele>229.0</ele><time>2026-03-28T08:59:37.753Z</time></trkpt><trkpt lat="38.0447333" lon="-1.4284459"><ele>233.0</ele><time>2026-03-28T08:59:39.754Z</time></trkpt><trkpt lat="38.0446989" lon="-1.428527"><ele>237.0</ele><time>2026-03-28T08:59:41.754Z</time></trkpt><trkpt lat="38.044663" lon="-1.4286123"><ele>240.99999999999997</ele><time>2026-03-28T08:59:43.751Z</time></trkpt><trkpt lat="38.0446267" lon="-1.4287015"><ele>245.0</ele><time>2026-03-28T08:59:45.754Z</time></trkpt><trkpt lat="38.0445869" lon="-1.4287872"><ele>249.0</ele><time>2026-03-28T08:59:47.752Z</time></trkpt><trkpt lat="38.0445491" lon="-1.4288739"><ele>250.2</ele><time>2026-03-28T08:59:49.752Z</time></trkpt><trkpt lat="38.0445155" lon="-1.4289614"><ele>251.39999999999998</ele><time>2026-03-28T08:59:51.752Z</time></trkpt><trkpt lat="38.0444784" lon="-1.4290449"><ele>252.6</ele><time>2026-03-28T08:59:53.752Z</time></trkpt><trkpt lat="38.0444393" lon="-1.42913"><ele>253.8</ele><time>2026-03-28T08:59:55.752Z</time></trkpt><trkpt lat="38.0444092" lon="-1.4292222"><ele>255.0</ele><time>2026-03-28T08:59:57.751Z</time></trkpt><trkpt lat="38.0443409" lon="-1.4294027"><ele>255.0</ele><time>2026-03-28T09:00:01.752Z</time></trkpt><trkpt lat="38.0443049" lon="-1.429493"><ele>255.0</ele><time>2026-03-28T09:00:03.754Z</time></trkpt><trkpt lat="38.0442687" lon="-1.4295844"><ele>255.0</ele><time>2026-03-28T09:00:05.753Z</time></trkpt><trkpt lat="38.0442338" lon="-1.4296744"><ele>255.0</ele><time>2026-03-28T09:00:07.753Z</time></trkpt><trkpt lat="38.0442017" lon="-1.4297695"><ele>255.0</ele><time>2026-03-28T09:00:09.754Z</time></trkpt><trkpt lat="38.0441707" lon="-1.429853"><ele>255.0</ele><time>2026-03-28T09:00:11.752Z</time></trkpt><trkpt lat="38.0441323" lon="-1.4299327"><ele>255.0</ele><time>2026-03-28T09:00:13.752Z</time></trkpt><trkpt lat="38.0440975" lon="-1.4300192"><ele>255.00000000000003</ele><time>2026-03-28T09:00:15.753Z</time></trkpt><trkpt lat="38.0440652" lon="-1.4301016"><ele>255.0</ele><time>2026-03-28T09:00:17.751Z</time></trkpt><trkpt lat="38.0440266" lon="-1.4301838"><ele>255.0</ele><time>2026-03-28T09:00:19.753Z</time></trkpt><trkpt lat="38.0439974" lon="-1.4302681"><ele>255.00000000000003</ele><time>2026-03-28T09:00:21.753Z</time></trkpt><trkpt lat="38.0439703" lon="-1.4303527"><ele>255.0</ele><time>2026-03-28T09:00:23.752Z</time></trkpt><trkpt lat="38.043944" lon="-1.4304382"><ele>255.0</ele><time>2026-03-28T09:00:25.751Z</time></trkpt><trkpt lat="38.0439184" lon="-1.4305221"><ele>255.42857142857144</ele><time>2026-03-28T09:00:27.751Z</time></trkpt><trkpt lat="38.0438896" lon="-1.430608"><ele>255.8571428571429</ele><time>2026-03-28T09:00:29.752Z</time></trkpt><trkpt lat="38.0438661" lon="-1.4306966"><ele>256.2857142857143</ele><time>2026-03-28T09:00:31.751Z</time></trkpt><trkpt lat="38.0438458" lon="-1.43079"><ele>256.7142857142857</ele><time>2026-03-28T09:00:33.752Z</time></trkpt><trkpt lat="38.0438252" lon="-1.4308768"><ele>257.1428571428571</ele><time>2026-03-28T09:00:35.752Z</time></trkpt><trkpt lat="38.0438015" lon="-1.4309614"><ele>257.57142857142856</ele><time>2026-03-28T09:00:37.754Z</time></trkpt><trkpt lat="38.0437862" lon="-1.4310529"><ele>258.0</ele><time>2026-03-28T09:00:39.753Z</time></trkpt><trkpt lat="38.0437738" lon="-1.4311406"><ele>258.0</ele><time>2026-03-28T09:00:41.752Z</time></trkpt><trkpt lat="38.0437585" lon="-1.4312318"><ele>258.0</ele><time>2026-03-28T09:00:43.753Z</time></trkpt><trkpt lat="38.0437359" lon="-1.4313316"><ele>258.0</ele><time>2026-03-28T09:00:45.752Z</time></trkpt><trkpt lat="38.0437278" lon="-1.4314209"><ele>258.0</ele><time>2026-03-28T09:00:47.754Z</time></trkpt><trkpt lat="38.0437176" lon="-1.4315128"><ele>258.0</ele><time>2026-03-28T09:00:49.752Z</time></trkpt><trkpt lat="38.043699" lon="-1.4316075"><ele>258.0</ele><time>2026-03-28T09:00:51.752Z</time></trkpt><trkpt lat="38.0436837" lon="-1.4317005"><ele>258.0</ele><time>2026-03-28T09:00:53.753Z</time></trkpt><trkpt lat="38.0436728" lon="-1.4318018"><ele>258.0</ele><time>2026-03-28T09:00:55.753Z</time></trkpt><trkpt lat="38.0436602" lon="-1.4318995"><ele>258.0</ele><time>2026-03-28T09:00:57.752Z</time></trkpt><trkpt lat="38.0436496" lon="-1.4319974"><ele>258.0</ele><time>2026-03-28T09:00:59.752Z</time></trkpt><trkpt lat="38.0436427" lon="-1.4320845"><ele>258.0</ele><time>2026-03-28T09:01:01.753Z</time></trkpt><trkpt lat="38.0436418" lon="-1.4321801"><ele>258.0</ele><time>2026-03-28T09:01:03.754Z</time></trkpt><trkpt lat="38.0436445" lon="-1.4322831"><ele>258.1666666666667</ele><time>2026-03-28T09:01:05.752Z</time></trkpt><trkpt lat="38.0436427" lon="-1.4323865"><ele>258.3333333333333</ele><time>2026-03-28T09:01:07.753Z</time></trkpt><trkpt lat="38.0436398" lon="-1.4324898"><ele>258.5</ele><time>2026-03-28T09:01:09.752Z</time></trkpt><trkpt lat="38.0436399" lon="-1.4325871"><ele>258.66666666666663</ele><time>2026-03-28T09:01:11.753Z</time></trkpt><trkpt lat="38.0436434" lon="-1.4327151"><ele>258.8333333333333</ele><time>2026-03-28T09:01:13.754Z</time></trkpt><trkpt lat="38.0436461" lon="-1.432818"><ele>259.0</ele><time>2026-03-28T09:01:15.753Z</time></trkpt><trkpt lat="38.0436528" lon="-1.4329217"><ele>258.8333333333333</ele><time>2026-03-28T09:01:17.752Z</time></trkpt><trkpt lat="38.0436614" lon="-1.4330293"><ele>258.66666666666663</ele><time>2026-03-28T09:01:19.753Z</time></trkpt><trkpt lat="38.0436648" lon="-1.4331259"><ele>258.5</ele><time>2026-03-28T09:01:21.752Z</time></trkpt><trkpt lat="38.043671" lon="-1.4332321"><ele>258.3333333333333</ele><time>2026-03-28T09:01:23.753Z</time></trkpt><trkpt lat="38.0436812" lon="-1.4333211"><ele>258.1666666666667</ele><time>2026-03-28T09:01:25.753Z</time></trkpt><trkpt lat="38.0436858" lon="-1.4334311"><ele>258.0</ele><time>2026-03-28T09:01:27.753Z</time></trkpt><trkpt lat="38.0436886" lon="-1.433534"><ele>258.0</ele><time>2026-03-28T09:01:29.754Z</time></trkpt><trkpt lat="38.0436938" lon="-1.4336384"><ele>258.0</ele><time>2026-03-28T09:01:31.753Z</time></trkpt><trkpt lat="38.0436898" lon="-1.4337325"><ele>258.0</ele><time>2026-03-28T09:01:33.752Z</time></trkpt><trkpt lat="38.0436892" lon="-1.4338254"><ele>258.0</ele><time>2026-03-28T09:01:35.753Z</time></trkpt><trkpt lat="38.0436931" lon="-1.4339139"><ele>258.0</ele><time>2026-03-28T09:01:37.752Z</time></trkpt><trkpt lat="38.0436977" lon="-1.4340303"><ele>258.0</ele><time>2026-03-28T09:01:39.752Z</time></trkpt><trkpt lat="38.0437054" lon="-1.4341318"><ele>258.1666666666667</ele><time>2026-03-28T09:01:41.752Z</time></trkpt><trkpt lat="38.0437119" lon="-1.4342288"><ele>258.3333333333333</ele><time>2026-03-28T09:01:43.752Z</time></trkpt><trkpt lat="38.043718" lon="-1.4343262"><ele>258.5</ele><time>2026-03-28T09:01:45.753Z</time></trkpt><trkpt lat="38.0437178" lon="-1.4344442"><ele>258.66666666666663</ele><time>2026-03-28T09:01:47.753Z</time></trkpt><trkpt lat="38.04372" lon="-1.4345475"><ele>258.8333333333333</ele><time>2026-03-28T09:01:49.752Z</time></trkpt><trkpt lat="38.0437218" lon="-1.4346572"><ele>259.0</ele><time>2026-03-28T09:01:51.752Z</time></trkpt><trkpt lat="38.0437253" lon="-1.4347697"><ele>258.3333333333333</ele><time>2026-03-28T09:01:53.753Z</time></trkpt><trkpt lat="38.0437287" lon="-1.4348774"><ele>257.66666666666663</ele><time>2026-03-28T09:01:55.753Z</time></trkpt><trkpt lat="38.0437344" lon="-1.434987"><ele>257.0</ele><time>2026-03-28T09:01:57.752Z</time></trkpt><trkpt lat="38.0437452" lon="-1.4350916"><ele>256.3333333333333</ele><time>2026-03-28T09:01:59.752Z</time></trkpt><trkpt lat="38.0437546" lon="-1.4351986"><ele>255.66666666666666</ele><time>2026-03-28T09:02:01.752Z</time></trkpt><trkpt lat="38.0437528" lon="-1.4353153"><ele>255.0</ele><time>2026-03-28T09:02:03.753Z</time></trkpt><trkpt lat="38.0437519" lon="-1.4354269"><ele>254.83333333333334</ele><time>2026-03-28T09:02:05.754Z</time></trkpt><trkpt lat="38.0437531" lon="-1.4355323"><ele>254.66666666666669</ele><time>2026-03-28T09:02:07.752Z</time></trkpt><trkpt lat="38.0437613" lon="-1.4356344"><ele>254.5</ele><time>2026-03-28T09:02:09.752Z</time></trkpt><trkpt lat="38.0437594" lon="-1.4357459"><ele>254.33333333333334</ele><time>2026-03-28T09:02:11.752Z</time></trkpt><trkpt lat="38.0437559" lon="-1.4358591"><ele>254.16666666666669</ele><time>2026-03-28T09:02:13.753Z</time></trkpt><trkpt lat="38.0437635" lon="-1.435972"><ele>254.0</ele><time>2026-03-28T09:02:15.754Z</time></trkpt><trkpt lat="38.0437632" lon="-1.4360836"><ele>254.00000000000003</ele><time>2026-03-28T09:02:17.752Z</time></trkpt><trkpt lat="38.0437672" lon="-1.4361996"><ele>254.0</ele><time>2026-03-28T09:02:19.754Z</time></trkpt><trkpt lat="38.0437739" lon="-1.4363151"><ele>254.0</ele><time>2026-03-28T09:02:21.753Z</time></trkpt><trkpt lat="38.043783" lon="-1.4364273"><ele>254.0</ele><time>2026-03-28T09:02:23.753Z</time></trkpt><trkpt lat="38.0437888" lon="-1.4365391"><ele>254.00000000000003</ele><time>2026-03-28T09:02:25.753Z</time></trkpt><trkpt lat="38.0437948" lon="-1.4366495"><ele>254.0</ele><time>2026-03-28T09:02:27.753Z</time></trkpt><trkpt lat="38.0438051" lon="-1.4367661"><ele>253.66666666666669</ele><time>2026-03-28T09:02:29.754Z</time></trkpt><trkpt lat="38.0438134" lon="-1.4368838"><ele>253.33333333333334</ele><time>2026-03-28T09:02:31.753Z</time></trkpt><trkpt lat="38.0438208" lon="-1.4369978"><ele>253.0</ele><time>2026-03-28T09:02:33.753Z</time></trkpt><trkpt lat="38.0438225" lon="-1.4371046"><ele>252.66666666666669</ele><time>2026-03-28T09:02:35.753Z</time></trkpt><trkpt lat="38.043832" lon="-1.4372121"><ele>252.33333333333334</ele><time>2026-03-28T09:02:37.754Z</time></trkpt><trkpt lat="38.0438395" lon="-1.4373149"><ele>252.0</ele><time>2026-03-28T09:02:39.754Z</time></trkpt><trkpt lat="38.0438466" lon="-1.4374251"><ele>252.0</ele><time>2026-03-28T09:02:41.753Z</time></trkpt><trkpt lat="38.043845" lon="-1.4375227"><ele>252.0</ele><time>2026-03-28T09:02:43.752Z</time></trkpt><trkpt lat="38.0438506" lon="-1.4376469"><ele>252.0</ele><time>2026-03-28T09:02:46.753Z</time></trkpt><trkpt lat="38.0438559" lon="-1.437757"><ele>252.0</ele><time>2026-03-28T09:02:48.753Z</time></trkpt><trkpt lat="38.0438632" lon="-1.4378608"><ele>252.0</ele><time>2026-03-28T09:02:50.752Z</time></trkpt><trkpt lat="38.0438713" lon="-1.4379723"><ele>252.0</ele><time>2026-03-28T09:02:52.752Z</time></trkpt><trkpt lat="38.0438791" lon="-1.4380803"><ele>252.66666666666666</ele><time>2026-03-28T09:02:54.753Z</time></trkpt><trkpt lat="38.0438858" lon="-1.4381858"><ele>253.33333333333331</ele><time>2026-03-28T09:02:56.753Z</time></trkpt><trkpt lat="38.043893" lon="-1.4382888"><ele>254.0</ele><time>2026-03-28T09:02:58.753Z</time></trkpt><trkpt lat="38.0438878" lon="-1.4383853"><ele>254.66666666666666</ele><time>2026-03-28T09:03:00.753Z</time></trkpt><trkpt lat="38.0438932" lon="-1.4384962"><ele>255.33333333333331</ele><time>2026-03-28T09:03:02.753Z</time></trkpt><trkpt lat="38.0439076" lon="-1.4386071"><ele>256.0</ele><time>2026-03-28T09:03:04.752Z</time></trkpt><trkpt lat="38.043917" lon="-1.438718"><ele>255.8</ele><time>2026-03-28T09:03:06.753Z</time></trkpt><trkpt lat="38.043926" lon="-1.4388305"><ele>255.60000000000002</ele><time>2026-03-28T09:03:08.752Z</time></trkpt><trkpt lat="38.043929" lon="-1.4389415"><ele>255.4</ele><time>2026-03-28T09:03:10.753Z</time></trkpt><trkpt lat="38.043937" lon="-1.439043"><ele>255.2</ele><time>2026-03-28T09:03:12.752Z</time></trkpt><trkpt lat="38.0439434" lon="-1.439164"><ele>255.0</ele><time>2026-03-28T09:03:14.752Z</time></trkpt><trkpt lat="38.0439491" lon="-1.4392987"><ele>255.0</ele><time>2026-03-28T09:03:16.752Z</time></trkpt><trkpt lat="38.043953" lon="-1.4394065"><ele>255.0</ele><time>2026-03-28T09:03:18.753Z</time></trkpt><trkpt lat="38.0439567" lon="-1.4395098"><ele>255.0</ele><time>2026-03-28T09:03:20.753Z</time></trkpt><trkpt lat="38.0439668" lon="-1.4396347"><ele>255.0</ele><time>2026-03-28T09:03:22.752Z</time></trkpt><trkpt lat="38.0439543" lon="-1.4397344"><ele>255.0</ele><time>2026-03-28T09:03:24.753Z</time></trkpt><trkpt lat="38.0439651" lon="-1.4398392"><ele>255.0</ele><time>2026-03-28T09:03:26.754Z</time></trkpt><trkpt lat="38.0439727" lon="-1.439955"><ele>255.6</ele><time>2026-03-28T09:03:28.753Z</time></trkpt><trkpt lat="38.0439793" lon="-1.4400797"><ele>256.2</ele><time>2026-03-28T09:03:30.754Z</time></trkpt><trkpt lat="38.043981" lon="-1.4401949"><ele>256.8</ele><time>2026-03-28T09:03:32.753Z</time></trkpt><trkpt lat="38.0439918" lon="-1.4403205"><ele>257.4</ele><time>2026-03-28T09:03:34.754Z</time></trkpt><trkpt lat="38.0440024" lon="-1.4404491"><ele>258.0</ele><time>2026-03-28T09:03:36.753Z</time></trkpt><trkpt lat="38.0440092" lon="-1.4405722"><ele>256.8</ele><time>2026-03-28T09:03:38.753Z</time></trkpt><trkpt lat="38.0440044" lon="-1.4406983"><ele>255.60000000000002</ele><time>2026-03-28T09:03:40.753Z</time></trkpt><trkpt lat="38.0440056" lon="-1.4408201"><ele>254.39999999999998</ele><time>2026-03-28T09:03:42.752Z</time></trkpt><trkpt lat="38.0440169" lon="-1.4409406"><ele>253.2</ele><time>2026-03-28T09:03:44.753Z</time></trkpt><trkpt lat="38.0440281" lon="-1.4410611"><ele>252.0</ele><time>2026-03-28T09:03:46.753Z</time></trkpt><trkpt lat="38.0440382" lon="-1.4411823"><ele>252.2</ele><time>2026-03-28T09:03:48.753Z</time></trkpt><trkpt lat="38.0440471" lon="-1.4413037"><ele>252.39999999999998</ele><time>2026-03-28T09:03:50.754Z</time></trkpt><trkpt lat="38.0440474" lon="-1.4414217"><ele>252.60000000000002</ele><time>2026-03-28T09:03:52.754Z</time></trkpt><trkpt lat="38.0440461" lon="-1.4415404"><ele>252.8</ele><time>2026-03-28T09:03:54.753Z</time></trkpt><trkpt lat="38.044051" lon="-1.4416537"><ele>253.0</ele><time>2026-03-28T09:03:56.753Z</time></trkpt><trkpt lat="38.0440584" lon="-1.4417642"><ele>252.99999999999997</ele><time>2026-03-28T09:03:58.754Z</time></trkpt><trkpt lat="38.0440668" lon="-1.4418745"><ele>253.0</ele><time>2026-03-28T09:04:00.753Z</time></trkpt><trkpt lat="38.0440666" lon="-1.4419729"><ele>253.0</ele><time>2026-03-28T09:04:02.753Z</time></trkpt><trkpt lat="38.0440776" lon="-1.4420922"><ele>253.0</ele><time>2026-03-28T09:04:04.752Z</time></trkpt><trkpt lat="38.0440752" lon="-1.4422026"><ele>252.99999999999997</ele><time>2026-03-28T09:04:06.753Z</time></trkpt><trkpt lat="38.0440803" lon="-1.4423008"><ele>253.0</ele><time>2026-03-28T09:04:08.754Z</time></trkpt><trkpt lat="38.044086" lon="-1.4424045"><ele>254.16666666666666</ele><time>2026-03-28T09:04:10.752Z</time></trkpt><trkpt lat="38.0440864" lon="-1.4425023"><ele>255.33333333333331</ele><time>2026-03-28T09:04:12.752Z</time></trkpt><trkpt lat="38.044087" lon="-1.4425984"><ele>256.5</ele><time>2026-03-28T09:04:14.752Z</time></trkpt><trkpt lat="38.0440937" lon="-1.4427028"><ele>257.6666666666667</ele><time>2026-03-28T09:04:16.754Z</time></trkpt><trkpt lat="38.0440978" lon="-1.4428132"><ele>258.83333333333337</ele><time>2026-03-28T09:04:18.753Z</time></trkpt><trkpt lat="38.0441072" lon="-1.4429184"><ele>260.0</ele><time>2026-03-28T09:04:20.753Z</time></trkpt><trkpt lat="38.0441178" lon="-1.4430214"><ele>260.0</ele><time>2026-03-28T09:04:22.752Z</time></trkpt><trkpt lat="38.0441196" lon="-1.4431195"><ele>260.0</ele><time>2026-03-28T09:04:24.752Z</time></trkpt><trkpt lat="38.0441211" lon="-1.4432088"><ele>260.0</ele><time>2026-03-28T09:04:26.752Z</time></trkpt><trkpt lat="38.0441284" lon="-1.4433189"><ele>260.0</ele><time>2026-03-28T09:04:28.752Z</time></trkpt><trkpt lat="38.0441281" lon="-1.4434198"><ele>260.0</ele><time>2026-03-28T09:04:30.753Z</time></trkpt><trkpt lat="38.0441301" lon="-1.4435194"><ele>260.0</ele><time>2026-03-28T09:04:32.753Z</time></trkpt><trkpt lat="38.0441366" lon="-1.4436185"><ele>260.5</ele><time>2026-03-28T09:04:34.753Z</time></trkpt><trkpt lat="38.0441422" lon="-1.443722"><ele>261.0</ele><time>2026-03-28T09:04:36.753Z</time></trkpt><trkpt lat="38.0441383" lon="-1.4438235"><ele>261.5</ele><time>2026-03-28T09:04:38.753Z</time></trkpt><trkpt lat="38.0441293" lon="-1.4439275"><ele>262.0</ele><time>2026-03-28T09:04:40.752Z</time></trkpt><trkpt lat="38.0441432" lon="-1.4440523"><ele>262.5</ele><time>2026-03-28T09:04:42.752Z</time></trkpt><trkpt lat="38.0441431" lon="-1.4441577"><ele>263.0</ele><time>2026-03-28T09:04:44.753Z</time></trkpt><trkpt lat="38.0441544" lon="-1.4442623"><ele>263.0</ele><time>2026-03-28T09:04:46.753Z</time></trkpt><trkpt lat="38.0441571" lon="-1.4443703"><ele>263.0</ele><time>2026-03-28T09:04:48.753Z</time></trkpt><trkpt lat="38.0441616" lon="-1.4444797"><ele>263.0</ele><time>2026-03-28T09:04:50.753Z</time></trkpt><trkpt lat="38.044166" lon="-1.444588"><ele>263.0</ele><time>2026-03-28T09:04:52.754Z</time></trkpt><trkpt lat="38.0441793" lon="-1.4446962"><ele>263.0</ele><time>2026-03-28T09:04:54.753Z</time></trkpt><trkpt lat="38.0441942" lon="-1.4448049"><ele>263.0</ele><time>2026-03-28T09:04:56.752Z</time></trkpt><trkpt lat="38.0442006" lon="-1.4449153"><ele>263.0</ele><time>2026-03-28T09:04:58.754Z</time></trkpt><trkpt lat="38.0442067" lon="-1.4450207"><ele>263.0</ele><time>2026-03-28T09:05:00.752Z</time></trkpt><trkpt lat="38.0442117" lon="-1.4451278"><ele>263.0</ele><time>2026-03-28T09:05:02.753Z</time></trkpt><trkpt lat="38.0442173" lon="-1.4452214"><ele>263.0</ele><time>2026-03-28T09:05:04.752Z</time></trkpt><trkpt lat="38.0442208" lon="-1.4453313"><ele>263.0</ele><time>2026-03-28T09:05:06.753Z</time></trkpt><trkpt lat="38.0442281" lon="-1.4454412"><ele>263.0</ele><time>2026-03-28T09:05:08.754Z</time></trkpt><trkpt lat="38.0442371" lon="-1.4455435"><ele>262.33333333333337</ele><time>2026-03-28T09:05:10.752Z</time></trkpt><trkpt lat="38.0442486" lon="-1.4456469"><ele>261.6666666666667</ele><time>2026-03-28T09:05:12.753Z</time></trkpt><trkpt lat="38.0442645" lon="-1.4457299"><ele>261.0</ele><time>2026-03-28T09:05:14.752Z</time></trkpt><trkpt lat="38.0442728" lon="-1.4458432"><ele>260.3333333333333</ele><time>2026-03-28T09:05:16.754Z</time></trkpt><trkpt lat="38.0442729" lon="-1.4459573"><ele>259.66666666666663</ele><time>2026-03-28T09:05:18.752Z</time></trkpt><trkpt lat="38.0442722" lon="-1.4460676"><ele>259.0</ele><time>2026-03-28T09:05:20.753Z</time></trkpt><trkpt lat="38.0442731" lon="-1.4461767"><ele>259.0</ele><time>2026-03-28T09:05:22.753Z</time></trkpt><trkpt lat="38.0442772" lon="-1.4462942"><ele>259.0</ele><time>2026-03-28T09:05:24.753Z</time></trkpt><trkpt lat="38.0442821" lon="-1.4464019"><ele>259.0</ele><time>2026-03-28T09:05:26.753Z</time></trkpt><trkpt lat="38.0442851" lon="-1.4465299"><ele>259.0</ele><time>2026-03-28T09:05:28.752Z</time></trkpt><trkpt lat="38.0442781" lon="-1.4466359"><ele>259.0</ele><time>2026-03-28T09:05:30.753Z</time></trkpt><trkpt lat="38.0442734" lon="-1.4467338"><ele>259.0</ele><time>2026-03-28T09:05:32.754Z</time></trkpt><trkpt lat="38.0442707" lon="-1.4468441"><ele>258.5</ele><time>2026-03-28T09:05:34.753Z</time></trkpt><trkpt lat="38.0442738" lon="-1.446944"><ele>258.0</ele><time>2026-03-28T09:05:36.753Z</time></trkpt><trkpt lat="38.0442731" lon="-1.447049"><ele>257.5</ele><time>2026-03-28T09:05:38.752Z</time></trkpt><trkpt lat="38.0442596" lon="-1.4471514"><ele>257.0</ele><time>2026-03-28T09:05:40.753Z</time></trkpt><trkpt lat="38.0442501" lon="-1.4472606"><ele>256.5</ele><time>2026-03-28T09:05:42.753Z</time></trkpt><trkpt lat="38.0442366" lon="-1.4473411"><ele>256.0</ele><time>2026-03-28T09:05:44.753Z</time></trkpt><trkpt lat="38.0442158" lon="-1.4474239"><ele>255.99999999999997</ele><time>2026-03-28T09:05:46.753Z</time></trkpt><trkpt lat="38.0441889" lon="-1.4475315"><ele>256.0</ele><time>2026-03-28T09:05:48.754Z</time></trkpt><trkpt lat="38.0441722" lon="-1.4476493"><ele>256.0</ele><time>2026-03-28T09:05:50.753Z</time></trkpt><trkpt lat="38.0441486" lon="-1.4477437"><ele>256.0</ele><time>2026-03-28T09:05:52.752Z</time></trkpt><trkpt lat="38.044126" lon="-1.4478492"><ele>255.99999999999997</ele><time>2026-03-28T09:05:54.753Z</time></trkpt><trkpt lat="38.0440935" lon="-1.447953"><ele>256.0</ele><time>2026-03-28T09:05:56.753Z</time></trkpt><trkpt lat="38.0440633" lon="-1.4480581"><ele>255.99999999999997</ele><time>2026-03-28T09:05:58.754Z</time></trkpt><trkpt lat="38.0440277" lon="-1.4481611"><ele>256.0</ele><time>2026-03-28T09:06:00.753Z</time></trkpt><trkpt lat="38.0439948" lon="-1.4482563"><ele>256.0</ele><time>2026-03-28T09:06:02.754Z</time></trkpt><trkpt lat="38.0439566" lon="-1.4483531"><ele>256.0</ele><time>2026-03-28T09:06:04.753Z</time></trkpt><trkpt lat="38.0439058" lon="-1.4484492"><ele>255.99999999999997</ele><time>2026-03-28T09:06:06.754Z</time></trkpt><trkpt lat="38.0438551" lon="-1.4485378"><ele>256.0</ele><time>2026-03-28T09:06:08.754Z</time></trkpt><trkpt lat="38.0438058" lon="-1.448623"><ele>255.99999999999997</ele><time>2026-03-28T09:06:10.753Z</time></trkpt><trkpt lat="38.043754" lon="-1.4487105"><ele>256.0</ele><time>2026-03-28T09:06:12.754Z</time></trkpt><trkpt lat="38.0436987" lon="-1.4487935"><ele>256.0</ele><time>2026-03-28T09:06:14.754Z</time></trkpt><trkpt lat="38.0436406" lon="-1.4488784"><ele>256.0</ele><time>2026-03-28T09:06:16.754Z</time></trkpt><trkpt lat="38.0435817" lon="-1.4489623"><ele>255.99999999999997</ele><time>2026-03-28T09:06:18.754Z</time></trkpt><trkpt lat="38.0435189" lon="-1.4490443"><ele>256.0</ele><time>2026-03-28T09:06:20.754Z</time></trkpt><trkpt lat="38.0434596" lon="-1.4491242"><ele>256.3333333333333</ele><time>2026-03-28T09:06:22.755Z</time></trkpt><trkpt lat="38.0434046" lon="-1.449191"><ele>256.66666666666663</ele><time>2026-03-28T09:06:24.754Z</time></trkpt><trkpt lat="38.0433543" lon="-1.4492543"><ele>257.0</ele><time>2026-03-28T09:06:26.753Z</time></trkpt><trkpt lat="38.0433088" lon="-1.44932"><ele>257.3333333333333</ele><time>2026-03-28T09:06:28.753Z</time></trkpt><trkpt lat="38.0432659" lon="-1.4494227"><ele>257.6666666666667</ele><time>2026-03-28T09:06:31.754Z</time></trkpt><trkpt lat="38.0432082" lon="-1.4494687"><ele>258.0</ele><time>2026-03-28T09:06:33.754Z</time></trkpt><trkpt lat="38.0431362" lon="-1.4495276"><ele>258.3333333333333</ele><time>2026-03-28T09:06:35.755Z</time></trkpt><trkpt lat="38.0430669" lon="-1.4495849"><ele>258.6666666666667</ele><time>2026-03-28T09:06:37.754Z</time></trkpt><trkpt lat="38.0429916" lon="-1.4496466"><ele>259.0</ele><time>2026-03-28T09:06:40.754Z</time></trkpt><trkpt lat="38.0429225" lon="-1.449712"><ele>259.33333333333337</ele><time>2026-03-28T09:06:43.753Z</time></trkpt><trkpt lat="38.0428825" lon="-1.4497842"><ele>259.6666666666667</ele><time>2026-03-28T09:06:45.752Z</time></trkpt><trkpt lat="38.0428229" lon="-1.4498562"><ele>260.0</ele><time>2026-03-28T09:06:48.753Z</time></trkpt><trkpt lat="38.042813" lon="-1.4499389"><ele>260.1666666666667</ele><time>2026-03-28T09:07:18.754Z</time></trkpt><trkpt lat="38.0428623" lon="-1.45004"><ele>260.33333333333337</ele><time>2026-03-28T09:07:25.752Z</time></trkpt><trkpt lat="38.0429029" lon="-1.4501126"><ele>260.5</ele><time>2026-03-28T09:07:27.752Z</time></trkpt><trkpt lat="38.0429448" lon="-1.4502062"><ele>260.6666666666667</ele><time>2026-03-28T09:07:30.755Z</time></trkpt><trkpt lat="38.0430032" lon="-1.450293"><ele>260.8333333333333</ele><time>2026-03-28T09:07:33.752Z</time></trkpt><trkpt lat="38.0430482" lon="-1.4503626"><ele>261.0</ele><time>2026-03-28T09:07:35.753Z</time></trkpt><trkpt lat="38.0430946" lon="-1.4504365"><ele>261.57142857142856</ele><time>2026-03-28T09:07:37.754Z</time></trkpt><trkpt lat="38.043126" lon="-1.4505147"><ele>262.1428571428571</ele><time>2026-03-28T09:07:39.753Z</time></trkpt><trkpt lat="38.0431745" lon="-1.4506193"><ele>262.71428571428567</ele><time>2026-03-28T09:07:42.753Z</time></trkpt><trkpt lat="38.043198" lon="-1.4506977"><ele>263.2857142857143</ele><time>2026-03-28T09:07:44.752Z</time></trkpt><trkpt lat="38.0432158" lon="-1.4507768"><ele>263.85714285714283</ele><time>2026-03-28T09:07:46.752Z</time></trkpt><trkpt lat="38.0432447" lon="-1.4508498"><ele>264.4285714285714</ele><time>2026-03-28T09:07:48.753Z</time></trkpt><trkpt lat="38.0433065" lon="-1.4509307"><ele>265.0</ele><time>2026-03-28T09:07:50.753Z</time></trkpt><trkpt lat="38.0433673" lon="-1.4510201"><ele>264.99999999999994</ele><time>2026-03-28T09:07:52.753Z</time></trkpt><trkpt lat="38.0434054" lon="-1.4510866"><ele>265.0</ele><time>2026-03-28T09:07:54.754Z</time></trkpt><trkpt lat="38.0434461" lon="-1.451187"><ele>265.0</ele><time>2026-03-28T09:07:57.753Z</time></trkpt><trkpt lat="38.0434801" lon="-1.4512618"><ele>265.0</ele><time>2026-03-28T09:07:59.753Z</time></trkpt><trkpt lat="38.0435204" lon="-1.4513374"><ele>265.0</ele><time>2026-03-28T09:08:01.753Z</time></trkpt><trkpt lat="38.0435601" lon="-1.4514164"><ele>264.99999999999994</ele><time>2026-03-28T09:08:03.753Z</time></trkpt><trkpt lat="38.0435966" lon="-1.4514977"><ele>265.0</ele><time>2026-03-28T09:08:05.753Z</time></trkpt><trkpt lat="38.0436315" lon="-1.451574"><ele>265.5</ele><time>2026-03-28T09:08:07.753Z</time></trkpt><trkpt lat="38.0437035" lon="-1.4516918"><ele>266.0</ele><time>2026-03-28T09:08:10.753Z</time></trkpt><trkpt lat="38.0437437" lon="-1.4517748"><ele>266.5</ele><time>2026-03-28T09:08:12.753Z</time></trkpt><trkpt lat="38.0437846" lon="-1.4518557"><ele>267.0</ele><time>2026-03-28T09:08:14.752Z</time></trkpt><trkpt lat="38.0438213" lon="-1.4519377"><ele>267.5</ele><time>2026-03-28T09:08:16.754Z</time></trkpt><trkpt lat="38.0438536" lon="-1.4520192"><ele>268.0</ele><time>2026-03-28T09:08:18.752Z</time></trkpt><trkpt lat="38.0438905" lon="-1.4521036"><ele>267.8571428571429</ele><time>2026-03-28T09:08:20.752Z</time></trkpt><trkpt lat="38.0439272" lon="-1.4521884"><ele>267.7142857142857</ele><time>2026-03-28T09:08:22.754Z</time></trkpt><trkpt lat="38.0439666" lon="-1.4522757"><ele>267.57142857142856</ele><time>2026-03-28T09:08:24.753Z</time></trkpt><trkpt lat="38.0440069" lon="-1.4523569"><ele>267.42857142857144</ele><time>2026-03-28T09:08:26.753Z</time></trkpt><trkpt lat="38.044039" lon="-1.4524384"><ele>267.2857142857143</ele><time>2026-03-28T09:08:28.753Z</time></trkpt><trkpt lat="38.0440723" lon="-1.4525189"><ele>267.14285714285717</ele><time>2026-03-28T09:08:30.753Z</time></trkpt><trkpt lat="38.0441135" lon="-1.4525968"><ele>267.0</ele><time>2026-03-28T09:08:32.754Z</time></trkpt><trkpt lat="38.0441519" lon="-1.4526768"><ele>267.0</ele><time>2026-03-28T09:08:34.753Z</time></trkpt><trkpt lat="38.0442069" lon="-1.4527833"><ele>267.0</ele><time>2026-03-28T09:08:37.754Z</time></trkpt><trkpt lat="38.0442492" lon="-1.4528647"><ele>267.0</ele><time>2026-03-28T09:08:39.755Z</time></trkpt><trkpt lat="38.0442848" lon="-1.4529456"><ele>267.0</ele><time>2026-03-28T09:08:41.753Z</time></trkpt><trkpt lat="38.0443628" lon="-1.4531179"><ele>267.0</ele><time>2026-03-28T09:08:45.754Z</time></trkpt><trkpt lat="38.0444013" lon="-1.4532038"><ele>267.8333333333333</ele><time>2026-03-28T09:08:47.754Z</time></trkpt><trkpt lat="38.0444358" lon="-1.4532897"><ele>268.6666666666667</ele><time>2026-03-28T09:08:49.753Z</time></trkpt><trkpt lat="38.0444658" lon="-1.4533788"><ele>269.5</ele><time>2026-03-28T09:08:51.753Z</time></trkpt><trkpt lat="38.0445049" lon="-1.453468"><ele>270.33333333333337</ele><time>2026-03-28T09:08:53.754Z</time></trkpt><trkpt lat="38.0445446" lon="-1.4535502"><ele>271.1666666666667</ele><time>2026-03-28T09:08:55.754Z</time></trkpt><trkpt lat="38.0445795" lon="-1.4536336"><ele>272.0</ele><time>2026-03-28T09:08:57.754Z</time></trkpt><trkpt lat="38.0446122" lon="-1.4537122"><ele>272.57142857142856</ele><time>2026-03-28T09:08:59.754Z</time></trkpt><trkpt lat="38.0446512" lon="-1.453789"><ele>273.1428571428571</ele><time>2026-03-28T09:09:01.754Z</time></trkpt><trkpt lat="38.0446942" lon="-1.4538551"><ele>273.7142857142857</ele><time>2026-03-28T09:09:03.752Z</time></trkpt><trkpt lat="38.0447284" lon="-1.4539267"><ele>274.2857142857143</ele><time>2026-03-28T09:09:05.753Z</time></trkpt><trkpt lat="38.0447625" lon="-1.4539998"><ele>274.8571428571429</ele><time>2026-03-28T09:09:07.753Z</time></trkpt><trkpt lat="38.0447884" lon="-1.4540729"><ele>275.42857142857144</ele><time>2026-03-28T09:09:09.754Z</time></trkpt><trkpt lat="38.0448212" lon="-1.4541446"><ele>276.0</ele><time>2026-03-28T09:09:11.752Z</time></trkpt><trkpt lat="38.0448598" lon="-1.4542114"><ele>276.0</ele><time>2026-03-28T09:09:13.753Z</time></trkpt><trkpt lat="38.0448914" lon="-1.4542878"><ele>276.0</ele><time>2026-03-28T09:09:15.754Z</time></trkpt><trkpt lat="38.0449209" lon="-1.4543627"><ele>276.0</ele><time>2026-03-28T09:09:17.754Z</time></trkpt><trkpt lat="38.0449477" lon="-1.4544418"><ele>276.0</ele><time>2026-03-28T09:09:19.755Z</time></trkpt><trkpt lat="38.0449776" lon="-1.4545209"><ele>276.0</ele><time>2026-03-28T09:09:21.753Z</time></trkpt><trkpt lat="38.0450091" lon="-1.4546035"><ele>276.0</ele><time>2026-03-28T09:09:23.754Z</time></trkpt><trkpt lat="38.0450427" lon="-1.4546836"><ele>276.0</ele><time>2026-03-28T09:09:25.752Z</time></trkpt><trkpt lat="38.0450704" lon="-1.4547725"><ele>276.0</ele><time>2026-03-28T09:09:27.755Z</time></trkpt><trkpt lat="38.0450819" lon="-1.4548656"><ele>276.0</ele><time>2026-03-28T09:09:29.753Z</time></trkpt><trkpt lat="38.0450983" lon="-1.454954"><ele>276.0</ele><time>2026-03-28T09:09:31.754Z</time></trkpt><trkpt lat="38.0451193" lon="-1.4550372"><ele>276.0</ele><time>2026-03-28T09:09:33.753Z</time></trkpt><trkpt lat="38.0451448" lon="-1.4551528"><ele>276.0</ele><time>2026-03-28T09:09:36.754Z</time></trkpt><trkpt lat="38.0451616" lon="-1.4552413"><ele>276.0</ele><time>2026-03-28T09:09:38.752Z</time></trkpt><trkpt lat="38.0452106" lon="-1.4553095"><ele>276.0</ele><time>2026-03-28T09:09:41.752Z</time></trkpt><trkpt lat="38.0452749" lon="-1.455343"><ele>276.0</ele><time>2026-03-28T09:09:45.752Z</time></trkpt><trkpt lat="38.0453588" lon="-1.455324"><ele>276.0</ele><time>2026-03-28T09:09:47.753Z</time></trkpt><trkpt lat="38.0454519" lon="-1.455296"><ele>276.0</ele><time>2026-03-28T09:09:49.754Z</time></trkpt><trkpt lat="38.0455368" lon="-1.4553359"><ele>276.0</ele><time>2026-03-28T09:09:51.752Z</time></trkpt><trkpt lat="38.0456065" lon="-1.4554107"><ele>276.0</ele><time>2026-03-28T09:09:53.753Z</time></trkpt><trkpt lat="38.0456453" lon="-1.4555047"><ele>276.0</ele><time>2026-03-28T09:09:55.752Z</time></trkpt><trkpt lat="38.0456439" lon="-1.455624"><ele>276.0</ele><time>2026-03-28T09:09:57.753Z</time></trkpt><trkpt lat="38.0456248" lon="-1.4557403"><ele>276.0</ele><time>2026-03-28T09:09:59.752Z</time></trkpt><trkpt lat="38.0456492" lon="-1.4558428"><ele>276.0</ele><time>2026-03-28T09:10:01.753Z</time></trkpt><trkpt lat="38.0457163" lon="-1.4559184"><ele>276.0</ele><time>2026-03-28T09:10:03.754Z</time></trkpt><trkpt lat="38.0457745" lon="-1.4560001"><ele>276.0</ele><time>2026-03-28T09:10:05.752Z</time></trkpt><trkpt lat="38.0458124" lon="-1.4560776"><ele>275.8333333333333</ele><time>2026-03-28T09:10:07.753Z</time></trkpt><trkpt lat="38.045847" lon="-1.4561602"><ele>275.6666666666667</ele><time>2026-03-28T09:10:09.752Z</time></trkpt><trkpt lat="38.0458794" lon="-1.4562294"><ele>275.5</ele><time>2026-03-28T09:10:11.753Z</time></trkpt><trkpt lat="38.0459222" lon="-1.4563217"><ele>275.33333333333337</ele><time>2026-03-28T09:10:14.753Z</time></trkpt><trkpt lat="38.0459785" lon="-1.4564115"><ele>275.1666666666667</ele><time>2026-03-28T09:10:17.753Z</time></trkpt><trkpt lat="38.0460229" lon="-1.456517"><ele>275.0</ele><time>2026-03-28T09:10:20.753Z</time></trkpt><trkpt lat="38.0460543" lon="-1.4565895"><ele>275.0</ele><time>2026-03-28T09:10:22.753Z</time></trkpt><trkpt lat="38.0460906" lon="-1.4566551"><ele>275.0</ele><time>2026-03-28T09:10:24.753Z</time></trkpt><trkpt lat="38.0461331" lon="-1.4567195"><ele>275.0</ele><time>2026-03-28T09:10:26.752Z</time></trkpt><trkpt lat="38.0461695" lon="-1.4568092"><ele>275.0</ele><time>2026-03-28T09:10:28.752Z</time></trkpt><trkpt lat="38.0462041" lon="-1.456877"><ele>275.0</ele><time>2026-03-28T09:10:29.753Z</time></trkpt><trkpt lat="38.0462558" lon="-1.4569741"><ele>275.0</ele><time>2026-03-28T09:10:31.753Z</time></trkpt><trkpt lat="38.0463169" lon="-1.4570626"><ele>275.5</ele><time>2026-03-28T09:10:33.753Z</time></trkpt><trkpt lat="38.0463609" lon="-1.4571524"><ele>276.0</ele><time>2026-03-28T09:10:35.752Z</time></trkpt><trkpt lat="38.0463957" lon="-1.4572413"><ele>276.5</ele><time>2026-03-28T09:10:37.753Z</time></trkpt><trkpt lat="38.0464328" lon="-1.4573244"><ele>277.0</ele><time>2026-03-28T09:10:39.753Z</time></trkpt><trkpt lat="38.0464734" lon="-1.4574128"><ele>277.5</ele><time>2026-03-28T09:10:41.754Z</time></trkpt><trkpt lat="38.0465121" lon="-1.4575017"><ele>278.0</ele><time>2026-03-28T09:10:43.754Z</time></trkpt><trkpt lat="38.0465407" lon="-1.4575907"><ele>278.0</ele><time>2026-03-28T09:10:45.753Z</time></trkpt><trkpt lat="38.0465746" lon="-1.4576785"><ele>278.0</ele><time>2026-03-28T09:10:47.752Z</time></trkpt><trkpt lat="38.0466077" lon="-1.4577664"><ele>278.0</ele><time>2026-03-28T09:10:49.752Z</time></trkpt><trkpt lat="38.0466378" lon="-1.4578534"><ele>278.0</ele><time>2026-03-28T09:10:51.752Z</time></trkpt><trkpt lat="38.0466782" lon="-1.4579479"><ele>278.0</ele><time>2026-03-28T09:10:53.753Z</time></trkpt><trkpt lat="38.0467317" lon="-1.4580407"><ele>278.0</ele><time>2026-03-28T09:10:55.754Z</time></trkpt><trkpt lat="38.0467906" lon="-1.4581198"><ele>279.2</ele><time>2026-03-28T09:10:57.753Z</time></trkpt><trkpt lat="38.0468507" lon="-1.4581949"><ele>280.4</ele><time>2026-03-28T09:10:59.753Z</time></trkpt><trkpt lat="38.0469171" lon="-1.4582605"><ele>281.59999999999997</ele><time>2026-03-28T09:11:01.753Z</time></trkpt><trkpt lat="38.046988" lon="-1.4583338"><ele>282.8</ele><time>2026-03-28T09:11:03.753Z</time></trkpt><trkpt lat="38.0470579" lon="-1.458433"><ele>284.0</ele><time>2026-03-28T09:11:05.753Z</time></trkpt><trkpt lat="38.0471398" lon="-1.4584838"><ele>284.0</ele><time>2026-03-28T09:11:07.754Z</time></trkpt><trkpt lat="38.0472012" lon="-1.4585554"><ele>284.0</ele><time>2026-03-28T09:11:09.753Z</time></trkpt><trkpt lat="38.0472354" lon="-1.4586315"><ele>284.0</ele><time>2026-03-28T09:11:12.753Z</time></trkpt><trkpt lat="38.0472524" lon="-1.4587093"><ele>284.0</ele><time>2026-03-28T09:11:15.753Z</time></trkpt><trkpt lat="38.0473026" lon="-1.4587837"><ele>284.0</ele><time>2026-03-28T09:11:18.754Z</time></trkpt><trkpt lat="38.0473303" lon="-1.4588772"><ele>284.0</ele><time>2026-03-28T09:11:21.752Z</time></trkpt><trkpt lat="38.0473553" lon="-1.4589509"><ele>284.0</ele><time>2026-03-28T09:11:23.752Z</time></trkpt><trkpt lat="38.0473986" lon="-1.4590572"><ele>284.42857142857144</ele><time>2026-03-28T09:11:26.753Z</time></trkpt><trkpt lat="38.0474075" lon="-1.4591411"><ele>284.85714285714283</ele><time>2026-03-28T09:11:28.752Z</time></trkpt><trkpt lat="38.0474056" lon="-1.4592532"><ele>285.2857142857143</ele><time>2026-03-28T09:11:31.752Z</time></trkpt><trkpt lat="38.0474093" lon="-1.4593421"><ele>285.7142857142857</ele><time>2026-03-28T09:11:34.753Z</time></trkpt><trkpt lat="38.047371" lon="-1.4594061"><ele>286.1428571428571</ele><time>2026-03-28T09:11:39.753Z</time></trkpt><trkpt lat="38.0473964" lon="-1.4595062"><ele>286.57142857142856</ele><time>2026-03-28T09:11:42.752Z</time></trkpt><trkpt lat="38.0474224" lon="-1.4595883"><ele>287.0</ele><time>2026-03-28T09:11:45.753Z</time></trkpt><trkpt lat="38.0474591" lon="-1.4596777"><ele>288.0</ele><time>2026-03-28T09:11:48.753Z</time></trkpt><trkpt lat="38.0474923" lon="-1.4597712"><ele>289.0</ele><time>2026-03-28T09:11:51.752Z</time></trkpt><trkpt lat="38.0475257" lon="-1.4598462"><ele>290.0</ele><time>2026-03-28T09:11:54.753Z</time></trkpt><trkpt lat="38.0475701" lon="-1.4599361"><ele>291.0</ele><time>2026-03-28T09:11:57.752Z</time></trkpt><trkpt lat="38.0476246" lon="-1.4600143"><ele>292.0</ele><time>2026-03-28T09:12:00.753Z</time></trkpt><trkpt lat="38.0476723" lon="-1.4600903"><ele>293.0</ele><time>2026-03-28T09:12:03.755Z</time></trkpt><trkpt lat="38.0477181" lon="-1.4601674"><ele>293.0</ele><time>2026-03-28T09:12:06.753Z</time></trkpt><trkpt lat="38.0477688" lon="-1.4602423"><ele>293.0</ele><time>2026-03-28T09:12:09.753Z</time></trkpt><trkpt lat="38.0478194" lon="-1.4603183"><ele>293.0</ele><time>2026-03-28T09:12:12.753Z</time></trkpt><trkpt lat="38.0478704" lon="-1.4603906"><ele>293.0</ele><time>2026-03-28T09:12:15.753Z</time></trkpt><trkpt lat="38.0479185" lon="-1.4604588"><ele>293.0</ele><time>2026-03-28T09:12:18.754Z</time></trkpt><trkpt lat="38.0479655" lon="-1.4605299"><ele>293.0</ele><time>2026-03-28T09:12:21.753Z</time></trkpt><trkpt lat="38.0480215" lon="-1.4606021"><ele>293.6666666666667</ele><time>2026-03-28T09:12:24.753Z</time></trkpt><trkpt lat="38.0480593" lon="-1.4606919"><ele>294.33333333333337</ele><time>2026-03-28T09:12:27.755Z</time></trkpt><trkpt lat="38.0481023" lon="-1.4607775"><ele>295.0</ele><time>2026-03-28T09:12:30.754Z</time></trkpt><trkpt lat="38.0481417" lon="-1.4608597"><ele>295.6666666666667</ele><time>2026-03-28T09:12:33.755Z</time></trkpt><trkpt lat="38.048187" lon="-1.4609441"><ele>296.3333333333333</ele><time>2026-03-28T09:12:36.753Z</time></trkpt><trkpt lat="38.0482244" lon="-1.4610301"><ele>297.0</ele><time>2026-03-28T09:12:39.753Z</time></trkpt><trkpt lat="38.0482589" lon="-1.4611174"><ele>297.6666666666667</ele><time>2026-03-28T09:12:42.753Z</time></trkpt><trkpt lat="38.0483079" lon="-1.4612044"><ele>298.3333333333333</ele><time>2026-03-28T09:12:45.754Z</time></trkpt><trkpt lat="38.0483644" lon="-1.4613245"><ele>299.0</ele><time>2026-03-28T09:12:49.754Z</time></trkpt><trkpt lat="38.0484039" lon="-1.4614123"><ele>299.66666666666663</ele><time>2026-03-28T09:12:52.754Z</time></trkpt><trkpt lat="38.0484536" lon="-1.4614967"><ele>300.3333333333333</ele><time>2026-03-28T09:12:55.753Z</time></trkpt><trkpt lat="38.048495" lon="-1.461579"><ele>301.0</ele><time>2026-03-28T09:12:58.754Z</time></trkpt><trkpt lat="38.048538" lon="-1.4616693"><ele>301.57142857142856</ele><time>2026-03-28T09:13:01.753Z</time></trkpt><trkpt lat="38.0485796" lon="-1.4617306"><ele>302.1428571428571</ele><time>2026-03-28T09:13:03.753Z</time></trkpt><trkpt lat="38.0486167" lon="-1.4617972"><ele>302.7142857142857</ele><time>2026-03-28T09:13:05.754Z</time></trkpt><trkpt lat="38.0486539" lon="-1.461862"><ele>303.2857142857143</ele><time>2026-03-28T09:13:07.755Z</time></trkpt><trkpt lat="38.0486922" lon="-1.4619323"><ele>303.85714285714283</ele><time>2026-03-28T09:13:09.755Z</time></trkpt><trkpt lat="38.0487258" lon="-1.4620044"><ele>304.42857142857144</ele><time>2026-03-28T09:13:11.753Z</time></trkpt><trkpt lat="38.0487623" lon="-1.4620752"><ele>305.0</ele><time>2026-03-28T09:13:13.753Z</time></trkpt><trkpt lat="38.0487981" lon="-1.4621446"><ele>305.6</ele><time>2026-03-28T09:13:15.753Z</time></trkpt><trkpt lat="38.0488476" lon="-1.4622459"><ele>306.2</ele><time>2026-03-28T09:13:18.755Z</time></trkpt><trkpt lat="38.0488887" lon="-1.4623445"><ele>306.8</ele><time>2026-03-28T09:13:21.754Z</time></trkpt><trkpt lat="38.0489363" lon="-1.462446"><ele>307.4</ele><time>2026-03-28T09:13:24.753Z</time></trkpt><trkpt lat="38.048983" lon="-1.4625467"><ele>308.0</ele><time>2026-03-28T09:13:27.753Z</time></trkpt><trkpt lat="38.0490303" lon="-1.4626445"><ele>308.0</ele><time>2026-03-28T09:13:30.754Z</time></trkpt><trkpt lat="38.0490675" lon="-1.4627485"><ele>308.0</ele><time>2026-03-28T09:13:33.754Z</time></trkpt><trkpt lat="38.0491008" lon="-1.4628167"><ele>308.0</ele><time>2026-03-28T09:13:35.755Z</time></trkpt><trkpt lat="38.0491468" lon="-1.4629178"><ele>308.0</ele><time>2026-03-28T09:13:38.754Z</time></trkpt><trkpt lat="38.0491952" lon="-1.4630117"><ele>308.0</ele><time>2026-03-28T09:13:41.754Z</time></trkpt><trkpt lat="38.0492378" lon="-1.4631092"><ele>308.0</ele><time>2026-03-28T09:13:44.754Z</time></trkpt><trkpt lat="38.0492814" lon="-1.4632006"><ele>308.6666666666667</ele><time>2026-03-28T09:13:47.753Z</time></trkpt><trkpt lat="38.0493272" lon="-1.4632925"><ele>309.33333333333337</ele><time>2026-03-28T09:13:50.753Z</time></trkpt><trkpt lat="38.0493706" lon="-1.4633861"><ele>310.0</ele><time>2026-03-28T09:13:53.754Z</time></trkpt><trkpt lat="38.0494093" lon="-1.4634825"><ele>310.6666666666667</ele><time>2026-03-28T09:13:56.755Z</time></trkpt><trkpt lat="38.0494521" lon="-1.4635784"><ele>311.3333333333333</ele><time>2026-03-28T09:13:59.754Z</time></trkpt><trkpt lat="38.0495041" lon="-1.4636679"><ele>312.0</ele><time>2026-03-28T09:14:02.754Z</time></trkpt><trkpt lat="38.0495459" lon="-1.4637592"><ele>313.0</ele><time>2026-03-28T09:14:05.753Z</time></trkpt><trkpt lat="38.049587" lon="-1.4638544"><ele>314.0</ele><time>2026-03-28T09:14:08.753Z</time></trkpt><trkpt lat="38.049629" lon="-1.463954"><ele>315.0</ele><time>2026-03-28T09:14:11.755Z</time></trkpt><trkpt lat="38.0496798" lon="-1.4640468"><ele>316.0</ele><time>2026-03-28T09:14:14.754Z</time></trkpt><trkpt lat="38.0497041" lon="-1.4641221"><ele>317.0</ele><time>2026-03-28T09:14:16.755Z</time></trkpt><trkpt lat="38.049736" lon="-1.4642093"><ele>318.0</ele><time>2026-03-28T09:14:18.755Z</time></trkpt><trkpt lat="38.0497624" lon="-1.4642859"><ele>318.0</ele><time>2026-03-28T09:14:20.753Z</time></trkpt><trkpt lat="38.0498006" lon="-1.4643539"><ele>318.0</ele><time>2026-03-28T09:14:22.754Z</time></trkpt><trkpt lat="38.0498432" lon="-1.464418"><ele>318.0</ele><time>2026-03-28T09:14:24.753Z</time></trkpt><trkpt lat="38.0498991" lon="-1.4645102"><ele>318.0</ele><time>2026-03-28T09:14:27.754Z</time></trkpt><trkpt lat="38.0499534" lon="-1.4645999"><ele>318.0</ele><time>2026-03-28T09:14:30.754Z</time></trkpt><trkpt lat="38.0499962" lon="-1.4646595"><ele>318.0</ele><time>2026-03-28T09:14:32.754Z</time></trkpt><trkpt lat="38.0500409" lon="-1.4647486"><ele>318.5</ele><time>2026-03-28T09:14:35.753Z</time></trkpt><trkpt lat="38.0500868" lon="-1.4648471"><ele>319.0</ele><time>2026-03-28T09:14:38.755Z</time></trkpt><trkpt lat="38.050131" lon="-1.4649467"><ele>319.5</ele><time>2026-03-28T09:14:41.753Z</time></trkpt><trkpt lat="38.0501836" lon="-1.46504"><ele>320.0</ele><time>2026-03-28T09:14:44.755Z</time></trkpt><trkpt lat="38.0502267" lon="-1.4651267"><ele>320.5</ele><time>2026-03-28T09:14:47.754Z</time></trkpt><trkpt lat="38.0502722" lon="-1.4652105"><ele>321.0</ele><time>2026-03-28T09:14:50.755Z</time></trkpt><trkpt lat="38.0503111" lon="-1.4653009"><ele>321.0</ele><time>2026-03-28T09:14:53.754Z</time></trkpt><trkpt lat="38.0503489" lon="-1.4653924"><ele>321.0</ele><time>2026-03-28T09:14:57.754Z</time></trkpt><trkpt lat="38.0503804" lon="-1.4654777"><ele>321.0</ele><time>2026-03-28T09:15:01.755Z</time></trkpt><trkpt lat="38.0504338" lon="-1.4655511"><ele>321.0</ele><time>2026-03-28T09:15:05.754Z</time></trkpt><trkpt lat="38.0503755" lon="-1.4655003"><ele>321.0</ele><time>2026-03-28T09:15:10.755Z</time></trkpt><trkpt lat="38.0503335" lon="-1.4653984"><ele>321.0</ele><time>2026-03-28T09:15:14.753Z</time></trkpt><trkpt lat="38.0503044" lon="-1.4653193"><ele>320.99999999999994</ele><time>2026-03-28T09:15:16.754Z</time></trkpt><trkpt lat="38.0502534" lon="-1.4652464"><ele>321.0</ele><time>2026-03-28T09:15:19.753Z</time></trkpt><trkpt lat="38.0503076" lon="-1.4652873"><ele>321.0</ele><time>2026-03-28T09:15:26.753Z</time></trkpt><trkpt lat="38.050343" lon="-1.4653538"><ele>321.0</ele><time>2026-03-28T09:15:29.754Z</time></trkpt><trkpt lat="38.0503937" lon="-1.4654387"><ele>321.0</ele><time>2026-03-28T09:15:32.754Z</time></trkpt><trkpt lat="38.0504318" lon="-1.4655372"><ele>320.99999999999994</ele><time>2026-03-28T09:15:35.754Z</time></trkpt><trkpt lat="38.0504684" lon="-1.4656146"><ele>321.0</ele><time>2026-03-28T09:15:38.754Z</time></trkpt><trkpt lat="38.0505029" lon="-1.4656919"><ele>321.1666666666667</ele><time>2026-03-28T09:15:41.754Z</time></trkpt><trkpt lat="38.0505396" lon="-1.4657858"><ele>321.3333333333333</ele><time>2026-03-28T09:15:44.754Z</time></trkpt><trkpt lat="38.0505799" lon="-1.4658742"><ele>321.5</ele><time>2026-03-28T09:15:47.754Z</time></trkpt><trkpt lat="38.0506399" lon="-1.4659589"><ele>321.66666666666663</ele><time>2026-03-28T09:15:50.754Z</time></trkpt><trkpt lat="38.0506808" lon="-1.4660312"><ele>321.8333333333333</ele><time>2026-03-28T09:15:53.754Z</time></trkpt><trkpt lat="38.0507158" lon="-1.4660998"><ele>322.0</ele><time>2026-03-28T09:15:56.753Z</time></trkpt><trkpt lat="38.0507508" lon="-1.4661682"><ele>322.0</ele><time>2026-03-28T09:15:59.753Z</time></trkpt><trkpt lat="38.0507862" lon="-1.4662361"><ele>322.0</ele><time>2026-03-28T09:16:02.753Z</time></trkpt><trkpt lat="38.0508367" lon="-1.4663217"><ele>322.0</ele><time>2026-03-28T09:16:06.753Z</time></trkpt><trkpt lat="38.0508646" lon="-1.4664164"><ele>322.0</ele><time>2026-03-28T09:16:10.753Z</time></trkpt><trkpt lat="38.0508814" lon="-1.4664945"><ele>322.0</ele><time>2026-03-28T09:16:13.754Z</time></trkpt><trkpt lat="38.0509166" lon="-1.4665758"><ele>322.0</ele><time>2026-03-28T09:16:17.754Z</time></trkpt><trkpt lat="38.0509691" lon="-1.4666305"><ele>322.0</ele><time>2026-03-28T09:16:21.754Z</time></trkpt><trkpt lat="38.051002" lon="-1.4667224"><ele>322.42857142857144</ele><time>2026-03-28T09:16:25.752Z</time></trkpt><trkpt lat="38.0510581" lon="-1.4667849"><ele>322.8571428571429</ele><time>2026-03-28T09:16:29.753Z</time></trkpt><trkpt lat="38.0510888" lon="-1.4668669"><ele>323.2857142857143</ele><time>2026-03-28T09:16:33.753Z</time></trkpt><trkpt lat="38.0511306" lon="-1.4669472"><ele>323.7142857142857</ele><time>2026-03-28T09:16:38.753Z</time></trkpt><trkpt lat="38.0511766" lon="-1.4670193"><ele>324.14285714285717</ele><time>2026-03-28T09:16:41.753Z</time></trkpt><trkpt lat="38.0512227" lon="-1.4670771"><ele>324.57142857142856</ele><time>2026-03-28T09:16:44.753Z</time></trkpt><trkpt lat="38.0512719" lon="-1.4671662"><ele>325.0</ele><time>2026-03-28T09:16:47.754Z</time></trkpt><trkpt lat="38.0513116" lon="-1.467246"><ele>323.66666666666663</ele><time>2026-03-28T09:16:51.754Z</time></trkpt><trkpt lat="38.0513691" lon="-1.4673147"><ele>322.3333333333333</ele><time>2026-03-28T09:16:55.753Z</time></trkpt><trkpt lat="38.0514205" lon="-1.4673842"><ele>321.0</ele><time>2026-03-28T09:17:00.754Z</time></trkpt><trkpt lat="38.05147" lon="-1.4674593"><ele>319.6666666666667</ele><time>2026-03-28T09:17:04.755Z</time></trkpt><trkpt lat="38.0515136" lon="-1.4675486"><ele>318.33333333333337</ele><time>2026-03-28T09:17:08.754Z</time></trkpt><trkpt lat="38.0515494" lon="-1.4676291"><ele>317.0</ele><time>2026-03-28T09:17:11.755Z</time></trkpt><trkpt lat="38.0515878" lon="-1.467696"><ele>318.57142857142856</ele><time>2026-03-28T09:17:14.753Z</time></trkpt><trkpt lat="38.0516286" lon="-1.4677721"><ele>320.1428571428571</ele><time>2026-03-28T09:17:18.754Z</time></trkpt><trkpt lat="38.0516693" lon="-1.4678508"><ele>321.71428571428567</ele><time>2026-03-28T09:17:22.754Z</time></trkpt><trkpt lat="38.0517149" lon="-1.4679239"><ele>323.2857142857143</ele><time>2026-03-28T09:17:26.753Z</time></trkpt><trkpt lat="38.051744" lon="-1.4680009"><ele>324.85714285714283</ele><time>2026-03-28T09:17:30.753Z</time></trkpt><trkpt lat="38.0518044" lon="-1.4680685"><ele>326.4285714285714</ele><time>2026-03-28T09:17:34.754Z</time></trkpt><trkpt lat="38.0518605" lon="-1.4681087"><ele>328.0</ele><time>2026-03-28T09:17:37.754Z</time></trkpt><trkpt lat="38.0518905" lon="-1.4682052"><ele>328.5</ele><time>2026-03-28T09:17:42.754Z</time></trkpt><trkpt lat="38.0519368" lon="-1.4682756"><ele>329.0</ele><time>2026-03-28T09:17:46.754Z</time></trkpt><trkpt lat="38.0519865" lon="-1.4683339"><ele>329.5</ele><time>2026-03-28T09:17:49.753Z</time></trkpt><trkpt lat="38.0520584" lon="-1.4683898"><ele>330.0</ele><time>2026-03-28T09:17:53.754Z</time></trkpt><trkpt lat="38.0521163" lon="-1.4684537"><ele>330.5</ele><time>2026-03-28T09:17:58.753Z</time></trkpt><trkpt lat="38.0521721" lon="-1.4685105"><ele>331.0</ele><time>2026-03-28T09:18:02.754Z</time></trkpt><trkpt lat="38.0522423" lon="-1.4685679"><ele>331.0</ele><time>2026-03-28T09:18:06.753Z</time></trkpt><trkpt lat="38.0523139" lon="-1.4686094"><ele>331.0</ele><time>2026-03-28T09:18:09.755Z</time></trkpt><trkpt lat="38.0523848" lon="-1.4686503"><ele>331.0</ele><time>2026-03-28T09:18:12.754Z</time></trkpt><trkpt lat="38.0524472" lon="-1.4686948"><ele>331.0</ele><time>2026-03-28T09:18:15.754Z</time></trkpt><trkpt lat="38.0525231" lon="-1.4687382"><ele>331.0</ele><time>2026-03-28T09:18:18.754Z</time></trkpt><trkpt lat="38.0525932" lon="-1.4687854"><ele>331.0</ele><time>2026-03-28T09:18:21.754Z</time></trkpt><trkpt lat="38.0526746" lon="-1.4688436"><ele>332.6</ele><time>2026-03-28T09:18:24.755Z</time></trkpt><trkpt lat="38.0527429" lon="-1.4688811"><ele>334.20000000000005</ele><time>2026-03-28T09:18:26.753Z</time></trkpt><trkpt lat="38.0528164" lon="-1.4689494"><ele>335.79999999999995</ele><time>2026-03-28T09:18:29.754Z</time></trkpt><trkpt lat="38.0529126" lon="-1.4690309"><ele>337.4</ele><time>2026-03-28T09:18:33.754Z</time></trkpt><trkpt lat="38.0529908" lon="-1.4690806"><ele>339.0</ele><time>2026-03-28T09:18:36.753Z</time></trkpt><trkpt lat="38.0530676" lon="-1.4691409"><ele>339.0</ele><time>2026-03-28T09:18:39.753Z</time></trkpt><trkpt lat="38.0531482" lon="-1.4691979"><ele>339.0</ele><time>2026-03-28T09:18:42.754Z</time></trkpt><trkpt lat="38.0532325" lon="-1.4692485"><ele>339.0</ele><time>2026-03-28T09:18:45.753Z</time></trkpt><trkpt lat="38.0532928" lon="-1.4692953"><ele>339.0</ele><time>2026-03-28T09:18:47.753Z</time></trkpt><trkpt lat="38.0533699" lon="-1.4693541"><ele>339.0</ele><time>2026-03-28T09:18:50.755Z</time></trkpt><trkpt lat="38.053424" lon="-1.469399"><ele>339.0</ele><time>2026-03-28T09:18:52.754Z</time></trkpt><trkpt lat="38.053482" lon="-1.4694373"><ele>339.0</ele><time>2026-03-28T09:18:54.753Z</time></trkpt><trkpt lat="38.0535472" lon="-1.4694745"><ele>339.0</ele><time>2026-03-28T09:18:56.754Z</time></trkpt><trkpt lat="38.0536252" lon="-1.4695356"><ele>339.0</ele><time>2026-03-28T09:18:59.754Z</time></trkpt><trkpt lat="38.0537091" lon="-1.4695897"><ele>339.0</ele><time>2026-03-28T09:19:02.754Z</time></trkpt><trkpt lat="38.0537881" lon="-1.4696441"><ele>339.0</ele><time>2026-03-28T09:19:05.754Z</time></trkpt><trkpt lat="38.0538627" lon="-1.4697019"><ele>339.0</ele><time>2026-03-28T09:19:08.754Z</time></trkpt><trkpt lat="38.0539406" lon="-1.4697447"><ele>339.5</ele><time>2026-03-28T09:19:11.753Z</time></trkpt><trkpt lat="38.0539968" lon="-1.4697856"><ele>340.0</ele><time>2026-03-28T09:19:13.753Z</time></trkpt><trkpt lat="38.0540557" lon="-1.4698219"><ele>340.5</ele><time>2026-03-28T09:19:15.753Z</time></trkpt><trkpt lat="38.054127" lon="-1.4698742"><ele>341.0</ele><time>2026-03-28T09:19:18.754Z</time></trkpt><trkpt lat="38.0541893" lon="-1.4699191"><ele>341.5</ele><time>2026-03-28T09:19:21.754Z</time></trkpt><trkpt lat="38.0542688" lon="-1.4699756"><ele>342.0</ele><time>2026-03-28T09:19:24.755Z</time></trkpt><trkpt lat="38.054356" lon="-1.4700224"><ele>341.99999999999994</ele><time>2026-03-28T09:19:27.754Z</time></trkpt><trkpt lat="38.0544134" lon="-1.4700613"><ele>342.0</ele><time>2026-03-28T09:19:29.755Z</time></trkpt><trkpt lat="38.0544862" lon="-1.4701293"><ele>342.0</ele><time>2026-03-28T09:19:32.754Z</time></trkpt><trkpt lat="38.0545361" lon="-1.4702067"><ele>342.0</ele><time>2026-03-28T09:19:34.753Z</time></trkpt><trkpt lat="38.054522" lon="-1.4702967"><ele>342.0</ele><time>2026-03-28T09:19:36.754Z</time></trkpt><trkpt lat="38.0545015" lon="-1.4703869"><ele>341.99999999999994</ele><time>2026-03-28T09:19:38.754Z</time></trkpt><trkpt lat="38.0544924" lon="-1.4704698"><ele>342.0</ele><time>2026-03-28T09:19:40.754Z</time></trkpt><trkpt lat="38.0544922" lon="-1.4705762"><ele>341.2857142857143</ele><time>2026-03-28T09:19:43.754Z</time></trkpt><trkpt lat="38.0545054" lon="-1.470669"><ele>340.57142857142856</ele><time>2026-03-28T09:19:46.753Z</time></trkpt><trkpt lat="38.0545288" lon="-1.470757"><ele>339.8571428571429</ele><time>2026-03-28T09:19:49.753Z</time></trkpt><trkpt lat="38.0545501" lon="-1.4708338"><ele>339.1428571428571</ele><time>2026-03-28T09:19:57.753Z</time></trkpt><trkpt lat="38.0546032" lon="-1.4707968"><ele>338.42857142857144</ele><time>2026-03-28T09:21:11.754Z</time></trkpt><trkpt lat="38.0546672" lon="-1.4708347"><ele>337.7142857142857</ele><time>2026-03-28T09:21:15.754Z</time></trkpt><trkpt lat="38.0547405" lon="-1.470859"><ele>337.0</ele><time>2026-03-28T09:21:18.753Z</time></trkpt><trkpt lat="38.0548234" lon="-1.4708914"><ele>337.0</ele><time>2026-03-28T09:21:21.755Z</time></trkpt><trkpt lat="38.0549122" lon="-1.4709327"><ele>337.0</ele><time>2026-03-28T09:21:24.755Z</time></trkpt><trkpt lat="38.0549766" lon="-1.4709531"><ele>337.0</ele><time>2026-03-28T09:21:26.753Z</time></trkpt><trkpt lat="38.0550461" lon="-1.4709504"><ele>337.0</ele><time>2026-03-28T09:21:28.754Z</time></trkpt><trkpt lat="38.0551115" lon="-1.470913"><ele>337.0</ele><time>2026-03-28T09:21:30.754Z</time></trkpt><trkpt lat="38.0551795" lon="-1.4708613"><ele>337.0</ele><time>2026-03-28T09:21:32.753Z</time></trkpt><trkpt lat="38.055242" lon="-1.4707929"><ele>337.3333333333333</ele><time>2026-03-28T09:21:34.755Z</time></trkpt><trkpt lat="38.0553253" lon="-1.4707119"><ele>337.66666666666663</ele><time>2026-03-28T09:21:36.755Z</time></trkpt><trkpt lat="38.0553826" lon="-1.4706426"><ele>338.0</ele><time>2026-03-28T09:21:39.754Z</time></trkpt><trkpt lat="38.0554546" lon="-1.4706472"><ele>338.3333333333333</ele><time>2026-03-28T09:21:44.755Z</time></trkpt><trkpt lat="38.0555219" lon="-1.4706893"><ele>338.6666666666667</ele><time>2026-03-28T09:21:49.754Z</time></trkpt><trkpt lat="38.0555866" lon="-1.470739"><ele>339.0</ele><time>2026-03-28T09:21:54.753Z</time></trkpt><trkpt lat="38.0556482" lon="-1.4707868"><ele>339.0</ele><time>2026-03-28T09:21:58.754Z</time></trkpt><trkpt lat="38.0557216" lon="-1.4708249"><ele>339.0</ele><time>2026-03-28T09:22:01.754Z</time></trkpt><trkpt lat="38.0558023" lon="-1.4708724"><ele>339.0</ele><time>2026-03-28T09:22:04.754Z</time></trkpt><trkpt lat="38.0558798" lon="-1.4709248"><ele>339.0</ele><time>2026-03-28T09:22:07.754Z</time></trkpt><trkpt lat="38.0559561" lon="-1.4709685"><ele>339.0</ele><time>2026-03-28T09:22:10.754Z</time></trkpt><trkpt lat="38.0560264" lon="-1.4710063"><ele>339.0</ele><time>2026-03-28T09:22:13.754Z</time></trkpt><trkpt lat="38.0560827" lon="-1.4710631"><ele>339.4285714285714</ele><time>2026-03-28T09:22:16.755Z</time></trkpt><trkpt lat="38.0561626" lon="-1.4711065"><ele>339.8571428571429</ele><time>2026-03-28T09:22:19.754Z</time></trkpt><trkpt lat="38.0562477" lon="-1.4711522"><ele>340.2857142857143</ele><time>2026-03-28T09:22:22.754Z</time></trkpt><trkpt lat="38.0563089" lon="-1.4711891"><ele>340.71428571428567</ele><time>2026-03-28T09:22:24.753Z</time></trkpt><trkpt lat="38.0563658" lon="-1.4712282"><ele>341.1428571428571</ele><time>2026-03-28T09:22:26.754Z</time></trkpt><trkpt lat="38.0564265" lon="-1.4712611"><ele>341.57142857142856</ele><time>2026-03-28T09:22:28.754Z</time></trkpt><trkpt lat="38.0564885" lon="-1.4712962"><ele>342.0</ele><time>2026-03-28T09:22:30.754Z</time></trkpt><trkpt lat="38.0565551" lon="-1.4713383"><ele>341.85714285714283</ele><time>2026-03-28T09:22:32.754Z</time></trkpt><trkpt lat="38.0566203" lon="-1.4713729"><ele>341.7142857142857</ele><time>2026-03-28T09:22:34.753Z</time></trkpt><trkpt lat="38.0566835" lon="-1.4714028"><ele>341.57142857142856</ele><time>2026-03-28T09:22:36.754Z</time></trkpt><trkpt lat="38.0567479" lon="-1.4714332"><ele>341.42857142857144</ele><time>2026-03-28T09:22:38.754Z</time></trkpt><trkpt lat="38.0568147" lon="-1.4714537"><ele>341.2857142857143</ele><time>2026-03-28T09:22:40.755Z</time></trkpt><trkpt lat="38.0568914" lon="-1.4714687"><ele>341.1428571428571</ele><time>2026-03-28T09:22:42.755Z</time></trkpt><trkpt lat="38.056965" lon="-1.4714784"><ele>341.0</ele><time>2026-03-28T09:22:44.753Z</time></trkpt><trkpt lat="38.0570436" lon="-1.4714876"><ele>341.0</ele><time>2026-03-28T09:22:46.753Z</time></trkpt><trkpt lat="38.0571232" lon="-1.4715034"><ele>341.0</ele><time>2026-03-28T09:22:48.755Z</time></trkpt><trkpt lat="38.0572139" lon="-1.4714951"><ele>341.0</ele><time>2026-03-28T09:22:50.753Z</time></trkpt><trkpt lat="38.0573" lon="-1.4714877"><ele>341.0</ele><time>2026-03-28T09:22:52.753Z</time></trkpt><trkpt lat="38.0573917" lon="-1.4714914"><ele>341.0</ele><time>2026-03-28T09:22:54.753Z</time></trkpt><trkpt lat="38.0574865" lon="-1.4714905"><ele>341.0</ele><time>2026-03-28T09:22:56.754Z</time></trkpt><trkpt lat="38.0575809" lon="-1.4714858"><ele>341.4</ele><time>2026-03-28T09:22:58.753Z</time></trkpt><trkpt lat="38.0576903" lon="-1.4714893"><ele>341.8</ele><time>2026-03-28T09:23:00.754Z</time></trkpt><trkpt lat="38.0578021" lon="-1.4714934"><ele>342.2</ele><time>2026-03-28T09:23:02.753Z</time></trkpt><trkpt lat="38.0579135" lon="-1.4714864"><ele>342.59999999999997</ele><time>2026-03-28T09:23:04.756Z</time></trkpt><trkpt lat="38.0580287" lon="-1.4714896"><ele>343.0</ele><time>2026-03-28T09:23:06.753Z</time></trkpt><trkpt lat="38.0581445" lon="-1.4714985"><ele>343.0</ele><time>2026-03-28T09:23:08.755Z</time></trkpt><trkpt lat="38.0582654" lon="-1.4715094"><ele>343.0</ele><time>2026-03-28T09:23:10.753Z</time></trkpt><trkpt lat="38.058333" lon="-1.4715257"><ele>343.0</ele><time>2026-03-28T09:23:11.755Z</time></trkpt><trkpt lat="38.0584486" lon="-1.4715571"><ele>343.0</ele><time>2026-03-28T09:23:13.754Z</time></trkpt><trkpt lat="38.058547" lon="-1.4716461"><ele>343.0</ele><time>2026-03-28T09:23:15.755Z</time></trkpt><trkpt lat="38.0586075" lon="-1.4716789"><ele>341.75</ele><time>2026-03-28T09:23:16.755Z</time></trkpt><trkpt lat="38.0587124" lon="-1.471763"><ele>340.5</ele><time>2026-03-28T09:23:18.755Z</time></trkpt><trkpt lat="38.0588105" lon="-1.4718565"><ele>339.25</ele><time>2026-03-28T09:23:20.755Z</time></trkpt><trkpt lat="38.05891" lon="-1.4719509"><ele>338.0</ele><time>2026-03-28T09:23:22.753Z</time></trkpt><trkpt lat="38.0589949" lon="-1.4720395"><ele>337.4</ele><time>2026-03-28T09:23:24.755Z</time></trkpt><trkpt lat="38.0590758" lon="-1.4721155"><ele>336.79999999999995</ele><time>2026-03-28T09:23:26.753Z</time></trkpt><trkpt lat="38.0591578" lon="-1.4721896"><ele>336.2</ele><time>2026-03-28T09:23:28.753Z</time></trkpt><trkpt lat="38.0592314" lon="-1.4722763"><ele>335.6</ele><time>2026-03-28T09:23:30.754Z</time></trkpt><trkpt lat="38.0593107" lon="-1.4723576"><ele>335.0</ele><time>2026-03-28T09:23:32.755Z</time></trkpt><trkpt lat="38.0593954" lon="-1.472429"><ele>335.0</ele><time>2026-03-28T09:23:34.754Z</time></trkpt><trkpt lat="38.0594732" lon="-1.4725079"><ele>335.0</ele><time>2026-03-28T09:23:36.753Z</time></trkpt><trkpt lat="38.0595568" lon="-1.4725918"><ele>335.0</ele><time>2026-03-28T09:23:38.753Z</time></trkpt><trkpt lat="38.059635" lon="-1.4726755"><ele>335.0</ele><time>2026-03-28T09:23:40.754Z</time></trkpt><trkpt lat="38.0597119" lon="-1.4727477"><ele>335.0</ele><time>2026-03-28T09:23:42.755Z</time></trkpt><trkpt lat="38.0597775" lon="-1.4728192"><ele>335.0</ele><time>2026-03-28T09:23:44.755Z</time></trkpt><trkpt lat="38.0598397" lon="-1.4728816"><ele>335.0</ele><time>2026-03-28T09:23:46.755Z</time></trkpt><trkpt lat="38.0598973" lon="-1.472938"><ele>335.0</ele><time>2026-03-28T09:23:48.753Z</time></trkpt><trkpt lat="38.0599518" lon="-1.473033"><ele>335.0</ele><time>2026-03-28T09:23:51.753Z</time></trkpt><trkpt lat="38.0599838" lon="-1.4731112"><ele>335.0</ele><time>2026-03-28T09:23:53.753Z</time></trkpt><trkpt lat="38.0600369" lon="-1.4732224"><ele>335.0</ele><time>2026-03-28T09:23:56.754Z</time></trkpt><trkpt lat="38.0600684" lon="-1.4733095"><ele>335.8</ele><time>2026-03-28T09:23:59.753Z</time></trkpt><trkpt lat="38.0601093" lon="-1.4734112"><ele>336.6</ele><time>2026-03-28T09:24:03.755Z</time></trkpt><trkpt lat="38.0601533" lon="-1.473544"><ele>337.4</ele><time>2026-03-28T09:24:07.753Z</time></trkpt><trkpt lat="38.0601916" lon="-1.4736475"><ele>338.2</ele><time>2026-03-28T09:24:10.753Z</time></trkpt><trkpt lat="38.0602268" lon="-1.4737487"><ele>339.0</ele><time>2026-03-28T09:24:13.753Z</time></trkpt><trkpt lat="38.0602561" lon="-1.4738489"><ele>339.6666666666667</ele><time>2026-03-28T09:24:16.755Z</time></trkpt><trkpt lat="38.0602861" lon="-1.4739493"><ele>340.3333333333333</ele><time>2026-03-28T09:24:19.753Z</time></trkpt><trkpt lat="38.0603159" lon="-1.474054"><ele>341.0</ele><time>2026-03-28T09:24:22.754Z</time></trkpt><trkpt lat="38.0603542" lon="-1.4741541"><ele>341.66666666666663</ele><time>2026-03-28T09:24:25.753Z</time></trkpt><trkpt lat="38.060392" lon="-1.4742573"><ele>342.3333333333333</ele><time>2026-03-28T09:24:28.753Z</time></trkpt><trkpt lat="38.0604231" lon="-1.4743601"><ele>343.0</ele><time>2026-03-28T09:24:31.754Z</time></trkpt><trkpt lat="38.060451" lon="-1.4744626"><ele>343.0</ele><time>2026-03-28T09:24:34.755Z</time></trkpt><trkpt lat="38.060494" lon="-1.4745661"><ele>343.0</ele><time>2026-03-28T09:24:37.754Z</time></trkpt><trkpt lat="38.0605225" lon="-1.4746777"><ele>343.0</ele><time>2026-03-28T09:24:40.753Z</time></trkpt><trkpt lat="38.0605548" lon="-1.4747823"><ele>343.0</ele><time>2026-03-28T09:24:43.754Z</time></trkpt><trkpt lat="38.060586" lon="-1.4748946"><ele>343.0</ele><time>2026-03-28T09:24:46.755Z</time></trkpt><trkpt lat="38.0606246" lon="-1.4750033"><ele>343.66666666666663</ele><time>2026-03-28T09:24:49.753Z</time></trkpt><trkpt lat="38.0606586" lon="-1.4751065"><ele>344.3333333333333</ele><time>2026-03-28T09:24:52.754Z</time></trkpt><trkpt lat="38.060689" lon="-1.4752066"><ele>345.0</ele><time>2026-03-28T09:24:55.756Z</time></trkpt><trkpt lat="38.0607187" lon="-1.4753104"><ele>345.6666666666667</ele><time>2026-03-28T09:24:58.755Z</time></trkpt><trkpt lat="38.0607491" lon="-1.4754098"><ele>346.33333333333337</ele><time>2026-03-28T09:25:01.755Z</time></trkpt><trkpt lat="38.0607814" lon="-1.475506"><ele>347.0</ele><time>2026-03-28T09:25:04.756Z</time></trkpt><trkpt lat="38.0608088" lon="-1.4755961"><ele>348.0</ele><time>2026-03-28T09:25:06.756Z</time></trkpt><trkpt lat="38.0608395" lon="-1.4756849"><ele>349.0</ele><time>2026-03-28T09:25:08.754Z</time></trkpt><trkpt lat="38.0608779" lon="-1.475786"><ele>350.0</ele><time>2026-03-28T09:25:11.754Z</time></trkpt><trkpt lat="38.060918" lon="-1.4758838"><ele>351.0</ele><time>2026-03-28T09:25:14.755Z</time></trkpt><trkpt lat="38.0609466" lon="-1.4759572"><ele>352.0</ele><time>2026-03-28T09:25:16.755Z</time></trkpt><trkpt lat="38.0609783" lon="-1.4760702"><ele>353.0</ele><time>2026-03-28T09:25:19.754Z</time></trkpt><trkpt lat="38.0610092" lon="-1.4761713"><ele>353.33333333333337</ele><time>2026-03-28T09:25:22.754Z</time></trkpt><trkpt lat="38.0610468" lon="-1.4762724"><ele>353.6666666666667</ele><time>2026-03-28T09:25:25.754Z</time></trkpt><trkpt lat="38.0610893" lon="-1.4763777"><ele>354.0</ele><time>2026-03-28T09:25:28.755Z</time></trkpt><trkpt lat="38.0611288" lon="-1.4764788"><ele>354.3333333333333</ele><time>2026-03-28T09:25:31.754Z</time></trkpt><trkpt lat="38.061162" lon="-1.4765861"><ele>354.66666666666663</ele><time>2026-03-28T09:25:34.755Z</time></trkpt><trkpt lat="38.0611912" lon="-1.4766846"><ele>355.0</ele><time>2026-03-28T09:25:37.754Z</time></trkpt><trkpt lat="38.0612287" lon="-1.4767805"><ele>355.0</ele><time>2026-03-28T09:25:40.755Z</time></trkpt><trkpt lat="38.0612637" lon="-1.4768793"><ele>355.0</ele><time>2026-03-28T09:25:43.755Z</time></trkpt><trkpt lat="38.0612972" lon="-1.4769672"><ele>355.0</ele><time>2026-03-28T09:25:46.754Z</time></trkpt><trkpt lat="38.0613325" lon="-1.4770569"><ele>355.0</ele><time>2026-03-28T09:25:49.754Z</time></trkpt><trkpt lat="38.0613646" lon="-1.4771514"><ele>355.0</ele><time>2026-03-28T09:25:52.755Z</time></trkpt><trkpt lat="38.0613924" lon="-1.4772488"><ele>355.0</ele><time>2026-03-28T09:25:55.754Z</time></trkpt><trkpt lat="38.0614327" lon="-1.4773459"><ele>355.3333333333333</ele><time>2026-03-28T09:25:58.755Z</time></trkpt><trkpt lat="38.0614658" lon="-1.477458"><ele>355.66666666666663</ele><time>2026-03-28T09:26:01.754Z</time></trkpt><trkpt lat="38.0614983" lon="-1.4775477"><ele>356.0</ele><time>2026-03-28T09:26:04.754Z</time></trkpt><trkpt lat="38.0615392" lon="-1.4776415"><ele>356.3333333333333</ele><time>2026-03-28T09:26:07.755Z</time></trkpt><trkpt lat="38.0615712" lon="-1.4777462"><ele>356.6666666666667</ele><time>2026-03-28T09:26:10.755Z</time></trkpt><trkpt lat="38.0615967" lon="-1.47782"><ele>357.0</ele><time>2026-03-28T09:26:12.755Z</time></trkpt><trkpt lat="38.061618" lon="-1.4778966"><ele>357.5</ele><time>2026-03-28T09:26:14.755Z</time></trkpt><trkpt lat="38.0616423" lon="-1.4779721"><ele>358.0</ele><time>2026-03-28T09:26:16.755Z</time></trkpt><trkpt lat="38.0616803" lon="-1.4780869"><ele>358.5</ele><time>2026-03-28T09:26:19.754Z</time></trkpt><trkpt lat="38.0617067" lon="-1.4781639"><ele>359.0</ele><time>2026-03-28T09:26:21.756Z</time></trkpt><trkpt lat="38.0617391" lon="-1.4782551"><ele>359.5</ele><time>2026-03-28T09:26:24.755Z</time></trkpt><trkpt lat="38.0617675" lon="-1.4783685"><ele>360.0</ele><time>2026-03-28T09:26:27.754Z</time></trkpt><trkpt lat="38.0617945" lon="-1.4784416"><ele>360.0</ele><time>2026-03-28T09:26:29.756Z</time></trkpt><trkpt lat="38.0618294" lon="-1.4785368"><ele>360.0</ele><time>2026-03-28T09:26:32.754Z</time></trkpt><trkpt lat="38.0618632" lon="-1.4786443"><ele>360.0</ele><time>2026-03-28T09:26:35.756Z</time></trkpt><trkpt lat="38.0618899" lon="-1.4787198"><ele>360.0</ele><time>2026-03-28T09:26:37.755Z</time></trkpt><trkpt lat="38.0619207" lon="-1.4788214"><ele>360.0</ele><time>2026-03-28T09:26:40.754Z</time></trkpt><trkpt lat="38.0619489" lon="-1.4789204"><ele>360.0</ele><time>2026-03-28T09:26:43.754Z</time></trkpt><trkpt lat="38.0619805" lon="-1.4790177"><ele>360.6666666666667</ele><time>2026-03-28T09:26:46.754Z</time></trkpt><trkpt lat="38.0620107" lon="-1.4791055"><ele>361.3333333333333</ele><time>2026-03-28T09:26:49.755Z</time></trkpt><trkpt lat="38.0620457" lon="-1.479184"><ele>362.0</ele><time>2026-03-28T09:26:52.754Z</time></trkpt><trkpt lat="38.0620816" lon="-1.4792716"><ele>362.66666666666663</ele><time>2026-03-28T09:26:55.754Z</time></trkpt><trkpt lat="38.0621148" lon="-1.4793712"><ele>363.3333333333333</ele><time>2026-03-28T09:26:58.755Z</time></trkpt><trkpt lat="38.0621489" lon="-1.4794712"><ele>364.0</ele><time>2026-03-28T09:27:01.755Z</time></trkpt><trkpt lat="38.0621726" lon="-1.4795537"><ele>365.14285714285717</ele><time>2026-03-28T09:27:04.754Z</time></trkpt><trkpt lat="38.0622014" lon="-1.4796409"><ele>366.2857142857143</ele><time>2026-03-28T09:27:07.754Z</time></trkpt><trkpt lat="38.0622347" lon="-1.4797296"><ele>367.42857142857144</ele><time>2026-03-28T09:27:10.755Z</time></trkpt><trkpt lat="38.062265" lon="-1.4798268"><ele>368.57142857142856</ele><time>2026-03-28T09:27:13.755Z</time></trkpt><trkpt lat="38.062292" lon="-1.4799118"><ele>369.7142857142857</ele><time>2026-03-28T09:27:16.754Z</time></trkpt><trkpt lat="38.0623168" lon="-1.4799873"><ele>370.8571428571429</ele><time>2026-03-28T09:27:19.754Z</time></trkpt><trkpt lat="38.0623396" lon="-1.4800677"><ele>372.0</ele><time>2026-03-28T09:27:22.755Z</time></trkpt><trkpt lat="38.0623698" lon="-1.4801583"><ele>372.0</ele><time>2026-03-28T09:27:25.755Z</time></trkpt><trkpt lat="38.062402" lon="-1.4802506"><ele>372.0</ele><time>2026-03-28T09:27:28.755Z</time></trkpt><trkpt lat="38.0624378" lon="-1.4803544"><ele>372.0</ele><time>2026-03-28T09:27:31.755Z</time></trkpt><trkpt lat="38.0624751" lon="-1.4804601"><ele>372.0</ele><time>2026-03-28T09:27:34.755Z</time></trkpt><trkpt lat="38.0625152" lon="-1.4805661"><ele>372.0</ele><time>2026-03-28T09:27:37.754Z</time></trkpt><trkpt lat="38.0625442" lon="-1.4806504"><ele>372.0</ele><time>2026-03-28T09:27:39.755Z</time></trkpt><trkpt lat="38.0625769" lon="-1.4807542"><ele>372.42857142857144</ele><time>2026-03-28T09:27:42.754Z</time></trkpt><trkpt lat="38.0626083" lon="-1.4808296"><ele>372.8571428571429</ele><time>2026-03-28T09:27:45.754Z</time></trkpt><trkpt lat="38.0626205" lon="-1.480916"><ele>373.28571428571433</ele><time>2026-03-28T09:27:48.754Z</time></trkpt><trkpt lat="38.0626544" lon="-1.4810057"><ele>373.7142857142857</ele><time>2026-03-28T09:27:51.754Z</time></trkpt><trkpt lat="38.0626785" lon="-1.4810982"><ele>374.1428571428571</ele><time>2026-03-28T09:27:54.755Z</time></trkpt><trkpt lat="38.0627067" lon="-1.4811841"><ele>374.5714285714286</ele><time>2026-03-28T09:27:57.755Z</time></trkpt><trkpt lat="38.0627334" lon="-1.4812724"><ele>375.0</ele><time>2026-03-28T09:28:00.756Z</time></trkpt><trkpt lat="38.062766" lon="-1.4813647"><ele>376.1666666666667</ele><time>2026-03-28T09:28:03.756Z</time></trkpt><trkpt lat="38.0628029" lon="-1.4814574"><ele>377.3333333333333</ele><time>2026-03-28T09:28:06.754Z</time></trkpt><trkpt lat="38.0628279" lon="-1.4815563"><ele>378.5</ele><time>2026-03-28T09:28:09.755Z</time></trkpt><trkpt lat="38.0628632" lon="-1.4816534"><ele>379.66666666666663</ele><time>2026-03-28T09:28:12.754Z</time></trkpt><trkpt lat="38.0628949" lon="-1.4817505"><ele>380.8333333333333</ele><time>2026-03-28T09:28:15.754Z</time></trkpt><trkpt lat="38.0629265" lon="-1.4818445"><ele>382.0</ele><time>2026-03-28T09:28:18.755Z</time></trkpt><trkpt lat="38.062949" lon="-1.4819229"><ele>382.0</ele><time>2026-03-28T09:28:21.755Z</time></trkpt><trkpt lat="38.0629839" lon="-1.4820114"><ele>382.0</ele><time>2026-03-28T09:28:24.755Z</time></trkpt><trkpt lat="38.0630123" lon="-1.4820951"><ele>382.0</ele><time>2026-03-28T09:28:27.754Z</time></trkpt><trkpt lat="38.0630403" lon="-1.4821833"><ele>382.0</ele><time>2026-03-28T09:28:30.755Z</time></trkpt><trkpt lat="38.0630749" lon="-1.4822744"><ele>382.0</ele><time>2026-03-28T09:28:33.755Z</time></trkpt><trkpt lat="38.0631023" lon="-1.4823653"><ele>382.0</ele><time>2026-03-28T09:28:36.755Z</time></trkpt><trkpt lat="38.0631312" lon="-1.4824532"><ele>382.0</ele><time>2026-03-28T09:28:39.754Z</time></trkpt><trkpt lat="38.0631602" lon="-1.4825363"><ele>382.0</ele><time>2026-03-28T09:28:42.755Z</time></trkpt><trkpt lat="38.0631786" lon="-1.4826129"><ele>382.0</ele><time>2026-03-28T09:28:49.754Z</time></trkpt><trkpt lat="38.0632268" lon="-1.4826818"><ele>382.0</ele><time>2026-03-28T09:28:55.755Z</time></trkpt><trkpt lat="38.0632446" lon="-1.4827686"><ele>382.0</ele><time>2026-03-28T09:28:59.754Z</time></trkpt><trkpt lat="38.0632695" lon="-1.4828705"><ele>382.0</ele><time>2026-03-28T09:29:06.755Z</time></trkpt><trkpt lat="38.0632981" lon="-1.4829577"><ele>382.0</ele><time>2026-03-28T09:29:09.754Z</time></trkpt><trkpt lat="38.0633131" lon="-1.4830536"><ele>382.0</ele><time>2026-03-28T09:29:12.755Z</time></trkpt><trkpt lat="38.0633569" lon="-1.4831367"><ele>382.0</ele><time>2026-03-28T09:29:15.755Z</time></trkpt><trkpt lat="38.0633764" lon="-1.483225"><ele>382.0</ele><time>2026-03-28T09:29:18.755Z</time></trkpt><trkpt lat="38.0634026" lon="-1.4833469"><ele>382.0</ele><time>2026-03-28T09:29:21.755Z</time></trkpt><trkpt lat="38.0634175" lon="-1.4834426"><ele>382.0</ele><time>2026-03-28T09:29:23.755Z</time></trkpt><trkpt lat="38.0634296" lon="-1.4835496"><ele>382.0</ele><time>2026-03-28T09:29:25.753Z</time></trkpt><trkpt lat="38.06344" lon="-1.4836572"><ele>382.0</ele><time>2026-03-28T09:29:27.753Z</time></trkpt><trkpt lat="38.0634529" lon="-1.4837791"><ele>382.0</ele><time>2026-03-28T09:29:29.753Z</time></trkpt><trkpt lat="38.0634546" lon="-1.4839107"><ele>382.0</ele><time>2026-03-28T09:29:31.754Z</time></trkpt><trkpt lat="38.0634627" lon="-1.4840515"><ele>382.0</ele><time>2026-03-28T09:29:33.756Z</time></trkpt><trkpt lat="38.063464" lon="-1.4842059"><ele>382.0</ele><time>2026-03-28T09:29:35.754Z</time></trkpt><trkpt lat="38.063459" lon="-1.4843612"><ele>382.0</ele><time>2026-03-28T09:29:37.754Z</time></trkpt><trkpt lat="38.0634517" lon="-1.4844489"><ele>382.0</ele><time>2026-03-28T09:29:38.755Z</time></trkpt><trkpt lat="38.0634296" lon="-1.4845293"><ele>382.0</ele><time>2026-03-28T09:29:39.754Z</time></trkpt><trkpt lat="38.0634015" lon="-1.484614"><ele>382.0</ele><time>2026-03-28T09:29:40.754Z</time></trkpt><trkpt lat="38.0633668" lon="-1.4846986"><ele>382.0</ele><time>2026-03-28T09:29:41.753Z</time></trkpt><trkpt lat="38.0633273" lon="-1.4847776"><ele>382.0</ele><time>2026-03-28T09:29:42.754Z</time></trkpt><trkpt lat="38.0632603" lon="-1.4848522"><ele>382.0</ele><time>2026-03-28T09:29:43.753Z</time></trkpt><trkpt lat="38.0631893" lon="-1.4849251"><ele>380.20000000000005</ele><time>2026-03-28T09:29:44.754Z</time></trkpt><trkpt lat="38.0631011" lon="-1.4849759"><ele>378.4</ele><time>2026-03-28T09:29:45.755Z</time></trkpt><trkpt lat="38.0630083" lon="-1.4850198"><ele>376.6</ele><time>2026-03-28T09:29:46.753Z</time></trkpt><trkpt lat="38.0629101" lon="-1.4850515"><ele>374.79999999999995</ele><time>2026-03-28T09:29:47.757Z</time></trkpt><trkpt lat="38.062804" lon="-1.4850849"><ele>373.0</ele><time>2026-03-28T09:29:48.753Z</time></trkpt><trkpt lat="38.0626945" lon="-1.485106"><ele>373.0</ele><time>2026-03-28T09:29:49.755Z</time></trkpt><trkpt lat="38.0625847" lon="-1.4851028"><ele>373.0</ele><time>2026-03-28T09:29:50.753Z</time></trkpt><trkpt lat="38.0624828" lon="-1.485067"><ele>373.0</ele><time>2026-03-28T09:29:51.753Z</time></trkpt><trkpt lat="38.0623838" lon="-1.4850647"><ele>373.0</ele><time>2026-03-28T09:29:52.754Z</time></trkpt><trkpt lat="38.0622835" lon="-1.4850501"><ele>373.0</ele><time>2026-03-28T09:29:53.753Z</time></trkpt><trkpt lat="38.0621934" lon="-1.4850342"><ele>371.16666666666663</ele><time>2026-03-28T09:29:54.753Z</time></trkpt><trkpt lat="38.0621023" lon="-1.4850334"><ele>369.3333333333333</ele><time>2026-03-28T09:29:55.754Z</time></trkpt><trkpt lat="38.062018" lon="-1.485039"><ele>367.5</ele><time>2026-03-28T09:29:56.755Z</time></trkpt><trkpt lat="38.0619361" lon="-1.4850502"><ele>365.6666666666667</ele><time>2026-03-28T09:29:57.756Z</time></trkpt><trkpt lat="38.0618666" lon="-1.4851049"><ele>363.83333333333337</ele><time>2026-03-28T09:29:58.755Z</time></trkpt><trkpt lat="38.0618145" lon="-1.485181"><ele>362.0</ele><time>2026-03-28T09:29:59.756Z</time></trkpt><trkpt lat="38.0617685" lon="-1.4852665"><ele>362.0</ele><time>2026-03-28T09:30:00.755Z</time></trkpt><trkpt lat="38.0617341" lon="-1.4853564"><ele>362.0</ele><time>2026-03-28T09:30:01.754Z</time></trkpt><trkpt lat="38.0617052" lon="-1.4854466"><ele>362.0</ele><time>2026-03-28T09:30:02.756Z</time></trkpt><trkpt lat="38.0616814" lon="-1.4855329"><ele>362.0</ele><time>2026-03-28T09:30:03.754Z</time></trkpt><trkpt lat="38.0616672" lon="-1.4856205"><ele>362.0</ele><time>2026-03-28T09:30:04.755Z</time></trkpt><trkpt lat="38.0616573" lon="-1.4857047"><ele>362.0</ele><time>2026-03-28T09:30:05.754Z</time></trkpt><trkpt lat="38.0616624" lon="-1.4858635"><ele>364.0</ele><time>2026-03-28T09:30:07.756Z</time></trkpt><trkpt lat="38.0616912" lon="-1.4860143"><ele>366.0</ele><time>2026-03-28T09:30:09.756Z</time></trkpt><trkpt lat="38.0616867" lon="-1.4861718"><ele>368.0</ele><time>2026-03-28T09:30:11.755Z</time></trkpt><trkpt lat="38.0616164" lon="-1.4862909"><ele>370.0</ele><time>2026-03-28T09:30:13.756Z</time></trkpt><trkpt lat="38.0615134" lon="-1.4863477"><ele>367.0</ele><time>2026-03-28T09:30:15.755Z</time></trkpt><trkpt lat="38.061417" lon="-1.4863894"><ele>364.0</ele><time>2026-03-28T09:30:17.755Z</time></trkpt><trkpt lat="38.0613304" lon="-1.4864354"><ele>361.0</ele><time>2026-03-28T09:30:19.755Z</time></trkpt><trkpt lat="38.0612541" lon="-1.4864927"><ele>358.0</ele><time>2026-03-28T09:30:21.756Z</time></trkpt><trkpt lat="38.061175" lon="-1.4865662"><ele>355.0</ele><time>2026-03-28T09:30:23.755Z</time></trkpt><trkpt lat="38.0611181" lon="-1.4866074"><ele>352.0</ele><time>2026-03-28T09:30:25.756Z</time></trkpt><trkpt lat="38.0610297" lon="-1.4867034"><ele>352.0</ele><time>2026-03-28T09:30:27.755Z</time></trkpt><trkpt lat="38.0609138" lon="-1.4867849"><ele>352.0</ele><time>2026-03-28T09:30:29.755Z</time></trkpt><trkpt lat="38.0608463" lon="-1.4868323"><ele>352.0</ele><time>2026-03-28T09:30:30.754Z</time></trkpt><trkpt lat="38.0607695" lon="-1.486887"><ele>352.0</ele><time>2026-03-28T09:30:31.755Z</time></trkpt><trkpt lat="38.0606945" lon="-1.4869626"><ele>352.0</ele><time>2026-03-28T09:30:32.755Z</time></trkpt><trkpt lat="38.0606285" lon="-1.4870451"><ele>349.5</ele><time>2026-03-28T09:30:33.755Z</time></trkpt><trkpt lat="38.0605672" lon="-1.4871172"><ele>347.0</ele><time>2026-03-28T09:30:34.754Z</time></trkpt><trkpt lat="38.0605105" lon="-1.4871991"><ele>344.5</ele><time>2026-03-28T09:30:35.755Z</time></trkpt><trkpt lat="38.0604626" lon="-1.4872793"><ele>342.0</ele><time>2026-03-28T09:30:36.755Z</time></trkpt><trkpt lat="38.0604231" lon="-1.4873597"><ele>339.5</ele><time>2026-03-28T09:30:37.755Z</time></trkpt><trkpt lat="38.0603919" lon="-1.4874532"><ele>337.0</ele><time>2026-03-28T09:30:38.755Z</time></trkpt><trkpt lat="38.0603184" lon="-1.4875795"><ele>337.0</ele><time>2026-03-28T09:30:40.753Z</time></trkpt><trkpt lat="38.0602692" lon="-1.4876373"><ele>337.0</ele><time>2026-03-28T09:30:41.755Z</time></trkpt><trkpt lat="38.0602162" lon="-1.4876929"><ele>337.0</ele><time>2026-03-28T09:30:42.756Z</time></trkpt><trkpt lat="38.0601645" lon="-1.487746"><ele>337.0</ele><time>2026-03-28T09:30:43.754Z</time></trkpt><trkpt lat="38.0601083" lon="-1.4877842"><ele>337.0</ele><time>2026-03-28T09:30:44.755Z</time></trkpt><trkpt lat="38.0600216" lon="-1.4878911"><ele>337.0</ele><time>2026-03-28T09:30:46.755Z</time></trkpt><trkpt lat="38.060006" lon="-1.4879752"><ele>348.0</ele><time>2026-03-28T09:30:47.754Z</time></trkpt><trkpt lat="38.060004" lon="-1.4880947"><ele>348.0</ele><time>2026-03-28T09:30:49.754Z</time></trkpt><trkpt lat="38.0600117" lon="-1.4882245"><ele>348.0</ele><time>2026-03-28T09:30:51.755Z</time></trkpt><trkpt lat="38.0600103" lon="-1.4883414"><ele>348.0</ele><time>2026-03-28T09:30:53.754Z</time></trkpt></trkseg><trkseg><trkpt lat="38.0621472" lon="-1.4797621"><ele>368.0</ele><time>2026-03-28T10:12:28.449Z</time></trkpt><trkpt lat="38.0620796" lon="-1.4795421"><ele>364.0</ele><time>2026-03-28T10:12:29.754Z</time></trkpt><trkpt lat="38.0619935" lon="-1.4792213"><ele>364.0</ele><time>2026-03-28T10:12:32.754Z</time></trkpt><trkpt lat="38.0619608" lon="-1.479107"><ele>364.0</ele><time>2026-03-28T10:12:33.754Z</time></trkpt><trkpt lat="38.0619306" lon="-1.4789868"><ele>364.0</ele><time>2026-03-28T10:12:34.754Z</time></trkpt><trkpt lat="38.0618954" lon="-1.4788768"><ele>364.0</ele><time>2026-03-28T10:12:35.754Z</time></trkpt><trkpt lat="38.0618611" lon="-1.4787636"><ele>364.0</ele><time>2026-03-28T10:12:36.754Z</time></trkpt><trkpt lat="38.0618251" lon="-1.4786543"><ele>363.2</ele><time>2026-03-28T10:12:37.754Z</time></trkpt><trkpt lat="38.0617899" lon="-1.4785438"><ele>362.4</ele><time>2026-03-28T10:12:38.755Z</time></trkpt><trkpt lat="38.0617528" lon="-1.4784213"><ele>361.6</ele><time>2026-03-28T10:12:39.756Z</time></trkpt><trkpt lat="38.0617199" lon="-1.4783071"><ele>360.8</ele><time>2026-03-28T10:12:40.756Z</time></trkpt><trkpt lat="38.0616872" lon="-1.4781891"><ele>360.0</ele><time>2026-03-28T10:12:41.755Z</time></trkpt><trkpt lat="38.061648" lon="-1.4780801"><ele>359.6</ele><time>2026-03-28T10:12:42.755Z</time></trkpt><trkpt lat="38.0616123" lon="-1.477974"><ele>359.2</ele><time>2026-03-28T10:12:43.755Z</time></trkpt><trkpt lat="38.0615766" lon="-1.4778661"><ele>358.79999999999995</ele><time>2026-03-28T10:12:44.755Z</time></trkpt><trkpt lat="38.0615381" lon="-1.4777596"><ele>358.4</ele><time>2026-03-28T10:12:45.754Z</time></trkpt><trkpt lat="38.0615085" lon="-1.4776563"><ele>358.0</ele><time>2026-03-28T10:12:46.755Z</time></trkpt><trkpt lat="38.061473" lon="-1.4775495"><ele>358.0</ele><time>2026-03-28T10:12:47.755Z</time></trkpt><trkpt lat="38.061412" lon="-1.4773415"><ele>358.0</ele><time>2026-03-28T10:12:49.755Z</time></trkpt><trkpt lat="38.0613781" lon="-1.4772386"><ele>358.0</ele><time>2026-03-28T10:12:50.756Z</time></trkpt><trkpt lat="38.0613437" lon="-1.477134"><ele>358.0</ele><time>2026-03-28T10:12:51.754Z</time></trkpt><trkpt lat="38.0613102" lon="-1.477027"><ele>358.0</ele><time>2026-03-28T10:12:52.755Z</time></trkpt><trkpt lat="38.0612881" lon="-1.4769169"><ele>357.5</ele><time>2026-03-28T10:12:53.753Z</time></trkpt><trkpt lat="38.0612527" lon="-1.4768117"><ele>357.0</ele><time>2026-03-28T10:12:54.754Z</time></trkpt><trkpt lat="38.0612138" lon="-1.4767129"><ele>356.5</ele><time>2026-03-28T10:12:55.755Z</time></trkpt><trkpt lat="38.0611764" lon="-1.4766111"><ele>356.0</ele><time>2026-03-28T10:12:56.754Z</time></trkpt><trkpt lat="38.0611407" lon="-1.4765072"><ele>355.5</ele><time>2026-03-28T10:12:57.755Z</time></trkpt><trkpt lat="38.0611056" lon="-1.4764035"><ele>355.0</ele><time>2026-03-28T10:12:58.755Z</time></trkpt><trkpt lat="38.0610735" lon="-1.4763053"><ele>354.66666666666663</ele><time>2026-03-28T10:12:59.755Z</time></trkpt><trkpt lat="38.0610392" lon="-1.4762005"><ele>354.3333333333333</ele><time>2026-03-28T10:13:00.756Z</time></trkpt><trkpt lat="38.0610027" lon="-1.476098"><ele>354.0</ele><time>2026-03-28T10:13:01.753Z</time></trkpt><trkpt lat="38.0609677" lon="-1.4759928"><ele>353.6666666666667</ele><time>2026-03-28T10:13:02.755Z</time></trkpt><trkpt lat="38.0609297" lon="-1.4758907"><ele>353.33333333333337</ele><time>2026-03-28T10:13:03.755Z</time></trkpt><trkpt lat="38.0608934" lon="-1.4757856"><ele>353.0</ele><time>2026-03-28T10:13:04.755Z</time></trkpt><trkpt lat="38.0608548" lon="-1.4756823"><ele>353.0</ele><time>2026-03-28T10:13:05.754Z</time></trkpt><trkpt lat="38.0608163" lon="-1.4755807"><ele>353.0</ele><time>2026-03-28T10:13:06.753Z</time></trkpt><trkpt lat="38.0607817" lon="-1.4754765"><ele>353.0</ele><time>2026-03-28T10:13:07.755Z</time></trkpt><trkpt lat="38.0607489" lon="-1.4753722"><ele>353.0</ele><time>2026-03-28T10:13:08.755Z</time></trkpt><trkpt lat="38.060713" lon="-1.4752712"><ele>353.0</ele><time>2026-03-28T10:13:09.754Z</time></trkpt><trkpt lat="38.0606778" lon="-1.4751674"><ele>353.0</ele><time>2026-03-28T10:13:10.755Z</time></trkpt><trkpt lat="38.0606437" lon="-1.4750634"><ele>352.0</ele><time>2026-03-28T10:13:11.754Z</time></trkpt><trkpt lat="38.06061" lon="-1.4749624"><ele>351.0</ele><time>2026-03-28T10:13:12.755Z</time></trkpt><trkpt lat="38.0605781" lon="-1.4748594"><ele>350.0</ele><time>2026-03-28T10:13:13.755Z</time></trkpt><trkpt lat="38.0605481" lon="-1.474759"><ele>349.0</ele><time>2026-03-28T10:13:14.755Z</time></trkpt><trkpt lat="38.0605182" lon="-1.4746531"><ele>348.0</ele><time>2026-03-28T10:13:15.755Z</time></trkpt><trkpt lat="38.0604872" lon="-1.474547"><ele>347.0</ele><time>2026-03-28T10:13:16.755Z</time></trkpt><trkpt lat="38.0604522" lon="-1.4744509"><ele>346.33333333333337</ele><time>2026-03-28T10:13:17.754Z</time></trkpt><trkpt lat="38.0604232" lon="-1.47435"><ele>345.6666666666667</ele><time>2026-03-28T10:13:18.754Z</time></trkpt><trkpt lat="38.0603889" lon="-1.4742549"><ele>345.0</ele><time>2026-03-28T10:13:19.754Z</time></trkpt><trkpt lat="38.0603547" lon="-1.4741551"><ele>344.3333333333333</ele><time>2026-03-28T10:13:20.753Z</time></trkpt><trkpt lat="38.0603222" lon="-1.4740553"><ele>343.66666666666663</ele><time>2026-03-28T10:13:21.756Z</time></trkpt><trkpt lat="38.060288" lon="-1.4739532"><ele>343.0</ele><time>2026-03-28T10:13:22.755Z</time></trkpt><trkpt lat="38.0602509" lon="-1.473853"><ele>342.2</ele><time>2026-03-28T10:13:23.755Z</time></trkpt><trkpt lat="38.0602121" lon="-1.4737448"><ele>341.4</ele><time>2026-03-28T10:13:24.756Z</time></trkpt><trkpt lat="38.0601737" lon="-1.4736392"><ele>340.59999999999997</ele><time>2026-03-28T10:13:25.754Z</time></trkpt><trkpt lat="38.0601398" lon="-1.4735344"><ele>339.79999999999995</ele><time>2026-03-28T10:13:26.754Z</time></trkpt><trkpt lat="38.0601091" lon="-1.4734301"><ele>339.0</ele><time>2026-03-28T10:13:27.754Z</time></trkpt><trkpt lat="38.0600751" lon="-1.4733262"><ele>339.0</ele><time>2026-03-28T10:13:28.755Z</time></trkpt><trkpt lat="38.0600369" lon="-1.4732289"><ele>339.0</ele><time>2026-03-28T10:13:29.754Z</time></trkpt><trkpt lat="38.0600003" lon="-1.4731342"><ele>339.0</ele><time>2026-03-28T10:13:30.755Z</time></trkpt><trkpt lat="38.0599537" lon="-1.473045"><ele>339.0</ele><time>2026-03-28T10:13:31.755Z</time></trkpt><trkpt lat="38.0599061" lon="-1.4729653"><ele>339.0</ele><time>2026-03-28T10:13:32.754Z</time></trkpt><trkpt lat="38.0598497" lon="-1.4728944"><ele>339.0</ele><time>2026-03-28T10:13:33.754Z</time></trkpt><trkpt lat="38.0597941" lon="-1.4728291"><ele>338.4285714285714</ele><time>2026-03-28T10:13:34.754Z</time></trkpt><trkpt lat="38.0597364" lon="-1.4727695"><ele>337.8571428571429</ele><time>2026-03-28T10:13:35.754Z</time></trkpt><trkpt lat="38.0596804" lon="-1.4727073"><ele>337.2857142857143</ele><time>2026-03-28T10:13:36.753Z</time></trkpt><trkpt lat="38.0596246" lon="-1.4726532"><ele>336.71428571428567</ele><time>2026-03-28T10:13:37.755Z</time></trkpt><trkpt lat="38.0595716" lon="-1.472597"><ele>336.1428571428571</ele><time>2026-03-28T10:13:38.754Z</time></trkpt><trkpt lat="38.0595168" lon="-1.4725428"><ele>335.57142857142856</ele><time>2026-03-28T10:13:39.754Z</time></trkpt><trkpt lat="38.0594621" lon="-1.4724901"><ele>335.0</ele><time>2026-03-28T10:13:40.754Z</time></trkpt><trkpt lat="38.059408" lon="-1.4724349"><ele>335.0</ele><time>2026-03-28T10:13:41.755Z</time></trkpt><trkpt lat="38.0593492" lon="-1.4723854"><ele>335.0</ele><time>2026-03-28T10:13:42.754Z</time></trkpt><trkpt lat="38.0592951" lon="-1.4723351"><ele>335.0</ele><time>2026-03-28T10:13:43.756Z</time></trkpt><trkpt lat="38.0592026" lon="-1.472242"><ele>335.0</ele><time>2026-03-28T10:13:45.755Z</time></trkpt><trkpt lat="38.0591532" lon="-1.4721893"><ele>335.0</ele><time>2026-03-28T10:13:46.755Z</time></trkpt><trkpt lat="38.0591019" lon="-1.4721406"><ele>335.0</ele><time>2026-03-28T10:13:47.755Z</time></trkpt><trkpt lat="38.0590032" lon="-1.4720476"><ele>335.6</ele><time>2026-03-28T10:13:49.755Z</time></trkpt><trkpt lat="38.0589493" lon="-1.4719965"><ele>336.2</ele><time>2026-03-28T10:13:50.756Z</time></trkpt><trkpt lat="38.0588624" lon="-1.471899"><ele>336.79999999999995</ele><time>2026-03-28T10:13:52.753Z</time></trkpt><trkpt lat="38.0587782" lon="-1.4718137"><ele>337.4</ele><time>2026-03-28T10:13:54.754Z</time></trkpt><trkpt lat="38.0586963" lon="-1.4717386"><ele>338.0</ele><time>2026-03-28T10:13:56.755Z</time></trkpt><trkpt lat="38.0586167" lon="-1.4716728"><ele>338.0</ele><time>2026-03-28T10:13:58.756Z</time></trkpt><trkpt lat="38.0585346" lon="-1.4716166"><ele>338.0</ele><time>2026-03-28T10:14:00.755Z</time></trkpt><trkpt lat="38.0584583" lon="-1.4715779"><ele>338.0</ele><time>2026-03-28T10:14:02.754Z</time></trkpt><trkpt lat="38.0583655" lon="-1.4715536"><ele>338.0</ele><time>2026-03-28T10:14:04.754Z</time></trkpt><trkpt lat="38.0582847" lon="-1.4715376"><ele>338.0</ele><time>2026-03-28T10:14:06.755Z</time></trkpt><trkpt lat="38.0582098" lon="-1.4715184"><ele>338.0</ele><time>2026-03-28T10:14:08.754Z</time></trkpt><trkpt lat="38.0581232" lon="-1.4715064"><ele>338.83333333333337</ele><time>2026-03-28T10:14:10.757Z</time></trkpt><trkpt lat="38.058034" lon="-1.4715127"><ele>339.6666666666667</ele><time>2026-03-28T10:14:12.756Z</time></trkpt><trkpt lat="38.0579424" lon="-1.4715206"><ele>340.5</ele><time>2026-03-28T10:14:14.756Z</time></trkpt><trkpt lat="38.0578526" lon="-1.4715247"><ele>341.3333333333333</ele><time>2026-03-28T10:14:16.757Z</time></trkpt><trkpt lat="38.0577757" lon="-1.4715247"><ele>342.16666666666663</ele><time>2026-03-28T10:14:18.756Z</time></trkpt><trkpt lat="38.0576934" lon="-1.4715265"><ele>343.0</ele><time>2026-03-28T10:14:20.755Z</time></trkpt><trkpt lat="38.0576189" lon="-1.4715321"><ele>343.0</ele><time>2026-03-28T10:14:22.754Z</time></trkpt><trkpt lat="38.0575536" lon="-1.4715206"><ele>343.0</ele><time>2026-03-28T10:14:24.755Z</time></trkpt><trkpt lat="38.0574828" lon="-1.4715237"><ele>343.0</ele><time>2026-03-28T10:14:26.755Z</time></trkpt><trkpt lat="38.0574142" lon="-1.4715307"><ele>343.0</ele><time>2026-03-28T10:14:28.754Z</time></trkpt><trkpt lat="38.057347" lon="-1.4715265"><ele>343.0</ele><time>2026-03-28T10:14:30.754Z</time></trkpt><trkpt lat="38.057279" lon="-1.4715116"><ele>343.0</ele><time>2026-03-28T10:14:32.755Z</time></trkpt><trkpt lat="38.0572139" lon="-1.4715046"><ele>343.0</ele><time>2026-03-28T10:14:34.755Z</time></trkpt><trkpt lat="38.0571383" lon="-1.4715043"><ele>342.7142857142857</ele><time>2026-03-28T10:14:36.754Z</time></trkpt><trkpt lat="38.057062" lon="-1.4714969"><ele>342.42857142857144</ele><time>2026-03-28T10:14:38.755Z</time></trkpt><trkpt lat="38.0569877" lon="-1.4714905"><ele>342.1428571428571</ele><time>2026-03-28T10:14:40.755Z</time></trkpt><trkpt lat="38.0569185" lon="-1.4714738"><ele>341.8571428571429</ele><time>2026-03-28T10:14:42.755Z</time></trkpt><trkpt lat="38.0568504" lon="-1.471458"><ele>341.57142857142856</ele><time>2026-03-28T10:14:44.754Z</time></trkpt><trkpt lat="38.0567813" lon="-1.4714345"><ele>341.2857142857143</ele><time>2026-03-28T10:14:46.755Z</time></trkpt><trkpt lat="38.056708" lon="-1.4714082"><ele>341.0</ele><time>2026-03-28T10:14:48.756Z</time></trkpt><trkpt lat="38.0566385" lon="-1.4713783"><ele>341.20000000000005</ele><time>2026-03-28T10:14:50.754Z</time></trkpt><trkpt lat="38.056563" lon="-1.4713394"><ele>341.40000000000003</ele><time>2026-03-28T10:14:52.755Z</time></trkpt><trkpt lat="38.0564788" lon="-1.4712944"><ele>341.6</ele><time>2026-03-28T10:14:54.755Z</time></trkpt><trkpt lat="38.05639" lon="-1.4712516"><ele>341.8</ele><time>2026-03-28T10:14:56.755Z</time></trkpt><trkpt lat="38.0563027" lon="-1.4711876"><ele>342.0</ele><time>2026-03-28T10:14:58.754Z</time></trkpt><trkpt lat="38.0562108" lon="-1.4711353"><ele>342.0</ele><time>2026-03-28T10:15:00.755Z</time></trkpt><trkpt lat="38.0561277" lon="-1.4710824"><ele>342.0</ele><time>2026-03-28T10:15:02.753Z</time></trkpt><trkpt lat="38.056047" lon="-1.4710356"><ele>342.0</ele><time>2026-03-28T10:15:04.754Z</time></trkpt><trkpt lat="38.0559583" lon="-1.4709792"><ele>342.0</ele><time>2026-03-28T10:15:06.754Z</time></trkpt><trkpt lat="38.0558689" lon="-1.470921"><ele>342.0</ele><time>2026-03-28T10:15:08.755Z</time></trkpt><trkpt lat="38.0557832" lon="-1.4708635"><ele>341.40000000000003</ele><time>2026-03-28T10:15:10.755Z</time></trkpt><trkpt lat="38.0556915" lon="-1.4708103"><ele>340.8</ele><time>2026-03-28T10:15:12.753Z</time></trkpt><trkpt lat="38.055605" lon="-1.470757"><ele>340.2</ele><time>2026-03-28T10:15:14.754Z</time></trkpt><trkpt lat="38.0555024" lon="-1.4707193"><ele>339.6</ele><time>2026-03-28T10:15:16.755Z</time></trkpt><trkpt lat="38.055412" lon="-1.4706559"><ele>339.0</ele><time>2026-03-28T10:15:18.755Z</time></trkpt><trkpt lat="38.0553145" lon="-1.4706016"><ele>339.0</ele><time>2026-03-28T10:15:20.756Z</time></trkpt><trkpt lat="38.0552165" lon="-1.4705527"><ele>339.0</ele><time>2026-03-28T10:15:22.753Z</time></trkpt><trkpt lat="38.0551126" lon="-1.4705055"><ele>339.0</ele><time>2026-03-28T10:15:24.755Z</time></trkpt><trkpt lat="38.055009" lon="-1.4704444"><ele>339.0</ele><time>2026-03-28T10:15:26.755Z</time></trkpt><trkpt lat="38.0549169" lon="-1.4703768"><ele>339.0</ele><time>2026-03-28T10:15:28.754Z</time></trkpt><trkpt lat="38.0548177" lon="-1.4703083"><ele>339.6</ele><time>2026-03-28T10:15:30.756Z</time></trkpt><trkpt lat="38.0547234" lon="-1.4702481"><ele>340.2</ele><time>2026-03-28T10:15:32.754Z</time></trkpt><trkpt lat="38.0546308" lon="-1.4701941"><ele>340.8</ele><time>2026-03-28T10:15:34.754Z</time></trkpt><trkpt lat="38.0545476" lon="-1.4701464"><ele>341.40000000000003</ele><time>2026-03-28T10:15:36.754Z</time></trkpt><trkpt lat="38.0544496" lon="-1.4700833"><ele>342.0</ele><time>2026-03-28T10:15:38.755Z</time></trkpt><trkpt lat="38.054361" lon="-1.4700316"><ele>342.0</ele><time>2026-03-28T10:15:40.753Z</time></trkpt><trkpt lat="38.0542679" lon="-1.4699727"><ele>342.0</ele><time>2026-03-28T10:15:42.755Z</time></trkpt><trkpt lat="38.0541719" lon="-1.4699183"><ele>342.0</ele><time>2026-03-28T10:15:44.755Z</time></trkpt><trkpt lat="38.0540755" lon="-1.469855"><ele>342.0</ele><time>2026-03-28T10:15:46.754Z</time></trkpt><trkpt lat="38.0539815" lon="-1.4698017"><ele>342.0</ele><time>2026-03-28T10:15:48.755Z</time></trkpt><trkpt lat="38.0538793" lon="-1.4697456"><ele>342.0</ele><time>2026-03-28T10:15:50.755Z</time></trkpt><trkpt lat="38.0537795" lon="-1.4696744"><ele>342.0</ele><time>2026-03-28T10:15:52.754Z</time></trkpt><trkpt lat="38.0536701" lon="-1.4696"><ele>342.0</ele><time>2026-03-28T10:15:54.754Z</time></trkpt><trkpt lat="38.0536118" lon="-1.4695539"><ele>342.0</ele><time>2026-03-28T10:15:55.754Z</time></trkpt><trkpt lat="38.0535535" lon="-1.4695058"><ele>342.0</ele><time>2026-03-28T10:15:56.756Z</time></trkpt><trkpt lat="38.0534941" lon="-1.4694617"><ele>342.0</ele><time>2026-03-28T10:15:57.756Z</time></trkpt><trkpt lat="38.053433" lon="-1.4694191"><ele>341.57142857142856</ele><time>2026-03-28T10:15:58.755Z</time></trkpt><trkpt lat="38.0533736" lon="-1.4693719"><ele>341.1428571428571</ele><time>2026-03-28T10:15:59.756Z</time></trkpt><trkpt lat="38.0533139" lon="-1.469326"><ele>340.71428571428567</ele><time>2026-03-28T10:16:00.756Z</time></trkpt><trkpt lat="38.0532524" lon="-1.4692857"><ele>340.2857142857143</ele><time>2026-03-28T10:16:01.753Z</time></trkpt><trkpt lat="38.0531896" lon="-1.4692433"><ele>339.8571428571429</ele><time>2026-03-28T10:16:02.754Z</time></trkpt><trkpt lat="38.0531246" lon="-1.4692002"><ele>339.4285714285714</ele><time>2026-03-28T10:16:03.755Z</time></trkpt><trkpt lat="38.0530568" lon="-1.4691529"><ele>339.0</ele><time>2026-03-28T10:16:04.754Z</time></trkpt><trkpt lat="38.0529942" lon="-1.4691006"><ele>339.0</ele><time>2026-03-28T10:16:05.753Z</time></trkpt><trkpt lat="38.0529312" lon="-1.4690427"><ele>339.0</ele><time>2026-03-28T10:16:06.755Z</time></trkpt><trkpt lat="38.0528612" lon="-1.4689898"><ele>339.0</ele><time>2026-03-28T10:16:07.755Z</time></trkpt><trkpt lat="38.0527932" lon="-1.4689363"><ele>339.0</ele><time>2026-03-28T10:16:08.755Z</time></trkpt><trkpt lat="38.0527237" lon="-1.4688858"><ele>339.0</ele><time>2026-03-28T10:16:09.756Z</time></trkpt><trkpt lat="38.0526567" lon="-1.4688331"><ele>339.0</ele><time>2026-03-28T10:16:10.754Z</time></trkpt><trkpt lat="38.052584" lon="-1.4687867"><ele>338.0</ele><time>2026-03-28T10:16:11.756Z</time></trkpt><trkpt lat="38.0525138" lon="-1.4687441"><ele>337.0</ele><time>2026-03-28T10:16:12.756Z</time></trkpt><trkpt lat="38.0524435" lon="-1.4686948"><ele>336.0</ele><time>2026-03-28T10:16:13.754Z</time></trkpt><trkpt lat="38.0523769" lon="-1.4686431"><ele>335.0</ele><time>2026-03-28T10:16:14.755Z</time></trkpt><trkpt lat="38.0523158" lon="-1.4686006"><ele>334.0</ele><time>2026-03-28T10:16:15.756Z</time></trkpt><trkpt lat="38.0522481" lon="-1.468551"><ele>333.0</ele><time>2026-03-28T10:16:16.755Z</time></trkpt><trkpt lat="38.0521853" lon="-1.4685023"><ele>332.6666666666667</ele><time>2026-03-28T10:16:17.755Z</time></trkpt><trkpt lat="38.0521201" lon="-1.4684566"><ele>332.3333333333333</ele><time>2026-03-28T10:16:18.754Z</time></trkpt><trkpt lat="38.0520586" lon="-1.4684074"><ele>332.0</ele><time>2026-03-28T10:16:19.756Z</time></trkpt><trkpt lat="38.0520005" lon="-1.4683513"><ele>331.66666666666663</ele><time>2026-03-28T10:16:20.754Z</time></trkpt><trkpt lat="38.0519377" lon="-1.4683033"><ele>331.3333333333333</ele><time>2026-03-28T10:16:21.755Z</time></trkpt><trkpt lat="38.0518479" lon="-1.4681901"><ele>331.0</ele><time>2026-03-28T10:16:23.754Z</time></trkpt><trkpt lat="38.0517951" lon="-1.4681247"><ele>331.0</ele><time>2026-03-28T10:16:24.754Z</time></trkpt><trkpt lat="38.051748" lon="-1.4680546"><ele>331.0</ele><time>2026-03-28T10:16:25.755Z</time></trkpt><trkpt lat="38.0517033" lon="-1.4679763"><ele>331.0</ele><time>2026-03-28T10:16:26.755Z</time></trkpt><trkpt lat="38.0516596" lon="-1.4679012"><ele>331.0</ele><time>2026-03-28T10:16:27.756Z</time></trkpt><trkpt lat="38.0516151" lon="-1.4678251"><ele>331.0</ele><time>2026-03-28T10:16:28.755Z</time></trkpt><trkpt lat="38.0515661" lon="-1.4677481"><ele>331.0</ele><time>2026-03-28T10:16:29.755Z</time></trkpt><trkpt lat="38.0515269" lon="-1.4676712"><ele>331.0</ele><time>2026-03-28T10:16:30.754Z</time></trkpt><trkpt lat="38.0514871" lon="-1.4675926"><ele>330.14285714285717</ele><time>2026-03-28T10:16:31.755Z</time></trkpt><trkpt lat="38.0514457" lon="-1.4675189"><ele>329.2857142857143</ele><time>2026-03-28T10:16:32.756Z</time></trkpt><trkpt lat="38.051401" lon="-1.4674473"><ele>328.42857142857144</ele><time>2026-03-28T10:16:33.753Z</time></trkpt><trkpt lat="38.0513612" lon="-1.467373"><ele>327.57142857142856</ele><time>2026-03-28T10:16:34.756Z</time></trkpt><trkpt lat="38.0513179" lon="-1.4672999"><ele>326.7142857142857</ele><time>2026-03-28T10:16:35.753Z</time></trkpt><trkpt lat="38.0512719" lon="-1.4672356"><ele>325.85714285714283</ele><time>2026-03-28T10:16:36.754Z</time></trkpt><trkpt lat="38.0512286" lon="-1.4671634"><ele>325.0</ele><time>2026-03-28T10:16:37.754Z</time></trkpt><trkpt lat="38.0511852" lon="-1.4670906"><ele>325.0</ele><time>2026-03-28T10:16:38.754Z</time></trkpt><trkpt lat="38.0511447" lon="-1.4670203"><ele>325.0</ele><time>2026-03-28T10:16:39.755Z</time></trkpt><trkpt lat="38.0511056" lon="-1.4669502"><ele>325.0</ele><time>2026-03-28T10:16:40.754Z</time></trkpt><trkpt lat="38.0510677" lon="-1.4668814"><ele>325.0</ele><time>2026-03-28T10:16:41.756Z</time></trkpt><trkpt lat="38.051029" lon="-1.4668088"><ele>325.0</ele><time>2026-03-28T10:16:42.754Z</time></trkpt><trkpt lat="38.0509917" lon="-1.4667317"><ele>325.0</ele><time>2026-03-28T10:16:43.755Z</time></trkpt><trkpt lat="38.0509515" lon="-1.4666619"><ele>325.0</ele><time>2026-03-28T10:16:44.755Z</time></trkpt><trkpt lat="38.050914" lon="-1.4665879"><ele>325.0</ele><time>2026-03-28T10:16:45.753Z</time></trkpt><trkpt lat="38.0508467" lon="-1.4664503"><ele>325.0</ele><time>2026-03-28T10:16:47.754Z</time></trkpt><trkpt lat="38.0508141" lon="-1.4663775"><ele>325.0</ele><time>2026-03-28T10:16:48.755Z</time></trkpt><trkpt lat="38.0507702" lon="-1.4663033"><ele>325.0</ele><time>2026-03-28T10:16:49.754Z</time></trkpt><trkpt lat="38.0507331" lon="-1.4662292"><ele>325.0</ele><time>2026-03-28T10:16:50.755Z</time></trkpt><trkpt lat="38.0506918" lon="-1.4661561"><ele>325.0</ele><time>2026-03-28T10:16:51.754Z</time></trkpt><trkpt lat="38.0506499" lon="-1.4660719"><ele>324.5</ele><time>2026-03-28T10:16:52.755Z</time></trkpt><trkpt lat="38.0506104" lon="-1.4659881"><ele>324.0</ele><time>2026-03-28T10:16:53.755Z</time></trkpt><trkpt lat="38.0505703" lon="-1.4659132"><ele>323.5</ele><time>2026-03-28T10:16:54.756Z</time></trkpt><trkpt lat="38.0505327" lon="-1.4658254"><ele>323.0</ele><time>2026-03-28T10:16:55.755Z</time></trkpt><trkpt lat="38.0504901" lon="-1.4657413"><ele>322.5</ele><time>2026-03-28T10:16:56.754Z</time></trkpt><trkpt lat="38.0504462" lon="-1.4656555"><ele>322.0</ele><time>2026-03-28T10:16:57.756Z</time></trkpt><trkpt lat="38.0504068" lon="-1.4655677"><ele>322.0</ele><time>2026-03-28T10:16:58.755Z</time></trkpt><trkpt lat="38.0503668" lon="-1.4654789"><ele>322.0</ele><time>2026-03-28T10:16:59.755Z</time></trkpt><trkpt lat="38.0503239" lon="-1.4653846"><ele>322.0</ele><time>2026-03-28T10:17:00.754Z</time></trkpt><trkpt lat="38.0502811" lon="-1.4652914"><ele>322.0</ele><time>2026-03-28T10:17:01.756Z</time></trkpt><trkpt lat="38.0502395" lon="-1.4652033"><ele>322.0</ele><time>2026-03-28T10:17:02.755Z</time></trkpt><trkpt lat="38.050193" lon="-1.4651135"><ele>322.0</ele><time>2026-03-28T10:17:03.755Z</time></trkpt><trkpt lat="38.0501469" lon="-1.4650151"><ele>321.8</ele><time>2026-03-28T10:17:04.753Z</time></trkpt><trkpt lat="38.0500913" lon="-1.4649176"><ele>321.6</ele><time>2026-03-28T10:17:05.756Z</time></trkpt><trkpt lat="38.0500464" lon="-1.4648191"><ele>321.40000000000003</ele><time>2026-03-28T10:17:06.755Z</time></trkpt><trkpt lat="38.0499976" lon="-1.4647207"><ele>321.20000000000005</ele><time>2026-03-28T10:17:07.755Z</time></trkpt><trkpt lat="38.0499468" lon="-1.4646178"><ele>321.0</ele><time>2026-03-28T10:17:08.756Z</time></trkpt><trkpt lat="38.0499003" lon="-1.464516"><ele>320.40000000000003</ele><time>2026-03-28T10:17:09.756Z</time></trkpt><trkpt lat="38.0498529" lon="-1.4644105"><ele>319.8</ele><time>2026-03-28T10:17:10.756Z</time></trkpt><trkpt lat="38.0498034" lon="-1.464304"><ele>319.20000000000005</ele><time>2026-03-28T10:17:11.755Z</time></trkpt><trkpt lat="38.049752" lon="-1.4642009"><ele>318.6</ele><time>2026-03-28T10:17:12.755Z</time></trkpt><trkpt lat="38.0497052" lon="-1.4640933"><ele>318.0</ele><time>2026-03-28T10:17:13.756Z</time></trkpt><trkpt lat="38.0496584" lon="-1.4639872"><ele>318.0</ele><time>2026-03-28T10:17:14.756Z</time></trkpt><trkpt lat="38.0496029" lon="-1.4638816"><ele>318.0</ele><time>2026-03-28T10:17:15.756Z</time></trkpt><trkpt lat="38.0495508" lon="-1.4637786"><ele>318.0</ele><time>2026-03-28T10:17:16.753Z</time></trkpt><trkpt lat="38.0494996" lon="-1.4636735"><ele>318.0</ele><time>2026-03-28T10:17:17.755Z</time></trkpt><trkpt lat="38.0494491" lon="-1.4635667"><ele>318.0</ele><time>2026-03-28T10:17:18.754Z</time></trkpt><trkpt lat="38.0493988" lon="-1.4634629"><ele>316.8</ele><time>2026-03-28T10:17:19.754Z</time></trkpt><trkpt lat="38.0493496" lon="-1.4633576"><ele>315.6</ele><time>2026-03-28T10:17:20.755Z</time></trkpt><trkpt lat="38.0492972" lon="-1.4632552"><ele>314.4</ele><time>2026-03-28T10:17:21.756Z</time></trkpt><trkpt lat="38.0492451" lon="-1.4631574"><ele>313.2</ele><time>2026-03-28T10:17:22.755Z</time></trkpt><trkpt lat="38.0491904" lon="-1.4630577"><ele>312.0</ele><time>2026-03-28T10:17:23.755Z</time></trkpt><trkpt lat="38.0491402" lon="-1.4629591"><ele>311.2</ele><time>2026-03-28T10:17:24.755Z</time></trkpt><trkpt lat="38.0490912" lon="-1.4628554"><ele>310.4</ele><time>2026-03-28T10:17:25.755Z</time></trkpt><trkpt lat="38.0490428" lon="-1.4627529"><ele>309.6</ele><time>2026-03-28T10:17:26.755Z</time></trkpt><trkpt lat="38.0489978" lon="-1.4626599"><ele>308.8</ele><time>2026-03-28T10:17:27.754Z</time></trkpt><trkpt lat="38.0489515" lon="-1.4625606"><ele>308.0</ele><time>2026-03-28T10:17:28.754Z</time></trkpt><trkpt lat="38.0489051" lon="-1.4624653"><ele>308.0</ele><time>2026-03-28T10:17:29.754Z</time></trkpt><trkpt lat="38.0488581" lon="-1.4623629"><ele>308.0</ele><time>2026-03-28T10:17:30.756Z</time></trkpt><trkpt lat="38.0488125" lon="-1.4622654"><ele>308.0</ele><time>2026-03-28T10:17:31.754Z</time></trkpt><trkpt lat="38.0487687" lon="-1.4621631"><ele>308.0</ele><time>2026-03-28T10:17:32.755Z</time></trkpt><trkpt lat="38.0487247" lon="-1.4620671"><ele>308.0</ele><time>2026-03-28T10:17:33.756Z</time></trkpt><trkpt lat="38.0486797" lon="-1.4619709"><ele>307.5</ele><time>2026-03-28T10:17:34.755Z</time></trkpt><trkpt lat="38.0486342" lon="-1.4618754"><ele>307.0</ele><time>2026-03-28T10:17:35.756Z</time></trkpt><trkpt lat="38.0485889" lon="-1.4617836"><ele>306.5</ele><time>2026-03-28T10:17:36.756Z</time></trkpt><trkpt lat="38.0485442" lon="-1.4616888"><ele>306.0</ele><time>2026-03-28T10:17:37.755Z</time></trkpt><trkpt lat="38.0484931" lon="-1.4615918"><ele>305.5</ele><time>2026-03-28T10:17:38.754Z</time></trkpt><trkpt lat="38.0484461" lon="-1.4614978"><ele>305.0</ele><time>2026-03-28T10:17:39.754Z</time></trkpt><trkpt lat="38.0483984" lon="-1.4613998"><ele>305.0</ele><time>2026-03-28T10:17:40.754Z</time></trkpt><trkpt lat="38.0483463" lon="-1.4613011"><ele>305.0</ele><time>2026-03-28T10:17:41.755Z</time></trkpt><trkpt lat="38.0482998" lon="-1.461202"><ele>305.0</ele><time>2026-03-28T10:17:42.755Z</time></trkpt><trkpt lat="38.048251" lon="-1.4611072"><ele>305.0</ele><time>2026-03-28T10:17:43.755Z</time></trkpt><trkpt lat="38.0482004" lon="-1.4610101"><ele>305.0</ele><time>2026-03-28T10:17:44.754Z</time></trkpt><trkpt lat="38.0481506" lon="-1.4609165"><ele>303.6666666666667</ele><time>2026-03-28T10:17:45.754Z</time></trkpt><trkpt lat="38.0481016" lon="-1.4608259"><ele>302.33333333333337</ele><time>2026-03-28T10:17:46.755Z</time></trkpt><trkpt lat="38.0480476" lon="-1.4607351"><ele>301.0</ele><time>2026-03-28T10:17:47.755Z</time></trkpt><trkpt lat="38.0479965" lon="-1.4606531"><ele>299.6666666666667</ele><time>2026-03-28T10:17:48.755Z</time></trkpt><trkpt lat="38.0479424" lon="-1.4605703"><ele>298.3333333333333</ele><time>2026-03-28T10:17:49.755Z</time></trkpt><trkpt lat="38.0478877" lon="-1.4604923"><ele>297.0</ele><time>2026-03-28T10:17:50.757Z</time></trkpt><trkpt lat="38.0478299" lon="-1.4604092"><ele>296.3333333333333</ele><time>2026-03-28T10:17:51.755Z</time></trkpt><trkpt lat="38.0477772" lon="-1.4603252"><ele>295.6666666666667</ele><time>2026-03-28T10:17:52.754Z</time></trkpt><trkpt lat="38.0477198" lon="-1.46024"><ele>295.0</ele><time>2026-03-28T10:17:53.755Z</time></trkpt><trkpt lat="38.0476654" lon="-1.4601583"><ele>294.33333333333337</ele><time>2026-03-28T10:17:54.755Z</time></trkpt><trkpt lat="38.0476128" lon="-1.4600769"><ele>293.6666666666667</ele><time>2026-03-28T10:17:55.754Z</time></trkpt><trkpt lat="38.0475659" lon="-1.4599897"><ele>293.0</ele><time>2026-03-28T10:17:56.755Z</time></trkpt><trkpt lat="38.0475219" lon="-1.4599007"><ele>293.0</ele><time>2026-03-28T10:17:57.754Z</time></trkpt><trkpt lat="38.0474895" lon="-1.4597968"><ele>293.0</ele><time>2026-03-28T10:17:58.755Z</time></trkpt><trkpt lat="38.0474561" lon="-1.4596948"><ele>293.0</ele><time>2026-03-28T10:17:59.755Z</time></trkpt><trkpt lat="38.0474263" lon="-1.459583"><ele>293.0</ele><time>2026-03-28T10:18:00.754Z</time></trkpt><trkpt lat="38.0473896" lon="-1.4594757"><ele>293.0</ele><time>2026-03-28T10:18:01.754Z</time></trkpt><trkpt lat="38.0473509" lon="-1.4593673"><ele>291.8</ele><time>2026-03-28T10:18:02.755Z</time></trkpt><trkpt lat="38.0473139" lon="-1.4592574"><ele>290.6</ele><time>2026-03-28T10:18:03.755Z</time></trkpt><trkpt lat="38.047276" lon="-1.4591444"><ele>289.4</ele><time>2026-03-28T10:18:04.755Z</time></trkpt><trkpt lat="38.0472339" lon="-1.4590303"><ele>288.2</ele><time>2026-03-28T10:18:05.754Z</time></trkpt><trkpt lat="38.0471833" lon="-1.4589154"><ele>287.0</ele><time>2026-03-28T10:18:06.755Z</time></trkpt><trkpt lat="38.0471242" lon="-1.4587995"><ele>286.4</ele><time>2026-03-28T10:18:07.755Z</time></trkpt><trkpt lat="38.0470612" lon="-1.4586915"><ele>285.79999999999995</ele><time>2026-03-28T10:18:08.754Z</time></trkpt><trkpt lat="38.0469889" lon="-1.458583"><ele>285.2</ele><time>2026-03-28T10:18:09.755Z</time></trkpt><trkpt lat="38.0469147" lon="-1.4584764"><ele>284.59999999999997</ele><time>2026-03-28T10:18:10.755Z</time></trkpt><trkpt lat="38.0468397" lon="-1.4583727"><ele>284.0</ele><time>2026-03-28T10:18:11.755Z</time></trkpt><trkpt lat="38.046764" lon="-1.4582556"><ele>284.0</ele><time>2026-03-28T10:18:12.755Z</time></trkpt><trkpt lat="38.0466948" lon="-1.4581421"><ele>284.0</ele><time>2026-03-28T10:18:13.755Z</time></trkpt><trkpt lat="38.0466241" lon="-1.4580231"><ele>284.0</ele><time>2026-03-28T10:18:14.754Z</time></trkpt><trkpt lat="38.046572" lon="-1.457901"><ele>284.0</ele><time>2026-03-28T10:18:15.756Z</time></trkpt><trkpt lat="38.0465274" lon="-1.4577729"><ele>282.8</ele><time>2026-03-28T10:18:16.754Z</time></trkpt><trkpt lat="38.0464864" lon="-1.4576447"><ele>281.59999999999997</ele><time>2026-03-28T10:18:17.755Z</time></trkpt><trkpt lat="38.0464473" lon="-1.4575149"><ele>280.4</ele><time>2026-03-28T10:18:18.754Z</time></trkpt><trkpt lat="38.0464035" lon="-1.45739"><ele>279.2</ele><time>2026-03-28T10:18:19.755Z</time></trkpt><trkpt lat="38.0463573" lon="-1.4572769"><ele>278.0</ele><time>2026-03-28T10:18:20.756Z</time></trkpt><trkpt lat="38.046305" lon="-1.4571698"><ele>277.4</ele><time>2026-03-28T10:18:21.756Z</time></trkpt><trkpt lat="38.0462493" lon="-1.4570615"><ele>276.8</ele><time>2026-03-28T10:18:22.756Z</time></trkpt><trkpt lat="38.0461955" lon="-1.4569578"><ele>276.2</ele><time>2026-03-28T10:18:23.755Z</time></trkpt><trkpt lat="38.0461388" lon="-1.4568562"><ele>275.6</ele><time>2026-03-28T10:18:24.755Z</time></trkpt><trkpt lat="38.0460865" lon="-1.4567609"><ele>275.0</ele><time>2026-03-28T10:18:25.755Z</time></trkpt><trkpt lat="38.0460297" lon="-1.4566583"><ele>275.0</ele><time>2026-03-28T10:18:26.754Z</time></trkpt><trkpt lat="38.0459775" lon="-1.4565651"><ele>275.0</ele><time>2026-03-28T10:18:27.756Z</time></trkpt><trkpt lat="38.0459258" lon="-1.4564683"><ele>275.0</ele><time>2026-03-28T10:18:28.754Z</time></trkpt><trkpt lat="38.045876" lon="-1.4563689"><ele>275.0</ele><time>2026-03-28T10:18:29.754Z</time></trkpt><trkpt lat="38.0458248" lon="-1.456274"><ele>275.0</ele><time>2026-03-28T10:18:30.754Z</time></trkpt><trkpt lat="38.045779" lon="-1.4561845"><ele>275.1666666666667</ele><time>2026-03-28T10:18:31.755Z</time></trkpt><trkpt lat="38.0457489" lon="-1.4561075"><ele>275.33333333333337</ele><time>2026-03-28T10:18:32.754Z</time></trkpt><trkpt lat="38.0456929" lon="-1.4559925"><ele>275.5</ele><time>2026-03-28T10:18:34.756Z</time></trkpt><trkpt lat="38.0456397" lon="-1.4559263"><ele>275.6666666666667</ele><time>2026-03-28T10:18:36.755Z</time></trkpt><trkpt lat="38.0455759" lon="-1.4559003"><ele>275.8333333333333</ele><time>2026-03-28T10:18:39.756Z</time></trkpt><trkpt lat="38.0455071" lon="-1.4558842"><ele>276.0</ele><time>2026-03-28T10:18:44.755Z</time></trkpt><trkpt lat="38.0454172" lon="-1.4558862"><ele>276.0</ele><time>2026-03-28T10:18:54.756Z</time></trkpt><trkpt lat="38.0453414" lon="-1.4558602"><ele>276.0</ele><time>2026-03-28T10:18:56.754Z</time></trkpt><trkpt lat="38.0452752" lon="-1.4557819"><ele>276.0</ele><time>2026-03-28T10:18:58.756Z</time></trkpt><trkpt lat="38.0452406" lon="-1.4556475"><ele>276.0</ele><time>2026-03-28T10:19:00.755Z</time></trkpt><trkpt lat="38.045225" lon="-1.4554781"><ele>276.0</ele><time>2026-03-28T10:19:02.756Z</time></trkpt><trkpt lat="38.0451801" lon="-1.4553246"><ele>276.0</ele><time>2026-03-28T10:19:04.754Z</time></trkpt><trkpt lat="38.0451599" lon="-1.4552455"><ele>276.0</ele><time>2026-03-28T10:19:05.754Z</time></trkpt><trkpt lat="38.0451111" lon="-1.4551315"><ele>276.0</ele><time>2026-03-28T10:19:07.755Z</time></trkpt><trkpt lat="38.0450821" lon="-1.4549988"><ele>276.0</ele><time>2026-03-28T10:19:09.755Z</time></trkpt><trkpt lat="38.0450447" lon="-1.4548814"><ele>276.0</ele><time>2026-03-28T10:19:11.755Z</time></trkpt><trkpt lat="38.0450091" lon="-1.4547534"><ele>276.0</ele><time>2026-03-28T10:19:13.756Z</time></trkpt><trkpt lat="38.0449706" lon="-1.4546166"><ele>276.0</ele><time>2026-03-28T10:19:15.755Z</time></trkpt><trkpt lat="38.0449275" lon="-1.4544791"><ele>276.0</ele><time>2026-03-28T10:19:17.755Z</time></trkpt><trkpt lat="38.0448789" lon="-1.4543407"><ele>276.0</ele><time>2026-03-28T10:19:19.756Z</time></trkpt><trkpt lat="38.044814" lon="-1.4541437"><ele>276.0</ele><time>2026-03-28T10:19:22.754Z</time></trkpt><trkpt lat="38.044757" lon="-1.4540091"><ele>276.0</ele><time>2026-03-28T10:19:24.754Z</time></trkpt><trkpt lat="38.0446963" lon="-1.4538787"><ele>276.0</ele><time>2026-03-28T10:19:26.755Z</time></trkpt><trkpt lat="38.0446205" lon="-1.4537534"><ele>276.0</ele><time>2026-03-28T10:19:28.754Z</time></trkpt><trkpt lat="38.0445759" lon="-1.4536853"><ele>276.0</ele><time>2026-03-28T10:19:29.754Z</time></trkpt><trkpt lat="38.044543" lon="-1.4536126"><ele>275.3333333333333</ele><time>2026-03-28T10:19:30.756Z</time></trkpt><trkpt lat="38.0445119" lon="-1.4535369"><ele>274.6666666666667</ele><time>2026-03-28T10:19:31.755Z</time></trkpt><trkpt lat="38.0444443" lon="-1.453401"><ele>274.0</ele><time>2026-03-28T10:19:33.755Z</time></trkpt><trkpt lat="38.0444137" lon="-1.4533264"><ele>273.33333333333337</ele><time>2026-03-28T10:19:34.756Z</time></trkpt><trkpt lat="38.0443488" lon="-1.4531971"><ele>272.6666666666667</ele><time>2026-03-28T10:19:36.755Z</time></trkpt><trkpt lat="38.0443135" lon="-1.4531258"><ele>272.0</ele><time>2026-03-28T10:19:37.754Z</time></trkpt><trkpt lat="38.0442825" lon="-1.4530543"><ele>272.0</ele><time>2026-03-28T10:19:38.754Z</time></trkpt><trkpt lat="38.0442556" lon="-1.4529791"><ele>272.0</ele><time>2026-03-28T10:19:39.754Z</time></trkpt><trkpt lat="38.0442241" lon="-1.4529065"><ele>272.0</ele><time>2026-03-28T10:19:40.755Z</time></trkpt><trkpt lat="38.0441935" lon="-1.4528302"><ele>272.0</ele><time>2026-03-28T10:19:41.755Z</time></trkpt><trkpt lat="38.0441333" lon="-1.4526893"><ele>272.0</ele><time>2026-03-28T10:19:43.754Z</time></trkpt><trkpt lat="38.0441009" lon="-1.4526206"><ele>272.0</ele><time>2026-03-28T10:19:44.755Z</time></trkpt><trkpt lat="38.0440397" lon="-1.4524781"><ele>271.71428571428567</ele><time>2026-03-28T10:19:46.756Z</time></trkpt><trkpt lat="38.0440073" lon="-1.4524043"><ele>271.42857142857144</ele><time>2026-03-28T10:19:47.755Z</time></trkpt><trkpt lat="38.0439737" lon="-1.4523291"><ele>271.1428571428571</ele><time>2026-03-28T10:19:48.755Z</time></trkpt><trkpt lat="38.0439376" lon="-1.4522537"><ele>270.85714285714283</ele><time>2026-03-28T10:19:49.756Z</time></trkpt><trkpt lat="38.0439063" lon="-1.4521757"><ele>270.57142857142856</ele><time>2026-03-28T10:19:50.755Z</time></trkpt><trkpt lat="38.0438694" lon="-1.4521032"><ele>270.2857142857143</ele><time>2026-03-28T10:19:51.756Z</time></trkpt><trkpt lat="38.0438358" lon="-1.4520305"><ele>270.0</ele><time>2026-03-28T10:19:52.756Z</time></trkpt><trkpt lat="38.0438007" lon="-1.4519554"><ele>269.6</ele><time>2026-03-28T10:19:53.755Z</time></trkpt><trkpt lat="38.0437672" lon="-1.4518806"><ele>269.2</ele><time>2026-03-28T10:19:54.756Z</time></trkpt><trkpt lat="38.0437053" lon="-1.4517347"><ele>268.8</ele><time>2026-03-28T10:19:56.755Z</time></trkpt><trkpt lat="38.0436706" lon="-1.4516566"><ele>268.4</ele><time>2026-03-28T10:19:57.756Z</time></trkpt><trkpt lat="38.0436044" lon="-1.4515097"><ele>268.0</ele><time>2026-03-28T10:19:59.757Z</time></trkpt><trkpt lat="38.0435667" lon="-1.4514343"><ele>268.0</ele><time>2026-03-28T10:20:00.756Z</time></trkpt><trkpt lat="38.0435319" lon="-1.4513577"><ele>268.0</ele><time>2026-03-28T10:20:01.755Z</time></trkpt><trkpt lat="38.0434961" lon="-1.4512819"><ele>268.0</ele><time>2026-03-28T10:20:02.755Z</time></trkpt><trkpt lat="38.0434581" lon="-1.4512009"><ele>268.0</ele><time>2026-03-28T10:20:03.755Z</time></trkpt><trkpt lat="38.0434154" lon="-1.4511334"><ele>268.0</ele><time>2026-03-28T10:20:04.756Z</time></trkpt><trkpt lat="38.0433549" lon="-1.4510638"><ele>268.0</ele><time>2026-03-28T10:20:05.755Z</time></trkpt><trkpt lat="38.0433064" lon="-1.4509879"><ele>268.0</ele><time>2026-03-28T10:20:06.755Z</time></trkpt><trkpt lat="38.0432488" lon="-1.4509128"><ele>267.4</ele><time>2026-03-28T10:20:07.755Z</time></trkpt><trkpt lat="38.0431921" lon="-1.450829"><ele>266.8</ele><time>2026-03-28T10:20:08.754Z</time></trkpt><trkpt lat="38.0431789" lon="-1.4507066"><ele>266.2</ele><time>2026-03-28T10:20:10.755Z</time></trkpt><trkpt lat="38.0431486" lon="-1.4506311"><ele>265.6</ele><time>2026-03-28T10:20:11.755Z</time></trkpt><trkpt lat="38.0430839" lon="-1.4505087"><ele>265.0</ele><time>2026-03-28T10:20:13.755Z</time></trkpt><trkpt lat="38.043032" lon="-1.450401"><ele>264.2</ele><time>2026-03-28T10:20:15.755Z</time></trkpt><trkpt lat="38.0429688" lon="-1.4502847"><ele>263.4</ele><time>2026-03-28T10:20:17.757Z</time></trkpt><trkpt lat="38.0429095" lon="-1.4501683"><ele>262.6</ele><time>2026-03-28T10:20:19.756Z</time></trkpt><trkpt lat="38.0428495" lon="-1.4500542"><ele>261.8</ele><time>2026-03-28T10:20:21.755Z</time></trkpt><trkpt lat="38.0428133" lon="-1.4499885"><ele>261.0</ele><time>2026-03-28T10:20:22.755Z</time></trkpt><trkpt lat="38.0428137" lon="-1.4498632"><ele>261.0</ele><time>2026-03-28T10:20:24.755Z</time></trkpt><trkpt lat="38.0428949" lon="-1.4497989"><ele>261.0</ele><time>2026-03-28T10:20:26.755Z</time></trkpt><trkpt lat="38.0429922" lon="-1.449736"><ele>261.0</ele><time>2026-03-28T10:20:28.756Z</time></trkpt><trkpt lat="38.0430741" lon="-1.4496425"><ele>261.0</ele><time>2026-03-28T10:20:30.756Z</time></trkpt><trkpt lat="38.0431369" lon="-1.4495422"><ele>261.0</ele><time>2026-03-28T10:20:32.757Z</time></trkpt><trkpt lat="38.0432008" lon="-1.4494835"><ele>260.8333333333333</ele><time>2026-03-28T10:20:34.755Z</time></trkpt><trkpt lat="38.0432472" lon="-1.4494115"><ele>260.6666666666667</ele><time>2026-03-28T10:20:35.756Z</time></trkpt><trkpt lat="38.0433089" lon="-1.4493174"><ele>260.5</ele><time>2026-03-28T10:20:37.757Z</time></trkpt><trkpt lat="38.0433663" lon="-1.4492333"><ele>260.33333333333337</ele><time>2026-03-28T10:20:39.755Z</time></trkpt><trkpt lat="38.0434247" lon="-1.449157"><ele>260.1666666666667</ele><time>2026-03-28T10:20:41.756Z</time></trkpt><trkpt lat="38.0434868" lon="-1.4490969"><ele>260.0</ele><time>2026-03-28T10:20:43.756Z</time></trkpt><trkpt lat="38.0435508" lon="-1.4490126"><ele>259.6666666666667</ele><time>2026-03-28T10:20:46.755Z</time></trkpt><trkpt lat="38.043595" lon="-1.4489375"><ele>259.33333333333337</ele><time>2026-03-28T10:20:48.756Z</time></trkpt><trkpt lat="38.0436485" lon="-1.4488518"><ele>259.0</ele><time>2026-03-28T10:20:50.754Z</time></trkpt><trkpt lat="38.043707" lon="-1.4487635"><ele>258.6666666666667</ele><time>2026-03-28T10:20:52.755Z</time></trkpt><trkpt lat="38.0437638" lon="-1.448674"><ele>258.3333333333333</ele><time>2026-03-28T10:20:54.755Z</time></trkpt><trkpt lat="38.0438107" lon="-1.4485906"><ele>258.0</ele><time>2026-03-28T10:20:56.755Z</time></trkpt><trkpt lat="38.0438593" lon="-1.4485101"><ele>257.6</ele><time>2026-03-28T10:20:58.755Z</time></trkpt><trkpt lat="38.043906" lon="-1.4484056"><ele>257.20000000000005</ele><time>2026-03-28T10:21:00.755Z</time></trkpt><trkpt lat="38.0439564" lon="-1.4483187"><ele>256.8</ele><time>2026-03-28T10:21:02.755Z</time></trkpt><trkpt lat="38.0439993" lon="-1.4482146"><ele>256.40000000000003</ele><time>2026-03-28T10:21:04.754Z</time></trkpt><trkpt lat="38.0440378" lon="-1.4481114"><ele>256.0</ele><time>2026-03-28T10:21:06.755Z</time></trkpt><trkpt lat="38.0440714" lon="-1.447996"><ele>256.0</ele><time>2026-03-28T10:21:08.757Z</time></trkpt><trkpt lat="38.0441058" lon="-1.447881"><ele>256.0</ele><time>2026-03-28T10:21:10.755Z</time></trkpt><trkpt lat="38.0441342" lon="-1.4477654"><ele>256.0</ele><time>2026-03-28T10:21:12.755Z</time></trkpt><trkpt lat="38.044166" lon="-1.4476718"><ele>256.0</ele><time>2026-03-28T10:21:14.756Z</time></trkpt><trkpt lat="38.0442078" lon="-1.4474362"><ele>255.99999999999997</ele><time>2026-03-28T10:21:18.756Z</time></trkpt><trkpt lat="38.044232" lon="-1.447332"><ele>256.0</ele><time>2026-03-28T10:21:20.754Z</time></trkpt><trkpt lat="38.044248" lon="-1.4472398"><ele>256.0</ele><time>2026-03-28T10:21:22.756Z</time></trkpt><trkpt lat="38.044261" lon="-1.4471441"><ele>256.0</ele><time>2026-03-28T10:21:24.756Z</time></trkpt><trkpt lat="38.0442811" lon="-1.4470378"><ele>255.99999999999997</ele><time>2026-03-28T10:21:26.754Z</time></trkpt><trkpt lat="38.0442838" lon="-1.4469254"><ele>256.0</ele><time>2026-03-28T10:21:28.755Z</time></trkpt><trkpt lat="38.0442827" lon="-1.4468042"><ele>255.60000000000002</ele><time>2026-03-28T10:21:30.755Z</time></trkpt><trkpt lat="38.0442779" lon="-1.4466696"><ele>255.20000000000002</ele><time>2026-03-28T10:21:32.755Z</time></trkpt><trkpt lat="38.0442774" lon="-1.4465531"><ele>254.79999999999998</ele><time>2026-03-28T10:21:34.755Z</time></trkpt><trkpt lat="38.0442738" lon="-1.4464364"><ele>254.39999999999998</ele><time>2026-03-28T10:21:36.756Z</time></trkpt><trkpt lat="38.0442651" lon="-1.446318"><ele>254.0</ele><time>2026-03-28T10:21:38.755Z</time></trkpt><trkpt lat="38.0442658" lon="-1.4461887"><ele>255.0</ele><time>2026-03-28T10:21:40.754Z</time></trkpt><trkpt lat="38.0442707" lon="-1.4460708"><ele>255.99999999999997</ele><time>2026-03-28T10:21:42.755Z</time></trkpt><trkpt lat="38.0442654" lon="-1.4459449"><ele>257.0</ele><time>2026-03-28T10:21:44.755Z</time></trkpt><trkpt lat="38.0442616" lon="-1.4458194"><ele>258.0</ele><time>2026-03-28T10:21:46.755Z</time></trkpt><trkpt lat="38.0442561" lon="-1.4457075"><ele>259.0</ele><time>2026-03-28T10:21:48.755Z</time></trkpt><trkpt lat="38.0442412" lon="-1.4456034"><ele>259.0</ele><time>2026-03-28T10:21:50.755Z</time></trkpt><trkpt lat="38.0442373" lon="-1.4455016"><ele>259.0</ele><time>2026-03-28T10:21:52.757Z</time></trkpt><trkpt lat="38.0442336" lon="-1.4453895"><ele>259.0</ele><time>2026-03-28T10:21:54.756Z</time></trkpt><trkpt lat="38.0442182" lon="-1.4452885"><ele>259.0</ele><time>2026-03-28T10:21:56.756Z</time></trkpt><trkpt lat="38.0442075" lon="-1.445175"><ele>259.0</ele><time>2026-03-28T10:21:58.755Z</time></trkpt><trkpt lat="38.0442016" lon="-1.4450533"><ele>259.0</ele><time>2026-03-28T10:22:00.754Z</time></trkpt><trkpt lat="38.0441896" lon="-1.4449404"><ele>259.8</ele><time>2026-03-28T10:22:02.755Z</time></trkpt><trkpt lat="38.0441808" lon="-1.4448156"><ele>260.59999999999997</ele><time>2026-03-28T10:22:04.755Z</time></trkpt><trkpt lat="38.0441706" lon="-1.4446939"><ele>261.4</ele><time>2026-03-28T10:22:06.754Z</time></trkpt><trkpt lat="38.0441623" lon="-1.444582"><ele>262.2</ele><time>2026-03-28T10:22:08.755Z</time></trkpt><trkpt lat="38.044161" lon="-1.44445"><ele>263.0</ele><time>2026-03-28T10:22:10.756Z</time></trkpt><trkpt lat="38.0441566" lon="-1.4443231"><ele>263.0</ele><time>2026-03-28T10:22:12.755Z</time></trkpt><trkpt lat="38.0441511" lon="-1.4441903"><ele>263.0</ele><time>2026-03-28T10:22:14.754Z</time></trkpt><trkpt lat="38.0441491" lon="-1.4440526"><ele>263.0</ele><time>2026-03-28T10:22:16.755Z</time></trkpt><trkpt lat="38.0441452" lon="-1.4439096"><ele>263.0</ele><time>2026-03-28T10:22:18.755Z</time></trkpt><trkpt lat="38.0441412" lon="-1.4437577"><ele>263.0</ele><time>2026-03-28T10:22:20.755Z</time></trkpt><trkpt lat="38.044135" lon="-1.4436052"><ele>262.4</ele><time>2026-03-28T10:22:22.756Z</time></trkpt><trkpt lat="38.0441251" lon="-1.4434524"><ele>261.8</ele><time>2026-03-28T10:22:24.756Z</time></trkpt><trkpt lat="38.0441182" lon="-1.4433715"><ele>261.2</ele><time>2026-03-28T10:22:25.755Z</time></trkpt><trkpt lat="38.0441117" lon="-1.4432156"><ele>260.6</ele><time>2026-03-28T10:22:27.754Z</time></trkpt><trkpt lat="38.0441072" lon="-1.4431348"><ele>260.0</ele><time>2026-03-28T10:22:28.757Z</time></trkpt><trkpt lat="38.0441041" lon="-1.4430038"><ele>260.4</ele><time>2026-03-28T10:22:30.755Z</time></trkpt><trkpt lat="38.0440948" lon="-1.4428634"><ele>260.8</ele><time>2026-03-28T10:22:32.756Z</time></trkpt><trkpt lat="38.0440846" lon="-1.4427304"><ele>261.2</ele><time>2026-03-28T10:22:34.755Z</time></trkpt><trkpt lat="38.0440873" lon="-1.442599"><ele>261.6</ele><time>2026-03-28T10:22:36.754Z</time></trkpt><trkpt lat="38.0440906" lon="-1.4424665"><ele>262.0</ele><time>2026-03-28T10:22:38.755Z</time></trkpt><trkpt lat="38.0440878" lon="-1.4423374"><ele>262.0</ele><time>2026-03-28T10:22:40.754Z</time></trkpt><trkpt lat="38.0440705" lon="-1.4422028"><ele>262.0</ele><time>2026-03-28T10:22:42.756Z</time></trkpt><trkpt lat="38.0440703" lon="-1.4420662"><ele>262.0</ele><time>2026-03-28T10:22:44.756Z</time></trkpt><trkpt lat="38.0440626" lon="-1.4419195"><ele>262.0</ele><time>2026-03-28T10:22:46.757Z</time></trkpt><trkpt lat="38.0440566" lon="-1.4417771"><ele>262.0</ele><time>2026-03-28T10:22:48.755Z</time></trkpt><trkpt lat="38.0440467" lon="-1.4416348"><ele>260.2</ele><time>2026-03-28T10:22:50.756Z</time></trkpt><trkpt lat="38.0440433" lon="-1.4414862"><ele>258.4</ele><time>2026-03-28T10:22:52.755Z</time></trkpt><trkpt lat="38.0440315" lon="-1.4413565"><ele>256.6</ele><time>2026-03-28T10:22:54.755Z</time></trkpt><trkpt lat="38.0440214" lon="-1.4412173"><ele>254.8</ele><time>2026-03-28T10:22:56.755Z</time></trkpt><trkpt lat="38.0440157" lon="-1.4410803"><ele>253.0</ele><time>2026-03-28T10:22:58.756Z</time></trkpt><trkpt lat="38.0440116" lon="-1.440951"><ele>252.8</ele><time>2026-03-28T10:23:00.756Z</time></trkpt><trkpt lat="38.0440043" lon="-1.4408107"><ele>252.60000000000002</ele><time>2026-03-28T10:23:02.756Z</time></trkpt><trkpt lat="38.0439955" lon="-1.4406699"><ele>252.39999999999998</ele><time>2026-03-28T10:23:04.754Z</time></trkpt><trkpt lat="38.0439928" lon="-1.4405246"><ele>252.2</ele><time>2026-03-28T10:23:06.756Z</time></trkpt><trkpt lat="38.0439898" lon="-1.4403844"><ele>252.0</ele><time>2026-03-28T10:23:08.755Z</time></trkpt><trkpt lat="38.0439777" lon="-1.4402337"><ele>252.6</ele><time>2026-03-28T10:23:10.755Z</time></trkpt><trkpt lat="38.0439777" lon="-1.4400929"><ele>253.2</ele><time>2026-03-28T10:23:12.754Z</time></trkpt><trkpt lat="38.0439751" lon="-1.4399586"><ele>253.8</ele><time>2026-03-28T10:23:14.755Z</time></trkpt><trkpt lat="38.0439661" lon="-1.4398232"><ele>254.4</ele><time>2026-03-28T10:23:16.757Z</time></trkpt><trkpt lat="38.0439532" lon="-1.439679"><ele>255.0</ele><time>2026-03-28T10:23:18.756Z</time></trkpt><trkpt lat="38.0439474" lon="-1.4395396"><ele>255.0</ele><time>2026-03-28T10:23:20.757Z</time></trkpt><trkpt lat="38.0439582" lon="-1.4394206"><ele>255.0</ele><time>2026-03-28T10:23:22.754Z</time></trkpt><trkpt lat="38.0439461" lon="-1.4392826"><ele>255.0</ele><time>2026-03-28T10:23:24.756Z</time></trkpt><trkpt lat="38.0439338" lon="-1.4391286"><ele>255.0</ele><time>2026-03-28T10:23:26.755Z</time></trkpt><trkpt lat="38.0439263" lon="-1.4389859"><ele>255.0</ele><time>2026-03-28T10:23:28.755Z</time></trkpt><trkpt lat="38.0439203" lon="-1.438833"><ele>255.25</ele><time>2026-03-28T10:23:30.755Z</time></trkpt><trkpt lat="38.0439102" lon="-1.438682"><ele>255.5</ele><time>2026-03-28T10:23:32.754Z</time></trkpt><trkpt lat="38.0439025" lon="-1.4385299"><ele>255.75</ele><time>2026-03-28T10:23:34.755Z</time></trkpt><trkpt lat="38.0439059" lon="-1.4383879"><ele>256.0</ele><time>2026-03-28T10:23:36.755Z</time></trkpt><trkpt lat="38.043896" lon="-1.4382439"><ele>256.0</ele><time>2026-03-28T10:23:38.756Z</time></trkpt><trkpt lat="38.0438882" lon="-1.4381026"><ele>256.0</ele><time>2026-03-28T10:23:40.755Z</time></trkpt><trkpt lat="38.0438791" lon="-1.4379571"><ele>256.0</ele><time>2026-03-28T10:23:42.754Z</time></trkpt><trkpt lat="38.0438704" lon="-1.43781"><ele>256.0</ele><time>2026-03-28T10:23:44.755Z</time></trkpt><trkpt lat="38.0438682" lon="-1.4376637"><ele>255.20000000000002</ele><time>2026-03-28T10:23:46.756Z</time></trkpt><trkpt lat="38.0438576" lon="-1.4375219"><ele>254.40000000000003</ele><time>2026-03-28T10:23:48.757Z</time></trkpt><trkpt lat="38.0438446" lon="-1.4374015"><ele>253.6</ele><time>2026-03-28T10:23:50.757Z</time></trkpt><trkpt lat="38.043842" lon="-1.4373207"><ele>252.8</ele><time>2026-03-28T10:23:51.755Z</time></trkpt><trkpt lat="38.0438338" lon="-1.4371731"><ele>252.0</ele><time>2026-03-28T10:23:53.754Z</time></trkpt><trkpt lat="38.0438258" lon="-1.4370338"><ele>251.75</ele><time>2026-03-28T10:23:55.757Z</time></trkpt><trkpt lat="38.0438244" lon="-1.4368838"><ele>251.5</ele><time>2026-03-28T10:23:57.756Z</time></trkpt><trkpt lat="38.0438142" lon="-1.4367334"><ele>251.25</ele><time>2026-03-28T10:23:59.755Z</time></trkpt><trkpt lat="38.0438097" lon="-1.4365797"><ele>251.0</ele><time>2026-03-28T10:24:01.756Z</time></trkpt><trkpt lat="38.0437988" lon="-1.4364311"><ele>251.75</ele><time>2026-03-28T10:24:03.756Z</time></trkpt><trkpt lat="38.0438015" lon="-1.4362707"><ele>252.5</ele><time>2026-03-28T10:24:05.754Z</time></trkpt><trkpt lat="38.0437994" lon="-1.436119"><ele>253.25</ele><time>2026-03-28T10:24:07.755Z</time></trkpt><trkpt lat="38.0437886" lon="-1.4359693"><ele>254.0</ele><time>2026-03-28T10:24:09.754Z</time></trkpt><trkpt lat="38.0437855" lon="-1.4358235"><ele>254.0</ele><time>2026-03-28T10:24:11.756Z</time></trkpt><trkpt lat="38.0437782" lon="-1.4357436"><ele>253.99999999999997</ele><time>2026-03-28T10:24:12.754Z</time></trkpt><trkpt lat="38.04378" lon="-1.4356625"><ele>253.99999999999997</ele><time>2026-03-28T10:24:13.756Z</time></trkpt><trkpt lat="38.0437588" lon="-1.4355244"><ele>254.0</ele><time>2026-03-28T10:24:15.756Z</time></trkpt><trkpt lat="38.0437513" lon="-1.4353753"><ele>254.0</ele><time>2026-03-28T10:24:17.755Z</time></trkpt><trkpt lat="38.0437408" lon="-1.435228"><ele>254.2</ele><time>2026-03-28T10:24:19.756Z</time></trkpt><trkpt lat="38.0437388" lon="-1.4350897"><ele>254.39999999999998</ele><time>2026-03-28T10:24:21.755Z</time></trkpt><trkpt lat="38.0437363" lon="-1.4349589"><ele>254.6</ele><time>2026-03-28T10:24:23.756Z</time></trkpt><trkpt lat="38.0437247" lon="-1.434807"><ele>254.8</ele><time>2026-03-28T10:24:25.756Z</time></trkpt><trkpt lat="38.0437154" lon="-1.4347227"><ele>255.0</ele><time>2026-03-28T10:24:26.755Z</time></trkpt><trkpt lat="38.0437052" lon="-1.4345718"><ele>256.0</ele><time>2026-03-28T10:24:28.756Z</time></trkpt><trkpt lat="38.0436925" lon="-1.4344176"><ele>257.0</ele><time>2026-03-28T10:24:30.756Z</time></trkpt><trkpt lat="38.0436842" lon="-1.4342692"><ele>258.0</ele><time>2026-03-28T10:24:32.757Z</time></trkpt><trkpt lat="38.043695" lon="-1.4341194"><ele>259.0</ele><time>2026-03-28T10:24:34.757Z</time></trkpt><trkpt lat="38.0436912" lon="-1.433966"><ele>259.0</ele><time>2026-03-28T10:24:36.756Z</time></trkpt><trkpt lat="38.0436852" lon="-1.433808"><ele>259.0</ele><time>2026-03-28T10:24:38.755Z</time></trkpt><trkpt lat="38.0436762" lon="-1.4337257"><ele>259.0</ele><time>2026-03-28T10:24:39.756Z</time></trkpt><trkpt lat="38.0436638" lon="-1.4335687"><ele>259.0</ele><time>2026-03-28T10:24:41.754Z</time></trkpt><trkpt lat="38.0436586" lon="-1.4334258"><ele>259.0</ele><time>2026-03-28T10:24:43.755Z</time></trkpt><trkpt lat="38.0436416" lon="-1.4333487"><ele>259.0</ele><time>2026-03-28T10:24:44.755Z</time></trkpt><trkpt lat="38.0436356" lon="-1.4331941"><ele>259.0</ele><time>2026-03-28T10:24:46.755Z</time></trkpt><trkpt lat="38.043621" lon="-1.433055"><ele>259.0</ele><time>2026-03-28T10:24:48.755Z</time></trkpt><trkpt lat="38.0436349" lon="-1.4328974"><ele>259.0</ele><time>2026-03-28T10:24:50.755Z</time></trkpt><trkpt lat="38.0436227" lon="-1.4327514"><ele>259.0</ele><time>2026-03-28T10:24:52.754Z</time></trkpt><trkpt lat="38.0436084" lon="-1.4325881"><ele>259.0</ele><time>2026-03-28T10:24:54.754Z</time></trkpt><trkpt lat="38.043609" lon="-1.4324321"><ele>259.0</ele><time>2026-03-28T10:24:56.758Z</time></trkpt><trkpt lat="38.0436086" lon="-1.4323514"><ele>259.0</ele><time>2026-03-28T10:24:57.755Z</time></trkpt><trkpt lat="38.0436144" lon="-1.4322054"><ele>259.0</ele><time>2026-03-28T10:24:59.756Z</time></trkpt><trkpt lat="38.0436133" lon="-1.4320532"><ele>258.75</ele><time>2026-03-28T10:25:01.756Z</time></trkpt><trkpt lat="38.0436204" lon="-1.431901"><ele>258.5</ele><time>2026-03-28T10:25:03.756Z</time></trkpt><trkpt lat="38.0436309" lon="-1.4317578"><ele>258.25</ele><time>2026-03-28T10:25:05.756Z</time></trkpt><trkpt lat="38.0436477" lon="-1.4316073"><ele>258.0</ele><time>2026-03-28T10:25:07.756Z</time></trkpt><trkpt lat="38.0436825" lon="-1.4314681"><ele>258.0</ele><time>2026-03-28T10:25:09.755Z</time></trkpt><trkpt lat="38.0437009" lon="-1.4313322"><ele>258.0</ele><time>2026-03-28T10:25:11.755Z</time></trkpt><trkpt lat="38.0437277" lon="-1.4311971"><ele>258.0</ele><time>2026-03-28T10:25:13.755Z</time></trkpt><trkpt lat="38.0437622" lon="-1.431051"><ele>258.0</ele><time>2026-03-28T10:25:15.757Z</time></trkpt><trkpt lat="38.0438036" lon="-1.4309058"><ele>258.0</ele><time>2026-03-28T10:25:17.756Z</time></trkpt><trkpt lat="38.0438466" lon="-1.4307592"><ele>258.0</ele><time>2026-03-28T10:25:19.755Z</time></trkpt><trkpt lat="38.043872" lon="-1.4306853"><ele>258.0</ele><time>2026-03-28T10:25:20.757Z</time></trkpt><trkpt lat="38.0439133" lon="-1.4305373"><ele>258.0</ele><time>2026-03-28T10:25:22.756Z</time></trkpt><trkpt lat="38.0439576" lon="-1.4303922"><ele>258.0</ele><time>2026-03-28T10:25:24.756Z</time></trkpt><trkpt lat="38.0440026" lon="-1.4302558"><ele>257.8</ele><time>2026-03-28T10:25:26.756Z</time></trkpt><trkpt lat="38.0440592" lon="-1.4301065"><ele>257.6</ele><time>2026-03-28T10:25:28.756Z</time></trkpt><trkpt lat="38.0441242" lon="-1.4299666"><ele>257.4</ele><time>2026-03-28T10:25:30.757Z</time></trkpt><trkpt lat="38.0441827" lon="-1.4298464"><ele>257.2</ele><time>2026-03-28T10:25:32.755Z</time></trkpt><trkpt lat="38.0442054" lon="-1.4297667"><ele>257.0</ele><time>2026-03-28T10:25:33.757Z</time></trkpt><trkpt lat="38.0442682" lon="-1.4296626"><ele>256.6</ele><time>2026-03-28T10:25:35.755Z</time></trkpt><trkpt lat="38.0443219" lon="-1.4295271"><ele>256.2</ele><time>2026-03-28T10:25:37.756Z</time></trkpt><trkpt lat="38.044366" lon="-1.4294553"><ele>255.8</ele><time>2026-03-28T10:25:38.755Z</time></trkpt><trkpt lat="38.044437" lon="-1.4293275"><ele>255.4</ele><time>2026-03-28T10:25:40.757Z</time></trkpt><trkpt lat="38.0444496" lon="-1.4292461"><ele>255.0</ele><time>2026-03-28T10:25:41.756Z</time></trkpt><trkpt lat="38.0445099" lon="-1.4291103"><ele>255.0</ele><time>2026-03-28T10:25:43.756Z</time></trkpt><trkpt lat="38.0445886" lon="-1.4289289"><ele>255.0</ele><time>2026-03-28T10:25:46.756Z</time></trkpt><trkpt lat="38.0446471" lon="-1.4287969"><ele>255.0</ele><time>2026-03-28T10:25:48.756Z</time></trkpt><trkpt lat="38.0446756" lon="-1.4287222"><ele>255.0</ele><time>2026-03-28T10:25:49.755Z</time></trkpt><trkpt lat="38.0447046" lon="-1.4286509"><ele>255.0</ele><time>2026-03-28T10:25:50.755Z</time></trkpt><trkpt lat="38.0447391" lon="-1.4285684"><ele>254.0</ele><time>2026-03-28T10:25:51.754Z</time></trkpt><trkpt lat="38.044765" lon="-1.4284919"><ele>253.0</ele><time>2026-03-28T10:25:52.756Z</time></trkpt><trkpt lat="38.0447759" lon="-1.4284074"><ele>252.0</ele><time>2026-03-28T10:25:53.755Z</time></trkpt><trkpt lat="38.0448402" lon="-1.4282925"><ele>251.0</ele><time>2026-03-28T10:25:55.755Z</time></trkpt><trkpt lat="38.0448698" lon="-1.4282116"><ele>250.0</ele><time>2026-03-28T10:25:56.757Z</time></trkpt><trkpt lat="38.0449174" lon="-1.4280665"><ele>249.0</ele><time>2026-03-28T10:25:58.756Z</time></trkpt><trkpt lat="38.0449488" lon="-1.4279881"><ele>244.33333333333334</ele><time>2026-03-28T10:25:59.756Z</time></trkpt><trkpt lat="38.0449774" lon="-1.4279137"><ele>239.66666666666669</ele><time>2026-03-28T10:26:00.757Z</time></trkpt><trkpt lat="38.0450047" lon="-1.4278405"><ele>235.0</ele><time>2026-03-28T10:26:01.756Z</time></trkpt><trkpt lat="38.0450329" lon="-1.4277659"><ele>230.33333333333334</ele><time>2026-03-28T10:26:02.756Z</time></trkpt><trkpt lat="38.0450855" lon="-1.4276262"><ele>225.66666666666669</ele><time>2026-03-28T10:26:04.755Z</time></trkpt><trkpt lat="38.045141" lon="-1.4274859"><ele>221.0</ele><time>2026-03-28T10:26:06.756Z</time></trkpt><trkpt lat="38.0451919" lon="-1.4273509"><ele>221.0</ele><time>2026-03-28T10:26:08.757Z</time></trkpt><trkpt lat="38.0452182" lon="-1.4272782"><ele>221.00000000000003</ele><time>2026-03-28T10:26:09.756Z</time></trkpt><trkpt lat="38.0452695" lon="-1.4271509"><ele>221.00000000000003</ele><time>2026-03-28T10:26:11.755Z</time></trkpt><trkpt lat="38.0453178" lon="-1.4270208"><ele>221.0</ele><time>2026-03-28T10:26:13.754Z</time></trkpt><trkpt lat="38.0453709" lon="-1.4268994"><ele>221.0</ele><time>2026-03-28T10:26:15.755Z</time></trkpt><trkpt lat="38.0454132" lon="-1.4267806"><ele>221.20000000000002</ele><time>2026-03-28T10:26:17.754Z</time></trkpt><trkpt lat="38.0454638" lon="-1.4266688"><ele>221.40000000000003</ele><time>2026-03-28T10:26:19.756Z</time></trkpt><trkpt lat="38.0455157" lon="-1.4265304"><ele>221.6</ele><time>2026-03-28T10:26:21.755Z</time></trkpt><trkpt lat="38.0455616" lon="-1.4264053"><ele>221.8</ele><time>2026-03-28T10:26:23.756Z</time></trkpt><trkpt lat="38.0456085" lon="-1.4262876"><ele>222.0</ele><time>2026-03-28T10:26:25.755Z</time></trkpt><trkpt lat="38.0456564" lon="-1.4261761"><ele>222.0</ele><time>2026-03-28T10:26:27.755Z</time></trkpt><trkpt lat="38.0457066" lon="-1.426055"><ele>222.0</ele><time>2026-03-28T10:26:29.756Z</time></trkpt><trkpt lat="38.0457549" lon="-1.4259277"><ele>222.0</ele><time>2026-03-28T10:26:31.757Z</time></trkpt><trkpt lat="38.0458" lon="-1.4258148"><ele>222.0</ele><time>2026-03-28T10:26:33.755Z</time></trkpt><trkpt lat="38.0458454" lon="-1.4256938"><ele>222.0</ele><time>2026-03-28T10:26:35.756Z</time></trkpt><trkpt lat="38.0458907" lon="-1.4255826"><ele>226.8</ele><time>2026-03-28T10:26:37.756Z</time></trkpt><trkpt lat="38.0459253" lon="-1.4254679"><ele>231.6</ele><time>2026-03-28T10:26:39.755Z</time></trkpt><trkpt lat="38.0459593" lon="-1.4253552"><ele>236.40000000000003</ele><time>2026-03-28T10:26:41.757Z</time></trkpt><trkpt lat="38.0459905" lon="-1.4252387"><ele>241.20000000000002</ele><time>2026-03-28T10:26:43.755Z</time></trkpt><trkpt lat="38.0460187" lon="-1.425133"><ele>246.0</ele><time>2026-03-28T10:26:45.756Z</time></trkpt><trkpt lat="38.0460383" lon="-1.4250243"><ele>246.0</ele><time>2026-03-28T10:26:47.756Z</time></trkpt><trkpt lat="38.0460622" lon="-1.4249147"><ele>246.0</ele><time>2026-03-28T10:26:49.756Z</time></trkpt><trkpt lat="38.0460826" lon="-1.424811"><ele>246.0</ele><time>2026-03-28T10:26:51.756Z</time></trkpt><trkpt lat="38.0460601" lon="-1.4246843"><ele>246.0</ele><time>2026-03-28T10:26:53.758Z</time></trkpt><trkpt lat="38.046085" lon="-1.4245707"><ele>246.0</ele><time>2026-03-28T10:26:55.756Z</time></trkpt><trkpt lat="38.0461159" lon="-1.4244804"><ele>246.0</ele><time>2026-03-28T10:26:57.756Z</time></trkpt><trkpt lat="38.0461334" lon="-1.4243823"><ele>246.0</ele><time>2026-03-28T10:26:59.755Z</time></trkpt><trkpt lat="38.0461412" lon="-1.4242669"><ele>246.0</ele><time>2026-03-28T10:27:01.756Z</time></trkpt><trkpt lat="38.0461446" lon="-1.4241425"><ele>246.0</ele><time>2026-03-28T10:27:03.755Z</time></trkpt><trkpt lat="38.046169" lon="-1.42404"><ele>246.0</ele><time>2026-03-28T10:27:05.755Z</time></trkpt><trkpt lat="38.046173" lon="-1.4239301"><ele>246.0</ele><time>2026-03-28T10:27:07.756Z</time></trkpt><trkpt lat="38.0461718" lon="-1.4238183"><ele>246.0</ele><time>2026-03-28T10:27:09.755Z</time></trkpt><trkpt lat="38.0461619" lon="-1.4237082"><ele>246.0</ele><time>2026-03-28T10:27:11.756Z</time></trkpt><trkpt lat="38.0461448" lon="-1.4236044"><ele>246.0</ele><time>2026-03-28T10:27:13.756Z</time></trkpt><trkpt lat="38.0461075" lon="-1.4235091"><ele>246.0</ele><time>2026-03-28T10:27:15.755Z</time></trkpt><trkpt lat="38.0460574" lon="-1.4234314"><ele>246.0</ele><time>2026-03-28T10:27:17.756Z</time></trkpt><trkpt lat="38.0460138" lon="-1.423362"><ele>246.0</ele><time>2026-03-28T10:27:19.756Z</time></trkpt><trkpt lat="38.045952" lon="-1.423266"><ele>246.0</ele><time>2026-03-28T10:27:21.756Z</time></trkpt><trkpt lat="38.0458936" lon="-1.4231704"><ele>246.0</ele><time>2026-03-28T10:27:23.756Z</time></trkpt><trkpt lat="38.0458516" lon="-1.4230765"><ele>246.0</ele><time>2026-03-28T10:27:25.756Z</time></trkpt><trkpt lat="38.0458307" lon="-1.4229684"><ele>246.0</ele><time>2026-03-28T10:27:27.757Z</time></trkpt><trkpt lat="38.0458259" lon="-1.4228514"><ele>246.0</ele><time>2026-03-28T10:27:29.756Z</time></trkpt><trkpt lat="38.0458292" lon="-1.4227453"><ele>246.0</ele><time>2026-03-28T10:27:31.755Z</time></trkpt><trkpt lat="38.0458329" lon="-1.4226405"><ele>246.0</ele><time>2026-03-28T10:27:33.756Z</time></trkpt><trkpt lat="38.0458327" lon="-1.4225253"><ele>246.0</ele><time>2026-03-28T10:27:35.755Z</time></trkpt><trkpt lat="38.0458248" lon="-1.422407"><ele>246.00000000000003</ele><time>2026-03-28T10:27:37.757Z</time></trkpt><trkpt lat="38.0457894" lon="-1.4222829"><ele>246.00000000000003</ele><time>2026-03-28T10:27:39.756Z</time></trkpt><trkpt lat="38.0457527" lon="-1.4221678"><ele>246.0</ele><time>2026-03-28T10:27:41.757Z</time></trkpt><trkpt lat="38.0457213" lon="-1.4220487"><ele>246.0</ele><time>2026-03-28T10:27:43.755Z</time></trkpt><trkpt lat="38.045675" lon="-1.4219259"><ele>244.8</ele><time>2026-03-28T10:27:45.757Z</time></trkpt><trkpt lat="38.0456317" lon="-1.4218078"><ele>243.60000000000002</ele><time>2026-03-28T10:27:47.756Z</time></trkpt><trkpt lat="38.0455874" lon="-1.421692"><ele>242.4</ele><time>2026-03-28T10:27:49.756Z</time></trkpt><trkpt lat="38.0455413" lon="-1.4215689"><ele>241.2</ele><time>2026-03-28T10:27:51.757Z</time></trkpt><trkpt lat="38.0454902" lon="-1.4214494"><ele>240.0</ele><time>2026-03-28T10:27:53.755Z</time></trkpt><trkpt lat="38.0454535" lon="-1.4213296"><ele>240.2</ele><time>2026-03-28T10:27:55.755Z</time></trkpt><trkpt lat="38.0454173" lon="-1.4212109"><ele>240.4</ele><time>2026-03-28T10:27:57.756Z</time></trkpt><trkpt lat="38.0453749" lon="-1.4210861"><ele>240.60000000000002</ele><time>2026-03-28T10:27:59.756Z</time></trkpt><trkpt lat="38.0453294" lon="-1.4209616"><ele>240.8</ele><time>2026-03-28T10:28:01.755Z</time></trkpt><trkpt lat="38.0452809" lon="-1.4208333"><ele>241.0</ele><time>2026-03-28T10:28:03.755Z</time></trkpt><trkpt lat="38.0452319" lon="-1.4207025"><ele>241.0</ele><time>2026-03-28T10:28:05.755Z</time></trkpt><trkpt lat="38.045187" lon="-1.4205759"><ele>241.00000000000003</ele><time>2026-03-28T10:28:07.756Z</time></trkpt><trkpt lat="38.0451431" lon="-1.4204547"><ele>241.00000000000003</ele><time>2026-03-28T10:28:09.755Z</time></trkpt><trkpt lat="38.0450966" lon="-1.4203286"><ele>241.0</ele><time>2026-03-28T10:28:11.755Z</time></trkpt><trkpt lat="38.0450474" lon="-1.4201991"><ele>241.0</ele><time>2026-03-28T10:28:13.755Z</time></trkpt><trkpt lat="38.044996" lon="-1.4200658"><ele>240.60000000000002</ele><time>2026-03-28T10:28:15.755Z</time></trkpt><trkpt lat="38.0449568" lon="-1.4199957"><ele>240.20000000000002</ele><time>2026-03-28T10:28:16.756Z</time></trkpt><trkpt lat="38.044915" lon="-1.4198672"><ele>239.79999999999998</ele><time>2026-03-28T10:28:18.755Z</time></trkpt><trkpt lat="38.0448724" lon="-1.4197318"><ele>239.39999999999998</ele><time>2026-03-28T10:28:20.755Z</time></trkpt><trkpt lat="38.0448256" lon="-1.4195996"><ele>239.0</ele><time>2026-03-28T10:28:22.757Z</time></trkpt><trkpt lat="38.0447739" lon="-1.4194645"><ele>238.5</ele><time>2026-03-28T10:28:24.756Z</time></trkpt><trkpt lat="38.0447241" lon="-1.419332"><ele>238.0</ele><time>2026-03-28T10:28:26.756Z</time></trkpt><trkpt lat="38.0446751" lon="-1.4191959"><ele>237.5</ele><time>2026-03-28T10:28:28.755Z</time></trkpt><trkpt lat="38.0446239" lon="-1.4190512"><ele>237.0</ele><time>2026-03-28T10:28:30.756Z</time></trkpt><trkpt lat="38.0445692" lon="-1.4189112"><ele>236.25</ele><time>2026-03-28T10:28:32.756Z</time></trkpt><trkpt lat="38.0445191" lon="-1.4187656"><ele>235.5</ele><time>2026-03-28T10:28:34.756Z</time></trkpt><trkpt lat="38.0444692" lon="-1.4186178"><ele>234.75</ele><time>2026-03-28T10:28:36.756Z</time></trkpt><trkpt lat="38.0444175" lon="-1.4184717"><ele>234.0</ele><time>2026-03-28T10:28:38.755Z</time></trkpt><trkpt lat="38.0443699" lon="-1.4183278"><ele>234.0</ele><time>2026-03-28T10:28:40.756Z</time></trkpt><trkpt lat="38.0443197" lon="-1.4181821"><ele>234.0</ele><time>2026-03-28T10:28:42.756Z</time></trkpt><trkpt lat="38.0442672" lon="-1.4180442"><ele>234.0</ele><time>2026-03-28T10:28:44.755Z</time></trkpt><trkpt lat="38.0442173" lon="-1.4179056"><ele>234.0</ele><time>2026-03-28T10:28:46.757Z</time></trkpt><trkpt lat="38.0441784" lon="-1.4177689"><ele>233.79999999999998</ele><time>2026-03-28T10:28:48.757Z</time></trkpt><trkpt lat="38.044141" lon="-1.4176366"><ele>233.59999999999997</ele><time>2026-03-28T10:28:50.756Z</time></trkpt><trkpt lat="38.0440933" lon="-1.4175059"><ele>233.4</ele><time>2026-03-28T10:28:52.755Z</time></trkpt><trkpt lat="38.0440383" lon="-1.4173709"><ele>233.2</ele><time>2026-03-28T10:28:54.756Z</time></trkpt><trkpt lat="38.0440112" lon="-1.4172965"><ele>233.0</ele><time>2026-03-28T10:28:55.756Z</time></trkpt><trkpt lat="38.0439554" lon="-1.4171651"><ele>232.60000000000002</ele><time>2026-03-28T10:28:57.756Z</time></trkpt><trkpt lat="38.0438982" lon="-1.4170365"><ele>232.20000000000002</ele><time>2026-03-28T10:28:59.756Z</time></trkpt><trkpt lat="38.0438716" lon="-1.4169628"><ele>231.8</ele><time>2026-03-28T10:29:00.756Z</time></trkpt><trkpt lat="38.0438233" lon="-1.4168192"><ele>231.4</ele><time>2026-03-28T10:29:02.756Z</time></trkpt><trkpt lat="38.043795" lon="-1.4167365"><ele>231.0</ele><time>2026-03-28T10:29:03.756Z</time></trkpt><trkpt lat="38.0437461" lon="-1.4165881"><ele>231.0</ele><time>2026-03-28T10:29:05.757Z</time></trkpt><trkpt lat="38.0437204" lon="-1.4165071"><ele>231.0</ele><time>2026-03-28T10:29:06.755Z</time></trkpt><trkpt lat="38.0437016" lon="-1.4164251"><ele>231.0</ele><time>2026-03-28T10:29:07.755Z</time></trkpt><trkpt lat="38.0436794" lon="-1.4162641"><ele>231.0</ele><time>2026-03-28T10:29:09.756Z</time></trkpt><trkpt lat="38.0436571" lon="-1.4161869"><ele>231.0</ele><time>2026-03-28T10:29:10.757Z</time></trkpt><trkpt lat="38.0436366" lon="-1.4161061"><ele>231.0</ele><time>2026-03-28T10:29:11.756Z</time></trkpt><trkpt lat="38.0436153" lon="-1.4160258"><ele>231.4</ele><time>2026-03-28T10:29:12.758Z</time></trkpt><trkpt lat="38.0435936" lon="-1.4159483"><ele>231.8</ele><time>2026-03-28T10:29:13.755Z</time></trkpt><trkpt lat="38.0435546" lon="-1.4158005"><ele>232.20000000000002</ele><time>2026-03-28T10:29:15.755Z</time></trkpt><trkpt lat="38.0435191" lon="-1.4156548"><ele>232.60000000000002</ele><time>2026-03-28T10:29:17.755Z</time></trkpt><trkpt lat="38.0434966" lon="-1.4155096"><ele>233.0</ele><time>2026-03-28T10:29:19.757Z</time></trkpt><trkpt lat="38.0434726" lon="-1.415368"><ele>233.60000000000002</ele><time>2026-03-28T10:29:21.757Z</time></trkpt><trkpt lat="38.0434454" lon="-1.4152314"><ele>234.20000000000002</ele><time>2026-03-28T10:29:23.755Z</time></trkpt><trkpt lat="38.0434178" lon="-1.4150993"><ele>234.8</ele><time>2026-03-28T10:29:25.757Z</time></trkpt><trkpt lat="38.0433846" lon="-1.4149665"><ele>235.4</ele><time>2026-03-28T10:29:27.755Z</time></trkpt><trkpt lat="38.0433471" lon="-1.4148245"><ele>236.0</ele><time>2026-03-28T10:29:29.756Z</time></trkpt><trkpt lat="38.043324" lon="-1.4146881"><ele>235.4</ele><time>2026-03-28T10:29:31.755Z</time></trkpt><trkpt lat="38.0433004" lon="-1.4145605"><ele>234.8</ele><time>2026-03-28T10:29:33.755Z</time></trkpt><trkpt lat="38.0432654" lon="-1.4144246"><ele>234.20000000000002</ele><time>2026-03-28T10:29:35.756Z</time></trkpt><trkpt lat="38.0432323" lon="-1.4142887"><ele>233.60000000000002</ele><time>2026-03-28T10:29:37.755Z</time></trkpt><trkpt lat="38.0432007" lon="-1.4141572"><ele>233.0</ele><time>2026-03-28T10:29:39.756Z</time></trkpt><trkpt lat="38.043171" lon="-1.4140245"><ele>233.0</ele><time>2026-03-28T10:29:41.757Z</time></trkpt><trkpt lat="38.0431357" lon="-1.4138828"><ele>233.0</ele><time>2026-03-28T10:29:43.756Z</time></trkpt><trkpt lat="38.0431013" lon="-1.413745"><ele>233.0</ele><time>2026-03-28T10:29:45.756Z</time></trkpt><trkpt lat="38.0430689" lon="-1.4136109"><ele>233.0</ele><time>2026-03-28T10:29:47.755Z</time></trkpt><trkpt lat="38.0430369" lon="-1.4134735"><ele>230.4</ele><time>2026-03-28T10:29:49.756Z</time></trkpt><trkpt lat="38.0430097" lon="-1.4133399"><ele>227.8</ele><time>2026-03-28T10:29:51.755Z</time></trkpt><trkpt lat="38.0429822" lon="-1.4132157"><ele>225.2</ele><time>2026-03-28T10:29:53.756Z</time></trkpt><trkpt lat="38.0429526" lon="-1.4130902"><ele>222.6</ele><time>2026-03-28T10:29:55.756Z</time></trkpt><trkpt lat="38.0429241" lon="-1.4129724"><ele>220.0</ele><time>2026-03-28T10:29:57.756Z</time></trkpt><trkpt lat="38.0428899" lon="-1.4128486"><ele>218.2</ele><time>2026-03-28T10:29:59.756Z</time></trkpt><trkpt lat="38.0428652" lon="-1.4127343"><ele>216.4</ele><time>2026-03-28T10:30:01.755Z</time></trkpt><trkpt lat="38.0428371" lon="-1.412609"><ele>214.60000000000002</ele><time>2026-03-28T10:30:03.756Z</time></trkpt><trkpt lat="38.0428041" lon="-1.4124836"><ele>212.8</ele><time>2026-03-28T10:30:05.756Z</time></trkpt><trkpt lat="38.0427702" lon="-1.412358"><ele>211.0</ele><time>2026-03-28T10:30:07.756Z</time></trkpt><trkpt lat="38.0427445" lon="-1.4122362"><ele>213.20000000000002</ele><time>2026-03-28T10:30:09.755Z</time></trkpt><trkpt lat="38.0427143" lon="-1.4121071"><ele>215.4</ele><time>2026-03-28T10:30:11.755Z</time></trkpt><trkpt lat="38.0426783" lon="-1.4119767"><ele>217.6</ele><time>2026-03-28T10:30:13.755Z</time></trkpt><trkpt lat="38.0426458" lon="-1.4118406"><ele>219.8</ele><time>2026-03-28T10:30:15.756Z</time></trkpt><trkpt lat="38.0426069" lon="-1.4117071"><ele>222.0</ele><time>2026-03-28T10:30:17.755Z</time></trkpt><trkpt lat="38.0425649" lon="-1.4115753"><ele>222.0</ele><time>2026-03-28T10:30:19.757Z</time></trkpt><trkpt lat="38.0425175" lon="-1.4114475"><ele>222.0</ele><time>2026-03-28T10:30:21.756Z</time></trkpt><trkpt lat="38.0424715" lon="-1.4113256"><ele>222.0</ele><time>2026-03-28T10:30:23.755Z</time></trkpt><trkpt lat="38.0424263" lon="-1.4112075"><ele>222.0</ele><time>2026-03-28T10:30:25.756Z</time></trkpt><trkpt lat="38.0423733" lon="-1.4110959"><ele>222.0</ele><time>2026-03-28T10:30:27.757Z</time></trkpt><trkpt lat="38.0423152" lon="-1.4109967"><ele>223.5</ele><time>2026-03-28T10:30:29.757Z</time></trkpt><trkpt lat="38.0422628" lon="-1.410902"><ele>225.0</ele><time>2026-03-28T10:30:31.756Z</time></trkpt><trkpt lat="38.0422078" lon="-1.4108114"><ele>226.5</ele><time>2026-03-28T10:30:33.757Z</time></trkpt><trkpt lat="38.0421569" lon="-1.410721"><ele>228.0</ele><time>2026-03-28T10:30:35.757Z</time></trkpt><trkpt lat="38.0420978" lon="-1.4106416"><ele>229.5</ele><time>2026-03-28T10:30:37.756Z</time></trkpt><trkpt lat="38.0420388" lon="-1.4105654"><ele>231.0</ele><time>2026-03-28T10:30:39.756Z</time></trkpt><trkpt lat="38.0419892" lon="-1.4104918"><ele>232.0</ele><time>2026-03-28T10:30:41.757Z</time></trkpt><trkpt lat="38.0419311" lon="-1.4104251"><ele>233.0</ele><time>2026-03-28T10:30:43.758Z</time></trkpt><trkpt lat="38.0418899" lon="-1.4103526"><ele>234.0</ele><time>2026-03-28T10:30:45.756Z</time></trkpt><trkpt lat="38.0418425" lon="-1.4102768"><ele>235.0</ele><time>2026-03-28T10:30:47.757Z</time></trkpt><trkpt lat="38.041769" lon="-1.4102106"><ele>236.0</ele><time>2026-03-28T10:30:49.757Z</time></trkpt><trkpt lat="38.0416697" lon="-1.4101519"><ele>237.0</ele><time>2026-03-28T10:30:51.756Z</time></trkpt><trkpt lat="38.0415714" lon="-1.4100966"><ele>237.0</ele><time>2026-03-28T10:30:53.757Z</time></trkpt><trkpt lat="38.0414927" lon="-1.4100301"><ele>237.0</ele><time>2026-03-28T10:30:55.757Z</time></trkpt><trkpt lat="38.0414188" lon="-1.4099741"><ele>237.0</ele><time>2026-03-28T10:30:57.757Z</time></trkpt><trkpt lat="38.0413474" lon="-1.4099199"><ele>237.0</ele><time>2026-03-28T10:30:59.757Z</time></trkpt><trkpt lat="38.0412899" lon="-1.4098788"><ele>237.0</ele><time>2026-03-28T10:31:01.757Z</time></trkpt><trkpt lat="38.0412304" lon="-1.4098519"><ele>237.0</ele><time>2026-03-28T10:31:03.757Z</time></trkpt><trkpt lat="38.0411591" lon="-1.409832"><ele>236.99999999999997</ele><time>2026-03-28T10:31:07.756Z</time></trkpt><trkpt lat="38.0412239" lon="-1.4098231"><ele>237.0</ele><time>2026-03-28T10:31:30.757Z</time></trkpt><trkpt lat="38.0411558" lon="-1.409759"><ele>236.99999999999997</ele><time>2026-03-28T10:31:34.756Z</time></trkpt><trkpt lat="38.0410849" lon="-1.4097187"><ele>236.99999999999997</ele><time>2026-03-28T10:31:39.756Z</time></trkpt><trkpt lat="38.0410359" lon="-1.4096594"><ele>237.0</ele><time>2026-03-28T10:32:22.756Z</time></trkpt><trkpt lat="38.0409773" lon="-1.4096138"><ele>236.99999999999997</ele><time>2026-03-28T10:32:26.758Z</time></trkpt><trkpt lat="38.0409129" lon="-1.4095595"><ele>236.99999999999997</ele><time>2026-03-28T10:32:28.756Z</time></trkpt><trkpt lat="38.0408502" lon="-1.4095092"><ele>237.33333333333334</ele><time>2026-03-28T10:32:30.758Z</time></trkpt><trkpt lat="38.0407839" lon="-1.4094481"><ele>237.66666666666669</ele><time>2026-03-28T10:32:32.757Z</time></trkpt><trkpt lat="38.0407195" lon="-1.4093842"><ele>238.0</ele><time>2026-03-28T10:32:34.758Z</time></trkpt><trkpt lat="38.0406554" lon="-1.4093145"><ele>238.33333333333334</ele><time>2026-03-28T10:32:36.758Z</time></trkpt><trkpt lat="38.0405754" lon="-1.4092578"><ele>238.66666666666669</ele><time>2026-03-28T10:32:38.757Z</time></trkpt><trkpt lat="38.0404909" lon="-1.4092026"><ele>239.0</ele><time>2026-03-28T10:32:40.758Z</time></trkpt><trkpt lat="38.0404146" lon="-1.4091458"><ele>239.0</ele><time>2026-03-28T10:32:42.758Z</time></trkpt><trkpt lat="38.0403358" lon="-1.4090827"><ele>238.99999999999997</ele><time>2026-03-28T10:32:44.757Z</time></trkpt><trkpt lat="38.0402599" lon="-1.4090051"><ele>238.99999999999997</ele><time>2026-03-28T10:32:46.757Z</time></trkpt><trkpt lat="38.040182" lon="-1.4089465"><ele>239.0</ele><time>2026-03-28T10:32:48.758Z</time></trkpt><trkpt lat="38.0401002" lon="-1.4088831"><ele>239.0</ele><time>2026-03-28T10:32:50.757Z</time></trkpt><trkpt lat="38.0400253" lon="-1.4088153"><ele>237.33333333333334</ele><time>2026-03-28T10:32:52.756Z</time></trkpt><trkpt lat="38.0399532" lon="-1.4087532"><ele>235.66666666666669</ele><time>2026-03-28T10:32:54.756Z</time></trkpt><trkpt lat="38.0398819" lon="-1.4086918"><ele>234.0</ele><time>2026-03-28T10:32:56.756Z</time></trkpt><trkpt lat="38.0398066" lon="-1.4086254"><ele>232.33333333333331</ele><time>2026-03-28T10:32:58.757Z</time></trkpt><trkpt lat="38.0397375" lon="-1.4085608"><ele>230.66666666666666</ele><time>2026-03-28T10:33:00.757Z</time></trkpt><trkpt lat="38.0396761" lon="-1.4084963"><ele>229.0</ele><time>2026-03-28T10:33:02.757Z</time></trkpt><trkpt lat="38.0396035" lon="-1.4084261"><ele>229.0</ele><time>2026-03-28T10:33:04.758Z</time></trkpt><trkpt lat="38.0395237" lon="-1.4083622"><ele>228.99999999999997</ele><time>2026-03-28T10:33:06.757Z</time></trkpt><trkpt lat="38.0394406" lon="-1.4082936"><ele>228.99999999999997</ele><time>2026-03-28T10:33:08.757Z</time></trkpt><trkpt lat="38.0393315" lon="-1.4082272"><ele>229.0</ele><time>2026-03-28T10:33:10.757Z</time></trkpt><trkpt lat="38.0392654" lon="-1.408148"><ele>229.0</ele><time>2026-03-28T10:33:12.756Z</time></trkpt><trkpt lat="38.0391835" lon="-1.4080784"><ele>228.6</ele><time>2026-03-28T10:33:14.757Z</time></trkpt><trkpt lat="38.0390999" lon="-1.4080198"><ele>228.2</ele><time>2026-03-28T10:33:16.758Z</time></trkpt><trkpt lat="38.0390207" lon="-1.4079392"><ele>227.79999999999998</ele><time>2026-03-28T10:33:18.756Z</time></trkpt><trkpt lat="38.0389557" lon="-1.4078597"><ele>227.39999999999998</ele><time>2026-03-28T10:33:20.757Z</time></trkpt><trkpt lat="38.0388697" lon="-1.4077855"><ele>227.0</ele><time>2026-03-28T10:33:22.756Z</time></trkpt><trkpt lat="38.0387823" lon="-1.4077154"><ele>227.0</ele><time>2026-03-28T10:33:24.757Z</time></trkpt><trkpt lat="38.0386946" lon="-1.4076393"><ele>227.0</ele><time>2026-03-28T10:33:26.757Z</time></trkpt><trkpt lat="38.0386114" lon="-1.4075587"><ele>227.0</ele><time>2026-03-28T10:33:28.756Z</time></trkpt><trkpt lat="38.0385178" lon="-1.4074833"><ele>227.0</ele><time>2026-03-28T10:33:30.756Z</time></trkpt><trkpt lat="38.0383883" lon="-1.4073769"><ele>227.0</ele><time>2026-03-28T10:33:33.757Z</time></trkpt><trkpt lat="38.0382945" lon="-1.4072982"><ele>227.0</ele><time>2026-03-28T10:33:35.756Z</time></trkpt><trkpt lat="38.0382035" lon="-1.4072217"><ele>227.0</ele><time>2026-03-28T10:33:37.756Z</time></trkpt><trkpt lat="38.0381161" lon="-1.4071432"><ele>227.0</ele><time>2026-03-28T10:33:39.756Z</time></trkpt><trkpt lat="38.0380227" lon="-1.4070581"><ele>227.0</ele><time>2026-03-28T10:33:41.756Z</time></trkpt><trkpt lat="38.0379296" lon="-1.4069747"><ele>227.0</ele><time>2026-03-28T10:33:43.755Z</time></trkpt><trkpt lat="38.0378412" lon="-1.4068959"><ele>227.0</ele><time>2026-03-28T10:33:45.755Z</time></trkpt><trkpt lat="38.0377525" lon="-1.4068062"><ele>227.0</ele><time>2026-03-28T10:33:47.756Z</time></trkpt><trkpt lat="38.0376777" lon="-1.4067007"><ele>227.0</ele><time>2026-03-28T10:33:49.756Z</time></trkpt><trkpt lat="38.0375924" lon="-1.4065986"><ele>227.0</ele><time>2026-03-28T10:33:51.757Z</time></trkpt><trkpt lat="38.0375245" lon="-1.4064945"><ele>227.0</ele><time>2026-03-28T10:33:53.756Z</time></trkpt><trkpt lat="38.0374436" lon="-1.4064012"><ele>227.0</ele><time>2026-03-28T10:33:55.757Z</time></trkpt><trkpt lat="38.0373659" lon="-1.4063"><ele>227.0</ele><time>2026-03-28T10:33:57.757Z</time></trkpt><trkpt lat="38.0372868" lon="-1.4061985"><ele>227.0</ele><time>2026-03-28T10:33:59.755Z</time></trkpt><trkpt lat="38.037219" lon="-1.4060822"><ele>227.25</ele><time>2026-03-28T10:34:01.756Z</time></trkpt><trkpt lat="38.0371439" lon="-1.4059734"><ele>227.5</ele><time>2026-03-28T10:34:03.756Z</time></trkpt><trkpt lat="38.0370752" lon="-1.4058537"><ele>227.75</ele><time>2026-03-28T10:34:05.757Z</time></trkpt><trkpt lat="38.0370076" lon="-1.4057363"><ele>228.0</ele><time>2026-03-28T10:34:07.756Z</time></trkpt><trkpt lat="38.0369412" lon="-1.4056229"><ele>228.0</ele><time>2026-03-28T10:34:09.758Z</time></trkpt><trkpt lat="38.036874" lon="-1.4055092"><ele>228.0</ele><time>2026-03-28T10:34:11.756Z</time></trkpt><trkpt lat="38.0368115" lon="-1.4053908"><ele>228.0</ele><time>2026-03-28T10:34:13.756Z</time></trkpt><trkpt lat="38.0367543" lon="-1.4052743"><ele>228.0</ele><time>2026-03-28T10:34:15.757Z</time></trkpt><trkpt lat="38.0366848" lon="-1.4051684"><ele>228.0</ele><time>2026-03-28T10:34:17.756Z</time></trkpt><trkpt lat="38.0366228" lon="-1.4050678"><ele>228.0</ele><time>2026-03-28T10:34:19.757Z</time></trkpt><trkpt lat="38.0365519" lon="-1.4049589"><ele>228.0</ele><time>2026-03-28T10:34:21.756Z</time></trkpt><trkpt lat="38.0364788" lon="-1.4048475"><ele>228.0</ele><time>2026-03-28T10:34:23.755Z</time></trkpt><trkpt lat="38.0364169" lon="-1.4047284"><ele>228.0</ele><time>2026-03-28T10:34:25.757Z</time></trkpt><trkpt lat="38.0363447" lon="-1.4046209"><ele>228.0</ele><time>2026-03-28T10:34:27.758Z</time></trkpt><trkpt lat="38.0362873" lon="-1.4045073"><ele>228.0</ele><time>2026-03-28T10:34:29.758Z</time></trkpt><trkpt lat="38.036224" lon="-1.4043941"><ele>228.0</ele><time>2026-03-28T10:34:31.755Z</time></trkpt><trkpt lat="38.0361637" lon="-1.4042888"><ele>228.0</ele><time>2026-03-28T10:34:33.755Z</time></trkpt><trkpt lat="38.036099" lon="-1.4041816"><ele>228.0</ele><time>2026-03-28T10:34:35.756Z</time></trkpt><trkpt lat="38.0360273" lon="-1.4040752"><ele>228.0</ele><time>2026-03-28T10:34:37.756Z</time></trkpt><trkpt lat="38.0359606" lon="-1.4039681"><ele>228.0</ele><time>2026-03-28T10:34:39.757Z</time></trkpt><trkpt lat="38.0358975" lon="-1.403855"><ele>228.0</ele><time>2026-03-28T10:34:41.755Z</time></trkpt><trkpt lat="38.0358349" lon="-1.4037563"><ele>228.0</ele><time>2026-03-28T10:34:43.757Z</time></trkpt><trkpt lat="38.0357699" lon="-1.4036492"><ele>228.0</ele><time>2026-03-28T10:34:45.757Z</time></trkpt><trkpt lat="38.0357109" lon="-1.4035268"><ele>228.0</ele><time>2026-03-28T10:34:47.757Z</time></trkpt><trkpt lat="38.0356588" lon="-1.403408"><ele>227.0</ele><time>2026-03-28T10:34:49.756Z</time></trkpt><trkpt lat="38.035603" lon="-1.4032939"><ele>226.0</ele><time>2026-03-28T10:34:51.755Z</time></trkpt><trkpt lat="38.0355405" lon="-1.4031888"><ele>225.0</ele><time>2026-03-28T10:34:53.756Z</time></trkpt><trkpt lat="38.0354902" lon="-1.4030732"><ele>224.0</ele><time>2026-03-28T10:34:55.755Z</time></trkpt><trkpt lat="38.0354398" lon="-1.4029685"><ele>223.0</ele><time>2026-03-28T10:34:57.756Z</time></trkpt><trkpt lat="38.0353981" lon="-1.4028546"><ele>225.4</ele><time>2026-03-28T10:34:59.756Z</time></trkpt><trkpt lat="38.0353488" lon="-1.4027556"><ele>227.8</ele><time>2026-03-28T10:35:01.757Z</time></trkpt><trkpt lat="38.0353102" lon="-1.4026415"><ele>230.2</ele><time>2026-03-28T10:35:03.756Z</time></trkpt><trkpt lat="38.0352684" lon="-1.4025186"><ele>232.6</ele><time>2026-03-28T10:35:05.756Z</time></trkpt><trkpt lat="38.035227" lon="-1.4024039"><ele>235.0</ele><time>2026-03-28T10:35:07.756Z</time></trkpt><trkpt lat="38.0351988" lon="-1.4022748"><ele>234.0</ele><time>2026-03-28T10:35:09.757Z</time></trkpt><trkpt lat="38.0351633" lon="-1.4021364"><ele>233.0</ele><time>2026-03-28T10:35:11.757Z</time></trkpt><trkpt lat="38.0351302" lon="-1.4019997"><ele>232.0</ele><time>2026-03-28T10:35:13.757Z</time></trkpt><trkpt lat="38.0351041" lon="-1.4018636"><ele>231.0</ele><time>2026-03-28T10:35:15.756Z</time></trkpt><trkpt lat="38.0350684" lon="-1.4017218"><ele>231.0</ele><time>2026-03-28T10:35:17.755Z</time></trkpt><trkpt lat="38.0350435" lon="-1.4015896"><ele>231.0</ele><time>2026-03-28T10:35:19.757Z</time></trkpt><trkpt lat="38.0350113" lon="-1.4014508"><ele>231.0</ele><time>2026-03-28T10:35:21.757Z</time></trkpt><trkpt lat="38.0349919" lon="-1.4013674"><ele>231.0</ele><time>2026-03-28T10:35:22.756Z</time></trkpt><trkpt lat="38.03498" lon="-1.4012796"><ele>231.0</ele><time>2026-03-28T10:35:23.756Z</time></trkpt><trkpt lat="38.0349638" lon="-1.4011929"><ele>231.0</ele><time>2026-03-28T10:35:24.758Z</time></trkpt><trkpt lat="38.034946" lon="-1.4011113"><ele>227.5</ele><time>2026-03-28T10:35:25.756Z</time></trkpt><trkpt lat="38.0349259" lon="-1.4010239"><ele>224.0</ele><time>2026-03-28T10:35:26.756Z</time></trkpt><trkpt lat="38.0349076" lon="-1.4009426"><ele>220.5</ele><time>2026-03-28T10:35:27.756Z</time></trkpt><trkpt lat="38.0348926" lon="-1.4008554"><ele>217.0</ele><time>2026-03-28T10:35:28.756Z</time></trkpt><trkpt lat="38.0348734" lon="-1.4007676"><ele>213.5</ele><time>2026-03-28T10:35:29.755Z</time></trkpt><trkpt lat="38.0348582" lon="-1.4006827"><ele>210.0</ele><time>2026-03-28T10:35:30.755Z</time></trkpt><trkpt lat="38.0348301" lon="-1.4005272"><ele>209.8</ele><time>2026-03-28T10:35:32.757Z</time></trkpt><trkpt lat="38.0347901" lon="-1.4003789"><ele>209.6</ele><time>2026-03-28T10:35:34.756Z</time></trkpt><trkpt lat="38.0347736" lon="-1.4003015"><ele>209.39999999999998</ele><time>2026-03-28T10:35:35.755Z</time></trkpt><trkpt lat="38.0347385" lon="-1.4001484"><ele>209.2</ele><time>2026-03-28T10:35:37.756Z</time></trkpt><trkpt lat="38.0347244" lon="-1.4000666"><ele>209.0</ele><time>2026-03-28T10:35:38.756Z</time></trkpt><trkpt lat="38.0346975" lon="-1.3999127"><ele>209.00000000000003</ele><time>2026-03-28T10:35:40.757Z</time></trkpt><trkpt lat="38.0346762" lon="-1.3998344"><ele>209.0</ele><time>2026-03-28T10:35:41.756Z</time></trkpt><trkpt lat="38.034661" lon="-1.3997506"><ele>209.0</ele><time>2026-03-28T10:35:42.756Z</time></trkpt><trkpt lat="38.0346411" lon="-1.3996722"><ele>209.0</ele><time>2026-03-28T10:35:43.757Z</time></trkpt><trkpt lat="38.034606" lon="-1.3995257"><ele>209.00000000000003</ele><time>2026-03-28T10:35:45.756Z</time></trkpt><trkpt lat="38.034567" lon="-1.3993819"><ele>209.0</ele><time>2026-03-28T10:35:47.756Z</time></trkpt><trkpt lat="38.0345338" lon="-1.3992269"><ele>209.75</ele><time>2026-03-28T10:35:49.756Z</time></trkpt><trkpt lat="38.0345009" lon="-1.3990795"><ele>210.5</ele><time>2026-03-28T10:35:51.757Z</time></trkpt><trkpt lat="38.0344689" lon="-1.3989299"><ele>211.25</ele><time>2026-03-28T10:35:53.758Z</time></trkpt><trkpt lat="38.0344349" lon="-1.3987822"><ele>212.0</ele><time>2026-03-28T10:35:55.757Z</time></trkpt><trkpt lat="38.0344041" lon="-1.3986277"><ele>213.6</ele><time>2026-03-28T10:35:57.757Z</time></trkpt><trkpt lat="38.0343646" lon="-1.3984958"><ele>215.2</ele><time>2026-03-28T10:35:59.756Z</time></trkpt><trkpt lat="38.034339" lon="-1.398387"><ele>216.8</ele><time>2026-03-28T10:36:01.756Z</time></trkpt><trkpt lat="38.0343173" lon="-1.3983115"><ele>218.4</ele><time>2026-03-28T10:36:03.755Z</time></trkpt><trkpt lat="38.0343" lon="-1.3981532"><ele>220.0</ele><time>2026-03-28T10:39:21.756Z</time></trkpt><trkpt lat="38.034272" lon="-1.3980623"><ele>220.49999999999997</ele><time>2026-03-28T10:39:24.755Z</time></trkpt><trkpt lat="38.0342438" lon="-1.3979528"><ele>221.0</ele><time>2026-03-28T10:39:27.756Z</time></trkpt><trkpt lat="38.0342229" lon="-1.3978682"><ele>221.5</ele><time>2026-03-28T10:39:29.757Z</time></trkpt><trkpt lat="38.0341982" lon="-1.3977684"><ele>222.0</ele><time>2026-03-28T10:39:31.755Z</time></trkpt><trkpt lat="38.0341769" lon="-1.3976568"><ele>222.49999999999997</ele><time>2026-03-28T10:39:34.757Z</time></trkpt><trkpt lat="38.0341577" lon="-1.3975766"><ele>223.0</ele><time>2026-03-28T10:39:36.756Z</time></trkpt><trkpt lat="38.0341347" lon="-1.3974857"><ele>220.4</ele><time>2026-03-28T10:39:38.757Z</time></trkpt><trkpt lat="38.0341114" lon="-1.3973812"><ele>217.8</ele><time>2026-03-28T10:39:40.755Z</time></trkpt><trkpt lat="38.0340896" lon="-1.3972717"><ele>215.2</ele><time>2026-03-28T10:39:42.756Z</time></trkpt><trkpt lat="38.0340596" lon="-1.3971495"><ele>212.6</ele><time>2026-03-28T10:39:44.756Z</time></trkpt><trkpt lat="38.0340377" lon="-1.3970334"><ele>210.0</ele><time>2026-03-28T10:39:46.756Z</time></trkpt><trkpt lat="38.0340059" lon="-1.3969105"><ele>210.0</ele><time>2026-03-28T10:39:48.757Z</time></trkpt><trkpt lat="38.0339811" lon="-1.3967836"><ele>210.0</ele><time>2026-03-28T10:39:50.756Z</time></trkpt><trkpt lat="38.0339548" lon="-1.3966447"><ele>210.0</ele><time>2026-03-28T10:39:52.757Z</time></trkpt><trkpt lat="38.0339234" lon="-1.3965129"><ele>210.0</ele><time>2026-03-28T10:39:54.757Z</time></trkpt><trkpt lat="38.0338919" lon="-1.3963672"><ele>210.0</ele><time>2026-03-28T10:39:56.757Z</time></trkpt><trkpt lat="38.0338618" lon="-1.3962079"><ele>211.71428571428572</ele><time>2026-03-28T10:39:58.756Z</time></trkpt><trkpt lat="38.0338472" lon="-1.3961257"><ele>213.42857142857144</ele><time>2026-03-28T10:39:59.758Z</time></trkpt><trkpt lat="38.0338291" lon="-1.3960419"><ele>215.14285714285714</ele><time>2026-03-28T10:40:00.757Z</time></trkpt><trkpt lat="38.0338115" lon="-1.3959592"><ele>216.85714285714286</ele><time>2026-03-28T10:40:01.757Z</time></trkpt><trkpt lat="38.0337966" lon="-1.3958773"><ele>218.57142857142858</ele><time>2026-03-28T10:40:02.757Z</time></trkpt><trkpt lat="38.0337789" lon="-1.3957988"><ele>220.28571428571428</ele><time>2026-03-28T10:40:03.756Z</time></trkpt><trkpt lat="38.0337598" lon="-1.3957209"><ele>222.0</ele><time>2026-03-28T10:40:04.757Z</time></trkpt><trkpt lat="38.0337216" lon="-1.3955721"><ele>222.2</ele><time>2026-03-28T10:40:06.758Z</time></trkpt><trkpt lat="38.0337021" lon="-1.3954916"><ele>222.39999999999998</ele><time>2026-03-28T10:40:07.756Z</time></trkpt><trkpt lat="38.0336852" lon="-1.3954123"><ele>222.60000000000002</ele><time>2026-03-28T10:40:08.757Z</time></trkpt><trkpt lat="38.0336508" lon="-1.3952641"><ele>222.8</ele><time>2026-03-28T10:40:10.757Z</time></trkpt><trkpt lat="38.0336231" lon="-1.3951204"><ele>223.0</ele><time>2026-03-28T10:40:12.756Z</time></trkpt><trkpt lat="38.0335906" lon="-1.3949676"><ele>222.99999999999997</ele><time>2026-03-28T10:40:14.755Z</time></trkpt><trkpt lat="38.0335578" lon="-1.3948236"><ele>223.0</ele><time>2026-03-28T10:40:16.756Z</time></trkpt><trkpt lat="38.0335376" lon="-1.3947465"><ele>223.0</ele><time>2026-03-28T10:40:17.756Z</time></trkpt><trkpt lat="38.0335185" lon="-1.3946689"><ele>223.0</ele><time>2026-03-28T10:40:18.757Z</time></trkpt><trkpt lat="38.0334989" lon="-1.3945915"><ele>222.99999999999997</ele><time>2026-03-28T10:40:19.756Z</time></trkpt><trkpt lat="38.0334707" lon="-1.3944373"><ele>223.0</ele><time>2026-03-28T10:40:21.757Z</time></trkpt><trkpt lat="38.0334355" lon="-1.3942875"><ele>222.8</ele><time>2026-03-28T10:40:23.757Z</time></trkpt><trkpt lat="38.0334124" lon="-1.3941428"><ele>222.60000000000002</ele><time>2026-03-28T10:40:25.757Z</time></trkpt><trkpt lat="38.033373" lon="-1.394022"><ele>222.39999999999998</ele><time>2026-03-28T10:40:27.758Z</time></trkpt><trkpt lat="38.0333433" lon="-1.393881"><ele>222.2</ele><time>2026-03-28T10:40:29.756Z</time></trkpt><trkpt lat="38.0333141" lon="-1.3937579"><ele>222.0</ele><time>2026-03-28T10:40:31.756Z</time></trkpt><trkpt lat="38.0332789" lon="-1.3936371"><ele>221.66666666666666</ele><time>2026-03-28T10:40:33.755Z</time></trkpt><trkpt lat="38.0332467" lon="-1.3935317"><ele>221.33333333333331</ele><time>2026-03-28T10:40:35.758Z</time></trkpt><trkpt lat="38.0332153" lon="-1.3934295"><ele>221.0</ele><time>2026-03-28T10:40:37.756Z</time></trkpt><trkpt lat="38.0332074" lon="-1.3933236"><ele>220.66666666666666</ele><time>2026-03-28T10:40:39.755Z</time></trkpt><trkpt lat="38.033214" lon="-1.3932162"><ele>220.33333333333331</ele><time>2026-03-28T10:40:41.756Z</time></trkpt><trkpt lat="38.0332239" lon="-1.3931054"><ele>220.0</ele><time>2026-03-28T10:40:43.758Z</time></trkpt><trkpt lat="38.0332278" lon="-1.3929962"><ele>220.0</ele><time>2026-03-28T10:40:45.757Z</time></trkpt><trkpt lat="38.0332363" lon="-1.3928756"><ele>220.0</ele><time>2026-03-28T10:40:47.755Z</time></trkpt><trkpt lat="38.0332487" lon="-1.3927583"><ele>220.0</ele><time>2026-03-28T10:40:49.756Z</time></trkpt><trkpt lat="38.033254" lon="-1.392635"><ele>220.0</ele><time>2026-03-28T10:40:51.757Z</time></trkpt><trkpt lat="38.0332615" lon="-1.3925216"><ele>220.0</ele><time>2026-03-28T10:40:53.756Z</time></trkpt><trkpt lat="38.0332815" lon="-1.3924151"><ele>220.0</ele><time>2026-03-28T10:40:55.757Z</time></trkpt><trkpt lat="38.033305" lon="-1.3922929"><ele>220.0</ele><time>2026-03-28T10:40:57.755Z</time></trkpt><trkpt lat="38.0333352" lon="-1.3921688"><ele>220.0</ele><time>2026-03-28T10:40:59.757Z</time></trkpt><trkpt lat="38.0333665" lon="-1.3920477"><ele>220.0</ele><time>2026-03-28T10:41:01.758Z</time></trkpt><trkpt lat="38.0333982" lon="-1.3919258"><ele>220.0</ele><time>2026-03-28T10:41:03.756Z</time></trkpt><trkpt lat="38.0334263" lon="-1.3918097"><ele>220.0</ele><time>2026-03-28T10:41:05.756Z</time></trkpt><trkpt lat="38.0334704" lon="-1.3916974"><ele>220.0</ele><time>2026-03-28T10:41:07.757Z</time></trkpt><trkpt lat="38.0335134" lon="-1.3915913"><ele>220.0</ele><time>2026-03-28T10:41:09.757Z</time></trkpt><trkpt lat="38.0335578" lon="-1.3914783"><ele>220.0</ele><time>2026-03-28T10:41:11.755Z</time></trkpt><trkpt lat="38.0336027" lon="-1.3913687"><ele>220.0</ele><time>2026-03-28T10:41:13.756Z</time></trkpt><trkpt lat="38.0336517" lon="-1.3912552"><ele>220.0</ele><time>2026-03-28T10:41:15.756Z</time></trkpt><trkpt lat="38.0337063" lon="-1.3911398"><ele>220.0</ele><time>2026-03-28T10:41:17.757Z</time></trkpt><trkpt lat="38.033764" lon="-1.3910328"><ele>220.0</ele><time>2026-03-28T10:41:19.757Z</time></trkpt><trkpt lat="38.0338039" lon="-1.3909227"><ele>220.0</ele><time>2026-03-28T10:41:21.756Z</time></trkpt><trkpt lat="38.03386" lon="-1.390824"><ele>220.0</ele><time>2026-03-28T10:41:23.756Z</time></trkpt><trkpt lat="38.0339237" lon="-1.3907511"><ele>220.0</ele><time>2026-03-28T10:41:25.757Z</time></trkpt><trkpt lat="38.0339727" lon="-1.3906548"><ele>220.0</ele><time>2026-03-28T10:41:27.757Z</time></trkpt><trkpt lat="38.0340375" lon="-1.3905558"><ele>220.0</ele><time>2026-03-28T10:41:29.755Z</time></trkpt><trkpt lat="38.0341035" lon="-1.3904596"><ele>220.0</ele><time>2026-03-28T10:41:31.756Z</time></trkpt><trkpt lat="38.0341584" lon="-1.3903449"><ele>220.0</ele><time>2026-03-28T10:41:33.757Z</time></trkpt><trkpt lat="38.0342154" lon="-1.3902467"><ele>219.4</ele><time>2026-03-28T10:41:35.756Z</time></trkpt><trkpt lat="38.0342746" lon="-1.3901361"><ele>218.8</ele><time>2026-03-28T10:41:37.756Z</time></trkpt><trkpt lat="38.0343297" lon="-1.390017"><ele>218.2</ele><time>2026-03-28T10:41:39.758Z</time></trkpt><trkpt lat="38.0343903" lon="-1.3898919"><ele>217.6</ele><time>2026-03-28T10:41:41.756Z</time></trkpt><trkpt lat="38.0344541" lon="-1.3897731"><ele>217.0</ele><time>2026-03-28T10:41:43.756Z</time></trkpt><trkpt lat="38.0345207" lon="-1.3896538"><ele>216.75</ele><time>2026-03-28T10:41:45.756Z</time></trkpt><trkpt lat="38.0345833" lon="-1.3895345"><ele>216.5</ele><time>2026-03-28T10:41:47.757Z</time></trkpt><trkpt lat="38.0346479" lon="-1.3894121"><ele>216.25</ele><time>2026-03-28T10:41:49.757Z</time></trkpt><trkpt lat="38.0347094" lon="-1.3892906"><ele>216.0</ele><time>2026-03-28T10:41:51.757Z</time></trkpt><trkpt lat="38.0347743" lon="-1.3891647"><ele>216.0</ele><time>2026-03-28T10:41:53.756Z</time></trkpt><trkpt lat="38.0348383" lon="-1.3890362"><ele>216.0</ele><time>2026-03-28T10:41:55.756Z</time></trkpt><trkpt lat="38.034899" lon="-1.3889039"><ele>216.0</ele><time>2026-03-28T10:41:57.756Z</time></trkpt><trkpt lat="38.0349602" lon="-1.388776"><ele>216.0</ele><time>2026-03-28T10:41:59.756Z</time></trkpt><trkpt lat="38.0350156" lon="-1.3886536"><ele>215.8</ele><time>2026-03-28T10:42:01.756Z</time></trkpt><trkpt lat="38.035067" lon="-1.3885151"><ele>215.60000000000002</ele><time>2026-03-28T10:42:03.756Z</time></trkpt><trkpt lat="38.0351209" lon="-1.3883729"><ele>215.4</ele><time>2026-03-28T10:42:05.756Z</time></trkpt><trkpt lat="38.0351445" lon="-1.3882935"><ele>215.2</ele><time>2026-03-28T10:42:06.755Z</time></trkpt><trkpt lat="38.0351671" lon="-1.3882162"><ele>215.0</ele><time>2026-03-28T10:42:07.756Z</time></trkpt><trkpt lat="38.0352144" lon="-1.3880691"><ele>214.25</ele><time>2026-03-28T10:42:09.756Z</time></trkpt><trkpt lat="38.0352541" lon="-1.3879268"><ele>213.5</ele><time>2026-03-28T10:42:11.757Z</time></trkpt><trkpt lat="38.0352943" lon="-1.3877835"><ele>212.75</ele><time>2026-03-28T10:42:13.756Z</time></trkpt><trkpt lat="38.0353379" lon="-1.3876373"><ele>212.0</ele><time>2026-03-28T10:42:15.757Z</time></trkpt><trkpt lat="38.0353768" lon="-1.3874947"><ele>212.00000000000003</ele><time>2026-03-28T10:42:17.757Z</time></trkpt><trkpt lat="38.0354078" lon="-1.3873414"><ele>212.0</ele><time>2026-03-28T10:42:19.756Z</time></trkpt><trkpt lat="38.0354231" lon="-1.3872618"><ele>212.0</ele><time>2026-03-28T10:42:20.756Z</time></trkpt><trkpt lat="38.0354617" lon="-1.3871125"><ele>212.0</ele><time>2026-03-28T10:42:22.757Z</time></trkpt><trkpt lat="38.0354789" lon="-1.3870347"><ele>212.00000000000003</ele><time>2026-03-28T10:42:23.757Z</time></trkpt><trkpt lat="38.0354941" lon="-1.3869529"><ele>212.0</ele><time>2026-03-28T10:42:24.755Z</time></trkpt><trkpt lat="38.0355089" lon="-1.3868718"><ele>210.8</ele><time>2026-03-28T10:42:25.757Z</time></trkpt><trkpt lat="38.0355317" lon="-1.3867167"><ele>209.6</ele><time>2026-03-28T10:42:27.756Z</time></trkpt><trkpt lat="38.0355433" lon="-1.386634"><ele>208.4</ele><time>2026-03-28T10:42:28.756Z</time></trkpt><trkpt lat="38.0355576" lon="-1.3864779"><ele>207.20000000000002</ele><time>2026-03-28T10:42:30.756Z</time></trkpt><trkpt lat="38.0355661" lon="-1.3863982"><ele>206.0</ele><time>2026-03-28T10:42:31.756Z</time></trkpt><trkpt lat="38.0355801" lon="-1.3862446"><ele>204.33333333333334</ele><time>2026-03-28T10:42:33.755Z</time></trkpt><trkpt lat="38.0355954" lon="-1.3860927"><ele>202.66666666666669</ele><time>2026-03-28T10:42:35.757Z</time></trkpt><trkpt lat="38.0356008" lon="-1.386011"><ele>201.0</ele><time>2026-03-28T10:42:36.757Z</time></trkpt><trkpt lat="38.0356085" lon="-1.3859269"><ele>199.33333333333331</ele><time>2026-03-28T10:42:37.757Z</time></trkpt><trkpt lat="38.0356236" lon="-1.3857659"><ele>197.66666666666666</ele><time>2026-03-28T10:42:39.758Z</time></trkpt><trkpt lat="38.0356325" lon="-1.3856837"><ele>196.0</ele><time>2026-03-28T10:42:40.756Z</time></trkpt><trkpt lat="38.0356393" lon="-1.3856021"><ele>196.60000000000002</ele><time>2026-03-28T10:42:41.756Z</time></trkpt><trkpt lat="38.0356511" lon="-1.3854456"><ele>197.2</ele><time>2026-03-28T10:42:43.757Z</time></trkpt><trkpt lat="38.0356662" lon="-1.3852879"><ele>197.8</ele><time>2026-03-28T10:42:45.756Z</time></trkpt><trkpt lat="38.0356811" lon="-1.3851308"><ele>198.39999999999998</ele><time>2026-03-28T10:42:47.755Z</time></trkpt><trkpt lat="38.0356902" lon="-1.3850503"><ele>199.0</ele><time>2026-03-28T10:42:48.757Z</time></trkpt><trkpt lat="38.0356972" lon="-1.3849692"><ele>198.99999999999997</ele><time>2026-03-28T10:42:49.756Z</time></trkpt><trkpt lat="38.0357085" lon="-1.3848861"><ele>199.0</ele><time>2026-03-28T10:42:50.756Z</time></trkpt><trkpt lat="38.0357171" lon="-1.3848015"><ele>199.0</ele><time>2026-03-28T10:42:51.757Z</time></trkpt><trkpt lat="38.0357247" lon="-1.384719"><ele>199.0</ele><time>2026-03-28T10:42:52.757Z</time></trkpt><trkpt lat="38.0357303" lon="-1.3846377"><ele>199.0</ele><time>2026-03-28T10:42:53.756Z</time></trkpt><trkpt lat="38.0357394" lon="-1.3845559"><ele>198.99999999999997</ele><time>2026-03-28T10:42:54.757Z</time></trkpt><trkpt lat="38.0357446" lon="-1.3844745"><ele>199.0</ele><time>2026-03-28T10:42:55.756Z</time></trkpt><trkpt lat="38.0357545" lon="-1.3843932"><ele>200.39999999999998</ele><time>2026-03-28T10:42:56.755Z</time></trkpt><trkpt lat="38.035766" lon="-1.3843135"><ele>201.8</ele><time>2026-03-28T10:42:57.757Z</time></trkpt><trkpt lat="38.0357822" lon="-1.3841491"><ele>203.2</ele><time>2026-03-28T10:42:59.756Z</time></trkpt><trkpt lat="38.0358022" lon="-1.3839893"><ele>204.60000000000002</ele><time>2026-03-28T10:43:01.755Z</time></trkpt><trkpt lat="38.0358138" lon="-1.3839103"><ele>206.0</ele><time>2026-03-28T10:43:02.757Z</time></trkpt><trkpt lat="38.0358253" lon="-1.383829"><ele>205.75</ele><time>2026-03-28T10:43:03.757Z</time></trkpt><trkpt lat="38.0358317" lon="-1.3836735"><ele>205.5</ele><time>2026-03-28T10:43:05.755Z</time></trkpt><trkpt lat="38.0358003" lon="-1.3835223"><ele>205.25</ele><time>2026-03-28T10:43:07.757Z</time></trkpt><trkpt lat="38.0357708" lon="-1.3833732"><ele>205.0</ele><time>2026-03-28T10:43:09.756Z</time></trkpt><trkpt lat="38.0357619" lon="-1.3832215"><ele>205.0</ele><time>2026-03-28T10:43:11.756Z</time></trkpt><trkpt lat="38.0357676" lon="-1.3830676"><ele>205.0</ele><time>2026-03-28T10:43:13.756Z</time></trkpt><trkpt lat="38.0357765" lon="-1.3829191"><ele>205.0</ele><time>2026-03-28T10:43:15.757Z</time></trkpt><trkpt lat="38.0357841" lon="-1.3827759"><ele>205.0</ele><time>2026-03-28T10:43:17.757Z</time></trkpt><trkpt lat="38.0357961" lon="-1.3826288"><ele>205.2</ele><time>2026-03-28T10:43:19.755Z</time></trkpt><trkpt lat="38.0358166" lon="-1.3824971"><ele>205.4</ele><time>2026-03-28T10:43:21.757Z</time></trkpt><trkpt lat="38.0358788" lon="-1.3823864"><ele>205.60000000000002</ele><time>2026-03-28T10:43:23.756Z</time></trkpt><trkpt lat="38.0359468" lon="-1.3822553"><ele>205.8</ele><time>2026-03-28T10:43:25.758Z</time></trkpt><trkpt lat="38.0359696" lon="-1.3821728"><ele>206.0</ele><time>2026-03-28T10:43:26.757Z</time></trkpt><trkpt lat="38.0359818" lon="-1.3820827"><ele>205.99999999999997</ele><time>2026-03-28T10:43:27.756Z</time></trkpt><trkpt lat="38.03599" lon="-1.3819864"><ele>206.0</ele><time>2026-03-28T10:43:28.757Z</time></trkpt><trkpt lat="38.035997" lon="-1.3818956"><ele>206.0</ele><time>2026-03-28T10:43:29.756Z</time></trkpt><trkpt lat="38.036004" lon="-1.3818038"><ele>206.0</ele><time>2026-03-28T10:43:30.756Z</time></trkpt><trkpt lat="38.0360095" lon="-1.3817078"><ele>206.0</ele><time>2026-03-28T10:43:31.757Z</time></trkpt><trkpt lat="38.0360187" lon="-1.3816126"><ele>205.99999999999997</ele><time>2026-03-28T10:43:32.757Z</time></trkpt><trkpt lat="38.0360258" lon="-1.3815177"><ele>206.0</ele><time>2026-03-28T10:43:33.757Z</time></trkpt><trkpt lat="38.0360327" lon="-1.3814229"><ele>205.16666666666669</ele><time>2026-03-28T10:43:34.757Z</time></trkpt><trkpt lat="38.0360427" lon="-1.3813281"><ele>204.33333333333334</ele><time>2026-03-28T10:43:35.755Z</time></trkpt><trkpt lat="38.0360565" lon="-1.3812303"><ele>203.5</ele><time>2026-03-28T10:43:36.757Z</time></trkpt><trkpt lat="38.036069" lon="-1.3811366"><ele>202.66666666666669</ele><time>2026-03-28T10:43:37.758Z</time></trkpt><trkpt lat="38.0360806" lon="-1.3810396"><ele>201.83333333333334</ele><time>2026-03-28T10:43:38.756Z</time></trkpt><trkpt lat="38.0360945" lon="-1.3809439"><ele>201.0</ele><time>2026-03-28T10:43:39.758Z</time></trkpt><trkpt lat="38.0361069" lon="-1.3808527"><ele>201.0</ele><time>2026-03-28T10:43:40.757Z</time></trkpt><trkpt lat="38.036118" lon="-1.3807663"><ele>201.0</ele><time>2026-03-28T10:43:41.756Z</time></trkpt><trkpt lat="38.0361292" lon="-1.3806811"><ele>201.0</ele><time>2026-03-28T10:43:42.757Z</time></trkpt><trkpt lat="38.0361499" lon="-1.3805382"><ele>201.0</ele><time>2026-03-28T10:43:44.758Z</time></trkpt><trkpt lat="38.0361558" lon="-1.3803944"><ele>201.0</ele><time>2026-03-28T10:43:46.755Z</time></trkpt><trkpt lat="38.0361696" lon="-1.3802625"><ele>201.25</ele><time>2026-03-28T10:43:48.756Z</time></trkpt><trkpt lat="38.0361771" lon="-1.3801287"><ele>201.5</ele><time>2026-03-28T10:43:50.756Z</time></trkpt><trkpt lat="38.036186" lon="-1.3799856"><ele>201.75</ele><time>2026-03-28T10:43:52.756Z</time></trkpt><trkpt lat="38.0362056" lon="-1.3798366"><ele>202.0</ele><time>2026-03-28T10:43:54.756Z</time></trkpt><trkpt lat="38.0362172" lon="-1.3796881"><ele>201.99999999999997</ele><time>2026-03-28T10:43:56.757Z</time></trkpt><trkpt lat="38.036231" lon="-1.3795364"><ele>202.0</ele><time>2026-03-28T10:43:58.758Z</time></trkpt><trkpt lat="38.0362386" lon="-1.379457"><ele>202.0</ele><time>2026-03-28T10:43:59.757Z</time></trkpt><trkpt lat="38.036247" lon="-1.379377"><ele>202.0</ele><time>2026-03-28T10:44:00.756Z</time></trkpt><trkpt lat="38.0362658" lon="-1.3792164"><ele>201.99999999999997</ele><time>2026-03-28T10:44:02.756Z</time></trkpt><trkpt lat="38.0362716" lon="-1.379131"><ele>202.0</ele><time>2026-03-28T10:44:03.756Z</time></trkpt><trkpt lat="38.036279" lon="-1.3790486"><ele>202.0</ele><time>2026-03-28T10:44:04.758Z</time></trkpt><trkpt lat="38.0362876" lon="-1.3789687"><ele>202.0</ele><time>2026-03-28T10:44:05.756Z</time></trkpt><trkpt lat="38.0362968" lon="-1.3788838"><ele>202.0</ele><time>2026-03-28T10:44:06.757Z</time></trkpt><trkpt lat="38.0363021" lon="-1.3788005"><ele>202.0</ele><time>2026-03-28T10:44:07.755Z</time></trkpt><trkpt lat="38.036308" lon="-1.3787207"><ele>202.0</ele><time>2026-03-28T10:44:08.756Z</time></trkpt><trkpt lat="38.0363133" lon="-1.3786404"><ele>202.0</ele><time>2026-03-28T10:44:09.756Z</time></trkpt><trkpt lat="38.036321" lon="-1.3785603"><ele>202.0</ele><time>2026-03-28T10:44:10.757Z</time></trkpt><trkpt lat="38.0363278" lon="-1.3784773"><ele>201.83333333333331</ele><time>2026-03-28T10:44:11.757Z</time></trkpt><trkpt lat="38.0363465" lon="-1.3783174"><ele>201.66666666666666</ele><time>2026-03-28T10:44:13.755Z</time></trkpt><trkpt lat="38.0363557" lon="-1.3782365"><ele>201.5</ele><time>2026-03-28T10:44:14.756Z</time></trkpt><trkpt lat="38.0363632" lon="-1.3781546"><ele>201.33333333333331</ele><time>2026-03-28T10:44:15.756Z</time></trkpt><trkpt lat="38.0363752" lon="-1.3780699"><ele>201.16666666666666</ele><time>2026-03-28T10:44:16.758Z</time></trkpt><trkpt lat="38.036385" lon="-1.3779869"><ele>201.0</ele><time>2026-03-28T10:44:17.756Z</time></trkpt><trkpt lat="38.0363929" lon="-1.3779053"><ele>201.0</ele><time>2026-03-28T10:44:18.758Z</time></trkpt><trkpt lat="38.0364055" lon="-1.3777431"><ele>201.0</ele><time>2026-03-28T10:44:20.757Z</time></trkpt><trkpt lat="38.0364144" lon="-1.3776639"><ele>201.0</ele><time>2026-03-28T10:44:21.755Z</time></trkpt><trkpt lat="38.0364238" lon="-1.377584"><ele>201.0</ele><time>2026-03-28T10:44:22.756Z</time></trkpt><trkpt lat="38.0364317" lon="-1.3775044"><ele>201.0</ele><time>2026-03-28T10:44:23.757Z</time></trkpt><trkpt lat="38.0364422" lon="-1.3774224"><ele>201.0</ele><time>2026-03-28T10:44:24.756Z</time></trkpt><trkpt lat="38.0364584" lon="-1.3772655"><ele>201.0</ele><time>2026-03-28T10:44:26.756Z</time></trkpt><trkpt lat="38.0364645" lon="-1.3771859"><ele>201.0</ele><time>2026-03-28T10:44:27.756Z</time></trkpt><trkpt lat="38.0364779" lon="-1.3770339"><ele>201.0</ele><time>2026-03-28T10:44:29.756Z</time></trkpt><trkpt lat="38.0364859" lon="-1.3768805"><ele>201.0</ele><time>2026-03-28T10:44:31.757Z</time></trkpt><trkpt lat="38.0364984" lon="-1.3767236"><ele>201.0</ele><time>2026-03-28T10:44:33.755Z</time></trkpt><trkpt lat="38.0365133" lon="-1.3765687"><ele>198.75</ele><time>2026-03-28T10:44:35.758Z</time></trkpt><trkpt lat="38.0365261" lon="-1.3764131"><ele>196.5</ele><time>2026-03-28T10:44:37.755Z</time></trkpt><trkpt lat="38.0365436" lon="-1.376257"><ele>194.25</ele><time>2026-03-28T10:44:39.756Z</time></trkpt><trkpt lat="38.0365612" lon="-1.3761043"><ele>192.0</ele><time>2026-03-28T10:44:41.756Z</time></trkpt><trkpt lat="38.0365776" lon="-1.3759469"><ele>190.75</ele><time>2026-03-28T10:44:43.756Z</time></trkpt><trkpt lat="38.0365914" lon="-1.3757875"><ele>189.5</ele><time>2026-03-28T10:44:45.756Z</time></trkpt><trkpt lat="38.0366046" lon="-1.375637"><ele>188.25</ele><time>2026-03-28T10:44:47.757Z</time></trkpt><trkpt lat="38.036615" lon="-1.3754848"><ele>187.0</ele><time>2026-03-28T10:44:49.756Z</time></trkpt><trkpt lat="38.0366275" lon="-1.3753325"><ele>189.2</ele><time>2026-03-28T10:44:51.756Z</time></trkpt><trkpt lat="38.0366564" lon="-1.3751893"><ele>191.39999999999998</ele><time>2026-03-28T10:44:53.756Z</time></trkpt><trkpt lat="38.0366971" lon="-1.3750514"><ele>193.60000000000002</ele><time>2026-03-28T10:44:55.756Z</time></trkpt><trkpt lat="38.0367362" lon="-1.3749316"><ele>195.8</ele><time>2026-03-28T10:44:57.757Z</time></trkpt><trkpt lat="38.0367743" lon="-1.374835"><ele>198.0</ele><time>2026-03-28T10:44:59.758Z</time></trkpt><trkpt lat="38.036807" lon="-1.3747427"><ele>198.83333333333334</ele><time>2026-03-28T10:45:01.756Z</time></trkpt><trkpt lat="38.0368216" lon="-1.374657"><ele>199.66666666666669</ele><time>2026-03-28T10:45:03.756Z</time></trkpt><trkpt lat="38.0368331" lon="-1.3745661"><ele>200.5</ele><time>2026-03-28T10:45:05.757Z</time></trkpt><trkpt lat="38.0368527" lon="-1.3744712"><ele>201.33333333333334</ele><time>2026-03-28T10:45:07.757Z</time></trkpt><trkpt lat="38.0368652" lon="-1.3743702"><ele>202.16666666666669</ele><time>2026-03-28T10:45:09.756Z</time></trkpt><trkpt lat="38.0368771" lon="-1.3742703"><ele>203.0</ele><time>2026-03-28T10:45:11.758Z</time></trkpt><trkpt lat="38.0368875" lon="-1.3741649"><ele>203.0</ele><time>2026-03-28T10:45:13.756Z</time></trkpt><trkpt lat="38.0368988" lon="-1.3740548"><ele>203.0</ele><time>2026-03-28T10:45:15.758Z</time></trkpt><trkpt lat="38.0369095" lon="-1.3739419"><ele>203.0</ele><time>2026-03-28T10:45:17.757Z</time></trkpt><trkpt lat="38.0369217" lon="-1.3738352"><ele>203.0</ele><time>2026-03-28T10:45:19.757Z</time></trkpt><trkpt lat="38.036913" lon="-1.3737057"><ele>203.0</ele><time>2026-03-28T10:45:21.758Z</time></trkpt><trkpt lat="38.0369154" lon="-1.3735701"><ele>202.50000000000003</ele><time>2026-03-28T10:45:23.758Z</time></trkpt><trkpt lat="38.0369182" lon="-1.3734393"><ele>202.0</ele><time>2026-03-28T10:45:25.757Z</time></trkpt><trkpt lat="38.036907" lon="-1.3732918"><ele>201.5</ele><time>2026-03-28T10:45:27.757Z</time></trkpt><trkpt lat="38.0368996" lon="-1.3732039"><ele>201.0</ele><time>2026-03-28T10:45:28.756Z</time></trkpt><trkpt lat="38.0368947" lon="-1.3731107"><ele>200.50000000000003</ele><time>2026-03-28T10:45:29.757Z</time></trkpt><trkpt lat="38.0368881" lon="-1.3730104"><ele>200.0</ele><time>2026-03-28T10:45:30.757Z</time></trkpt><trkpt lat="38.0368835" lon="-1.3729104"><ele>199.50000000000003</ele><time>2026-03-28T10:45:31.757Z</time></trkpt><trkpt lat="38.0368759" lon="-1.3728045"><ele>199.0</ele><time>2026-03-28T10:45:32.758Z</time></trkpt><trkpt lat="38.0368703" lon="-1.372699"><ele>198.5</ele><time>2026-03-28T10:45:33.756Z</time></trkpt><trkpt lat="38.0368617" lon="-1.3725946"><ele>198.0</ele><time>2026-03-28T10:45:34.756Z</time></trkpt><trkpt lat="38.0368566" lon="-1.3724919"><ele>197.50000000000003</ele><time>2026-03-28T10:45:35.757Z</time></trkpt><trkpt lat="38.0368507" lon="-1.3723887"><ele>197.0</ele><time>2026-03-28T10:45:36.756Z</time></trkpt><trkpt lat="38.0368463" lon="-1.372288"><ele>196.50000000000003</ele><time>2026-03-28T10:45:37.757Z</time></trkpt><trkpt lat="38.0368411" lon="-1.3721877"><ele>196.0</ele><time>2026-03-28T10:45:38.757Z</time></trkpt><trkpt lat="38.0368344" lon="-1.372087"><ele>195.5</ele><time>2026-03-28T10:45:39.756Z</time></trkpt><trkpt lat="38.0368261" lon="-1.3719853"><ele>195.0</ele><time>2026-03-28T10:45:40.757Z</time></trkpt><trkpt lat="38.0368163" lon="-1.3718801"><ele>194.50000000000003</ele><time>2026-03-28T10:45:41.756Z</time></trkpt><trkpt lat="38.0368094" lon="-1.3717764"><ele>194.0</ele><time>2026-03-28T10:45:42.758Z</time></trkpt><trkpt lat="38.036804" lon="-1.3716695"><ele>194.00000000000003</ele><time>2026-03-28T10:45:43.757Z</time></trkpt><trkpt lat="38.0367991" lon="-1.3715664"><ele>194.0</ele><time>2026-03-28T10:45:44.756Z</time></trkpt><trkpt lat="38.0367939" lon="-1.3714613"><ele>194.0</ele><time>2026-03-28T10:45:45.758Z</time></trkpt><trkpt lat="38.0367922" lon="-1.3713566"><ele>194.0</ele><time>2026-03-28T10:45:46.756Z</time></trkpt><trkpt lat="38.0367881" lon="-1.3712509"><ele>194.00000000000003</ele><time>2026-03-28T10:45:47.756Z</time></trkpt><trkpt lat="38.0367846" lon="-1.371154"><ele>194.0</ele><time>2026-03-28T10:45:48.756Z</time></trkpt><trkpt lat="38.0367769" lon="-1.3710534"><ele>193.50000000000003</ele><time>2026-03-28T10:45:49.757Z</time></trkpt><trkpt lat="38.0367696" lon="-1.3709515"><ele>193.0</ele><time>2026-03-28T10:45:50.756Z</time></trkpt><trkpt lat="38.036761" lon="-1.370848"><ele>192.5</ele><time>2026-03-28T10:45:51.756Z</time></trkpt><trkpt lat="38.0367542" lon="-1.3707426"><ele>192.0</ele><time>2026-03-28T10:45:52.756Z</time></trkpt><trkpt lat="38.0367472" lon="-1.3706356"><ele>191.5</ele><time>2026-03-28T10:45:53.757Z</time></trkpt><trkpt lat="38.0367427" lon="-1.3705337"><ele>191.0</ele><time>2026-03-28T10:45:54.758Z</time></trkpt><trkpt lat="38.0367361" lon="-1.3704269"><ele>191.0</ele><time>2026-03-28T10:45:55.757Z</time></trkpt><trkpt lat="38.0367292" lon="-1.3703226"><ele>191.0</ele><time>2026-03-28T10:45:56.755Z</time></trkpt><trkpt lat="38.0367233" lon="-1.3702203"><ele>191.0</ele><time>2026-03-28T10:45:57.756Z</time></trkpt><trkpt lat="38.0367187" lon="-1.3701176"><ele>191.0</ele><time>2026-03-28T10:45:58.757Z</time></trkpt><trkpt lat="38.0367088" lon="-1.3700124"><ele>191.0</ele><time>2026-03-28T10:45:59.756Z</time></trkpt><trkpt lat="38.0366966" lon="-1.3699112"><ele>191.0</ele><time>2026-03-28T10:46:00.758Z</time></trkpt><trkpt lat="38.0366799" lon="-1.3698149"><ele>191.0</ele><time>2026-03-28T10:46:01.756Z</time></trkpt><trkpt lat="38.0366692" lon="-1.3697224"><ele>191.0</ele><time>2026-03-28T10:46:02.757Z</time></trkpt><trkpt lat="38.0366633" lon="-1.3696277"><ele>191.0</ele><time>2026-03-28T10:46:03.757Z</time></trkpt><trkpt lat="38.0366715" lon="-1.369538"><ele>191.0</ele><time>2026-03-28T10:46:04.756Z</time></trkpt><trkpt lat="38.0366853" lon="-1.3694519"><ele>191.0</ele><time>2026-03-28T10:46:05.756Z</time></trkpt><trkpt lat="38.0367021" lon="-1.3693643"><ele>191.0</ele><time>2026-03-28T10:46:06.758Z</time></trkpt><trkpt lat="38.0367205" lon="-1.3692741"><ele>191.0</ele><time>2026-03-28T10:46:07.756Z</time></trkpt><trkpt lat="38.0367382" lon="-1.3691882"><ele>191.5</ele><time>2026-03-28T10:46:08.757Z</time></trkpt><trkpt lat="38.0367535" lon="-1.3691036"><ele>192.0</ele><time>2026-03-28T10:46:09.757Z</time></trkpt><trkpt lat="38.0367506" lon="-1.3690154"><ele>192.5</ele><time>2026-03-28T10:46:10.758Z</time></trkpt><trkpt lat="38.0367392" lon="-1.3689341"><ele>193.0</ele><time>2026-03-28T10:46:11.757Z</time></trkpt><trkpt lat="38.036706" lon="-1.3688637"><ele>193.50000000000003</ele><time>2026-03-28T10:46:12.758Z</time></trkpt><trkpt lat="38.0366663" lon="-1.3687318"><ele>194.0</ele><time>2026-03-28T10:46:14.756Z</time></trkpt><trkpt lat="38.0366568" lon="-1.3686101"><ele>194.0</ele><time>2026-03-28T10:46:16.758Z</time></trkpt><trkpt lat="38.0366584" lon="-1.3684773"><ele>194.0</ele><time>2026-03-28T10:46:18.756Z</time></trkpt><trkpt lat="38.0366603" lon="-1.3683484"><ele>194.0</ele><time>2026-03-28T10:46:20.755Z</time></trkpt><trkpt lat="38.0366742" lon="-1.3682222"><ele>194.0</ele><time>2026-03-28T10:46:22.755Z</time></trkpt><trkpt lat="38.0366775" lon="-1.3680926"><ele>194.0</ele><time>2026-03-28T10:46:24.757Z</time></trkpt><trkpt lat="38.0366843" lon="-1.367951"><ele>193.5</ele><time>2026-03-28T10:46:26.757Z</time></trkpt><trkpt lat="38.0366984" lon="-1.3678062"><ele>193.0</ele><time>2026-03-28T10:46:28.755Z</time></trkpt><trkpt lat="38.0367143" lon="-1.3676576"><ele>192.5</ele><time>2026-03-28T10:46:30.757Z</time></trkpt><trkpt lat="38.036744" lon="-1.367505"><ele>192.0</ele><time>2026-03-28T10:46:32.757Z</time></trkpt><trkpt lat="38.0367768" lon="-1.3673534"><ele>192.0</ele><time>2026-03-28T10:46:34.758Z</time></trkpt><trkpt lat="38.0368108" lon="-1.3672085"><ele>192.0</ele><time>2026-03-28T10:46:36.756Z</time></trkpt><trkpt lat="38.0368465" lon="-1.3670698"><ele>192.0</ele><time>2026-03-28T10:46:38.756Z</time></trkpt><trkpt lat="38.0368779" lon="-1.3669295"><ele>192.0</ele><time>2026-03-28T10:46:40.755Z</time></trkpt><trkpt lat="38.0369162" lon="-1.3667813"><ele>191.2</ele><time>2026-03-28T10:46:42.755Z</time></trkpt><trkpt lat="38.0369357" lon="-1.366704"><ele>190.39999999999998</ele><time>2026-03-28T10:46:43.756Z</time></trkpt><trkpt lat="38.0369543" lon="-1.366625"><ele>189.60000000000002</ele><time>2026-03-28T10:46:44.756Z</time></trkpt><trkpt lat="38.0369867" lon="-1.3664743"><ele>188.8</ele><time>2026-03-28T10:46:46.755Z</time></trkpt><trkpt lat="38.0370183" lon="-1.3663192"><ele>188.0</ele><time>2026-03-28T10:46:48.756Z</time></trkpt><trkpt lat="38.0370542" lon="-1.3661722"><ele>187.0</ele><time>2026-03-28T10:46:50.756Z</time></trkpt><trkpt lat="38.0370937" lon="-1.3660216"><ele>186.0</ele><time>2026-03-28T10:46:52.757Z</time></trkpt><trkpt lat="38.0371327" lon="-1.3658762"><ele>185.0</ele><time>2026-03-28T10:46:54.756Z</time></trkpt><trkpt lat="38.0371528" lon="-1.3657989"><ele>184.0</ele><time>2026-03-28T10:46:55.756Z</time></trkpt><trkpt lat="38.0371931" lon="-1.3656452"><ele>183.0</ele><time>2026-03-28T10:46:57.756Z</time></trkpt><trkpt lat="38.0372333" lon="-1.3654973"><ele>182.4</ele><time>2026-03-28T10:46:59.758Z</time></trkpt><trkpt lat="38.0372521" lon="-1.3654197"><ele>181.8</ele><time>2026-03-28T10:47:00.756Z</time></trkpt><trkpt lat="38.0372921" lon="-1.3652751"><ele>181.2</ele><time>2026-03-28T10:47:02.757Z</time></trkpt><trkpt lat="38.0373318" lon="-1.3651346"><ele>180.6</ele><time>2026-03-28T10:47:04.757Z</time></trkpt><trkpt lat="38.0373699" lon="-1.3649887"><ele>180.0</ele><time>2026-03-28T10:47:06.757Z</time></trkpt><trkpt lat="38.0374044" lon="-1.3648441"><ele>180.0</ele><time>2026-03-28T10:47:08.756Z</time></trkpt><trkpt lat="38.0374448" lon="-1.3646996"><ele>180.0</ele><time>2026-03-28T10:47:10.756Z</time></trkpt><trkpt lat="38.0374809" lon="-1.3645566"><ele>180.0</ele><time>2026-03-28T10:47:12.758Z</time></trkpt><trkpt lat="38.0375143" lon="-1.3644136"><ele>180.0</ele><time>2026-03-28T10:47:14.757Z</time></trkpt><trkpt lat="38.0375529" lon="-1.364268"><ele>181.25</ele><time>2026-03-28T10:47:16.756Z</time></trkpt><trkpt lat="38.0375909" lon="-1.3641232"><ele>182.5</ele><time>2026-03-28T10:47:18.756Z</time></trkpt><trkpt lat="38.0376283" lon="-1.3639786"><ele>183.75</ele><time>2026-03-28T10:47:20.757Z</time></trkpt><trkpt lat="38.0376667" lon="-1.3638367"><ele>185.0</ele><time>2026-03-28T10:47:22.755Z</time></trkpt><trkpt lat="38.0377066" lon="-1.3636952"><ele>185.0</ele><time>2026-03-28T10:47:24.758Z</time></trkpt><trkpt lat="38.0377448" lon="-1.3635577"><ele>185.0</ele><time>2026-03-28T10:47:26.755Z</time></trkpt><trkpt lat="38.037786" lon="-1.3634232"><ele>185.0</ele><time>2026-03-28T10:47:28.758Z</time></trkpt><trkpt lat="38.0378198" lon="-1.3632877"><ele>185.0</ele><time>2026-03-28T10:47:30.757Z</time></trkpt><trkpt lat="38.0378543" lon="-1.3631646"><ele>185.0</ele><time>2026-03-28T10:47:32.755Z</time></trkpt><trkpt lat="38.0378854" lon="-1.3630416"><ele>184.5</ele><time>2026-03-28T10:47:34.757Z</time></trkpt><trkpt lat="38.037919" lon="-1.3629137"><ele>184.0</ele><time>2026-03-28T10:47:36.757Z</time></trkpt><trkpt lat="38.0379627" lon="-1.3627743"><ele>183.5</ele><time>2026-03-28T10:47:38.757Z</time></trkpt><trkpt lat="38.0379989" lon="-1.3626286"><ele>183.0</ele><time>2026-03-28T10:47:40.755Z</time></trkpt><trkpt lat="38.0380324" lon="-1.3624853"><ele>183.0</ele><time>2026-03-28T10:47:42.756Z</time></trkpt><trkpt lat="38.0380679" lon="-1.3623486"><ele>183.0</ele><time>2026-03-28T10:47:44.755Z</time></trkpt><trkpt lat="38.0381005" lon="-1.3622176"><ele>183.0</ele><time>2026-03-28T10:47:46.756Z</time></trkpt><trkpt lat="38.0381306" lon="-1.3620759"><ele>183.0</ele><time>2026-03-28T10:47:48.757Z</time></trkpt><trkpt lat="38.0381685" lon="-1.3619383"><ele>181.2</ele><time>2026-03-28T10:47:50.758Z</time></trkpt><trkpt lat="38.0381994" lon="-1.3618056"><ele>179.4</ele><time>2026-03-28T10:47:52.756Z</time></trkpt><trkpt lat="38.0382234" lon="-1.3616726"><ele>177.6</ele><time>2026-03-28T10:47:54.756Z</time></trkpt><trkpt lat="38.0382313" lon="-1.3615274"><ele>175.79999999999998</ele><time>2026-03-28T10:47:56.756Z</time></trkpt><trkpt lat="38.0382351" lon="-1.3614384"><ele>174.0</ele><time>2026-03-28T10:47:57.757Z</time></trkpt><trkpt lat="38.0382395" lon="-1.3613444"><ele>173.33333333333334</ele><time>2026-03-28T10:47:58.756Z</time></trkpt><trkpt lat="38.0382498" lon="-1.3612435"><ele>172.66666666666666</ele><time>2026-03-28T10:47:59.756Z</time></trkpt><trkpt lat="38.038262" lon="-1.3611388"><ele>172.0</ele><time>2026-03-28T10:48:00.757Z</time></trkpt><trkpt lat="38.0382717" lon="-1.3610471"><ele>171.33333333333331</ele><time>2026-03-28T10:48:01.757Z</time></trkpt><trkpt lat="38.0382792" lon="-1.3609533"><ele>170.66666666666666</ele><time>2026-03-28T10:48:02.756Z</time></trkpt><trkpt lat="38.0382582" lon="-1.3608253"><ele>170.0</ele><time>2026-03-28T10:48:04.756Z</time></trkpt><trkpt lat="38.038152" lon="-1.3607414"><ele>170.0</ele><time>2026-03-28T10:48:06.756Z</time></trkpt><trkpt lat="38.0380911" lon="-1.3607145"><ele>170.0</ele><time>2026-03-28T10:48:07.757Z</time></trkpt><trkpt lat="38.0380284" lon="-1.3606922"><ele>170.0</ele><time>2026-03-28T10:48:08.756Z</time></trkpt><trkpt lat="38.0379078" lon="-1.3606444"><ele>170.0</ele><time>2026-03-28T10:48:10.755Z</time></trkpt><trkpt lat="38.0378491" lon="-1.3606132"><ele>170.0</ele><time>2026-03-28T10:48:11.756Z</time></trkpt><trkpt lat="38.0377718" lon="-1.3604932"><ele>170.0</ele><time>2026-03-28T10:48:13.755Z</time></trkpt><trkpt lat="38.0377489" lon="-1.3604169"><ele>170.2857142857143</ele><time>2026-03-28T10:48:14.757Z</time></trkpt><trkpt lat="38.0377348" lon="-1.3603329"><ele>170.57142857142856</ele><time>2026-03-28T10:48:15.756Z</time></trkpt><trkpt lat="38.0377311" lon="-1.3602429"><ele>170.85714285714286</ele><time>2026-03-28T10:48:16.755Z</time></trkpt><trkpt lat="38.037721" lon="-1.3601531"><ele>171.14285714285717</ele><time>2026-03-28T10:48:17.756Z</time></trkpt><trkpt lat="38.0377179" lon="-1.3600689"><ele>171.42857142857144</ele><time>2026-03-28T10:48:18.755Z</time></trkpt><trkpt lat="38.0377137" lon="-1.3599838"><ele>171.71428571428572</ele><time>2026-03-28T10:48:19.755Z</time></trkpt><trkpt lat="38.0377106" lon="-1.3598929"><ele>172.0</ele><time>2026-03-28T10:48:20.756Z</time></trkpt><trkpt lat="38.0377058" lon="-1.3598026"><ele>172.00000000000003</ele><time>2026-03-28T10:48:21.755Z</time></trkpt><trkpt lat="38.0377005" lon="-1.3597212"><ele>172.0</ele><time>2026-03-28T10:48:22.755Z</time></trkpt><trkpt lat="38.0376961" lon="-1.3596303"><ele>172.0</ele><time>2026-03-28T10:48:23.755Z</time></trkpt><trkpt lat="38.0376883" lon="-1.3595435"><ele>172.0</ele><time>2026-03-28T10:48:24.757Z</time></trkpt><trkpt lat="38.037682" lon="-1.3594573"><ele>172.0</ele><time>2026-03-28T10:48:25.757Z</time></trkpt><trkpt lat="38.0376792" lon="-1.3593747"><ele>172.00000000000003</ele><time>2026-03-28T10:48:26.757Z</time></trkpt><trkpt lat="38.0376745" lon="-1.3592884"><ele>172.0</ele><time>2026-03-28T10:48:27.757Z</time></trkpt><trkpt lat="38.0376777" lon="-1.3592074"><ele>172.0</ele><time>2026-03-28T10:48:28.757Z</time></trkpt><trkpt lat="38.0376788" lon="-1.3591258"><ele>172.0</ele><time>2026-03-28T10:48:29.756Z</time></trkpt><trkpt lat="38.0376813" lon="-1.3590454"><ele>172.0</ele><time>2026-03-28T10:48:30.756Z</time></trkpt><trkpt lat="38.0376858" lon="-1.3588874"><ele>172.0</ele><time>2026-03-28T10:48:32.757Z</time></trkpt><trkpt lat="38.0376917" lon="-1.3588075"><ele>172.0</ele><time>2026-03-28T10:48:33.756Z</time></trkpt><trkpt lat="38.0377032" lon="-1.3586614"><ele>172.0</ele><time>2026-03-28T10:48:35.757Z</time></trkpt><trkpt lat="38.0377121" lon="-1.3585802"><ele>171.0</ele><time>2026-03-28T10:48:36.756Z</time></trkpt><trkpt lat="38.0377364" lon="-1.3584361"><ele>170.0</ele><time>2026-03-28T10:48:38.755Z</time></trkpt><trkpt lat="38.0377613" lon="-1.3582948"><ele>169.0</ele><time>2026-03-28T10:48:40.756Z</time></trkpt><trkpt lat="38.0377869" lon="-1.358154"><ele>168.0</ele><time>2026-03-28T10:48:42.757Z</time></trkpt><trkpt lat="38.0378163" lon="-1.3580148"><ele>168.0</ele><time>2026-03-28T10:48:44.756Z</time></trkpt><trkpt lat="38.0378456" lon="-1.3578854"><ele>168.0</ele><time>2026-03-28T10:48:46.755Z</time></trkpt><trkpt lat="38.037872" lon="-1.3577668"><ele>168.0</ele><time>2026-03-28T10:48:48.758Z</time></trkpt><trkpt lat="38.037906" lon="-1.3576488"><ele>168.0</ele><time>2026-03-28T10:48:50.757Z</time></trkpt><trkpt lat="38.0379376" lon="-1.3575397"><ele>168.0</ele><time>2026-03-28T10:48:52.755Z</time></trkpt><trkpt lat="38.0379697" lon="-1.3574309"><ele>168.0</ele><time>2026-03-28T10:48:54.755Z</time></trkpt><trkpt lat="38.0380029" lon="-1.3573228"><ele>168.0</ele><time>2026-03-28T10:48:56.757Z</time></trkpt><trkpt lat="38.0380374" lon="-1.3572161"><ele>168.0</ele><time>2026-03-28T10:48:58.757Z</time></trkpt><trkpt lat="38.0380749" lon="-1.3571028"><ele>168.0</ele><time>2026-03-28T10:49:00.757Z</time></trkpt><trkpt lat="38.038112" lon="-1.3569868"><ele>168.0</ele><time>2026-03-28T10:49:02.756Z</time></trkpt><trkpt lat="38.0381426" lon="-1.3568806"><ele>168.0</ele><time>2026-03-28T10:49:04.758Z</time></trkpt><trkpt lat="38.0381733" lon="-1.3567749"><ele>168.0</ele><time>2026-03-28T10:49:06.757Z</time></trkpt><trkpt lat="38.0382107" lon="-1.3566774"><ele>168.0</ele><time>2026-03-28T10:49:08.757Z</time></trkpt><trkpt lat="38.038246" lon="-1.35658"><ele>168.0</ele><time>2026-03-28T10:49:10.756Z</time></trkpt><trkpt lat="38.0382772" lon="-1.356493"><ele>168.0</ele><time>2026-03-28T10:49:12.756Z</time></trkpt><trkpt lat="38.0383055" lon="-1.3564154"><ele>168.0</ele><time>2026-03-28T10:49:14.757Z</time></trkpt><trkpt lat="38.0383307" lon="-1.3563406"><ele>169.33333333333334</ele><time>2026-03-28T10:49:16.757Z</time></trkpt><trkpt lat="38.0383625" lon="-1.3562664"><ele>170.66666666666666</ele><time>2026-03-28T10:49:18.755Z</time></trkpt><trkpt lat="38.0383994" lon="-1.3561621"><ele>172.0</ele><time>2026-03-28T10:49:21.756Z</time></trkpt><trkpt lat="38.0384721" lon="-1.3561146"><ele>173.33333333333331</ele><time>2026-03-28T10:49:24.756Z</time></trkpt><trkpt lat="38.0385511" lon="-1.3560858"><ele>174.66666666666666</ele><time>2026-03-28T10:49:28.755Z</time></trkpt><trkpt lat="38.0386154" lon="-1.3560579"><ele>176.0</ele><time>2026-03-28T10:49:31.757Z</time></trkpt><trkpt lat="38.0386966" lon="-1.3560653"><ele>176.0</ele><time>2026-03-28T10:49:34.757Z</time></trkpt><trkpt lat="38.0387821" lon="-1.3560792"><ele>176.0</ele><time>2026-03-28T10:49:38.757Z</time></trkpt><trkpt lat="38.0388464" lon="-1.3560991"><ele>176.0</ele><time>2026-03-28T10:49:41.756Z</time></trkpt><trkpt lat="38.0389239" lon="-1.3561238"><ele>176.0</ele><time>2026-03-28T10:49:44.757Z</time></trkpt><trkpt lat="38.0389978" lon="-1.3561414"><ele>176.0</ele><time>2026-03-28T10:49:47.758Z</time></trkpt><trkpt lat="38.039061" lon="-1.3561698"><ele>176.0</ele><time>2026-03-28T10:49:50.756Z</time></trkpt><trkpt lat="38.0391163" lon="-1.3562269"><ele>176.0</ele><time>2026-03-28T10:49:54.757Z</time></trkpt><trkpt lat="38.0391748" lon="-1.3562737"><ele>177.33333333333331</ele><time>2026-03-28T10:49:58.756Z</time></trkpt><trkpt lat="38.0392393" lon="-1.3562729"><ele>178.66666666666666</ele><time>2026-03-28T10:50:01.757Z</time></trkpt><trkpt lat="38.0393151" lon="-1.3562432"><ele>180.0</ele><time>2026-03-28T10:50:06.757Z</time></trkpt><trkpt lat="38.0393763" lon="-1.3562109"><ele>181.33333333333334</ele><time>2026-03-28T10:50:09.757Z</time></trkpt><trkpt lat="38.0394096" lon="-1.3561335"><ele>182.66666666666669</ele><time>2026-03-28T10:50:12.757Z</time></trkpt><trkpt lat="38.0394479" lon="-1.3560376"><ele>184.0</ele><time>2026-03-28T10:50:15.757Z</time></trkpt><trkpt lat="38.0394844" lon="-1.3559362"><ele>184.0</ele><time>2026-03-28T10:50:18.757Z</time></trkpt><trkpt lat="38.0395115" lon="-1.3558639"><ele>184.0</ele><time>2026-03-28T10:50:20.757Z</time></trkpt><trkpt lat="38.0395407" lon="-1.355786"><ele>184.0</ele><time>2026-03-28T10:50:22.757Z</time></trkpt><trkpt lat="38.0395826" lon="-1.3556985"><ele>184.0</ele><time>2026-03-28T10:50:24.756Z</time></trkpt><trkpt lat="38.0396221" lon="-1.3556132"><ele>184.0</ele><time>2026-03-28T10:50:26.757Z</time></trkpt><trkpt lat="38.0396582" lon="-1.3555277"><ele>184.0</ele><time>2026-03-28T10:50:28.756Z</time></trkpt><trkpt lat="38.0396948" lon="-1.3554482"><ele>184.0</ele><time>2026-03-28T10:50:30.757Z</time></trkpt><trkpt lat="38.0397277" lon="-1.3553708"><ele>184.14285714285714</ele><time>2026-03-28T10:50:32.756Z</time></trkpt><trkpt lat="38.0397716" lon="-1.3552907"><ele>184.28571428571428</ele><time>2026-03-28T10:50:34.756Z</time></trkpt><trkpt lat="38.0397983" lon="-1.3552095"><ele>184.42857142857142</ele><time>2026-03-28T10:50:36.756Z</time></trkpt><trkpt lat="38.0398305" lon="-1.3551324"><ele>184.57142857142856</ele><time>2026-03-28T10:50:38.756Z</time></trkpt><trkpt lat="38.0398627" lon="-1.3550625"><ele>184.71428571428572</ele><time>2026-03-28T10:50:40.757Z</time></trkpt><trkpt lat="38.0399053" lon="-1.3549802"><ele>184.85714285714283</ele><time>2026-03-28T10:50:43.755Z</time></trkpt><trkpt lat="38.0399464" lon="-1.3548926"><ele>185.0</ele><time>2026-03-28T10:50:47.756Z</time></trkpt><trkpt lat="38.0399885" lon="-1.3548289"><ele>185.0</ele><time>2026-03-28T10:50:51.756Z</time></trkpt><trkpt lat="38.0399716" lon="-1.354724"><ele>185.0</ele><time>2026-03-28T10:50:57.757Z</time></trkpt><trkpt lat="38.0399884" lon="-1.3546273"><ele>185.0</ele><time>2026-03-28T10:51:00.755Z</time></trkpt><trkpt lat="38.0400409" lon="-1.3545547"><ele>185.0</ele><time>2026-03-28T10:51:02.755Z</time></trkpt><trkpt lat="38.040094" lon="-1.3544758"><ele>185.0</ele><time>2026-03-28T10:51:05.755Z</time></trkpt><trkpt lat="38.0401434" lon="-1.3544051"><ele>185.0</ele><time>2026-03-28T10:51:07.756Z</time></trkpt><trkpt lat="38.0401832" lon="-1.3543368"><ele>185.0</ele><time>2026-03-28T10:51:09.756Z</time></trkpt><trkpt lat="38.0402478" lon="-1.3542929"><ele>185.0</ele><time>2026-03-28T10:51:12.756Z</time></trkpt><trkpt lat="38.0403175" lon="-1.3542963"><ele>185.0</ele><time>2026-03-28T10:51:55.758Z</time></trkpt><trkpt lat="38.0403542" lon="-1.3542168"><ele>185.0</ele><time>2026-03-28T10:51:58.756Z</time></trkpt><trkpt lat="38.0403934" lon="-1.3541351"><ele>185.0</ele><time>2026-03-28T10:52:00.756Z</time></trkpt><trkpt lat="38.0404607" lon="-1.3540641"><ele>185.0</ele><time>2026-03-28T10:52:02.755Z</time></trkpt><trkpt lat="38.0405351" lon="-1.3539831"><ele>185.0</ele><time>2026-03-28T10:52:04.755Z</time></trkpt><trkpt lat="38.040602" lon="-1.3539175"><ele>185.0</ele><time>2026-03-28T10:52:06.756Z</time></trkpt><trkpt lat="38.0406648" lon="-1.3538525"><ele>185.0</ele><time>2026-03-28T10:52:08.758Z</time></trkpt><trkpt lat="38.0407318" lon="-1.3537888"><ele>185.0</ele><time>2026-03-28T10:52:10.757Z</time></trkpt><trkpt lat="38.0407934" lon="-1.3537287"><ele>185.0</ele><time>2026-03-28T10:52:12.756Z</time></trkpt><trkpt lat="38.040857" lon="-1.3536573"><ele>185.0</ele><time>2026-03-28T10:52:14.755Z</time></trkpt><trkpt lat="38.0409272" lon="-1.3535908"><ele>184.83333333333331</ele><time>2026-03-28T10:52:16.756Z</time></trkpt><trkpt lat="38.0410114" lon="-1.3535215"><ele>184.66666666666666</ele><time>2026-03-28T10:52:18.757Z</time></trkpt><trkpt lat="38.0410895" lon="-1.3534506"><ele>184.5</ele><time>2026-03-28T10:52:20.755Z</time></trkpt><trkpt lat="38.0411504" lon="-1.3533879"><ele>184.33333333333334</ele><time>2026-03-28T10:52:22.756Z</time></trkpt><trkpt lat="38.0412141" lon="-1.3533452"><ele>184.16666666666669</ele><time>2026-03-28T10:52:23.757Z</time></trkpt><trkpt lat="38.0412711" lon="-1.3533094"><ele>184.0</ele><time>2026-03-28T10:52:25.757Z</time></trkpt><trkpt lat="38.0413519" lon="-1.3532608"><ele>184.0</ele><time>2026-03-28T10:52:27.757Z</time></trkpt><trkpt lat="38.0414316" lon="-1.3532134"><ele>184.0</ele><time>2026-03-28T10:52:29.756Z</time></trkpt><trkpt lat="38.0415012" lon="-1.3531551"><ele>184.0</ele><time>2026-03-28T10:52:31.755Z</time></trkpt><trkpt lat="38.0415724" lon="-1.3531034"><ele>184.0</ele><time>2026-03-28T10:52:33.755Z</time></trkpt><trkpt lat="38.0416489" lon="-1.3530629"><ele>184.0</ele><time>2026-03-28T10:52:35.756Z</time></trkpt><trkpt lat="38.0417191" lon="-1.3530243"><ele>184.0</ele><time>2026-03-28T10:52:37.756Z</time></trkpt><trkpt lat="38.0417973" lon="-1.3530247"><ele>182.39999999999998</ele><time>2026-03-28T10:52:39.756Z</time></trkpt><trkpt lat="38.0418798" lon="-1.3530207"><ele>180.8</ele><time>2026-03-28T10:52:41.756Z</time></trkpt><trkpt lat="38.0419634" lon="-1.3529875"><ele>179.2</ele><time>2026-03-28T10:52:43.755Z</time></trkpt><trkpt lat="38.0420409" lon="-1.352938"><ele>177.60000000000002</ele><time>2026-03-28T10:52:45.758Z</time></trkpt><trkpt lat="38.0421246" lon="-1.3528776"><ele>176.0</ele><time>2026-03-28T10:52:47.755Z</time></trkpt><trkpt lat="38.0422113" lon="-1.3528212"><ele>176.0</ele><time>2026-03-28T10:52:49.755Z</time></trkpt><trkpt lat="38.0422928" lon="-1.352756"><ele>176.0</ele><time>2026-03-28T10:52:51.756Z</time></trkpt><trkpt lat="38.0423738" lon="-1.3526931"><ele>176.0</ele><time>2026-03-28T10:52:53.755Z</time></trkpt><trkpt lat="38.0424646" lon="-1.3526284"><ele>176.0</ele><time>2026-03-28T10:52:55.756Z</time></trkpt><trkpt lat="38.0425497" lon="-1.3525664"><ele>176.0</ele><time>2026-03-28T10:52:57.755Z</time></trkpt><trkpt lat="38.0426349" lon="-1.3524969"><ele>176.0</ele><time>2026-03-28T10:52:59.757Z</time></trkpt><trkpt lat="38.0427223" lon="-1.3524151"><ele>176.0</ele><time>2026-03-28T10:53:01.756Z</time></trkpt><trkpt lat="38.0428123" lon="-1.3523461"><ele>176.0</ele><time>2026-03-28T10:53:03.757Z</time></trkpt><trkpt lat="38.0429062" lon="-1.3522612"><ele>176.0</ele><time>2026-03-28T10:53:05.755Z</time></trkpt><trkpt lat="38.0430036" lon="-1.3521853"><ele>176.0</ele><time>2026-03-28T10:53:07.756Z</time></trkpt><trkpt lat="38.0431043" lon="-1.3520982"><ele>174.5</ele><time>2026-03-28T10:53:09.757Z</time></trkpt><trkpt lat="38.0432013" lon="-1.3520136"><ele>173.0</ele><time>2026-03-28T10:53:11.756Z</time></trkpt><trkpt lat="38.043295" lon="-1.3519283"><ele>171.5</ele><time>2026-03-28T10:53:13.757Z</time></trkpt><trkpt lat="38.0433895" lon="-1.3518567"><ele>170.0</ele><time>2026-03-28T10:53:15.756Z</time></trkpt><trkpt lat="38.0434801" lon="-1.3517749"><ele>169.75</ele><time>2026-03-28T10:53:17.755Z</time></trkpt><trkpt lat="38.0435806" lon="-1.3516921"><ele>169.5</ele><time>2026-03-28T10:53:19.756Z</time></trkpt><trkpt lat="38.0436791" lon="-1.3516099"><ele>169.25</ele><time>2026-03-28T10:53:21.757Z</time></trkpt><trkpt lat="38.0437806" lon="-1.3515295"><ele>169.0</ele><time>2026-03-28T10:53:23.755Z</time></trkpt><trkpt lat="38.0438878" lon="-1.3514408"><ele>168.79999999999998</ele><time>2026-03-28T10:53:25.756Z</time></trkpt><trkpt lat="38.0439964" lon="-1.3513477"><ele>168.6</ele><time>2026-03-28T10:53:27.755Z</time></trkpt><trkpt lat="38.0440492" lon="-1.3513015"><ele>168.4</ele><time>2026-03-28T10:53:28.756Z</time></trkpt><trkpt lat="38.0441546" lon="-1.3512145"><ele>168.2</ele><time>2026-03-28T10:53:30.757Z</time></trkpt><trkpt lat="38.0442071" lon="-1.3511662"><ele>168.0</ele><time>2026-03-28T10:53:31.756Z</time></trkpt><trkpt lat="38.0442641" lon="-1.3511227"><ele>168.0</ele><time>2026-03-28T10:53:32.756Z</time></trkpt><trkpt lat="38.0443169" lon="-1.3510737"><ele>168.0</ele><time>2026-03-28T10:53:33.757Z</time></trkpt><trkpt lat="38.0443732" lon="-1.3510285"><ele>168.0</ele><time>2026-03-28T10:53:34.757Z</time></trkpt><trkpt lat="38.0444268" lon="-1.3509802"><ele>168.0</ele><time>2026-03-28T10:53:35.755Z</time></trkpt><trkpt lat="38.0444804" lon="-1.3509298"><ele>168.0</ele><time>2026-03-28T10:53:36.757Z</time></trkpt><trkpt lat="38.0445324" lon="-1.3508831"><ele>168.0</ele><time>2026-03-28T10:53:37.756Z</time></trkpt><trkpt lat="38.0445833" lon="-1.3508315"><ele>168.0</ele><time>2026-03-28T10:53:38.755Z</time></trkpt><trkpt lat="38.044634" lon="-1.350783"><ele>168.0</ele><time>2026-03-28T10:53:39.756Z</time></trkpt><trkpt lat="38.0447331" lon="-1.3506868"><ele>168.0</ele><time>2026-03-28T10:53:41.757Z</time></trkpt><trkpt lat="38.0448281" lon="-1.3505827"><ele>168.0</ele><time>2026-03-28T10:53:43.757Z</time></trkpt><trkpt lat="38.0448773" lon="-1.3505277"><ele>168.0</ele><time>2026-03-28T10:53:44.758Z</time></trkpt><trkpt lat="38.0449253" lon="-1.3504715"><ele>168.0</ele><time>2026-03-28T10:53:45.758Z</time></trkpt><trkpt lat="38.0449715" lon="-1.3504116"><ele>168.0</ele><time>2026-03-28T10:53:46.756Z</time></trkpt><trkpt lat="38.0450172" lon="-1.3503503"><ele>169.16666666666666</ele><time>2026-03-28T10:53:47.756Z</time></trkpt><trkpt lat="38.0450623" lon="-1.3502857"><ele>170.33333333333334</ele><time>2026-03-28T10:53:48.756Z</time></trkpt><trkpt lat="38.0451069" lon="-1.3502256"><ele>171.5</ele><time>2026-03-28T10:53:49.755Z</time></trkpt><trkpt lat="38.0451512" lon="-1.3501642"><ele>172.66666666666669</ele><time>2026-03-28T10:53:50.756Z</time></trkpt><trkpt lat="38.0452292" lon="-1.350052"><ele>173.83333333333334</ele><time>2026-03-28T10:53:52.756Z</time></trkpt><trkpt lat="38.0452611" lon="-1.349926"><ele>175.0</ele><time>2026-03-28T10:53:54.755Z</time></trkpt><trkpt lat="38.0452264" lon="-1.3498074"><ele>174.0</ele><time>2026-03-28T10:53:56.756Z</time></trkpt><trkpt lat="38.0451903" lon="-1.3496889"><ele>173.0</ele><time>2026-03-28T10:53:58.758Z</time></trkpt><trkpt lat="38.0452062" lon="-1.3495638"><ele>172.0</ele><time>2026-03-28T10:54:00.756Z</time></trkpt><trkpt lat="38.0452646" lon="-1.3494641"><ele>171.0</ele><time>2026-03-28T10:54:02.756Z</time></trkpt><trkpt lat="38.04533" lon="-1.3493828"><ele>170.0</ele><time>2026-03-28T10:54:04.756Z</time></trkpt><trkpt lat="38.0454156" lon="-1.3493385"><ele>170.0</ele><time>2026-03-28T10:54:06.756Z</time></trkpt><trkpt lat="38.0455428" lon="-1.3493486"><ele>170.0</ele><time>2026-03-28T10:54:08.757Z</time></trkpt><trkpt lat="38.0456162" lon="-1.3493467"><ele>170.0</ele><time>2026-03-28T10:54:09.757Z</time></trkpt><trkpt lat="38.0456916" lon="-1.3493301"><ele>170.0</ele><time>2026-03-28T10:54:10.757Z</time></trkpt><trkpt lat="38.045762" lon="-1.3493005"><ele>170.0</ele><time>2026-03-28T10:54:11.758Z</time></trkpt><trkpt lat="38.0458196" lon="-1.3492411"><ele>170.0</ele><time>2026-03-28T10:54:12.755Z</time></trkpt><trkpt lat="38.0458736" lon="-1.3491757"><ele>169.0</ele><time>2026-03-28T10:54:13.757Z</time></trkpt><trkpt lat="38.045921" lon="-1.3491137"><ele>168.0</ele><time>2026-03-28T10:54:14.756Z</time></trkpt><trkpt lat="38.0459639" lon="-1.3490413"><ele>167.0</ele><time>2026-03-28T10:54:15.755Z</time></trkpt><trkpt lat="38.0460056" lon="-1.3489746"><ele>166.0</ele><time>2026-03-28T10:54:16.755Z</time></trkpt><trkpt lat="38.0460518" lon="-1.3489076"><ele>165.0</ele><time>2026-03-28T10:54:17.757Z</time></trkpt><trkpt lat="38.0460959" lon="-1.3488455"><ele>164.0</ele><time>2026-03-28T10:54:18.756Z</time></trkpt><trkpt lat="38.0461396" lon="-1.3487843"><ele>163.0</ele><time>2026-03-28T10:54:19.758Z</time></trkpt><trkpt lat="38.0461823" lon="-1.3487229"><ele>162.2857142857143</ele><time>2026-03-28T10:54:20.757Z</time></trkpt><trkpt lat="38.0462309" lon="-1.3486627"><ele>161.57142857142856</ele><time>2026-03-28T10:54:21.756Z</time></trkpt><trkpt lat="38.0462754" lon="-1.3486009"><ele>160.85714285714286</ele><time>2026-03-28T10:54:22.756Z</time></trkpt><trkpt lat="38.0463214" lon="-1.3485377"><ele>160.14285714285717</ele><time>2026-03-28T10:54:23.756Z</time></trkpt><trkpt lat="38.0463654" lon="-1.3484697"><ele>159.42857142857144</ele><time>2026-03-28T10:54:24.756Z</time></trkpt><trkpt lat="38.0464174" lon="-1.3484054"><ele>158.71428571428572</ele><time>2026-03-28T10:54:25.756Z</time></trkpt><trkpt lat="38.0464822" lon="-1.3483372"><ele>158.0</ele><time>2026-03-28T10:54:26.758Z</time></trkpt><trkpt lat="38.0465468" lon="-1.3482552"><ele>158.0</ele><time>2026-03-28T10:54:27.756Z</time></trkpt><trkpt lat="38.0466066" lon="-1.3481806"><ele>158.0</ele><time>2026-03-28T10:54:28.755Z</time></trkpt><trkpt lat="38.046659" lon="-1.3481122"><ele>158.0</ele><time>2026-03-28T10:54:29.755Z</time></trkpt><trkpt lat="38.0467338" lon="-1.3480037"><ele>158.0</ele><time>2026-03-28T10:54:31.758Z</time></trkpt><trkpt lat="38.0467828" lon="-1.3479401"><ele>158.0</ele><time>2026-03-28T10:54:33.757Z</time></trkpt><trkpt lat="38.0468454" lon="-1.3478429"><ele>158.0</ele><time>2026-03-28T10:54:35.755Z</time></trkpt><trkpt lat="38.0469075" lon="-1.3477489"><ele>159.2</ele><time>2026-03-28T10:54:37.756Z</time></trkpt><trkpt lat="38.0469702" lon="-1.347653"><ele>160.4</ele><time>2026-03-28T10:54:39.756Z</time></trkpt><trkpt lat="38.0470307" lon="-1.3475638"><ele>161.6</ele><time>2026-03-28T10:54:41.756Z</time></trkpt><trkpt lat="38.0470974" lon="-1.3474709"><ele>162.79999999999998</ele><time>2026-03-28T10:54:43.756Z</time></trkpt><trkpt lat="38.047172" lon="-1.3473731"><ele>164.0</ele><time>2026-03-28T10:54:45.755Z</time></trkpt><trkpt lat="38.047236" lon="-1.3472767"><ele>163.2</ele><time>2026-03-28T10:54:47.756Z</time></trkpt><trkpt lat="38.0473004" lon="-1.3471833"><ele>162.39999999999998</ele><time>2026-03-28T10:54:49.756Z</time></trkpt><trkpt lat="38.0473717" lon="-1.3470774"><ele>161.6</ele><time>2026-03-28T10:54:51.756Z</time></trkpt><trkpt lat="38.0474424" lon="-1.3469768"><ele>160.8</ele><time>2026-03-28T10:54:53.757Z</time></trkpt><trkpt lat="38.047515" lon="-1.3468774"><ele>160.0</ele><time>2026-03-28T10:54:55.756Z</time></trkpt><trkpt lat="38.0475912" lon="-1.3467742"><ele>160.0</ele><time>2026-03-28T10:54:57.756Z</time></trkpt><trkpt lat="38.0476645" lon="-1.3466702"><ele>160.0</ele><time>2026-03-28T10:54:59.756Z</time></trkpt><trkpt lat="38.0477328" lon="-1.3465679"><ele>160.0</ele><time>2026-03-28T10:55:01.756Z</time></trkpt><trkpt lat="38.0478085" lon="-1.3464662"><ele>160.0</ele><time>2026-03-28T10:55:03.755Z</time></trkpt><trkpt lat="38.0478832" lon="-1.346366"><ele>160.0</ele><time>2026-03-28T10:55:05.757Z</time></trkpt><trkpt lat="38.0479558" lon="-1.3462695"><ele>159.8</ele><time>2026-03-28T10:55:07.755Z</time></trkpt><trkpt lat="38.0480276" lon="-1.3461692"><ele>159.6</ele><time>2026-03-28T10:55:09.756Z</time></trkpt><trkpt lat="38.0481027" lon="-1.3460637"><ele>159.4</ele><time>2026-03-28T10:55:11.756Z</time></trkpt><trkpt lat="38.0481799" lon="-1.3459607"><ele>159.2</ele><time>2026-03-28T10:55:13.756Z</time></trkpt><trkpt lat="38.048253" lon="-1.3458622"><ele>159.0</ele><time>2026-03-28T10:55:15.756Z</time></trkpt><trkpt lat="38.0483198" lon="-1.3457678"><ele>159.0</ele><time>2026-03-28T10:55:17.757Z</time></trkpt><trkpt lat="38.0483895" lon="-1.3456705"><ele>159.0</ele><time>2026-03-28T10:55:19.755Z</time></trkpt><trkpt lat="38.0484612" lon="-1.3455743"><ele>159.0</ele><time>2026-03-28T10:55:21.756Z</time></trkpt><trkpt lat="38.0485325" lon="-1.3454779"><ele>159.0</ele><time>2026-03-28T10:55:23.755Z</time></trkpt><trkpt lat="38.0486022" lon="-1.3453781"><ele>159.0</ele><time>2026-03-28T10:55:25.755Z</time></trkpt><trkpt lat="38.0486706" lon="-1.3452785"><ele>159.2</ele><time>2026-03-28T10:55:27.756Z</time></trkpt><trkpt lat="38.048737" lon="-1.3451842"><ele>159.4</ele><time>2026-03-28T10:55:29.756Z</time></trkpt><trkpt lat="38.0487992" lon="-1.3450866"><ele>159.6</ele><time>2026-03-28T10:55:31.755Z</time></trkpt><trkpt lat="38.0488631" lon="-1.3449879"><ele>159.8</ele><time>2026-03-28T10:55:33.757Z</time></trkpt><trkpt lat="38.0489296" lon="-1.3448958"><ele>160.0</ele><time>2026-03-28T10:55:35.757Z</time></trkpt><trkpt lat="38.0489916" lon="-1.3447855"><ele>159.8</ele><time>2026-03-28T10:55:37.755Z</time></trkpt><trkpt lat="38.0490508" lon="-1.3446768"><ele>159.6</ele><time>2026-03-28T10:55:39.755Z</time></trkpt><trkpt lat="38.0491073" lon="-1.344567"><ele>159.4</ele><time>2026-03-28T10:55:41.755Z</time></trkpt><trkpt lat="38.0491576" lon="-1.344457"><ele>159.2</ele><time>2026-03-28T10:55:43.756Z</time></trkpt><trkpt lat="38.0492077" lon="-1.344347"><ele>159.0</ele><time>2026-03-28T10:55:45.756Z</time></trkpt><trkpt lat="38.0492476" lon="-1.3442384"><ele>159.8</ele><time>2026-03-28T10:55:47.757Z</time></trkpt><trkpt lat="38.0492829" lon="-1.3441218"><ele>160.60000000000002</ele><time>2026-03-28T10:55:49.757Z</time></trkpt><trkpt lat="38.0493059" lon="-1.3440116"><ele>161.4</ele><time>2026-03-28T10:55:51.756Z</time></trkpt><trkpt lat="38.0493498" lon="-1.3439088"><ele>162.20000000000002</ele><time>2026-03-28T10:55:53.755Z</time></trkpt><trkpt lat="38.0493793" lon="-1.3437937"><ele>163.0</ele><time>2026-03-28T10:55:55.755Z</time></trkpt><trkpt lat="38.0494104" lon="-1.3436757"><ele>163.0</ele><time>2026-03-28T10:55:57.756Z</time></trkpt><trkpt lat="38.0494339" lon="-1.3435494"><ele>163.0</ele><time>2026-03-28T10:55:59.756Z</time></trkpt><trkpt lat="38.0494522" lon="-1.3434211"><ele>163.0</ele><time>2026-03-28T10:56:01.758Z</time></trkpt><trkpt lat="38.0494653" lon="-1.34329"><ele>163.0</ele><time>2026-03-28T10:56:03.756Z</time></trkpt><trkpt lat="38.0494787" lon="-1.343162"><ele>163.0</ele><time>2026-03-28T10:56:05.756Z</time></trkpt><trkpt lat="38.0494939" lon="-1.343035"><ele>163.66666666666669</ele><time>2026-03-28T10:56:07.756Z</time></trkpt><trkpt lat="38.0495238" lon="-1.3429212"><ele>164.33333333333334</ele><time>2026-03-28T10:56:09.756Z</time></trkpt><trkpt lat="38.0495659" lon="-1.3428233"><ele>165.0</ele><time>2026-03-28T10:56:11.757Z</time></trkpt><trkpt lat="38.0496269" lon="-1.3427687"><ele>165.66666666666666</ele><time>2026-03-28T10:56:13.756Z</time></trkpt><trkpt lat="38.0496862" lon="-1.3427108"><ele>166.33333333333331</ele><time>2026-03-28T10:56:15.755Z</time></trkpt><trkpt lat="38.0497414" lon="-1.3426592"><ele>167.0</ele><time>2026-03-28T10:56:17.758Z</time></trkpt><trkpt lat="38.0497946" lon="-1.3426147"><ele>167.0</ele><time>2026-03-28T10:56:19.758Z</time></trkpt><trkpt lat="38.0498671" lon="-1.3425439"><ele>167.0</ele><time>2026-03-28T10:56:22.755Z</time></trkpt><trkpt lat="38.0499393" lon="-1.342479"><ele>167.0</ele><time>2026-03-28T10:56:25.756Z</time></trkpt><trkpt lat="38.0500087" lon="-1.3424091"><ele>167.0</ele><time>2026-03-28T10:56:28.755Z</time></trkpt><trkpt lat="38.0500483" lon="-1.342313"><ele>167.0</ele><time>2026-03-28T10:56:31.755Z</time></trkpt><trkpt lat="38.0500211" lon="-1.3422217"><ele>167.0</ele><time>2026-03-28T10:56:33.755Z</time></trkpt><trkpt lat="38.0499869" lon="-1.3421368"><ele>167.33333333333331</ele><time>2026-03-28T10:56:35.755Z</time></trkpt><trkpt lat="38.0499176" lon="-1.3420868"><ele>167.66666666666666</ele><time>2026-03-28T10:56:38.755Z</time></trkpt><trkpt lat="38.0498799" lon="-1.3420173"><ele>168.0</ele><time>2026-03-28T10:56:40.756Z</time></trkpt><trkpt lat="38.0498515" lon="-1.3419393"><ele>168.33333333333334</ele><time>2026-03-28T10:56:42.755Z</time></trkpt><trkpt lat="38.0498535" lon="-1.341827"><ele>168.66666666666669</ele><time>2026-03-28T10:56:45.756Z</time></trkpt><trkpt lat="38.0498936" lon="-1.3417491"><ele>169.0</ele><time>2026-03-28T10:56:48.757Z</time></trkpt><trkpt lat="38.0499487" lon="-1.3416776"><ele>169.16666666666669</ele><time>2026-03-28T10:56:51.757Z</time></trkpt><trkpt lat="38.0500218" lon="-1.3416278"><ele>169.33333333333334</ele><time>2026-03-28T10:56:54.756Z</time></trkpt><trkpt lat="38.0500758" lon="-1.3415814"><ele>169.5</ele><time>2026-03-28T10:56:56.757Z</time></trkpt><trkpt lat="38.0501408" lon="-1.3415205"><ele>169.66666666666666</ele><time>2026-03-28T10:56:59.756Z</time></trkpt><trkpt lat="38.0502181" lon="-1.3414587"><ele>169.83333333333331</ele><time>2026-03-28T10:57:02.756Z</time></trkpt><trkpt lat="38.0502713" lon="-1.3414144"><ele>170.0</ele><time>2026-03-28T10:57:04.756Z</time></trkpt><trkpt lat="38.0503477" lon="-1.3413543"><ele>170.5</ele><time>2026-03-28T10:57:07.756Z</time></trkpt><trkpt lat="38.0504268" lon="-1.3413017"><ele>171.0</ele><time>2026-03-28T10:57:10.757Z</time></trkpt><trkpt lat="38.0504927" lon="-1.3412538"><ele>171.5</ele><time>2026-03-28T10:57:13.755Z</time></trkpt><trkpt lat="38.0505558" lon="-1.341178"><ele>172.0</ele><time>2026-03-28T10:57:16.756Z</time></trkpt><trkpt lat="38.0506073" lon="-1.3410981"><ele>172.5</ele><time>2026-03-28T10:57:18.755Z</time></trkpt><trkpt lat="38.0506038" lon="-1.3410002"><ele>173.0</ele><time>2026-03-28T10:57:20.755Z</time></trkpt><trkpt lat="38.0505617" lon="-1.3409296"><ele>173.0</ele><time>2026-03-28T10:57:22.756Z</time></trkpt><trkpt lat="38.0505009" lon="-1.3408872"><ele>173.0</ele><time>2026-03-28T10:57:24.755Z</time></trkpt><trkpt lat="38.0504374" lon="-1.3408862"><ele>173.0</ele><time>2026-03-28T10:57:26.755Z</time></trkpt><trkpt lat="38.0503656" lon="-1.3409342"><ele>173.0</ele><time>2026-03-28T10:57:29.757Z</time></trkpt><trkpt lat="38.0503294" lon="-1.3410308"><ele>173.0</ele><time>2026-03-28T10:57:32.756Z</time></trkpt><trkpt lat="38.0502736" lon="-1.3410714"><ele>173.0</ele><time>2026-03-28T10:57:34.756Z</time></trkpt><trkpt lat="38.0502125" lon="-1.3411052"><ele>173.0</ele><time>2026-03-28T10:57:36.757Z</time></trkpt><trkpt lat="38.0501463" lon="-1.3411496"><ele>173.0</ele><time>2026-03-28T10:57:38.755Z</time></trkpt><trkpt lat="38.0500729" lon="-1.341193"><ele>173.0</ele><time>2026-03-28T10:57:40.757Z</time></trkpt><trkpt lat="38.0499973" lon="-1.3412326"><ele>173.0</ele><time>2026-03-28T10:57:42.756Z</time></trkpt><trkpt lat="38.0499224" lon="-1.3412037"><ele>173.0</ele><time>2026-03-28T10:57:44.755Z</time></trkpt><trkpt lat="38.049862" lon="-1.3411514"><ele>173.0</ele><time>2026-03-28T10:57:46.756Z</time></trkpt><trkpt lat="38.0498015" lon="-1.3411226"><ele>173.0</ele><time>2026-03-28T10:57:48.757Z</time></trkpt><trkpt lat="38.0497298" lon="-1.3410857"><ele>172.83333333333331</ele><time>2026-03-28T10:57:51.756Z</time></trkpt><trkpt lat="38.0496576" lon="-1.3410444"><ele>172.66666666666666</ele><time>2026-03-28T10:58:25.757Z</time></trkpt><trkpt lat="38.0495944" lon="-1.3410016"><ele>172.5</ele><time>2026-03-28T10:58:27.757Z</time></trkpt><trkpt lat="38.0495331" lon="-1.3409666"><ele>172.33333333333334</ele><time>2026-03-28T10:58:29.757Z</time></trkpt><trkpt lat="38.049468" lon="-1.3409287"><ele>172.16666666666669</ele><time>2026-03-28T10:58:31.758Z</time></trkpt><trkpt lat="38.0493951" lon="-1.3408871"><ele>172.0</ele><time>2026-03-28T10:58:33.757Z</time></trkpt><trkpt lat="38.049322" lon="-1.3408439"><ele>172.0</ele><time>2026-03-28T10:58:35.757Z</time></trkpt><trkpt lat="38.0492512" lon="-1.3408052"><ele>172.0</ele><time>2026-03-28T10:58:37.755Z</time></trkpt><trkpt lat="38.0491831" lon="-1.3407648"><ele>172.0</ele><time>2026-03-28T10:58:39.756Z</time></trkpt><trkpt lat="38.0491327" lon="-1.340682"><ele>172.0</ele><time>2026-03-28T10:58:41.757Z</time></trkpt><trkpt lat="38.0491003" lon="-1.3405651"><ele>172.0</ele><time>2026-03-28T10:58:43.755Z</time></trkpt><trkpt lat="38.0490577" lon="-1.3404466"><ele>172.0</ele><time>2026-03-28T10:58:45.757Z</time></trkpt><trkpt lat="38.0490093" lon="-1.3403096"><ele>171.71428571428572</ele><time>2026-03-28T10:58:47.757Z</time></trkpt><trkpt lat="38.0489834" lon="-1.3402358"><ele>171.42857142857144</ele><time>2026-03-28T10:58:48.756Z</time></trkpt><trkpt lat="38.0489538" lon="-1.3401616"><ele>171.14285714285717</ele><time>2026-03-28T10:58:49.757Z</time></trkpt><trkpt lat="38.0489258" lon="-1.3400863"><ele>170.85714285714286</ele><time>2026-03-28T10:58:50.756Z</time></trkpt><trkpt lat="38.0488953" lon="-1.3400129"><ele>170.57142857142856</ele><time>2026-03-28T10:58:51.757Z</time></trkpt><trkpt lat="38.0488667" lon="-1.3399315"><ele>170.2857142857143</ele><time>2026-03-28T10:58:52.756Z</time></trkpt><trkpt lat="38.0488358" lon="-1.3398539"><ele>170.0</ele><time>2026-03-28T10:58:53.757Z</time></trkpt><trkpt lat="38.0488086" lon="-1.339773"><ele>169.33333333333331</ele><time>2026-03-28T10:58:54.757Z</time></trkpt><trkpt lat="38.0487791" lon="-1.3396863"><ele>168.66666666666666</ele><time>2026-03-28T10:58:55.755Z</time></trkpt><trkpt lat="38.0487513" lon="-1.3396004"><ele>168.0</ele><time>2026-03-28T10:58:56.757Z</time></trkpt><trkpt lat="38.0487206" lon="-1.3395084"><ele>167.33333333333334</ele><time>2026-03-28T10:58:57.758Z</time></trkpt><trkpt lat="38.0486885" lon="-1.3394178"><ele>166.66666666666669</ele><time>2026-03-28T10:58:58.755Z</time></trkpt><trkpt lat="38.0486515" lon="-1.3393272"><ele>166.0</ele><time>2026-03-28T10:58:59.758Z</time></trkpt><trkpt lat="38.0486139" lon="-1.339232"><ele>166.0</ele><time>2026-03-28T10:59:00.756Z</time></trkpt><trkpt lat="38.0485801" lon="-1.3391361"><ele>166.0</ele><time>2026-03-28T10:59:01.756Z</time></trkpt><trkpt lat="38.0485488" lon="-1.3390406"><ele>166.0</ele><time>2026-03-28T10:59:02.757Z</time></trkpt><trkpt lat="38.0485192" lon="-1.3389423"><ele>166.0</ele><time>2026-03-28T10:59:03.756Z</time></trkpt><trkpt lat="38.0484923" lon="-1.3388421"><ele>166.0</ele><time>2026-03-28T10:59:04.755Z</time></trkpt><trkpt lat="38.0484639" lon="-1.338745"><ele>166.0</ele><time>2026-03-28T10:59:05.757Z</time></trkpt><trkpt lat="38.0484368" lon="-1.3386436"><ele>165.83333333333334</ele><time>2026-03-28T10:59:06.757Z</time></trkpt><trkpt lat="38.0484106" lon="-1.3385436"><ele>165.66666666666669</ele><time>2026-03-28T10:59:07.755Z</time></trkpt><trkpt lat="38.048385" lon="-1.3384461"><ele>165.5</ele><time>2026-03-28T10:59:08.757Z</time></trkpt><trkpt lat="38.0483574" lon="-1.3383476"><ele>165.33333333333334</ele><time>2026-03-28T10:59:09.756Z</time></trkpt><trkpt lat="38.0483324" lon="-1.3382456"><ele>165.16666666666666</ele><time>2026-03-28T10:59:10.756Z</time></trkpt><trkpt lat="38.0483073" lon="-1.3381515"><ele>165.0</ele><time>2026-03-28T10:59:11.755Z</time></trkpt><trkpt lat="38.0482792" lon="-1.3380525"><ele>165.0</ele><time>2026-03-28T10:59:12.756Z</time></trkpt><trkpt lat="38.0482526" lon="-1.3379552"><ele>165.0</ele><time>2026-03-28T10:59:13.756Z</time></trkpt><trkpt lat="38.0482255" lon="-1.3378563"><ele>165.0</ele><time>2026-03-28T10:59:14.756Z</time></trkpt><trkpt lat="38.0481942" lon="-1.3377587"><ele>165.0</ele><time>2026-03-28T10:59:15.755Z</time></trkpt><trkpt lat="38.0481659" lon="-1.3376619"><ele>165.0</ele><time>2026-03-28T10:59:16.757Z</time></trkpt><trkpt lat="38.0481388" lon="-1.3375639"><ele>165.0</ele><time>2026-03-28T10:59:17.756Z</time></trkpt><trkpt lat="38.0481087" lon="-1.3374682"><ele>165.0</ele><time>2026-03-28T10:59:18.756Z</time></trkpt><trkpt lat="38.0480783" lon="-1.3373743"><ele>165.0</ele><time>2026-03-28T10:59:19.756Z</time></trkpt><trkpt lat="38.0480543" lon="-1.3372776"><ele>165.0</ele><time>2026-03-28T10:59:20.755Z</time></trkpt><trkpt lat="38.0480237" lon="-1.337184"><ele>165.0</ele><time>2026-03-28T10:59:21.756Z</time></trkpt><trkpt lat="38.0479939" lon="-1.3370892"><ele>165.0</ele><time>2026-03-28T10:59:22.756Z</time></trkpt><trkpt lat="38.0479672" lon="-1.3369944"><ele>165.0</ele><time>2026-03-28T10:59:23.755Z</time></trkpt><trkpt lat="38.0479433" lon="-1.3369011"><ele>164.33333333333334</ele><time>2026-03-28T10:59:24.756Z</time></trkpt><trkpt lat="38.0479174" lon="-1.336807"><ele>163.66666666666666</ele><time>2026-03-28T10:59:25.757Z</time></trkpt><trkpt lat="38.0478916" lon="-1.3367143"><ele>163.0</ele><time>2026-03-28T10:59:26.757Z</time></trkpt><trkpt lat="38.0478623" lon="-1.3366166"><ele>162.33333333333331</ele><time>2026-03-28T10:59:27.756Z</time></trkpt><trkpt lat="38.0478354" lon="-1.3365242"><ele>161.66666666666666</ele><time>2026-03-28T10:59:28.755Z</time></trkpt><trkpt lat="38.0478079" lon="-1.3364274"><ele>161.0</ele><time>2026-03-28T10:59:29.756Z</time></trkpt><trkpt lat="38.0477815" lon="-1.3363336"><ele>160.66666666666666</ele><time>2026-03-28T10:59:30.756Z</time></trkpt><trkpt lat="38.0477511" lon="-1.3362392"><ele>160.33333333333331</ele><time>2026-03-28T10:59:31.756Z</time></trkpt><trkpt lat="38.0477177" lon="-1.3361449"><ele>160.0</ele><time>2026-03-28T10:59:32.756Z</time></trkpt><trkpt lat="38.0476873" lon="-1.3360512"><ele>159.66666666666666</ele><time>2026-03-28T10:59:33.757Z</time></trkpt><trkpt lat="38.0476607" lon="-1.335959"><ele>159.33333333333334</ele><time>2026-03-28T10:59:34.757Z</time></trkpt><trkpt lat="38.0476323" lon="-1.3358664"><ele>159.0</ele><time>2026-03-28T10:59:35.755Z</time></trkpt><trkpt lat="38.047604" lon="-1.3357751"><ele>159.0</ele><time>2026-03-28T10:59:36.756Z</time></trkpt><trkpt lat="38.0475789" lon="-1.3356803"><ele>159.0</ele><time>2026-03-28T10:59:37.757Z</time></trkpt><trkpt lat="38.0475491" lon="-1.335584"><ele>159.0</ele><time>2026-03-28T10:59:38.756Z</time></trkpt><trkpt lat="38.0475218" lon="-1.3354879"><ele>159.0</ele><time>2026-03-28T10:59:39.757Z</time></trkpt><trkpt lat="38.0474955" lon="-1.335395"><ele>159.0</ele><time>2026-03-28T10:59:40.756Z</time></trkpt><trkpt lat="38.0474638" lon="-1.3353034"><ele>159.0</ele><time>2026-03-28T10:59:41.756Z</time></trkpt><trkpt lat="38.0474345" lon="-1.3352152"><ele>158.57142857142856</ele><time>2026-03-28T10:59:42.757Z</time></trkpt><trkpt lat="38.0474052" lon="-1.3351293"><ele>158.14285714285717</ele><time>2026-03-28T10:59:43.757Z</time></trkpt><trkpt lat="38.0473732" lon="-1.3350403"><ele>157.71428571428572</ele><time>2026-03-28T10:59:44.755Z</time></trkpt><trkpt lat="38.0473414" lon="-1.334953"><ele>157.28571428571428</ele><time>2026-03-28T10:59:45.757Z</time></trkpt><trkpt lat="38.0473055" lon="-1.3348721"><ele>156.85714285714283</ele><time>2026-03-28T10:59:46.758Z</time></trkpt><trkpt lat="38.0472679" lon="-1.3347956"><ele>156.42857142857144</ele><time>2026-03-28T10:59:47.756Z</time></trkpt><trkpt lat="38.0472279" lon="-1.3347169"><ele>156.0</ele><time>2026-03-28T10:59:48.757Z</time></trkpt><trkpt lat="38.0471915" lon="-1.3346404"><ele>156.0</ele><time>2026-03-28T10:59:49.755Z</time></trkpt><trkpt lat="38.0471536" lon="-1.3345664"><ele>156.0</ele><time>2026-03-28T10:59:50.757Z</time></trkpt><trkpt lat="38.0471129" lon="-1.3344992"><ele>156.0</ele><time>2026-03-28T10:59:51.756Z</time></trkpt><trkpt lat="38.0470406" lon="-1.3343696"><ele>156.0</ele><time>2026-03-28T10:59:53.755Z</time></trkpt><trkpt lat="38.0470006" lon="-1.3343043"><ele>156.0</ele><time>2026-03-28T10:59:54.758Z</time></trkpt><trkpt lat="38.0469606" lon="-1.3342413"><ele>156.0</ele><time>2026-03-28T10:59:55.756Z</time></trkpt><trkpt lat="38.0469203" lon="-1.3341795"><ele>156.0</ele><time>2026-03-28T10:59:56.756Z</time></trkpt><trkpt lat="38.0468396" lon="-1.3340615"><ele>156.0</ele><time>2026-03-28T10:59:58.757Z</time></trkpt><trkpt lat="38.0467591" lon="-1.3339453"><ele>156.0</ele><time>2026-03-28T11:00:00.755Z</time></trkpt><trkpt lat="38.0466732" lon="-1.3338415"><ele>156.0</ele><time>2026-03-28T11:00:02.755Z</time></trkpt><trkpt lat="38.046586" lon="-1.3337344"><ele>156.5</ele><time>2026-03-28T11:00:04.756Z</time></trkpt><trkpt lat="38.0465051" lon="-1.3336238"><ele>157.0</ele><time>2026-03-28T11:00:06.755Z</time></trkpt><trkpt lat="38.0464309" lon="-1.3335238"><ele>157.5</ele><time>2026-03-28T11:00:08.756Z</time></trkpt><trkpt lat="38.0463519" lon="-1.3334215"><ele>158.0</ele><time>2026-03-28T11:00:10.755Z</time></trkpt><trkpt lat="38.0462743" lon="-1.333311"><ele>158.0</ele><time>2026-03-28T11:00:12.757Z</time></trkpt><trkpt lat="38.0462324" lon="-1.33325"><ele>158.0</ele><time>2026-03-28T11:00:13.756Z</time></trkpt><trkpt lat="38.0461529" lon="-1.3331351"><ele>158.0</ele><time>2026-03-28T11:00:15.758Z</time></trkpt><trkpt lat="38.046068" lon="-1.3330215"><ele>158.0</ele><time>2026-03-28T11:00:17.758Z</time></trkpt><trkpt lat="38.0459853" lon="-1.3329058"><ele>158.0</ele><time>2026-03-28T11:00:19.757Z</time></trkpt><trkpt lat="38.0459442" lon="-1.3328429"><ele>157.20000000000002</ele><time>2026-03-28T11:00:20.755Z</time></trkpt><trkpt lat="38.0459004" lon="-1.3327828"><ele>156.4</ele><time>2026-03-28T11:00:21.757Z</time></trkpt><trkpt lat="38.0458249" lon="-1.3326671"><ele>155.60000000000002</ele><time>2026-03-28T11:00:23.755Z</time></trkpt><trkpt lat="38.0457332" lon="-1.3325576"><ele>154.8</ele><time>2026-03-28T11:00:25.756Z</time></trkpt><trkpt lat="38.0456485" lon="-1.3324368"><ele>154.0</ele><time>2026-03-28T11:00:27.756Z</time></trkpt><trkpt lat="38.0456026" lon="-1.3323662"><ele>154.0</ele><time>2026-03-28T11:00:28.757Z</time></trkpt><trkpt lat="38.0455656" lon="-1.332301"><ele>154.0</ele><time>2026-03-28T11:00:29.757Z</time></trkpt><trkpt lat="38.0455222" lon="-1.3322398"><ele>154.0</ele><time>2026-03-28T11:00:30.757Z</time></trkpt><trkpt lat="38.0454793" lon="-1.332175"><ele>154.0</ele><time>2026-03-28T11:00:31.755Z</time></trkpt><trkpt lat="38.0454325" lon="-1.3321085"><ele>154.0</ele><time>2026-03-28T11:00:32.755Z</time></trkpt><trkpt lat="38.0453872" lon="-1.3320445"><ele>154.0</ele><time>2026-03-28T11:00:33.756Z</time></trkpt><trkpt lat="38.0453132" lon="-1.3319182"><ele>156.0</ele><time>2026-03-28T11:00:35.758Z</time></trkpt><trkpt lat="38.0452499" lon="-1.3317837"><ele>158.0</ele><time>2026-03-28T11:00:37.757Z</time></trkpt><trkpt lat="38.0451942" lon="-1.3316556"><ele>160.0</ele><time>2026-03-28T11:00:39.756Z</time></trkpt><trkpt lat="38.0451511" lon="-1.3315298"><ele>162.0</ele><time>2026-03-28T11:00:41.755Z</time></trkpt><trkpt lat="38.0450955" lon="-1.3314056"><ele>162.2</ele><time>2026-03-28T11:00:43.755Z</time></trkpt><trkpt lat="38.0450486" lon="-1.3312716"><ele>162.39999999999998</ele><time>2026-03-28T11:00:45.757Z</time></trkpt><trkpt lat="38.0450031" lon="-1.3311289"><ele>162.60000000000002</ele><time>2026-03-28T11:00:47.755Z</time></trkpt><trkpt lat="38.0449788" lon="-1.331053"><ele>162.8</ele><time>2026-03-28T11:00:48.757Z</time></trkpt><trkpt lat="38.0449376" lon="-1.330907"><ele>163.0</ele><time>2026-03-28T11:00:50.756Z</time></trkpt><trkpt lat="38.0448986" lon="-1.3307637"><ele>162.42857142857144</ele><time>2026-03-28T11:00:52.757Z</time></trkpt><trkpt lat="38.0448851" lon="-1.3306843"><ele>161.85714285714283</ele><time>2026-03-28T11:00:53.757Z</time></trkpt><trkpt lat="38.0448749" lon="-1.3306029"><ele>161.28571428571428</ele><time>2026-03-28T11:00:54.756Z</time></trkpt><trkpt lat="38.044864" lon="-1.3305177"><ele>160.71428571428572</ele><time>2026-03-28T11:00:55.755Z</time></trkpt><trkpt lat="38.0448533" lon="-1.3304381"><ele>160.14285714285717</ele><time>2026-03-28T11:00:56.757Z</time></trkpt><trkpt lat="38.0448432" lon="-1.3303558"><ele>159.57142857142856</ele><time>2026-03-28T11:00:57.758Z</time></trkpt><trkpt lat="38.0448343" lon="-1.330273"><ele>159.0</ele><time>2026-03-28T11:00:58.757Z</time></trkpt><trkpt lat="38.044828" lon="-1.3301924"><ele>159.0</ele><time>2026-03-28T11:00:59.758Z</time></trkpt><trkpt lat="38.0448212" lon="-1.3301059"><ele>159.0</ele><time>2026-03-28T11:01:00.755Z</time></trkpt><trkpt lat="38.0448129" lon="-1.3300174"><ele>159.0</ele><time>2026-03-28T11:01:01.756Z</time></trkpt><trkpt lat="38.0448129" lon="-1.3299284"><ele>159.0</ele><time>2026-03-28T11:01:02.757Z</time></trkpt><trkpt lat="38.0448122" lon="-1.3298388"><ele>159.0</ele><time>2026-03-28T11:01:03.756Z</time></trkpt><trkpt lat="38.0448167" lon="-1.3297496"><ele>159.0</ele><time>2026-03-28T11:01:04.755Z</time></trkpt><trkpt lat="38.0448249" lon="-1.3296602"><ele>159.0</ele><time>2026-03-28T11:01:05.756Z</time></trkpt><trkpt lat="38.044833" lon="-1.3295752"><ele>158.57142857142856</ele><time>2026-03-28T11:01:06.755Z</time></trkpt><trkpt lat="38.0448403" lon="-1.3294894"><ele>158.14285714285717</ele><time>2026-03-28T11:01:07.755Z</time></trkpt><trkpt lat="38.0448497" lon="-1.329403"><ele>157.71428571428572</ele><time>2026-03-28T11:01:08.755Z</time></trkpt><trkpt lat="38.0448564" lon="-1.3293105"><ele>157.28571428571428</ele><time>2026-03-28T11:01:09.755Z</time></trkpt><trkpt lat="38.0448674" lon="-1.3292166"><ele>156.85714285714283</ele><time>2026-03-28T11:01:10.756Z</time></trkpt><trkpt lat="38.0448843" lon="-1.3291242"><ele>156.42857142857144</ele><time>2026-03-28T11:01:11.756Z</time></trkpt><trkpt lat="38.0449009" lon="-1.3290367"><ele>156.0</ele><time>2026-03-28T11:01:12.757Z</time></trkpt><trkpt lat="38.0449185" lon="-1.3289487"><ele>156.16666666666666</ele><time>2026-03-28T11:01:13.757Z</time></trkpt><trkpt lat="38.0449359" lon="-1.3288661"><ele>156.33333333333334</ele><time>2026-03-28T11:01:14.755Z</time></trkpt><trkpt lat="38.0449542" lon="-1.3287868"><ele>156.5</ele><time>2026-03-28T11:01:15.758Z</time></trkpt><trkpt lat="38.0449716" lon="-1.3287076"><ele>156.66666666666669</ele><time>2026-03-28T11:01:16.755Z</time></trkpt><trkpt lat="38.0450056" lon="-1.3285571"><ele>156.83333333333334</ele><time>2026-03-28T11:01:18.755Z</time></trkpt><trkpt lat="38.0450376" lon="-1.328406"><ele>157.0</ele><time>2026-03-28T11:01:20.755Z</time></trkpt><trkpt lat="38.0450713" lon="-1.3282556"><ele>157.0</ele><time>2026-03-28T11:01:22.755Z</time></trkpt><trkpt lat="38.0450921" lon="-1.328178"><ele>157.0</ele><time>2026-03-28T11:01:23.758Z</time></trkpt><trkpt lat="38.0451131" lon="-1.3280995"><ele>157.0</ele><time>2026-03-28T11:01:24.755Z</time></trkpt><trkpt lat="38.045146" lon="-1.327953"><ele>157.0</ele><time>2026-03-28T11:01:26.756Z</time></trkpt><trkpt lat="38.0451678" lon="-1.327823"><ele>157.0</ele><time>2026-03-28T11:01:28.758Z</time></trkpt><trkpt lat="38.0451871" lon="-1.3277007"><ele>156.83333333333334</ele><time>2026-03-28T11:01:30.756Z</time></trkpt><trkpt lat="38.0452132" lon="-1.3275905"><ele>156.66666666666669</ele><time>2026-03-28T11:01:32.756Z</time></trkpt><trkpt lat="38.0452372" lon="-1.3274878"><ele>156.5</ele><time>2026-03-28T11:01:34.758Z</time></trkpt><trkpt lat="38.0452461" lon="-1.3273837"><ele>156.33333333333334</ele><time>2026-03-28T11:01:36.757Z</time></trkpt><trkpt lat="38.0452609" lon="-1.3272758"><ele>156.16666666666666</ele><time>2026-03-28T11:01:38.756Z</time></trkpt><trkpt lat="38.0452779" lon="-1.3271682"><ele>156.0</ele><time>2026-03-28T11:01:40.757Z</time></trkpt><trkpt lat="38.0452945" lon="-1.3270495"><ele>156.0</ele><time>2026-03-28T11:01:42.756Z</time></trkpt><trkpt lat="38.0453129" lon="-1.3269252"><ele>156.0</ele><time>2026-03-28T11:01:44.756Z</time></trkpt><trkpt lat="38.045336" lon="-1.3267958"><ele>156.0</ele><time>2026-03-28T11:01:46.755Z</time></trkpt><trkpt lat="38.045354" lon="-1.3266707"><ele>156.0</ele><time>2026-03-28T11:01:48.757Z</time></trkpt><trkpt lat="38.0453757" lon="-1.3265425"><ele>156.0</ele><time>2026-03-28T11:01:50.757Z</time></trkpt><trkpt lat="38.0453973" lon="-1.3264071"><ele>156.4</ele><time>2026-03-28T11:01:52.757Z</time></trkpt><trkpt lat="38.0454201" lon="-1.3262753"><ele>156.8</ele><time>2026-03-28T11:01:54.755Z</time></trkpt><trkpt lat="38.0454413" lon="-1.3261495"><ele>157.20000000000002</ele><time>2026-03-28T11:01:56.756Z</time></trkpt><trkpt lat="38.0454655" lon="-1.3260185"><ele>157.6</ele><time>2026-03-28T11:01:58.755Z</time></trkpt><trkpt lat="38.0454878" lon="-1.3258875"><ele>158.0</ele><time>2026-03-28T11:02:00.757Z</time></trkpt><trkpt lat="38.0455152" lon="-1.3257526"><ele>158.0</ele><time>2026-03-28T11:02:02.756Z</time></trkpt><trkpt lat="38.0455373" lon="-1.3256035"><ele>158.0</ele><time>2026-03-28T11:02:04.757Z</time></trkpt><trkpt lat="38.0455627" lon="-1.3254639"><ele>158.0</ele><time>2026-03-28T11:02:06.757Z</time></trkpt><trkpt lat="38.0455856" lon="-1.3253288"><ele>158.0</ele><time>2026-03-28T11:02:08.756Z</time></trkpt><trkpt lat="38.045604" lon="-1.3251951"><ele>158.0</ele><time>2026-03-28T11:02:10.757Z</time></trkpt><trkpt lat="38.0456276" lon="-1.3250608"><ele>157.6</ele><time>2026-03-28T11:02:12.756Z</time></trkpt><trkpt lat="38.0456518" lon="-1.3249267"><ele>157.20000000000002</ele><time>2026-03-28T11:02:14.757Z</time></trkpt><trkpt lat="38.0456734" lon="-1.3247936"><ele>156.8</ele><time>2026-03-28T11:02:16.755Z</time></trkpt><trkpt lat="38.0456979" lon="-1.3246622"><ele>156.4</ele><time>2026-03-28T11:02:18.756Z</time></trkpt><trkpt lat="38.0457188" lon="-1.3245296"><ele>156.0</ele><time>2026-03-28T11:02:20.756Z</time></trkpt><trkpt lat="38.0457401" lon="-1.3244027"><ele>155.6</ele><time>2026-03-28T11:02:22.756Z</time></trkpt><trkpt lat="38.0457622" lon="-1.3242753"><ele>155.2</ele><time>2026-03-28T11:02:24.756Z</time></trkpt><trkpt lat="38.0457874" lon="-1.3241469"><ele>154.8</ele><time>2026-03-28T11:02:26.756Z</time></trkpt><trkpt lat="38.0458129" lon="-1.3240204"><ele>154.4</ele><time>2026-03-28T11:02:28.756Z</time></trkpt><trkpt lat="38.0458328" lon="-1.323892"><ele>154.0</ele><time>2026-03-28T11:02:30.756Z</time></trkpt><trkpt lat="38.0458583" lon="-1.3237676"><ele>153.6</ele><time>2026-03-28T11:02:32.756Z</time></trkpt><trkpt lat="38.0458832" lon="-1.3236445"><ele>153.2</ele><time>2026-03-28T11:02:34.758Z</time></trkpt><trkpt lat="38.0459087" lon="-1.3235178"><ele>152.79999999999998</ele><time>2026-03-28T11:02:36.755Z</time></trkpt><trkpt lat="38.0459364" lon="-1.3233979"><ele>152.4</ele><time>2026-03-28T11:02:38.756Z</time></trkpt><trkpt lat="38.0459584" lon="-1.3232723"><ele>152.0</ele><time>2026-03-28T11:02:40.755Z</time></trkpt><trkpt lat="38.0459884" lon="-1.3231447"><ele>152.0</ele><time>2026-03-28T11:02:42.756Z</time></trkpt><trkpt lat="38.046012" lon="-1.3230104"><ele>152.0</ele><time>2026-03-28T11:02:44.756Z</time></trkpt><trkpt lat="38.0460366" lon="-1.3228845"><ele>152.0</ele><time>2026-03-28T11:02:46.755Z</time></trkpt><trkpt lat="38.0460533" lon="-1.3227489"><ele>152.0</ele><time>2026-03-28T11:02:48.755Z</time></trkpt><trkpt lat="38.0460746" lon="-1.322618"><ele>152.0</ele><time>2026-03-28T11:02:50.756Z</time></trkpt><trkpt lat="38.0461102" lon="-1.3224925"><ele>152.0</ele><time>2026-03-28T11:02:52.756Z</time></trkpt><trkpt lat="38.04614" lon="-1.3223594"><ele>152.0</ele><time>2026-03-28T11:02:54.756Z</time></trkpt><trkpt lat="38.0461683" lon="-1.3222258"><ele>152.0</ele><time>2026-03-28T11:02:56.756Z</time></trkpt><trkpt lat="38.0462017" lon="-1.3220947"><ele>152.0</ele><time>2026-03-28T11:02:58.757Z</time></trkpt><trkpt lat="38.0462422" lon="-1.3219666"><ele>152.0</ele><time>2026-03-28T11:03:00.755Z</time></trkpt><trkpt lat="38.0462941" lon="-1.3218389"><ele>151.25</ele><time>2026-03-28T11:03:02.756Z</time></trkpt><trkpt lat="38.0463415" lon="-1.3217094"><ele>150.5</ele><time>2026-03-28T11:03:04.756Z</time></trkpt><trkpt lat="38.046397" lon="-1.3215744"><ele>149.75</ele><time>2026-03-28T11:03:06.755Z</time></trkpt><trkpt lat="38.0464554" lon="-1.3214379"><ele>149.0</ele><time>2026-03-28T11:03:08.757Z</time></trkpt><trkpt lat="38.0465222" lon="-1.321309"><ele>148.75</ele><time>2026-03-28T11:03:10.757Z</time></trkpt><trkpt lat="38.0465879" lon="-1.3211759"><ele>148.5</ele><time>2026-03-28T11:03:12.757Z</time></trkpt><trkpt lat="38.0466545" lon="-1.3210425"><ele>148.25</ele><time>2026-03-28T11:03:14.758Z</time></trkpt><trkpt lat="38.0467271" lon="-1.3209185"><ele>148.0</ele><time>2026-03-28T11:03:16.756Z</time></trkpt><trkpt lat="38.0467981" lon="-1.3207899"><ele>148.0</ele><time>2026-03-28T11:03:18.757Z</time></trkpt><trkpt lat="38.046833" lon="-1.320722"><ele>148.0</ele><time>2026-03-28T11:03:19.756Z</time></trkpt><trkpt lat="38.0469077" lon="-1.3205975"><ele>148.0</ele><time>2026-03-28T11:03:21.757Z</time></trkpt><trkpt lat="38.0469742" lon="-1.3204658"><ele>148.0</ele><time>2026-03-28T11:03:23.757Z</time></trkpt><trkpt lat="38.0470139" lon="-1.3204032"><ele>148.0</ele><time>2026-03-28T11:03:24.756Z</time></trkpt><trkpt lat="38.0470852" lon="-1.3202735"><ele>147.8</ele><time>2026-03-28T11:03:26.755Z</time></trkpt><trkpt lat="38.0471569" lon="-1.3201424"><ele>147.60000000000002</ele><time>2026-03-28T11:03:28.756Z</time></trkpt><trkpt lat="38.0472288" lon="-1.3200134"><ele>147.39999999999998</ele><time>2026-03-28T11:03:30.756Z</time></trkpt><trkpt lat="38.0472981" lon="-1.3198768"><ele>147.2</ele><time>2026-03-28T11:03:32.755Z</time></trkpt><trkpt lat="38.0473362" lon="-1.3198086"><ele>147.0</ele><time>2026-03-28T11:03:33.756Z</time></trkpt><trkpt lat="38.0473747" lon="-1.319738"><ele>146.57142857142858</ele><time>2026-03-28T11:03:34.756Z</time></trkpt><trkpt lat="38.0474133" lon="-1.3196708"><ele>146.14285714285714</ele><time>2026-03-28T11:03:35.755Z</time></trkpt><trkpt lat="38.0474515" lon="-1.3196015"><ele>145.71428571428572</ele><time>2026-03-28T11:03:36.755Z</time></trkpt><trkpt lat="38.0474918" lon="-1.3195333"><ele>145.28571428571428</ele><time>2026-03-28T11:03:37.755Z</time></trkpt><trkpt lat="38.0475307" lon="-1.3194651"><ele>144.85714285714286</ele><time>2026-03-28T11:03:38.758Z</time></trkpt><trkpt lat="38.0475719" lon="-1.3193926"><ele>144.42857142857144</ele><time>2026-03-28T11:03:39.757Z</time></trkpt><trkpt lat="38.0476127" lon="-1.3193188"><ele>144.0</ele><time>2026-03-28T11:03:40.756Z</time></trkpt><trkpt lat="38.0476531" lon="-1.3192433"><ele>144.42857142857144</ele><time>2026-03-28T11:03:41.755Z</time></trkpt><trkpt lat="38.0476917" lon="-1.31917"><ele>144.85714285714286</ele><time>2026-03-28T11:03:42.757Z</time></trkpt><trkpt lat="38.0477319" lon="-1.319096"><ele>145.28571428571428</ele><time>2026-03-28T11:03:43.756Z</time></trkpt><trkpt lat="38.0477741" lon="-1.3190221"><ele>145.71428571428572</ele><time>2026-03-28T11:03:44.756Z</time></trkpt><trkpt lat="38.0478161" lon="-1.3189484"><ele>146.14285714285714</ele><time>2026-03-28T11:03:45.755Z</time></trkpt><trkpt lat="38.0478546" lon="-1.3188737"><ele>146.57142857142858</ele><time>2026-03-28T11:03:46.756Z</time></trkpt><trkpt lat="38.0478942" lon="-1.3187998"><ele>147.0</ele><time>2026-03-28T11:03:47.755Z</time></trkpt><trkpt lat="38.0479334" lon="-1.3187284"><ele>147.0</ele><time>2026-03-28T11:03:48.757Z</time></trkpt><trkpt lat="38.0479785" lon="-1.3186586"><ele>147.0</ele><time>2026-03-28T11:03:49.756Z</time></trkpt><trkpt lat="38.0480175" lon="-1.3185846"><ele>147.0</ele><time>2026-03-28T11:03:50.756Z</time></trkpt><trkpt lat="38.0480565" lon="-1.318513"><ele>147.0</ele><time>2026-03-28T11:03:51.757Z</time></trkpt><trkpt lat="38.0480946" lon="-1.3184411"><ele>147.0</ele><time>2026-03-28T11:03:52.757Z</time></trkpt><trkpt lat="38.0481341" lon="-1.3183675"><ele>147.0</ele><time>2026-03-28T11:03:53.756Z</time></trkpt><trkpt lat="38.048174" lon="-1.3182972"><ele>147.0</ele><time>2026-03-28T11:03:54.756Z</time></trkpt><trkpt lat="38.0482136" lon="-1.3182235"><ele>147.0</ele><time>2026-03-28T11:03:55.755Z</time></trkpt><trkpt lat="38.0482543" lon="-1.3181526"><ele>147.0</ele><time>2026-03-28T11:03:56.756Z</time></trkpt><trkpt lat="38.0482935" lon="-1.3180829"><ele>147.0</ele><time>2026-03-28T11:03:57.756Z</time></trkpt><trkpt lat="38.0483332" lon="-1.3180091"><ele>147.0</ele><time>2026-03-28T11:03:58.757Z</time></trkpt><trkpt lat="38.048372" lon="-1.3179372"><ele>147.0</ele><time>2026-03-28T11:03:59.757Z</time></trkpt><trkpt lat="38.0484088" lon="-1.3178638"><ele>147.0</ele><time>2026-03-28T11:04:00.757Z</time></trkpt><trkpt lat="38.0484476" lon="-1.3177956"><ele>147.0</ele><time>2026-03-28T11:04:01.757Z</time></trkpt><trkpt lat="38.0484887" lon="-1.317727"><ele>146.71428571428572</ele><time>2026-03-28T11:04:02.756Z</time></trkpt><trkpt lat="38.0485296" lon="-1.3176579"><ele>146.42857142857144</ele><time>2026-03-28T11:04:03.758Z</time></trkpt><trkpt lat="38.0485686" lon="-1.3175834"><ele>146.14285714285714</ele><time>2026-03-28T11:04:04.757Z</time></trkpt><trkpt lat="38.048609" lon="-1.3175091"><ele>145.85714285714286</ele><time>2026-03-28T11:04:05.756Z</time></trkpt><trkpt lat="38.048649" lon="-1.317436"><ele>145.57142857142858</ele><time>2026-03-28T11:04:06.757Z</time></trkpt><trkpt lat="38.0486885" lon="-1.3173644"><ele>145.28571428571428</ele><time>2026-03-28T11:04:07.756Z</time></trkpt><trkpt lat="38.0487299" lon="-1.3172871"><ele>145.0</ele><time>2026-03-28T11:04:08.757Z</time></trkpt><trkpt lat="38.0487685" lon="-1.3172132"><ele>144.0</ele><time>2026-03-28T11:04:09.756Z</time></trkpt><trkpt lat="38.0488074" lon="-1.3171388"><ele>143.0</ele><time>2026-03-28T11:04:10.757Z</time></trkpt><trkpt lat="38.0488461" lon="-1.3170672"><ele>142.0</ele><time>2026-03-28T11:04:11.757Z</time></trkpt><trkpt lat="38.0488848" lon="-1.3169967"><ele>141.0</ele><time>2026-03-28T11:04:12.755Z</time></trkpt><trkpt lat="38.048921" lon="-1.3169305"><ele>140.0</ele><time>2026-03-28T11:04:13.756Z</time></trkpt><trkpt lat="38.0489571" lon="-1.3168619"><ele>139.0</ele><time>2026-03-28T11:04:14.756Z</time></trkpt><trkpt lat="38.0489971" lon="-1.3167989"><ele>138.0</ele><time>2026-03-28T11:04:15.757Z</time></trkpt><trkpt lat="38.0490319" lon="-1.3167311"><ele>138.0</ele><time>2026-03-28T11:04:16.756Z</time></trkpt><trkpt lat="38.0490655" lon="-1.316663"><ele>138.0</ele><time>2026-03-28T11:04:17.755Z</time></trkpt><trkpt lat="38.0491321" lon="-1.3165299"><ele>138.0</ele><time>2026-03-28T11:04:19.756Z</time></trkpt><trkpt lat="38.0491953" lon="-1.3163991"><ele>138.0</ele><time>2026-03-28T11:04:21.757Z</time></trkpt><trkpt lat="38.0492575" lon="-1.3162605"><ele>138.0</ele><time>2026-03-28T11:04:23.756Z</time></trkpt><trkpt lat="38.0493135" lon="-1.3161267"><ele>139.5</ele><time>2026-03-28T11:04:25.756Z</time></trkpt><trkpt lat="38.0493639" lon="-1.3159889"><ele>141.0</ele><time>2026-03-28T11:04:27.757Z</time></trkpt><trkpt lat="38.0494158" lon="-1.3158533"><ele>142.5</ele><time>2026-03-28T11:04:29.757Z</time></trkpt><trkpt lat="38.049461" lon="-1.3157161"><ele>144.0</ele><time>2026-03-28T11:04:31.757Z</time></trkpt><trkpt lat="38.0495059" lon="-1.3155813"><ele>143.8</ele><time>2026-03-28T11:04:33.756Z</time></trkpt><trkpt lat="38.0495471" lon="-1.3154531"><ele>143.60000000000002</ele><time>2026-03-28T11:04:35.757Z</time></trkpt><trkpt lat="38.0495874" lon="-1.3153131"><ele>143.4</ele><time>2026-03-28T11:04:37.756Z</time></trkpt><trkpt lat="38.0496181" lon="-1.3151828"><ele>143.20000000000002</ele><time>2026-03-28T11:04:39.755Z</time></trkpt><trkpt lat="38.0496537" lon="-1.315054"><ele>143.0</ele><time>2026-03-28T11:04:41.756Z</time></trkpt><trkpt lat="38.0496909" lon="-1.3149206"><ele>143.0</ele><time>2026-03-28T11:04:43.756Z</time></trkpt><trkpt lat="38.0497267" lon="-1.3147932"><ele>143.0</ele><time>2026-03-28T11:04:45.755Z</time></trkpt><trkpt lat="38.0497581" lon="-1.3146725"><ele>143.0</ele><time>2026-03-28T11:04:47.757Z</time></trkpt><trkpt lat="38.0497871" lon="-1.3145464"><ele>143.0</ele><time>2026-03-28T11:04:49.756Z</time></trkpt><trkpt lat="38.0498246" lon="-1.3144203"><ele>143.0</ele><time>2026-03-28T11:04:51.756Z</time></trkpt><trkpt lat="38.0498586" lon="-1.3142908"><ele>143.0</ele><time>2026-03-28T11:04:53.756Z</time></trkpt><trkpt lat="38.0498897" lon="-1.314169"><ele>143.0</ele><time>2026-03-28T11:04:55.758Z</time></trkpt><trkpt lat="38.0499214" lon="-1.3140373"><ele>143.0</ele><time>2026-03-28T11:04:57.756Z</time></trkpt><trkpt lat="38.0499524" lon="-1.3139056"><ele>143.0</ele><time>2026-03-28T11:04:59.755Z</time></trkpt><trkpt lat="38.0499836" lon="-1.3137702"><ele>143.0</ele><time>2026-03-28T11:05:01.756Z</time></trkpt><trkpt lat="38.0500157" lon="-1.3136422"><ele>143.8</ele><time>2026-03-28T11:05:03.757Z</time></trkpt><trkpt lat="38.0500462" lon="-1.3135144"><ele>144.60000000000002</ele><time>2026-03-28T11:05:05.755Z</time></trkpt><trkpt lat="38.0500764" lon="-1.3133838"><ele>145.39999999999998</ele><time>2026-03-28T11:05:07.757Z</time></trkpt><trkpt lat="38.0501093" lon="-1.3132577"><ele>146.2</ele><time>2026-03-28T11:05:09.756Z</time></trkpt><trkpt lat="38.0501419" lon="-1.3131368"><ele>147.0</ele><time>2026-03-28T11:05:11.756Z</time></trkpt><trkpt lat="38.0501713" lon="-1.3130193"><ele>147.0</ele><time>2026-03-28T11:05:13.757Z</time></trkpt><trkpt lat="38.0502011" lon="-1.3129022"><ele>147.0</ele><time>2026-03-28T11:05:15.756Z</time></trkpt><trkpt lat="38.0502288" lon="-1.3127854"><ele>147.0</ele><time>2026-03-28T11:05:17.756Z</time></trkpt><trkpt lat="38.0502606" lon="-1.3126629"><ele>147.0</ele><time>2026-03-28T11:05:19.757Z</time></trkpt><trkpt lat="38.0502908" lon="-1.312538"><ele>147.0</ele><time>2026-03-28T11:05:21.757Z</time></trkpt><trkpt lat="38.0503233" lon="-1.3124205"><ele>147.0</ele><time>2026-03-28T11:05:23.757Z</time></trkpt><trkpt lat="38.0503541" lon="-1.3123079"><ele>147.0</ele><time>2026-03-28T11:05:25.755Z</time></trkpt><trkpt lat="38.0503819" lon="-1.3121932"><ele>147.0</ele><time>2026-03-28T11:05:27.756Z</time></trkpt><trkpt lat="38.0504115" lon="-1.3120819"><ele>147.0</ele><time>2026-03-28T11:05:29.756Z</time></trkpt><trkpt lat="38.0504442" lon="-1.3119684"><ele>147.0</ele><time>2026-03-28T11:05:31.755Z</time></trkpt><trkpt lat="38.050474" lon="-1.3118499"><ele>147.2</ele><time>2026-03-28T11:05:33.756Z</time></trkpt><trkpt lat="38.0504968" lon="-1.3117396"><ele>147.39999999999998</ele><time>2026-03-28T11:05:35.757Z</time></trkpt><trkpt lat="38.0505283" lon="-1.3116192"><ele>147.60000000000002</ele><time>2026-03-28T11:05:37.756Z</time></trkpt><trkpt lat="38.0505575" lon="-1.3115028"><ele>147.8</ele><time>2026-03-28T11:05:39.757Z</time></trkpt><trkpt lat="38.0505913" lon="-1.3113852"><ele>148.0</ele><time>2026-03-28T11:05:41.756Z</time></trkpt><trkpt lat="38.0506244" lon="-1.3112746"><ele>148.20000000000002</ele><time>2026-03-28T11:05:43.757Z</time></trkpt><trkpt lat="38.0506526" lon="-1.3111612"><ele>148.4</ele><time>2026-03-28T11:05:45.757Z</time></trkpt><trkpt lat="38.0506818" lon="-1.311049"><ele>148.60000000000002</ele><time>2026-03-28T11:05:47.757Z</time></trkpt><trkpt lat="38.0507136" lon="-1.3109395"><ele>148.8</ele><time>2026-03-28T11:05:49.756Z</time></trkpt><trkpt lat="38.0507438" lon="-1.310829"><ele>149.0</ele><time>2026-03-28T11:05:51.756Z</time></trkpt><trkpt lat="38.0507695" lon="-1.3107167"><ele>150.0</ele><time>2026-03-28T11:05:53.756Z</time></trkpt><trkpt lat="38.0507961" lon="-1.3106079"><ele>151.0</ele><time>2026-03-28T11:05:55.757Z</time></trkpt><trkpt lat="38.0508204" lon="-1.3104945"><ele>152.0</ele><time>2026-03-28T11:05:57.757Z</time></trkpt><trkpt lat="38.0508512" lon="-1.3103883"><ele>153.0</ele><time>2026-03-28T11:05:59.756Z</time></trkpt><trkpt lat="38.0508786" lon="-1.3102781"><ele>154.0</ele><time>2026-03-28T11:06:01.756Z</time></trkpt><trkpt lat="38.0509061" lon="-1.3101709"><ele>154.33333333333334</ele><time>2026-03-28T11:06:03.758Z</time></trkpt><trkpt lat="38.0509354" lon="-1.3100628"><ele>154.66666666666669</ele><time>2026-03-28T11:06:05.756Z</time></trkpt><trkpt lat="38.0509642" lon="-1.3099571"><ele>155.0</ele><time>2026-03-28T11:06:07.756Z</time></trkpt><trkpt lat="38.0509926" lon="-1.3098466"><ele>155.33333333333334</ele><time>2026-03-28T11:06:09.757Z</time></trkpt><trkpt lat="38.0510204" lon="-1.3097428"><ele>155.66666666666666</ele><time>2026-03-28T11:06:11.755Z</time></trkpt><trkpt lat="38.0510497" lon="-1.3096305"><ele>156.0</ele><time>2026-03-28T11:06:13.757Z</time></trkpt><trkpt lat="38.0510758" lon="-1.3095249"><ele>157.0</ele><time>2026-03-28T11:06:15.756Z</time></trkpt><trkpt lat="38.0511042" lon="-1.3094107"><ele>158.0</ele><time>2026-03-28T11:06:17.756Z</time></trkpt><trkpt lat="38.0511302" lon="-1.3092996"><ele>159.0</ele><time>2026-03-28T11:06:19.756Z</time></trkpt><trkpt lat="38.0511513" lon="-1.3091928"><ele>160.0</ele><time>2026-03-28T11:06:21.755Z</time></trkpt><trkpt lat="38.0511697" lon="-1.3090784"><ele>161.0</ele><time>2026-03-28T11:06:23.757Z</time></trkpt><trkpt lat="38.0511886" lon="-1.3089723"><ele>161.33333333333331</ele><time>2026-03-28T11:06:25.757Z</time></trkpt><trkpt lat="38.0512129" lon="-1.3088665"><ele>161.66666666666666</ele><time>2026-03-28T11:06:27.757Z</time></trkpt><trkpt lat="38.0512287" lon="-1.3087581"><ele>162.0</ele><time>2026-03-28T11:06:29.756Z</time></trkpt><trkpt lat="38.0512501" lon="-1.308648"><ele>162.33333333333334</ele><time>2026-03-28T11:06:31.756Z</time></trkpt><trkpt lat="38.0512653" lon="-1.3085371"><ele>162.66666666666669</ele><time>2026-03-28T11:06:33.758Z</time></trkpt><trkpt lat="38.0512859" lon="-1.3084264"><ele>163.0</ele><time>2026-03-28T11:06:35.756Z</time></trkpt><trkpt lat="38.0513048" lon="-1.308325"><ele>163.0</ele><time>2026-03-28T11:06:37.755Z</time></trkpt><trkpt lat="38.0513191" lon="-1.3082152"><ele>163.0</ele><time>2026-03-28T11:06:39.756Z</time></trkpt><trkpt lat="38.0513374" lon="-1.3081031"><ele>163.0</ele><time>2026-03-28T11:06:41.757Z</time></trkpt><trkpt lat="38.0513554" lon="-1.3079883"><ele>163.0</ele><time>2026-03-28T11:06:43.756Z</time></trkpt><trkpt lat="38.0513709" lon="-1.3078713"><ele>163.0</ele><time>2026-03-28T11:06:45.755Z</time></trkpt><trkpt lat="38.051382" lon="-1.3077565"><ele>163.16666666666669</ele><time>2026-03-28T11:06:47.756Z</time></trkpt><trkpt lat="38.0513968" lon="-1.30764"><ele>163.33333333333334</ele><time>2026-03-28T11:06:49.756Z</time></trkpt><trkpt lat="38.0514142" lon="-1.3075261"><ele>163.5</ele><time>2026-03-28T11:06:51.756Z</time></trkpt><trkpt lat="38.0514238" lon="-1.3074233"><ele>163.66666666666666</ele><time>2026-03-28T11:06:53.757Z</time></trkpt><trkpt lat="38.0514373" lon="-1.3073212"><ele>163.83333333333331</ele><time>2026-03-28T11:06:55.755Z</time></trkpt><trkpt lat="38.0514458" lon="-1.3072197"><ele>164.0</ele><time>2026-03-28T11:06:57.757Z</time></trkpt><trkpt lat="38.0514486" lon="-1.3071095"><ele>164.2</ele><time>2026-03-28T11:06:59.756Z</time></trkpt><trkpt lat="38.0514553" lon="-1.3070025"><ele>164.39999999999998</ele><time>2026-03-28T11:07:01.755Z</time></trkpt><trkpt lat="38.0514546" lon="-1.3068896"><ele>164.6</ele><time>2026-03-28T11:07:03.756Z</time></trkpt><trkpt lat="38.0514512" lon="-1.3067705"><ele>164.8</ele><time>2026-03-28T11:07:05.756Z</time></trkpt><trkpt lat="38.0514517" lon="-1.3066538"><ele>165.0</ele><time>2026-03-28T11:07:07.755Z</time></trkpt><trkpt lat="38.0514536" lon="-1.3065352"><ele>165.0</ele><time>2026-03-28T11:07:09.756Z</time></trkpt><trkpt lat="38.0514576" lon="-1.3064184"><ele>165.0</ele><time>2026-03-28T11:07:11.756Z</time></trkpt><trkpt lat="38.0514672" lon="-1.3062972"><ele>165.0</ele><time>2026-03-28T11:07:13.757Z</time></trkpt><trkpt lat="38.0514704" lon="-1.3061777"><ele>165.0</ele><time>2026-03-28T11:07:15.757Z</time></trkpt><trkpt lat="38.0514727" lon="-1.3060512"><ele>165.0</ele><time>2026-03-28T11:07:17.755Z</time></trkpt><trkpt lat="38.0514774" lon="-1.3059267"><ele>163.8</ele><time>2026-03-28T11:07:19.757Z</time></trkpt><trkpt lat="38.0514838" lon="-1.3058106"><ele>162.6</ele><time>2026-03-28T11:07:21.755Z</time></trkpt><trkpt lat="38.0514855" lon="-1.3056838"><ele>161.4</ele><time>2026-03-28T11:07:23.758Z</time></trkpt><trkpt lat="38.0514864" lon="-1.3055616"><ele>160.2</ele><time>2026-03-28T11:07:25.756Z</time></trkpt><trkpt lat="38.0514869" lon="-1.3054457"><ele>159.0</ele><time>2026-03-28T11:07:27.756Z</time></trkpt><trkpt lat="38.0514936" lon="-1.3053269"><ele>157.2</ele><time>2026-03-28T11:07:29.755Z</time></trkpt><trkpt lat="38.0514987" lon="-1.3052082"><ele>155.4</ele><time>2026-03-28T11:07:31.757Z</time></trkpt><trkpt lat="38.0515003" lon="-1.3050871"><ele>153.6</ele><time>2026-03-28T11:07:33.756Z</time></trkpt><trkpt lat="38.0514982" lon="-1.3049634"><ele>151.8</ele><time>2026-03-28T11:07:35.756Z</time></trkpt><trkpt lat="38.0515041" lon="-1.304845"><ele>150.0</ele><time>2026-03-28T11:07:37.756Z</time></trkpt><trkpt lat="38.0515095" lon="-1.3047236"><ele>150.0</ele><time>2026-03-28T11:07:39.756Z</time></trkpt><trkpt lat="38.0515124" lon="-1.3046031"><ele>150.0</ele><time>2026-03-28T11:07:41.756Z</time></trkpt><trkpt lat="38.0515146" lon="-1.3044857"><ele>150.0</ele><time>2026-03-28T11:07:43.756Z</time></trkpt><trkpt lat="38.0515222" lon="-1.3043678"><ele>150.0</ele><time>2026-03-28T11:07:45.756Z</time></trkpt><trkpt lat="38.0515236" lon="-1.3042451"><ele>150.0</ele><time>2026-03-28T11:07:47.757Z</time></trkpt><trkpt lat="38.0515253" lon="-1.3041198"><ele>150.0</ele><time>2026-03-28T11:07:49.756Z</time></trkpt><trkpt lat="38.0515324" lon="-1.3039978"><ele>150.0</ele><time>2026-03-28T11:07:51.756Z</time></trkpt><trkpt lat="38.0515365" lon="-1.3038709"><ele>150.0</ele><time>2026-03-28T11:07:53.755Z</time></trkpt><trkpt lat="38.0515349" lon="-1.3037492"><ele>150.0</ele><time>2026-03-28T11:07:55.756Z</time></trkpt><trkpt lat="38.0515395" lon="-1.3036234"><ele>150.0</ele><time>2026-03-28T11:07:57.756Z</time></trkpt><trkpt lat="38.0515425" lon="-1.3035005"><ele>150.2</ele><time>2026-03-28T11:07:59.757Z</time></trkpt><trkpt lat="38.0515429" lon="-1.3033688"><ele>150.4</ele><time>2026-03-28T11:08:01.758Z</time></trkpt><trkpt lat="38.0515474" lon="-1.3032398"><ele>150.6</ele><time>2026-03-28T11:08:03.757Z</time></trkpt><trkpt lat="38.0515532" lon="-1.3031228"><ele>150.8</ele><time>2026-03-28T11:08:05.756Z</time></trkpt><trkpt lat="38.0515571" lon="-1.3029966"><ele>151.0</ele><time>2026-03-28T11:08:07.757Z</time></trkpt><trkpt lat="38.0515644" lon="-1.3028703"><ele>149.8</ele><time>2026-03-28T11:08:09.757Z</time></trkpt><trkpt lat="38.0515674" lon="-1.3027435"><ele>148.6</ele><time>2026-03-28T11:08:11.756Z</time></trkpt><trkpt lat="38.0515742" lon="-1.3026225"><ele>147.4</ele><time>2026-03-28T11:08:13.756Z</time></trkpt><trkpt lat="38.0515811" lon="-1.3024981"><ele>146.2</ele><time>2026-03-28T11:08:15.758Z</time></trkpt><trkpt lat="38.0515916" lon="-1.3023787"><ele>145.0</ele><time>2026-03-28T11:08:17.756Z</time></trkpt><trkpt lat="38.0516118" lon="-1.3022647"><ele>147.2</ele><time>2026-03-28T11:08:19.757Z</time></trkpt><trkpt lat="38.0516295" lon="-1.3021448"><ele>149.4</ele><time>2026-03-28T11:08:21.756Z</time></trkpt><trkpt lat="38.0516444" lon="-1.3020301"><ele>151.6</ele><time>2026-03-28T11:08:23.755Z</time></trkpt><trkpt lat="38.0516704" lon="-1.3019119"><ele>153.8</ele><time>2026-03-28T11:08:25.756Z</time></trkpt><trkpt lat="38.0516957" lon="-1.3017941"><ele>156.0</ele><time>2026-03-28T11:08:27.757Z</time></trkpt><trkpt lat="38.0517242" lon="-1.301675"><ele>156.0</ele><time>2026-03-28T11:08:29.757Z</time></trkpt><trkpt lat="38.051755" lon="-1.3015545"><ele>156.0</ele><time>2026-03-28T11:08:31.756Z</time></trkpt><trkpt lat="38.0517823" lon="-1.3014313"><ele>156.0</ele><time>2026-03-28T11:08:33.757Z</time></trkpt><trkpt lat="38.0518128" lon="-1.3013114"><ele>156.0</ele><time>2026-03-28T11:08:35.758Z</time></trkpt><trkpt lat="38.0518433" lon="-1.301196"><ele>156.0</ele><time>2026-03-28T11:08:37.758Z</time></trkpt><trkpt lat="38.0518742" lon="-1.3010896"><ele>156.0</ele><time>2026-03-28T11:08:39.756Z</time></trkpt><trkpt lat="38.0519061" lon="-1.3009769"><ele>156.0</ele><time>2026-03-28T11:08:41.757Z</time></trkpt><trkpt lat="38.0519431" lon="-1.3008572"><ele>156.0</ele><time>2026-03-28T11:08:43.756Z</time></trkpt><trkpt lat="38.0519754" lon="-1.3007349"><ele>156.0</ele><time>2026-03-28T11:08:45.757Z</time></trkpt><trkpt lat="38.0520199" lon="-1.3006268"><ele>156.0</ele><time>2026-03-28T11:08:47.757Z</time></trkpt><trkpt lat="38.0520723" lon="-1.300511"><ele>155.8</ele><time>2026-03-28T11:08:49.756Z</time></trkpt><trkpt lat="38.0521245" lon="-1.3003972"><ele>155.6</ele><time>2026-03-28T11:08:51.757Z</time></trkpt><trkpt lat="38.0521682" lon="-1.3002866"><ele>155.4</ele><time>2026-03-28T11:08:53.757Z</time></trkpt><trkpt lat="38.0522157" lon="-1.3001664"><ele>155.2</ele><time>2026-03-28T11:08:55.756Z</time></trkpt><trkpt lat="38.0522629" lon="-1.3000411"><ele>155.0</ele><time>2026-03-28T11:08:57.756Z</time></trkpt><trkpt lat="38.0523049" lon="-1.2999347"><ele>155.0</ele><time>2026-03-28T11:08:59.758Z</time></trkpt><trkpt lat="38.0523537" lon="-1.299817"><ele>155.0</ele><time>2026-03-28T11:09:01.755Z</time></trkpt><trkpt lat="38.0524068" lon="-1.2997014"><ele>155.0</ele><time>2026-03-28T11:09:03.756Z</time></trkpt><trkpt lat="38.0524706" lon="-1.2995915"><ele>155.0</ele><time>2026-03-28T11:09:05.756Z</time></trkpt><trkpt lat="38.0525331" lon="-1.2994776"><ele>155.0</ele><time>2026-03-28T11:09:07.755Z</time></trkpt><trkpt lat="38.0525882" lon="-1.2993558"><ele>155.0</ele><time>2026-03-28T11:09:09.756Z</time></trkpt><trkpt lat="38.0526398" lon="-1.2992292"><ele>155.0</ele><time>2026-03-28T11:09:11.755Z</time></trkpt><trkpt lat="38.0526848" lon="-1.2991095"><ele>155.0</ele><time>2026-03-28T11:09:13.755Z</time></trkpt><trkpt lat="38.0527377" lon="-1.2989966"><ele>155.0</ele><time>2026-03-28T11:09:15.756Z</time></trkpt><trkpt lat="38.052785" lon="-1.2988728"><ele>155.0</ele><time>2026-03-28T11:09:17.757Z</time></trkpt><trkpt lat="38.0528349" lon="-1.2987475"><ele>154.25</ele><time>2026-03-28T11:09:19.755Z</time></trkpt><trkpt lat="38.05289" lon="-1.2986268"><ele>153.5</ele><time>2026-03-28T11:09:21.757Z</time></trkpt><trkpt lat="38.052941" lon="-1.2985042"><ele>152.75</ele><time>2026-03-28T11:09:23.755Z</time></trkpt><trkpt lat="38.0530046" lon="-1.2983752"><ele>152.0</ele><time>2026-03-28T11:09:25.757Z</time></trkpt><trkpt lat="38.0530607" lon="-1.2982449"><ele>152.0</ele><time>2026-03-28T11:09:27.756Z</time></trkpt><trkpt lat="38.0531232" lon="-1.2981144"><ele>152.0</ele><time>2026-03-28T11:09:29.755Z</time></trkpt><trkpt lat="38.0531575" lon="-1.2980471"><ele>152.0</ele><time>2026-03-28T11:09:30.756Z</time></trkpt><trkpt lat="38.0532199" lon="-1.2979202"><ele>152.0</ele><time>2026-03-28T11:09:32.755Z</time></trkpt><trkpt lat="38.0532786" lon="-1.2977899"><ele>152.0</ele><time>2026-03-28T11:09:34.758Z</time></trkpt><trkpt lat="38.0533327" lon="-1.297663"><ele>151.79999999999998</ele><time>2026-03-28T11:09:36.757Z</time></trkpt><trkpt lat="38.0533917" lon="-1.2975412"><ele>151.6</ele><time>2026-03-28T11:09:38.755Z</time></trkpt><trkpt lat="38.053444" lon="-1.2974237"><ele>151.39999999999998</ele><time>2026-03-28T11:09:40.757Z</time></trkpt><trkpt lat="38.0534964" lon="-1.2973117"><ele>151.2</ele><time>2026-03-28T11:09:42.755Z</time></trkpt><trkpt lat="38.053546" lon="-1.2971998"><ele>151.0</ele><time>2026-03-28T11:09:44.756Z</time></trkpt><trkpt lat="38.0535945" lon="-1.2970732"><ele>150.0</ele><time>2026-03-28T11:09:46.756Z</time></trkpt><trkpt lat="38.053648" lon="-1.2969356"><ele>149.0</ele><time>2026-03-28T11:09:48.757Z</time></trkpt><trkpt lat="38.0537067" lon="-1.2968012"><ele>148.0</ele><time>2026-03-28T11:09:50.755Z</time></trkpt><trkpt lat="38.0537704" lon="-1.2966661"><ele>147.0</ele><time>2026-03-28T11:09:52.755Z</time></trkpt><trkpt lat="38.0538357" lon="-1.2965265"><ele>147.0</ele><time>2026-03-28T11:09:54.757Z</time></trkpt><trkpt lat="38.0538692" lon="-1.2964547"><ele>147.0</ele><time>2026-03-28T11:09:55.757Z</time></trkpt><trkpt lat="38.0539019" lon="-1.2963844"><ele>147.0</ele><time>2026-03-28T11:09:56.756Z</time></trkpt><trkpt lat="38.0539343" lon="-1.2963087"><ele>147.0</ele><time>2026-03-28T11:09:57.757Z</time></trkpt><trkpt lat="38.0539707" lon="-1.2962353"><ele>147.0</ele><time>2026-03-28T11:09:58.758Z</time></trkpt><trkpt lat="38.0540048" lon="-1.2961601"><ele>147.0</ele><time>2026-03-28T11:09:59.756Z</time></trkpt><trkpt lat="38.0540386" lon="-1.2960867"><ele>147.0</ele><time>2026-03-28T11:10:00.756Z</time></trkpt><trkpt lat="38.0540753" lon="-1.296011"><ele>147.0</ele><time>2026-03-28T11:10:01.756Z</time></trkpt><trkpt lat="38.0541113" lon="-1.2959341"><ele>147.0</ele><time>2026-03-28T11:10:02.755Z</time></trkpt><trkpt lat="38.0541456" lon="-1.2958495"><ele>147.0</ele><time>2026-03-28T11:10:03.757Z</time></trkpt><trkpt lat="38.0541822" lon="-1.2957709"><ele>147.0</ele><time>2026-03-28T11:10:04.757Z</time></trkpt><trkpt lat="38.0542183" lon="-1.295684"><ele>147.0</ele><time>2026-03-28T11:10:05.757Z</time></trkpt><trkpt lat="38.0542564" lon="-1.2955984"><ele>147.0</ele><time>2026-03-28T11:10:06.757Z</time></trkpt><trkpt lat="38.0542912" lon="-1.2955184"><ele>147.0</ele><time>2026-03-28T11:10:07.757Z</time></trkpt><trkpt lat="38.0543291" lon="-1.295437"><ele>147.0</ele><time>2026-03-28T11:10:08.757Z</time></trkpt><trkpt lat="38.0543619" lon="-1.2953572"><ele>147.0</ele><time>2026-03-28T11:10:09.755Z</time></trkpt><trkpt lat="38.0543957" lon="-1.2952793"><ele>147.0</ele><time>2026-03-28T11:10:10.755Z</time></trkpt><trkpt lat="38.0544332" lon="-1.2951959"><ele>147.0</ele><time>2026-03-28T11:10:11.758Z</time></trkpt><trkpt lat="38.0544731" lon="-1.2951135"><ele>147.0</ele><time>2026-03-28T11:10:12.756Z</time></trkpt><trkpt lat="38.0545105" lon="-1.2950355"><ele>147.0</ele><time>2026-03-28T11:10:13.756Z</time></trkpt><trkpt lat="38.0545468" lon="-1.2949541"><ele>147.0</ele><time>2026-03-28T11:10:14.756Z</time></trkpt><trkpt lat="38.0545799" lon="-1.294877"><ele>147.0</ele><time>2026-03-28T11:10:15.757Z</time></trkpt><trkpt lat="38.0546135" lon="-1.2948053"><ele>147.0</ele><time>2026-03-28T11:10:16.756Z</time></trkpt><trkpt lat="38.0546502" lon="-1.2947251"><ele>147.0</ele><time>2026-03-28T11:10:17.755Z</time></trkpt><trkpt lat="38.0546855" lon="-1.2946435"><ele>147.0</ele><time>2026-03-28T11:10:18.757Z</time></trkpt><trkpt lat="38.0547138" lon="-1.2945615"><ele>147.0</ele><time>2026-03-28T11:10:19.756Z</time></trkpt><trkpt lat="38.0547476" lon="-1.2944855"><ele>147.0</ele><time>2026-03-28T11:10:20.758Z</time></trkpt><trkpt lat="38.0547805" lon="-1.2944074"><ele>147.0</ele><time>2026-03-28T11:10:21.757Z</time></trkpt><trkpt lat="38.0548105" lon="-1.2943267"><ele>146.83333333333334</ele><time>2026-03-28T11:10:22.756Z</time></trkpt><trkpt lat="38.0548473" lon="-1.2942374"><ele>146.66666666666666</ele><time>2026-03-28T11:10:23.756Z</time></trkpt><trkpt lat="38.0548821" lon="-1.2941536"><ele>146.5</ele><time>2026-03-28T11:10:24.756Z</time></trkpt><trkpt lat="38.0549153" lon="-1.2940648"><ele>146.33333333333331</ele><time>2026-03-28T11:10:25.755Z</time></trkpt><trkpt lat="38.0549443" lon="-1.2939776"><ele>146.16666666666666</ele><time>2026-03-28T11:10:26.755Z</time></trkpt><trkpt lat="38.0549651" lon="-1.2938908"><ele>146.0</ele><time>2026-03-28T11:10:27.755Z</time></trkpt><trkpt lat="38.0549871" lon="-1.2938004"><ele>146.71428571428572</ele><time>2026-03-28T11:10:28.756Z</time></trkpt><trkpt lat="38.0550084" lon="-1.2937141"><ele>147.42857142857144</ele><time>2026-03-28T11:10:29.756Z</time></trkpt><trkpt lat="38.055026" lon="-1.293623"><ele>148.14285714285717</ele><time>2026-03-28T11:10:30.756Z</time></trkpt><trkpt lat="38.0550411" lon="-1.293535"><ele>148.85714285714286</ele><time>2026-03-28T11:10:31.756Z</time></trkpt><trkpt lat="38.0550533" lon="-1.2934471"><ele>149.57142857142858</ele><time>2026-03-28T11:10:32.756Z</time></trkpt><trkpt lat="38.0550687" lon="-1.2933593"><ele>150.2857142857143</ele><time>2026-03-28T11:10:33.755Z</time></trkpt><trkpt lat="38.0550775" lon="-1.2932755"><ele>151.0</ele><time>2026-03-28T11:10:34.756Z</time></trkpt><trkpt lat="38.0550882" lon="-1.2931856"><ele>151.0</ele><time>2026-03-28T11:10:35.756Z</time></trkpt><trkpt lat="38.0550978" lon="-1.2930929"><ele>151.0</ele><time>2026-03-28T11:10:36.756Z</time></trkpt><trkpt lat="38.0550958" lon="-1.293011"><ele>151.0</ele><time>2026-03-28T11:10:37.755Z</time></trkpt><trkpt lat="38.0551069" lon="-1.292853"><ele>151.0</ele><time>2026-03-28T11:10:39.755Z</time></trkpt><trkpt lat="38.0550926" lon="-1.2927062"><ele>151.0</ele><time>2026-03-28T11:10:41.757Z</time></trkpt><trkpt lat="38.0550764" lon="-1.2925571"><ele>150.6</ele><time>2026-03-28T11:10:43.756Z</time></trkpt><trkpt lat="38.0550704" lon="-1.2924123"><ele>150.2</ele><time>2026-03-28T11:10:45.755Z</time></trkpt><trkpt lat="38.0550599" lon="-1.2922638"><ele>149.8</ele><time>2026-03-28T11:10:47.755Z</time></trkpt><trkpt lat="38.0550368" lon="-1.2921279"><ele>149.4</ele><time>2026-03-28T11:10:49.757Z</time></trkpt><trkpt lat="38.0550052" lon="-1.2920094"><ele>149.0</ele><time>2026-03-28T11:10:51.757Z</time></trkpt><trkpt lat="38.0549745" lon="-1.2918956"><ele>149.0</ele><time>2026-03-28T11:10:53.755Z</time></trkpt><trkpt lat="38.0549591" lon="-1.2918046"><ele>149.0</ele><time>2026-03-28T11:10:55.757Z</time></trkpt><trkpt lat="38.0549322" lon="-1.2917049"><ele>149.0</ele><time>2026-03-28T11:10:57.756Z</time></trkpt><trkpt lat="38.0548957" lon="-1.2915993"><ele>149.0</ele><time>2026-03-28T11:10:59.757Z</time></trkpt><trkpt lat="38.0548499" lon="-1.29149"><ele>149.0</ele><time>2026-03-28T11:11:01.756Z</time></trkpt><trkpt lat="38.0548056" lon="-1.2913739"><ele>149.0</ele><time>2026-03-28T11:11:03.756Z</time></trkpt><trkpt lat="38.0547548" lon="-1.2912507"><ele>148.75</ele><time>2026-03-28T11:11:05.757Z</time></trkpt><trkpt lat="38.0547077" lon="-1.291128"><ele>148.5</ele><time>2026-03-28T11:11:07.755Z</time></trkpt><trkpt lat="38.0546504" lon="-1.2909999"><ele>148.25</ele><time>2026-03-28T11:11:09.756Z</time></trkpt><trkpt lat="38.0545949" lon="-1.2908747"><ele>148.0</ele><time>2026-03-28T11:11:11.756Z</time></trkpt><trkpt lat="38.0545281" lon="-1.2907496"><ele>148.0</ele><time>2026-03-28T11:11:13.756Z</time></trkpt><trkpt lat="38.0544586" lon="-1.2906315"><ele>148.0</ele><time>2026-03-28T11:11:15.757Z</time></trkpt><trkpt lat="38.054419" lon="-1.2905687"><ele>148.0</ele><time>2026-03-28T11:11:16.756Z</time></trkpt><trkpt lat="38.0543418" lon="-1.2904583"><ele>148.0</ele><time>2026-03-28T11:11:18.757Z</time></trkpt><trkpt lat="38.0542623" lon="-1.2903435"><ele>148.0</ele><time>2026-03-28T11:11:20.756Z</time></trkpt><trkpt lat="38.0541833" lon="-1.2902407"><ele>147.25</ele><time>2026-03-28T11:11:22.756Z</time></trkpt><trkpt lat="38.0541036" lon="-1.2901294"><ele>146.5</ele><time>2026-03-28T11:11:24.755Z</time></trkpt><trkpt lat="38.0540297" lon="-1.2900153"><ele>145.75</ele><time>2026-03-28T11:11:26.755Z</time></trkpt><trkpt lat="38.0539508" lon="-1.2899068"><ele>145.0</ele><time>2026-03-28T11:11:28.755Z</time></trkpt><trkpt lat="38.0538743" lon="-1.2897885"><ele>146.0</ele><time>2026-03-28T11:11:30.755Z</time></trkpt><trkpt lat="38.0538008" lon="-1.289678"><ele>147.0</ele><time>2026-03-28T11:11:32.756Z</time></trkpt><trkpt lat="38.0537291" lon="-1.2895743"><ele>148.0</ele><time>2026-03-28T11:11:34.755Z</time></trkpt><trkpt lat="38.0536585" lon="-1.2894774"><ele>149.0</ele><time>2026-03-28T11:11:36.758Z</time></trkpt><trkpt lat="38.0535903" lon="-1.2893692"><ele>150.0</ele><time>2026-03-28T11:11:38.755Z</time></trkpt><trkpt lat="38.0535177" lon="-1.2892687"><ele>150.0</ele><time>2026-03-28T11:11:40.755Z</time></trkpt><trkpt lat="38.0534499" lon="-1.2891708"><ele>150.0</ele><time>2026-03-28T11:11:42.758Z</time></trkpt><trkpt lat="38.0533855" lon="-1.289076"><ele>150.0</ele><time>2026-03-28T11:11:44.757Z</time></trkpt><trkpt lat="38.0533196" lon="-1.2889722"><ele>150.0</ele><time>2026-03-28T11:11:46.756Z</time></trkpt><trkpt lat="38.0532524" lon="-1.288883"><ele>150.0</ele><time>2026-03-28T11:11:48.755Z</time></trkpt><trkpt lat="38.0531924" lon="-1.2887793"><ele>150.8</ele><time>2026-03-28T11:11:50.757Z</time></trkpt><trkpt lat="38.0531357" lon="-1.288674"><ele>151.6</ele><time>2026-03-28T11:11:52.755Z</time></trkpt><trkpt lat="38.053087" lon="-1.288571"><ele>152.4</ele><time>2026-03-28T11:11:54.756Z</time></trkpt><trkpt lat="38.0530315" lon="-1.2884726"><ele>153.2</ele><time>2026-03-28T11:11:56.756Z</time></trkpt><trkpt lat="38.0529665" lon="-1.2883631"><ele>154.0</ele><time>2026-03-28T11:11:58.758Z</time></trkpt><trkpt lat="38.0529048" lon="-1.2882637"><ele>154.0</ele><time>2026-03-28T11:12:00.755Z</time></trkpt><trkpt lat="38.0528326" lon="-1.2881696"><ele>154.0</ele><time>2026-03-28T11:12:02.758Z</time></trkpt><trkpt lat="38.0527623" lon="-1.2880751"><ele>154.0</ele><time>2026-03-28T11:12:04.757Z</time></trkpt><trkpt lat="38.0527043" lon="-1.2879631"><ele>154.0</ele><time>2026-03-28T11:12:06.755Z</time></trkpt><trkpt lat="38.0526591" lon="-1.2878487"><ele>154.0</ele><time>2026-03-28T11:12:08.756Z</time></trkpt><trkpt lat="38.0526073" lon="-1.2877356"><ele>154.0</ele><time>2026-03-28T11:12:10.756Z</time></trkpt><trkpt lat="38.052555" lon="-1.287633"><ele>154.0</ele><time>2026-03-28T11:12:12.756Z</time></trkpt><trkpt lat="38.0525039" lon="-1.2875237"><ele>154.0</ele><time>2026-03-28T11:12:14.757Z</time></trkpt><trkpt lat="38.0524648" lon="-1.2874117"><ele>154.0</ele><time>2026-03-28T11:12:16.757Z</time></trkpt><trkpt lat="38.0524508" lon="-1.2872888"><ele>154.0</ele><time>2026-03-28T11:12:18.757Z</time></trkpt><trkpt lat="38.0524502" lon="-1.2871864"><ele>153.83333333333334</ele><time>2026-03-28T11:12:20.758Z</time></trkpt><trkpt lat="38.052455" lon="-1.2870483"><ele>153.66666666666669</ele><time>2026-03-28T11:12:22.756Z</time></trkpt><trkpt lat="38.0524413" lon="-1.2868964"><ele>153.5</ele><time>2026-03-28T11:12:24.755Z</time></trkpt><trkpt lat="38.0524385" lon="-1.2868153"><ele>153.33333333333334</ele><time>2026-03-28T11:12:25.755Z</time></trkpt><trkpt lat="38.052442" lon="-1.2867306"><ele>153.16666666666666</ele><time>2026-03-28T11:12:26.757Z</time></trkpt><trkpt lat="38.0524436" lon="-1.2866422"><ele>153.0</ele><time>2026-03-28T11:12:27.757Z</time></trkpt><trkpt lat="38.0524454" lon="-1.2865521"><ele>153.0</ele><time>2026-03-28T11:12:28.756Z</time></trkpt><trkpt lat="38.0524517" lon="-1.286447"><ele>153.0</ele><time>2026-03-28T11:12:29.756Z</time></trkpt><trkpt lat="38.0524539" lon="-1.2863476"><ele>153.0</ele><time>2026-03-28T11:12:30.757Z</time></trkpt><trkpt lat="38.0524575" lon="-1.286245"><ele>153.0</ele><time>2026-03-28T11:12:31.756Z</time></trkpt><trkpt lat="38.0524567" lon="-1.2861414"><ele>153.0</ele><time>2026-03-28T11:12:32.757Z</time></trkpt><trkpt lat="38.0524581" lon="-1.2860392"><ele>153.0</ele><time>2026-03-28T11:12:33.756Z</time></trkpt><trkpt lat="38.0524538" lon="-1.2859383"><ele>152.85714285714286</ele><time>2026-03-28T11:12:34.756Z</time></trkpt><trkpt lat="38.0524463" lon="-1.2858382"><ele>152.71428571428572</ele><time>2026-03-28T11:12:35.757Z</time></trkpt><trkpt lat="38.052445" lon="-1.2857576"><ele>152.57142857142856</ele><time>2026-03-28T11:12:36.755Z</time></trkpt><trkpt lat="38.0524461" lon="-1.2856612"><ele>152.42857142857144</ele><time>2026-03-28T11:12:37.756Z</time></trkpt><trkpt lat="38.0524473" lon="-1.285568"><ele>152.2857142857143</ele><time>2026-03-28T11:12:38.756Z</time></trkpt><trkpt lat="38.0524488" lon="-1.2854837"><ele>152.14285714285714</ele><time>2026-03-28T11:12:39.755Z</time></trkpt><trkpt lat="38.0524476" lon="-1.2854024"><ele>152.0</ele><time>2026-03-28T11:12:40.756Z</time></trkpt><trkpt lat="38.052435" lon="-1.2852481"><ele>151.79999999999998</ele><time>2026-03-28T11:12:42.756Z</time></trkpt><trkpt lat="38.0524108" lon="-1.2851157"><ele>151.6</ele><time>2026-03-28T11:12:44.756Z</time></trkpt><trkpt lat="38.0523973" lon="-1.2849925"><ele>151.39999999999998</ele><time>2026-03-28T11:12:46.755Z</time></trkpt><trkpt lat="38.0523824" lon="-1.2848683"><ele>151.2</ele><time>2026-03-28T11:12:48.756Z</time></trkpt><trkpt lat="38.0523734" lon="-1.2847567"><ele>151.0</ele><time>2026-03-28T11:12:50.756Z</time></trkpt><trkpt lat="38.0523658" lon="-1.2846627"><ele>151.00000000000003</ele><time>2026-03-28T11:12:52.756Z</time></trkpt><trkpt lat="38.0523629" lon="-1.2845777"><ele>151.0</ele><time>2026-03-28T11:12:54.757Z</time></trkpt><trkpt lat="38.05237" lon="-1.2844862"><ele>151.0</ele><time>2026-03-28T11:12:56.757Z</time></trkpt><trkpt lat="38.052374" lon="-1.2843993"><ele>151.0</ele><time>2026-03-28T11:12:58.755Z</time></trkpt><trkpt lat="38.0523772" lon="-1.2843172"><ele>151.0</ele><time>2026-03-28T11:13:00.756Z</time></trkpt><trkpt lat="38.0523813" lon="-1.284237"><ele>151.00000000000003</ele><time>2026-03-28T11:13:02.755Z</time></trkpt><trkpt lat="38.0523834" lon="-1.2841439"><ele>151.0</ele><time>2026-03-28T11:13:04.755Z</time></trkpt><trkpt lat="38.0523945" lon="-1.2840439"><ele>151.00000000000003</ele><time>2026-03-28T11:13:06.756Z</time></trkpt><trkpt lat="38.0524028" lon="-1.2839451"><ele>151.0</ele><time>2026-03-28T11:13:08.756Z</time></trkpt><trkpt lat="38.0524103" lon="-1.2838501"><ele>151.0</ele><time>2026-03-28T11:13:10.755Z</time></trkpt><trkpt lat="38.0524193" lon="-1.2837633"><ele>151.0</ele><time>2026-03-28T11:13:12.757Z</time></trkpt><trkpt lat="38.0524344" lon="-1.283679"><ele>151.0</ele><time>2026-03-28T11:13:14.755Z</time></trkpt><trkpt lat="38.0524495" lon="-1.283595"><ele>151.00000000000003</ele><time>2026-03-28T11:13:16.755Z</time></trkpt><trkpt lat="38.0524434" lon="-1.2835137"><ele>151.0</ele><time>2026-03-28T11:13:18.757Z</time></trkpt><trkpt lat="38.0524483" lon="-1.2833965"><ele>150.85714285714286</ele><time>2026-03-28T11:13:21.755Z</time></trkpt><trkpt lat="38.0524557" lon="-1.2833131"><ele>150.71428571428572</ele><time>2026-03-28T11:13:23.755Z</time></trkpt><trkpt lat="38.0524586" lon="-1.2832331"><ele>150.57142857142856</ele><time>2026-03-28T11:13:25.755Z</time></trkpt><trkpt lat="38.0524626" lon="-1.2831441"><ele>150.42857142857144</ele><time>2026-03-28T11:13:27.755Z</time></trkpt><trkpt lat="38.0524757" lon="-1.2830642"><ele>150.28571428571428</ele><time>2026-03-28T11:13:29.757Z</time></trkpt><trkpt lat="38.0524887" lon="-1.2829859"><ele>150.14285714285714</ele><time>2026-03-28T11:13:31.756Z</time></trkpt><trkpt lat="38.0525124" lon="-1.2828676"><ele>150.0</ele><time>2026-03-28T11:13:34.756Z</time></trkpt><trkpt lat="38.0525066" lon="-1.2827654"><ele>148.8</ele><time>2026-03-28T11:13:36.757Z</time></trkpt><trkpt lat="38.0525089" lon="-1.2826568"><ele>147.6</ele><time>2026-03-28T11:13:38.755Z</time></trkpt><trkpt lat="38.0524973" lon="-1.2825285"><ele>146.4</ele><time>2026-03-28T11:13:40.756Z</time></trkpt><trkpt lat="38.0525073" lon="-1.2823906"><ele>145.2</ele><time>2026-03-28T11:13:42.755Z</time></trkpt><trkpt lat="38.052518" lon="-1.2822411"><ele>144.0</ele><time>2026-03-28T11:13:44.757Z</time></trkpt><trkpt lat="38.0525329" lon="-1.2820941"><ele>144.0</ele><time>2026-03-28T11:13:46.757Z</time></trkpt><trkpt lat="38.052536" lon="-1.2819486"><ele>144.0</ele><time>2026-03-28T11:13:48.756Z</time></trkpt><trkpt lat="38.0525449" lon="-1.281805"><ele>144.0</ele><time>2026-03-28T11:13:50.756Z</time></trkpt><trkpt lat="38.0525487" lon="-1.2816735"><ele>144.0</ele><time>2026-03-28T11:13:52.756Z</time></trkpt><trkpt lat="38.0525592" lon="-1.2815446"><ele>144.0</ele><time>2026-03-28T11:13:54.755Z</time></trkpt><trkpt lat="38.0525689" lon="-1.2814179"><ele>143.6</ele><time>2026-03-28T11:13:56.755Z</time></trkpt><trkpt lat="38.052571" lon="-1.281297"><ele>143.2</ele><time>2026-03-28T11:13:58.756Z</time></trkpt><trkpt lat="38.0525724" lon="-1.281167"><ele>142.79999999999998</ele><time>2026-03-28T11:14:00.756Z</time></trkpt><trkpt lat="38.0525805" lon="-1.2810372"><ele>142.4</ele><time>2026-03-28T11:14:02.756Z</time></trkpt><trkpt lat="38.0525907" lon="-1.2809034"><ele>142.0</ele><time>2026-03-28T11:14:04.756Z</time></trkpt><trkpt lat="38.0526017" lon="-1.2807707"><ele>142.0</ele><time>2026-03-28T11:14:06.756Z</time></trkpt><trkpt lat="38.0526057" lon="-1.2806417"><ele>142.0</ele><time>2026-03-28T11:14:08.755Z</time></trkpt><trkpt lat="38.0526113" lon="-1.2805068"><ele>142.0</ele><time>2026-03-28T11:14:10.756Z</time></trkpt><trkpt lat="38.0526215" lon="-1.2803763"><ele>142.0</ele><time>2026-03-28T11:14:12.756Z</time></trkpt><trkpt lat="38.0526317" lon="-1.280245"><ele>142.0</ele><time>2026-03-28T11:14:14.757Z</time></trkpt><trkpt lat="38.0526425" lon="-1.2801012"><ele>141.16666666666669</ele><time>2026-03-28T11:14:16.756Z</time></trkpt><trkpt lat="38.052645" lon="-1.2799757"><ele>140.33333333333334</ele><time>2026-03-28T11:14:18.756Z</time></trkpt><trkpt lat="38.0526454" lon="-1.2798834"><ele>139.5</ele><time>2026-03-28T11:14:20.756Z</time></trkpt><trkpt lat="38.0526358" lon="-1.2797686"><ele>138.66666666666666</ele><time>2026-03-28T11:14:23.756Z</time></trkpt><trkpt lat="38.0526121" lon="-1.279685"><ele>137.83333333333331</ele><time>2026-03-28T11:14:25.756Z</time></trkpt><trkpt lat="38.0526171" lon="-1.2795549"><ele>137.0</ele><time>2026-03-28T11:14:27.757Z</time></trkpt><trkpt lat="38.0526146" lon="-1.2794186"><ele>137.0</ele><time>2026-03-28T11:14:29.756Z</time></trkpt><trkpt lat="38.0526062" lon="-1.2792825"><ele>137.0</ele><time>2026-03-28T11:14:31.758Z</time></trkpt><trkpt lat="38.0525906" lon="-1.2791422"><ele>137.0</ele><time>2026-03-28T11:14:33.758Z</time></trkpt><trkpt lat="38.0525742" lon="-1.2790021"><ele>137.0</ele><time>2026-03-28T11:14:35.755Z</time></trkpt><trkpt lat="38.0525438" lon="-1.2788709"><ele>137.0</ele><time>2026-03-28T11:14:37.755Z</time></trkpt><trkpt lat="38.052516" lon="-1.2787399"><ele>136.6</ele><time>2026-03-28T11:14:39.755Z</time></trkpt><trkpt lat="38.0524825" lon="-1.2786102"><ele>136.2</ele><time>2026-03-28T11:14:41.757Z</time></trkpt><trkpt lat="38.0524527" lon="-1.2784855"><ele>135.8</ele><time>2026-03-28T11:14:43.756Z</time></trkpt><trkpt lat="38.0524151" lon="-1.2783625"><ele>135.4</ele><time>2026-03-28T11:14:45.756Z</time></trkpt><trkpt lat="38.0523789" lon="-1.2782416"><ele>135.0</ele><time>2026-03-28T11:14:47.756Z</time></trkpt><trkpt lat="38.0523323" lon="-1.278118"><ele>136.8</ele><time>2026-03-28T11:14:49.756Z</time></trkpt><trkpt lat="38.0522728" lon="-1.2779914"><ele>138.6</ele><time>2026-03-28T11:14:51.756Z</time></trkpt><trkpt lat="38.052227" lon="-1.2778628"><ele>140.4</ele><time>2026-03-28T11:14:53.757Z</time></trkpt><trkpt lat="38.0521749" lon="-1.2777419"><ele>142.2</ele><time>2026-03-28T11:14:55.755Z</time></trkpt><trkpt lat="38.0521197" lon="-1.2776189"><ele>144.0</ele><time>2026-03-28T11:14:57.756Z</time></trkpt><trkpt lat="38.0520689" lon="-1.2774996"><ele>144.0</ele><time>2026-03-28T11:14:59.756Z</time></trkpt><trkpt lat="38.0520274" lon="-1.2773881"><ele>144.0</ele><time>2026-03-28T11:15:01.755Z</time></trkpt><trkpt lat="38.0519796" lon="-1.2772938"><ele>144.0</ele><time>2026-03-28T11:15:03.757Z</time></trkpt><trkpt lat="38.0519289" lon="-1.2772115"><ele>144.0</ele><time>2026-03-28T11:15:05.756Z</time></trkpt><trkpt lat="38.0518685" lon="-1.2771147"><ele>144.0</ele><time>2026-03-28T11:15:07.757Z</time></trkpt><trkpt lat="38.0518106" lon="-1.2770206"><ele>143.8</ele><time>2026-03-28T11:15:09.755Z</time></trkpt><trkpt lat="38.051742" lon="-1.2769224"><ele>143.60000000000002</ele><time>2026-03-28T11:15:11.756Z</time></trkpt><trkpt lat="38.0516794" lon="-1.2768221"><ele>143.4</ele><time>2026-03-28T11:15:13.756Z</time></trkpt><trkpt lat="38.0516047" lon="-1.2767306"><ele>143.20000000000002</ele><time>2026-03-28T11:15:15.756Z</time></trkpt><trkpt lat="38.0515402" lon="-1.2766377"><ele>143.0</ele><time>2026-03-28T11:15:17.755Z</time></trkpt><trkpt lat="38.0514829" lon="-1.2765474"><ele>143.0</ele><time>2026-03-28T11:15:19.756Z</time></trkpt><trkpt lat="38.0514234" lon="-1.2764551"><ele>143.0</ele><time>2026-03-28T11:15:21.756Z</time></trkpt><trkpt lat="38.0513496" lon="-1.2763637"><ele>143.0</ele><time>2026-03-28T11:15:23.756Z</time></trkpt><trkpt lat="38.0512845" lon="-1.2762602"><ele>143.0</ele><time>2026-03-28T11:15:25.757Z</time></trkpt><trkpt lat="38.0512199" lon="-1.2761528"><ele>143.0</ele><time>2026-03-28T11:15:27.755Z</time></trkpt><trkpt lat="38.051152" lon="-1.2760494"><ele>143.0</ele><time>2026-03-28T11:15:29.755Z</time></trkpt><trkpt lat="38.0510853" lon="-1.2759519"><ele>143.0</ele><time>2026-03-28T11:15:31.756Z</time></trkpt><trkpt lat="38.0510212" lon="-1.2758477"><ele>143.0</ele><time>2026-03-28T11:15:33.756Z</time></trkpt><trkpt lat="38.0509576" lon="-1.2757452"><ele>143.0</ele><time>2026-03-28T11:15:35.757Z</time></trkpt><trkpt lat="38.0508955" lon="-1.2756439"><ele>143.0</ele><time>2026-03-28T11:15:37.755Z</time></trkpt><trkpt lat="38.0508272" lon="-1.2755446"><ele>141.20000000000002</ele><time>2026-03-28T11:15:39.756Z</time></trkpt><trkpt lat="38.0507555" lon="-1.2754442"><ele>139.4</ele><time>2026-03-28T11:15:41.756Z</time></trkpt><trkpt lat="38.0506932" lon="-1.2753407"><ele>137.60000000000002</ele><time>2026-03-28T11:15:43.755Z</time></trkpt><trkpt lat="38.0506217" lon="-1.2752422"><ele>135.8</ele><time>2026-03-28T11:15:45.756Z</time></trkpt><trkpt lat="38.0505652" lon="-1.2751293"><ele>134.0</ele><time>2026-03-28T11:15:47.755Z</time></trkpt><trkpt lat="38.0505008" lon="-1.275023"><ele>134.0</ele><time>2026-03-28T11:15:49.755Z</time></trkpt><trkpt lat="38.0504259" lon="-1.2749096"><ele>134.0</ele><time>2026-03-28T11:15:51.756Z</time></trkpt><trkpt lat="38.0503534" lon="-1.2747891"><ele>134.0</ele><time>2026-03-28T11:15:53.756Z</time></trkpt><trkpt lat="38.0502787" lon="-1.2746795"><ele>134.0</ele><time>2026-03-28T11:15:55.757Z</time></trkpt><trkpt lat="38.0502092" lon="-1.2745626"><ele>133.75</ele><time>2026-03-28T11:15:57.756Z</time></trkpt><trkpt lat="38.0501401" lon="-1.2744479"><ele>133.5</ele><time>2026-03-28T11:15:59.755Z</time></trkpt><trkpt lat="38.05007" lon="-1.274333"><ele>133.25</ele><time>2026-03-28T11:16:01.755Z</time></trkpt><trkpt lat="38.0499982" lon="-1.2742232"><ele>133.0</ele><time>2026-03-28T11:16:03.756Z</time></trkpt><trkpt lat="38.0499342" lon="-1.2741055"><ele>132.25</ele><time>2026-03-28T11:16:05.757Z</time></trkpt><trkpt lat="38.0498625" lon="-1.2739936"><ele>131.5</ele><time>2026-03-28T11:16:07.756Z</time></trkpt><trkpt lat="38.0497906" lon="-1.2738789"><ele>130.75</ele><time>2026-03-28T11:16:09.758Z</time></trkpt><trkpt lat="38.0497162" lon="-1.273771"><ele>130.0</ele><time>2026-03-28T11:16:11.755Z</time></trkpt><trkpt lat="38.0496416" lon="-1.2736641"><ele>130.0</ele><time>2026-03-28T11:16:13.757Z</time></trkpt><trkpt lat="38.049565" lon="-1.273557"><ele>130.0</ele><time>2026-03-28T11:16:15.757Z</time></trkpt><trkpt lat="38.0494883" lon="-1.2734505"><ele>130.0</ele><time>2026-03-28T11:16:17.755Z</time></trkpt><trkpt lat="38.0494165" lon="-1.2733378"><ele>130.0</ele><time>2026-03-28T11:16:19.756Z</time></trkpt><trkpt lat="38.0493454" lon="-1.2732223"><ele>130.0</ele><time>2026-03-28T11:16:21.755Z</time></trkpt><trkpt lat="38.0492793" lon="-1.2731145"><ele>130.0</ele><time>2026-03-28T11:16:23.756Z</time></trkpt><trkpt lat="38.0492082" lon="-1.2729956"><ele>130.0</ele><time>2026-03-28T11:16:25.756Z</time></trkpt><trkpt lat="38.0491387" lon="-1.2728768"><ele>130.0</ele><time>2026-03-28T11:16:27.756Z</time></trkpt><trkpt lat="38.0490708" lon="-1.27277"><ele>129.0</ele><time>2026-03-28T11:16:29.756Z</time></trkpt><trkpt lat="38.0490053" lon="-1.272659"><ele>128.0</ele><time>2026-03-28T11:16:31.757Z</time></trkpt><trkpt lat="38.0489316" lon="-1.272542"><ele>127.0</ele><time>2026-03-28T11:16:33.757Z</time></trkpt><trkpt lat="38.0488575" lon="-1.2724376"><ele>126.0</ele><time>2026-03-28T11:16:35.755Z</time></trkpt><trkpt lat="38.0487886" lon="-1.2723244"><ele>126.19999999999999</ele><time>2026-03-28T11:16:37.756Z</time></trkpt><trkpt lat="38.0487222" lon="-1.2722141"><ele>126.39999999999999</ele><time>2026-03-28T11:16:39.757Z</time></trkpt><trkpt lat="38.0486663" lon="-1.2720969"><ele>126.6</ele><time>2026-03-28T11:16:41.756Z</time></trkpt><trkpt lat="38.048609" lon="-1.2719795"><ele>126.8</ele><time>2026-03-28T11:16:43.755Z</time></trkpt><trkpt lat="38.0485513" lon="-1.2718697"><ele>127.0</ele><time>2026-03-28T11:16:45.758Z</time></trkpt><trkpt lat="38.0484939" lon="-1.271748"><ele>127.0</ele><time>2026-03-28T11:16:47.757Z</time></trkpt><trkpt lat="38.0484435" lon="-1.2716193"><ele>126.99999999999999</ele><time>2026-03-28T11:16:49.755Z</time></trkpt><trkpt lat="38.0484001" lon="-1.2714875"><ele>126.99999999999999</ele><time>2026-03-28T11:16:51.756Z</time></trkpt><trkpt lat="38.048353" lon="-1.2713631"><ele>127.0</ele><time>2026-03-28T11:16:53.757Z</time></trkpt><trkpt lat="38.0483215" lon="-1.2712707"><ele>127.0</ele><time>2026-03-28T11:16:55.756Z</time></trkpt><trkpt lat="38.048291" lon="-1.2712001"><ele>126.50000000000001</ele><time>2026-03-28T11:16:57.756Z</time></trkpt><trkpt lat="38.0482621" lon="-1.2711028"><ele>126.0</ele><time>2026-03-28T11:17:00.756Z</time></trkpt><trkpt lat="38.0482276" lon="-1.2710158"><ele>125.5</ele><time>2026-03-28T11:17:03.756Z</time></trkpt><trkpt lat="38.0482065" lon="-1.2709199"><ele>125.0</ele><time>2026-03-28T11:17:06.757Z</time></trkpt><trkpt lat="38.0481717" lon="-1.270849"><ele>124.50000000000001</ele><time>2026-03-28T11:18:08.756Z</time></trkpt><trkpt lat="38.0481511" lon="-1.2707532"><ele>124.0</ele><time>2026-03-28T11:18:12.755Z</time></trkpt><trkpt lat="38.0481278" lon="-1.2706641"><ele>123.50000000000001</ele><time>2026-03-28T11:18:14.756Z</time></trkpt><trkpt lat="38.0481059" lon="-1.2705563"><ele>123.0</ele><time>2026-03-28T11:18:16.756Z</time></trkpt><trkpt lat="38.0480841" lon="-1.2704468"><ele>122.5</ele><time>2026-03-28T11:18:18.756Z</time></trkpt><trkpt lat="38.0480636" lon="-1.2703335"><ele>122.0</ele><time>2026-03-28T11:18:20.757Z</time></trkpt><trkpt lat="38.0480443" lon="-1.2702223"><ele>121.50000000000001</ele><time>2026-03-28T11:18:22.755Z</time></trkpt><trkpt lat="38.0480292" lon="-1.2701133"><ele>121.0</ele><time>2026-03-28T11:18:24.756Z</time></trkpt><trkpt lat="38.0480146" lon="-1.2699941"><ele>121.0</ele><time>2026-03-28T11:18:26.756Z</time></trkpt><trkpt lat="38.0479959" lon="-1.269878"><ele>121.0</ele><time>2026-03-28T11:18:28.756Z</time></trkpt><trkpt lat="38.0479804" lon="-1.2697512"><ele>121.0</ele><time>2026-03-28T11:18:30.756Z</time></trkpt><trkpt lat="38.047965" lon="-1.2696217"><ele>121.0</ele><time>2026-03-28T11:18:32.755Z</time></trkpt><trkpt lat="38.047952" lon="-1.2694943"><ele>121.0</ele><time>2026-03-28T11:18:34.757Z</time></trkpt><trkpt lat="38.0479467" lon="-1.269365"><ele>121.0</ele><time>2026-03-28T11:18:36.756Z</time></trkpt><trkpt lat="38.047949" lon="-1.2692312"><ele>121.0</ele><time>2026-03-28T11:18:38.756Z</time></trkpt><trkpt lat="38.0479544" lon="-1.2691011"><ele>121.0</ele><time>2026-03-28T11:18:40.755Z</time></trkpt><trkpt lat="38.0479595" lon="-1.2689745"><ele>121.0</ele><time>2026-03-28T11:18:42.755Z</time></trkpt><trkpt lat="38.0479618" lon="-1.2688368"><ele>121.0</ele><time>2026-03-28T11:18:44.756Z</time></trkpt><trkpt lat="38.0479661" lon="-1.2687043"><ele>121.4</ele><time>2026-03-28T11:18:46.755Z</time></trkpt><trkpt lat="38.0479646" lon="-1.2685599"><ele>121.8</ele><time>2026-03-28T11:18:48.756Z</time></trkpt><trkpt lat="38.0479692" lon="-1.268449"><ele>122.20000000000002</ele><time>2026-03-28T11:18:50.756Z</time></trkpt><trkpt lat="38.0479725" lon="-1.268357"><ele>122.60000000000001</ele><time>2026-03-28T11:18:52.756Z</time></trkpt><trkpt lat="38.0479734" lon="-1.2682428"><ele>123.0</ele><time>2026-03-28T11:18:54.755Z</time></trkpt><trkpt lat="38.04799" lon="-1.2681018"><ele>123.0</ele><time>2026-03-28T11:18:56.757Z</time></trkpt><trkpt lat="38.048012" lon="-1.2679591"><ele>123.0</ele><time>2026-03-28T11:18:58.755Z</time></trkpt><trkpt lat="38.0480321" lon="-1.2678109"><ele>123.0</ele><time>2026-03-28T11:19:00.757Z</time></trkpt><trkpt lat="38.0480542" lon="-1.2676709"><ele>123.0</ele><time>2026-03-28T11:19:02.756Z</time></trkpt><trkpt lat="38.0480828" lon="-1.2675203"><ele>123.0</ele><time>2026-03-28T11:19:04.757Z</time></trkpt><trkpt lat="38.048101" lon="-1.2674423"><ele>123.0</ele><time>2026-03-28T11:19:05.756Z</time></trkpt><trkpt lat="38.0481164" lon="-1.2673647"><ele>123.0</ele><time>2026-03-28T11:19:06.755Z</time></trkpt><trkpt lat="38.0481325" lon="-1.2672849"><ele>123.0</ele><time>2026-03-28T11:19:07.755Z</time></trkpt><trkpt lat="38.0481659" lon="-1.2671333"><ele>123.0</ele><time>2026-03-28T11:19:09.757Z</time></trkpt><trkpt lat="38.0481855" lon="-1.2670565"><ele>123.0</ele><time>2026-03-28T11:19:10.755Z</time></trkpt><trkpt lat="38.0482226" lon="-1.2669091"><ele>123.0</ele><time>2026-03-28T11:19:12.755Z</time></trkpt><trkpt lat="38.0482531" lon="-1.2667624"><ele>123.0</ele><time>2026-03-28T11:19:14.756Z</time></trkpt><trkpt lat="38.048289" lon="-1.2666096"><ele>123.0</ele><time>2026-03-28T11:19:16.756Z</time></trkpt><trkpt lat="38.0483261" lon="-1.266456"><ele>123.0</ele><time>2026-03-28T11:19:18.756Z</time></trkpt><trkpt lat="38.0483607" lon="-1.2663062"><ele>122.60000000000001</ele><time>2026-03-28T11:19:20.757Z</time></trkpt><trkpt lat="38.0483921" lon="-1.2661528"><ele>122.20000000000002</ele><time>2026-03-28T11:19:22.755Z</time></trkpt><trkpt lat="38.0484106" lon="-1.2660732"><ele>121.8</ele><time>2026-03-28T11:19:23.755Z</time></trkpt><trkpt lat="38.0484479" lon="-1.2659202"><ele>121.4</ele><time>2026-03-28T11:19:25.756Z</time></trkpt><trkpt lat="38.0484786" lon="-1.2657683"><ele>121.0</ele><time>2026-03-28T11:19:27.757Z</time></trkpt><trkpt lat="38.0485148" lon="-1.2656195"><ele>120.25</ele><time>2026-03-28T11:19:29.755Z</time></trkpt><trkpt lat="38.048548" lon="-1.26547"><ele>119.5</ele><time>2026-03-28T11:19:31.756Z</time></trkpt><trkpt lat="38.0485833" lon="-1.2653247"><ele>118.75</ele><time>2026-03-28T11:19:33.756Z</time></trkpt><trkpt lat="38.0486149" lon="-1.2651737"><ele>118.0</ele><time>2026-03-28T11:19:35.755Z</time></trkpt><trkpt lat="38.048646" lon="-1.2650269"><ele>118.0</ele><time>2026-03-28T11:19:37.755Z</time></trkpt><trkpt lat="38.0486769" lon="-1.264873"><ele>118.00000000000001</ele><time>2026-03-28T11:19:39.757Z</time></trkpt><trkpt lat="38.0486961" lon="-1.2647919"><ele>118.00000000000001</ele><time>2026-03-28T11:19:40.757Z</time></trkpt><trkpt lat="38.0487289" lon="-1.264645"><ele>118.0</ele><time>2026-03-28T11:19:42.755Z</time></trkpt><trkpt lat="38.0487605" lon="-1.2645004"><ele>118.0</ele><time>2026-03-28T11:19:44.756Z</time></trkpt><trkpt lat="38.0487754" lon="-1.2644202"><ele>117.4</ele><time>2026-03-28T11:19:45.757Z</time></trkpt><trkpt lat="38.0487943" lon="-1.2643394"><ele>116.80000000000001</ele><time>2026-03-28T11:19:46.756Z</time></trkpt><trkpt lat="38.0488181" lon="-1.2642629"><ele>116.2</ele><time>2026-03-28T11:19:47.757Z</time></trkpt><trkpt lat="38.04885" lon="-1.2641158"><ele>115.6</ele><time>2026-03-28T11:19:49.756Z</time></trkpt><trkpt lat="38.0488848" lon="-1.2639832"><ele>115.0</ele><time>2026-03-28T11:19:51.756Z</time></trkpt><trkpt lat="38.0489201" lon="-1.2638645"><ele>114.5</ele><time>2026-03-28T11:19:53.756Z</time></trkpt><trkpt lat="38.0489501" lon="-1.2637502"><ele>114.0</ele><time>2026-03-28T11:19:55.756Z</time></trkpt><trkpt lat="38.04898" lon="-1.2636067"><ele>113.5</ele><time>2026-03-28T11:19:57.755Z</time></trkpt><trkpt lat="38.0490155" lon="-1.2634628"><ele>113.0</ele><time>2026-03-28T11:19:59.755Z</time></trkpt><trkpt lat="38.0490459" lon="-1.2633161"><ele>112.99999999999999</ele><time>2026-03-28T11:20:01.756Z</time></trkpt><trkpt lat="38.0490632" lon="-1.2632378"><ele>113.0</ele><time>2026-03-28T11:20:02.756Z</time></trkpt><trkpt lat="38.0490811" lon="-1.2631573"><ele>113.0</ele><time>2026-03-28T11:20:03.755Z</time></trkpt><trkpt lat="38.0490968" lon="-1.2630715"><ele>113.0</ele><time>2026-03-28T11:20:04.755Z</time></trkpt><trkpt lat="38.0491246" lon="-1.2629125"><ele>112.99999999999999</ele><time>2026-03-28T11:20:06.756Z</time></trkpt><trkpt lat="38.0491397" lon="-1.2628307"><ele>113.0</ele><time>2026-03-28T11:20:07.757Z</time></trkpt><trkpt lat="38.0491758" lon="-1.2626729"><ele>112.83333333333333</ele><time>2026-03-28T11:20:09.755Z</time></trkpt><trkpt lat="38.0491957" lon="-1.2625952"><ele>112.66666666666666</ele><time>2026-03-28T11:20:10.756Z</time></trkpt><trkpt lat="38.0492348" lon="-1.2624378"><ele>112.5</ele><time>2026-03-28T11:20:12.756Z</time></trkpt><trkpt lat="38.0492536" lon="-1.262354"><ele>112.33333333333334</ele><time>2026-03-28T11:20:13.756Z</time></trkpt><trkpt lat="38.0492715" lon="-1.2622751"><ele>112.16666666666667</ele><time>2026-03-28T11:20:14.755Z</time></trkpt><trkpt lat="38.0492897" lon="-1.26219"><ele>112.0</ele><time>2026-03-28T11:20:15.756Z</time></trkpt><trkpt lat="38.049307" lon="-1.2621075"><ele>111.6</ele><time>2026-03-28T11:20:16.756Z</time></trkpt><trkpt lat="38.0493393" lon="-1.2619517"><ele>111.19999999999999</ele><time>2026-03-28T11:20:18.756Z</time></trkpt><trkpt lat="38.0493582" lon="-1.2618719"><ele>110.8</ele><time>2026-03-28T11:20:19.757Z</time></trkpt><trkpt lat="38.0493967" lon="-1.2617114"><ele>110.4</ele><time>2026-03-28T11:20:21.755Z</time></trkpt><trkpt lat="38.0494165" lon="-1.2616337"><ele>110.0</ele><time>2026-03-28T11:20:22.755Z</time></trkpt><trkpt lat="38.0494347" lon="-1.2615553"><ele>109.99999999999999</ele><time>2026-03-28T11:20:23.756Z</time></trkpt><trkpt lat="38.0494502" lon="-1.2614769"><ele>110.0</ele><time>2026-03-28T11:20:24.757Z</time></trkpt><trkpt lat="38.0494672" lon="-1.2613942"><ele>110.0</ele><time>2026-03-28T11:20:25.755Z</time></trkpt><trkpt lat="38.0494868" lon="-1.2613148"><ele>110.0</ele><time>2026-03-28T11:20:26.756Z</time></trkpt><trkpt lat="38.0495039" lon="-1.2612298"><ele>110.0</ele><time>2026-03-28T11:20:27.756Z</time></trkpt><trkpt lat="38.0495201" lon="-1.2611509"><ele>109.99999999999999</ele><time>2026-03-28T11:20:28.757Z</time></trkpt><trkpt lat="38.0495361" lon="-1.2610698"><ele>110.0</ele><time>2026-03-28T11:20:29.756Z</time></trkpt><trkpt lat="38.0495497" lon="-1.2609908"><ele>109.71428571428571</ele><time>2026-03-28T11:20:30.755Z</time></trkpt><trkpt lat="38.0495686" lon="-1.2609095"><ele>109.42857142857143</ele><time>2026-03-28T11:20:31.756Z</time></trkpt><trkpt lat="38.0495877" lon="-1.2608286"><ele>109.14285714285714</ele><time>2026-03-28T11:20:32.756Z</time></trkpt><trkpt lat="38.0496036" lon="-1.2607465"><ele>108.85714285714286</ele><time>2026-03-28T11:20:33.755Z</time></trkpt><trkpt lat="38.0496277" lon="-1.2606696"><ele>108.57142857142857</ele><time>2026-03-28T11:20:34.757Z</time></trkpt><trkpt lat="38.0496466" lon="-1.2605867"><ele>108.28571428571428</ele><time>2026-03-28T11:20:35.755Z</time></trkpt><trkpt lat="38.0496645" lon="-1.2605028"><ele>108.0</ele><time>2026-03-28T11:20:36.756Z</time></trkpt><trkpt lat="38.049681" lon="-1.2604194"><ele>107.57142857142857</ele><time>2026-03-28T11:20:37.756Z</time></trkpt><trkpt lat="38.0496972" lon="-1.2603392"><ele>107.14285714285714</ele><time>2026-03-28T11:20:38.756Z</time></trkpt><trkpt lat="38.0497155" lon="-1.260261"><ele>106.71428571428572</ele><time>2026-03-28T11:20:39.754Z</time></trkpt><trkpt lat="38.0497365" lon="-1.2601856"><ele>106.28571428571428</ele><time>2026-03-28T11:20:40.756Z</time></trkpt><trkpt lat="38.0497561" lon="-1.2600998"><ele>105.85714285714286</ele><time>2026-03-28T11:20:41.755Z</time></trkpt><trkpt lat="38.0497753" lon="-1.260018"><ele>105.42857142857143</ele><time>2026-03-28T11:20:42.756Z</time></trkpt><trkpt lat="38.0497982" lon="-1.2599325"><ele>105.0</ele><time>2026-03-28T11:20:43.757Z</time></trkpt><trkpt lat="38.0498328" lon="-1.2597851"><ele>104.71428571428571</ele><time>2026-03-28T11:20:45.756Z</time></trkpt><trkpt lat="38.0498547" lon="-1.2597052"><ele>104.42857142857143</ele><time>2026-03-28T11:20:46.755Z</time></trkpt><trkpt lat="38.0498765" lon="-1.2596268"><ele>104.14285714285714</ele><time>2026-03-28T11:20:47.757Z</time></trkpt><trkpt lat="38.0499002" lon="-1.2595473"><ele>103.85714285714286</ele><time>2026-03-28T11:20:48.756Z</time></trkpt><trkpt lat="38.0499212" lon="-1.259465"><ele>103.57142857142857</ele><time>2026-03-28T11:20:49.756Z</time></trkpt><trkpt lat="38.0499396" lon="-1.2593777"><ele>103.28571428571428</ele><time>2026-03-28T11:20:50.756Z</time></trkpt><trkpt lat="38.0499567" lon="-1.2592943"><ele>103.0</ele><time>2026-03-28T11:20:51.755Z</time></trkpt><trkpt lat="38.0499762" lon="-1.2592156"><ele>102.99999999999999</ele><time>2026-03-28T11:20:52.757Z</time></trkpt><trkpt lat="38.0499979" lon="-1.2591378"><ele>103.0</ele><time>2026-03-28T11:20:53.756Z</time></trkpt><trkpt lat="38.0500172" lon="-1.2590542"><ele>103.0</ele><time>2026-03-28T11:20:54.756Z</time></trkpt><trkpt lat="38.0500351" lon="-1.2589694"><ele>103.0</ele><time>2026-03-28T11:20:55.755Z</time></trkpt><trkpt lat="38.0500572" lon="-1.2588892"><ele>103.0</ele><time>2026-03-28T11:20:56.756Z</time></trkpt><trkpt lat="38.0500792" lon="-1.2588009"><ele>102.99999999999999</ele><time>2026-03-28T11:20:57.757Z</time></trkpt><trkpt lat="38.0501032" lon="-1.2587171"><ele>103.0</ele><time>2026-03-28T11:20:58.755Z</time></trkpt><trkpt lat="38.0501215" lon="-1.2586263"><ele>102.99999999999999</ele><time>2026-03-28T11:20:59.756Z</time></trkpt><trkpt lat="38.0501386" lon="-1.2585365"><ele>103.0</ele><time>2026-03-28T11:21:00.757Z</time></trkpt><trkpt lat="38.0501569" lon="-1.2584485"><ele>103.0</ele><time>2026-03-28T11:21:01.756Z</time></trkpt><trkpt lat="38.0501742" lon="-1.258357"><ele>103.0</ele><time>2026-03-28T11:21:02.756Z</time></trkpt><trkpt lat="38.0501923" lon="-1.2582658"><ele>103.0</ele><time>2026-03-28T11:21:03.756Z</time></trkpt><trkpt lat="38.0502073" lon="-1.2581754"><ele>102.99999999999999</ele><time>2026-03-28T11:21:04.757Z</time></trkpt><trkpt lat="38.0502215" lon="-1.258086"><ele>103.0</ele><time>2026-03-28T11:21:05.756Z</time></trkpt><trkpt lat="38.0502324" lon="-1.257988"><ele>102.99999999999999</ele><time>2026-03-28T11:21:06.756Z</time></trkpt><trkpt lat="38.050244" lon="-1.2578955"><ele>103.0</ele><time>2026-03-28T11:21:07.755Z</time></trkpt><trkpt lat="38.0502523" lon="-1.2578023"><ele>103.0</ele><time>2026-03-28T11:21:08.755Z</time></trkpt><trkpt lat="38.0502573" lon="-1.257716"><ele>103.0</ele><time>2026-03-28T11:21:09.755Z</time></trkpt><trkpt lat="38.0502604" lon="-1.2576262"><ele>103.0</ele><time>2026-03-28T11:21:10.756Z</time></trkpt><trkpt lat="38.0502609" lon="-1.2575368"><ele>102.99999999999999</ele><time>2026-03-28T11:21:11.756Z</time></trkpt><trkpt lat="38.0502617" lon="-1.2574466"><ele>103.0</ele><time>2026-03-28T11:21:12.755Z</time></trkpt><trkpt lat="38.0502587" lon="-1.2573595"><ele>102.85714285714285</ele><time>2026-03-28T11:21:13.757Z</time></trkpt><trkpt lat="38.0502517" lon="-1.2572675"><ele>102.71428571428571</ele><time>2026-03-28T11:21:14.755Z</time></trkpt><trkpt lat="38.0502428" lon="-1.2571818"><ele>102.57142857142857</ele><time>2026-03-28T11:21:15.757Z</time></trkpt><trkpt lat="38.0502312" lon="-1.2570927"><ele>102.42857142857142</ele><time>2026-03-28T11:21:16.755Z</time></trkpt><trkpt lat="38.0502181" lon="-1.2570099"><ele>102.28571428571429</ele><time>2026-03-28T11:21:17.755Z</time></trkpt><trkpt lat="38.0502086" lon="-1.2569254"><ele>102.14285714285714</ele><time>2026-03-28T11:21:18.756Z</time></trkpt><trkpt lat="38.0501972" lon="-1.2568464"><ele>102.0</ele><time>2026-03-28T11:21:19.755Z</time></trkpt><trkpt lat="38.0501819" lon="-1.2567675"><ele>102.0</ele><time>2026-03-28T11:21:20.756Z</time></trkpt><trkpt lat="38.0501697" lon="-1.2566847"><ele>102.0</ele><time>2026-03-28T11:21:21.756Z</time></trkpt><trkpt lat="38.0501522" lon="-1.2566005"><ele>102.0</ele><time>2026-03-28T11:21:22.755Z</time></trkpt><trkpt lat="38.0501337" lon="-1.2565216"><ele>102.0</ele><time>2026-03-28T11:21:23.755Z</time></trkpt><trkpt lat="38.0501151" lon="-1.2564339"><ele>102.0</ele><time>2026-03-28T11:21:24.755Z</time></trkpt><trkpt lat="38.0500926" lon="-1.2563522"><ele>102.0</ele><time>2026-03-28T11:21:25.756Z</time></trkpt><trkpt lat="38.0500642" lon="-1.2562751"><ele>102.0</ele><time>2026-03-28T11:21:26.756Z</time></trkpt><trkpt lat="38.0500331" lon="-1.2561897"><ele>101.71428571428572</ele><time>2026-03-28T11:21:27.756Z</time></trkpt><trkpt lat="38.0500046" lon="-1.2561092"><ele>101.42857142857143</ele><time>2026-03-28T11:21:28.757Z</time></trkpt><trkpt lat="38.049972" lon="-1.2560313"><ele>101.14285714285714</ele><time>2026-03-28T11:21:29.754Z</time></trkpt><trkpt lat="38.0499399" lon="-1.2559567"><ele>100.85714285714286</ele><time>2026-03-28T11:21:30.756Z</time></trkpt><trkpt lat="38.0499042" lon="-1.2558816"><ele>100.57142857142857</ele><time>2026-03-28T11:21:31.756Z</time></trkpt><trkpt lat="38.0498653" lon="-1.2558022"><ele>100.28571428571429</ele><time>2026-03-28T11:21:32.757Z</time></trkpt><trkpt lat="38.0498272" lon="-1.2557275"><ele>100.0</ele><time>2026-03-28T11:21:33.755Z</time></trkpt><trkpt lat="38.0497847" lon="-1.2556535"><ele>99.57142857142858</ele><time>2026-03-28T11:21:34.755Z</time></trkpt><trkpt lat="38.0497397" lon="-1.2555807"><ele>99.14285714285714</ele><time>2026-03-28T11:21:35.756Z</time></trkpt><trkpt lat="38.0496981" lon="-1.2555059"><ele>98.71428571428572</ele><time>2026-03-28T11:21:36.757Z</time></trkpt><trkpt lat="38.0496549" lon="-1.2554408"><ele>98.28571428571429</ele><time>2026-03-28T11:21:37.756Z</time></trkpt><trkpt lat="38.0496116" lon="-1.2553748"><ele>97.85714285714286</ele><time>2026-03-28T11:21:38.755Z</time></trkpt><trkpt lat="38.0495667" lon="-1.2553076"><ele>97.42857142857143</ele><time>2026-03-28T11:21:39.757Z</time></trkpt><trkpt lat="38.0495255" lon="-1.2552419"><ele>97.0</ele><time>2026-03-28T11:21:40.756Z</time></trkpt><trkpt lat="38.0494813" lon="-1.255181"><ele>97.0</ele><time>2026-03-28T11:21:41.757Z</time></trkpt><trkpt lat="38.0494346" lon="-1.2551202"><ele>97.0</ele><time>2026-03-28T11:21:42.756Z</time></trkpt><trkpt lat="38.0493851" lon="-1.2550589"><ele>97.0</ele><time>2026-03-28T11:21:43.756Z</time></trkpt><trkpt lat="38.0493347" lon="-1.2550001"><ele>97.0</ele><time>2026-03-28T11:21:44.757Z</time></trkpt><trkpt lat="38.0492835" lon="-1.2549381"><ele>97.0</ele><time>2026-03-28T11:21:45.754Z</time></trkpt><trkpt lat="38.0492333" lon="-1.2548791"><ele>97.0</ele><time>2026-03-28T11:21:46.755Z</time></trkpt><trkpt lat="38.0491872" lon="-1.2548172"><ele>97.0</ele><time>2026-03-28T11:21:47.756Z</time></trkpt><trkpt lat="38.0491441" lon="-1.2547583"><ele>96.57142857142857</ele><time>2026-03-28T11:21:48.755Z</time></trkpt><trkpt lat="38.0490985" lon="-1.2547007"><ele>96.14285714285715</ele><time>2026-03-28T11:21:49.757Z</time></trkpt><trkpt lat="38.0490486" lon="-1.2546494"><ele>95.71428571428572</ele><time>2026-03-28T11:21:50.757Z</time></trkpt><trkpt lat="38.0489948" lon="-1.2545942"><ele>95.28571428571428</ele><time>2026-03-28T11:21:51.756Z</time></trkpt><trkpt lat="38.0489372" lon="-1.2545394"><ele>94.85714285714286</ele><time>2026-03-28T11:21:52.755Z</time></trkpt><trkpt lat="38.0488812" lon="-1.2544902"><ele>94.42857142857143</ele><time>2026-03-28T11:21:53.755Z</time></trkpt><trkpt lat="38.0488273" lon="-1.254436"><ele>94.0</ele><time>2026-03-28T11:21:54.755Z</time></trkpt><trkpt lat="38.0487743" lon="-1.2543803"><ele>94.0</ele><time>2026-03-28T11:21:55.755Z</time></trkpt><trkpt lat="38.0487203" lon="-1.2543243"><ele>94.0</ele><time>2026-03-28T11:21:56.756Z</time></trkpt><trkpt lat="38.0486651" lon="-1.2542738"><ele>94.0</ele><time>2026-03-28T11:21:57.756Z</time></trkpt><trkpt lat="38.0486113" lon="-1.2542239"><ele>94.0</ele><time>2026-03-28T11:21:58.755Z</time></trkpt><trkpt lat="38.0485561" lon="-1.2541753"><ele>94.0</ele><time>2026-03-28T11:21:59.756Z</time></trkpt><trkpt lat="38.0485042" lon="-1.254122"><ele>94.0</ele><time>2026-03-28T11:22:00.755Z</time></trkpt><trkpt lat="38.0484486" lon="-1.2540694"><ele>94.0</ele><time>2026-03-28T11:22:01.756Z</time></trkpt><trkpt lat="38.0483969" lon="-1.2540162"><ele>94.0</ele><time>2026-03-28T11:22:02.754Z</time></trkpt><trkpt lat="38.0483453" lon="-1.2539632"><ele>94.0</ele><time>2026-03-28T11:22:03.756Z</time></trkpt><trkpt lat="38.048294" lon="-1.2539117"><ele>94.0</ele><time>2026-03-28T11:22:04.757Z</time></trkpt><trkpt lat="38.0482414" lon="-1.2538635"><ele>94.0</ele><time>2026-03-28T11:22:05.756Z</time></trkpt><trkpt lat="38.0481905" lon="-1.2538136"><ele>94.0</ele><time>2026-03-28T11:22:06.756Z</time></trkpt><trkpt lat="38.0481359" lon="-1.2537606"><ele>94.0</ele><time>2026-03-28T11:22:07.756Z</time></trkpt><trkpt lat="38.0480815" lon="-1.2537055"><ele>94.0</ele><time>2026-03-28T11:22:08.757Z</time></trkpt><trkpt lat="38.0480298" lon="-1.2536508"><ele>93.42857142857143</ele><time>2026-03-28T11:22:09.757Z</time></trkpt><trkpt lat="38.0479771" lon="-1.2535985"><ele>92.85714285714286</ele><time>2026-03-28T11:22:10.757Z</time></trkpt><trkpt lat="38.047927" lon="-1.2535484"><ele>92.28571428571428</ele><time>2026-03-28T11:22:11.755Z</time></trkpt><trkpt lat="38.0478796" lon="-1.2534897"><ele>91.71428571428572</ele><time>2026-03-28T11:22:12.755Z</time></trkpt><trkpt lat="38.0478256" lon="-1.2534315"><ele>91.14285714285715</ele><time>2026-03-28T11:22:13.754Z</time></trkpt><trkpt lat="38.0477734" lon="-1.2533711"><ele>90.57142857142857</ele><time>2026-03-28T11:22:14.754Z</time></trkpt><trkpt lat="38.0477181" lon="-1.253309"><ele>90.0</ele><time>2026-03-28T11:22:15.756Z</time></trkpt><trkpt lat="38.0476671" lon="-1.2532523"><ele>90.0</ele><time>2026-03-28T11:22:16.757Z</time></trkpt><trkpt lat="38.0476171" lon="-1.2531922"><ele>90.0</ele><time>2026-03-28T11:22:17.754Z</time></trkpt><trkpt lat="38.0475716" lon="-1.2531265"><ele>90.0</ele><time>2026-03-28T11:22:18.755Z</time></trkpt><trkpt lat="38.0475314" lon="-1.2530606"><ele>90.0</ele><time>2026-03-28T11:22:19.755Z</time></trkpt><trkpt lat="38.0474594" lon="-1.2529268"><ele>90.0</ele><time>2026-03-28T11:22:21.755Z</time></trkpt><trkpt lat="38.0473846" lon="-1.2527981"><ele>89.16666666666667</ele><time>2026-03-28T11:22:23.755Z</time></trkpt><trkpt lat="38.0473097" lon="-1.2526707"><ele>88.33333333333333</ele><time>2026-03-28T11:22:25.756Z</time></trkpt><trkpt lat="38.0472406" lon="-1.2525394"><ele>87.5</ele><time>2026-03-28T11:22:27.755Z</time></trkpt><trkpt lat="38.0472063" lon="-1.2524701"><ele>86.66666666666666</ele><time>2026-03-28T11:22:28.756Z</time></trkpt><trkpt lat="38.047174" lon="-1.2524008"><ele>85.83333333333333</ele><time>2026-03-28T11:22:29.755Z</time></trkpt><trkpt lat="38.0471392" lon="-1.2523271"><ele>85.0</ele><time>2026-03-28T11:22:30.757Z</time></trkpt><trkpt lat="38.0471097" lon="-1.252251"><ele>85.0</ele><time>2026-03-28T11:22:31.755Z</time></trkpt><trkpt lat="38.0470552" lon="-1.2521057"><ele>85.0</ele><time>2026-03-28T11:22:33.756Z</time></trkpt><trkpt lat="38.0470276" lon="-1.2520286"><ele>85.0</ele><time>2026-03-28T11:22:34.755Z</time></trkpt><trkpt lat="38.0470035" lon="-1.2519408"><ele>85.0</ele><time>2026-03-28T11:22:35.756Z</time></trkpt><trkpt lat="38.0469818" lon="-1.2518583"><ele>85.0</ele><time>2026-03-28T11:22:36.755Z</time></trkpt><trkpt lat="38.0469597" lon="-1.2517738"><ele>85.0</ele><time>2026-03-28T11:22:37.756Z</time></trkpt><trkpt lat="38.046939" lon="-1.2516872"><ele>85.0</ele><time>2026-03-28T11:22:38.756Z</time></trkpt><trkpt lat="38.0469211" lon="-1.2515987"><ele>85.0</ele><time>2026-03-28T11:22:39.757Z</time></trkpt><trkpt lat="38.0469045" lon="-1.2515149"><ele>85.0</ele><time>2026-03-28T11:22:40.757Z</time></trkpt><trkpt lat="38.046888" lon="-1.2514244"><ele>85.0</ele><time>2026-03-28T11:22:41.756Z</time></trkpt><trkpt lat="38.0468741" lon="-1.2513352"><ele>85.0</ele><time>2026-03-28T11:22:42.755Z</time></trkpt><trkpt lat="38.0468652" lon="-1.2512437"><ele>85.0</ele><time>2026-03-28T11:22:43.756Z</time></trkpt><trkpt lat="38.0468564" lon="-1.2511517"><ele>85.0</ele><time>2026-03-28T11:22:44.756Z</time></trkpt><trkpt lat="38.0468501" lon="-1.2510591"><ele>85.14285714285715</ele><time>2026-03-28T11:22:45.754Z</time></trkpt><trkpt lat="38.0468418" lon="-1.250966"><ele>85.28571428571428</ele><time>2026-03-28T11:22:46.755Z</time></trkpt><trkpt lat="38.0468401" lon="-1.2508714"><ele>85.42857142857143</ele><time>2026-03-28T11:22:47.756Z</time></trkpt><trkpt lat="38.0468374" lon="-1.2507782"><ele>85.57142857142858</ele><time>2026-03-28T11:22:48.755Z</time></trkpt><trkpt lat="38.0468408" lon="-1.2506896"><ele>85.71428571428572</ele><time>2026-03-28T11:22:49.756Z</time></trkpt><trkpt lat="38.0468457" lon="-1.250599"><ele>85.85714285714286</ele><time>2026-03-28T11:22:50.755Z</time></trkpt><trkpt lat="38.0468524" lon="-1.2505065"><ele>86.0</ele><time>2026-03-28T11:22:51.755Z</time></trkpt><trkpt lat="38.0468605" lon="-1.250413"><ele>85.66666666666667</ele><time>2026-03-28T11:22:52.755Z</time></trkpt><trkpt lat="38.0468683" lon="-1.2503207"><ele>85.33333333333334</ele><time>2026-03-28T11:22:53.754Z</time></trkpt><trkpt lat="38.0468781" lon="-1.2502271"><ele>85.0</ele><time>2026-03-28T11:22:54.757Z</time></trkpt><trkpt lat="38.0468895" lon="-1.2501313"><ele>84.66666666666667</ele><time>2026-03-28T11:22:55.755Z</time></trkpt><trkpt lat="38.0469038" lon="-1.2500304"><ele>84.33333333333333</ele><time>2026-03-28T11:22:56.755Z</time></trkpt><trkpt lat="38.0469196" lon="-1.2499351"><ele>84.0</ele><time>2026-03-28T11:22:57.755Z</time></trkpt><trkpt lat="38.046937" lon="-1.2498385"><ele>84.16666666666667</ele><time>2026-03-28T11:22:58.756Z</time></trkpt><trkpt lat="38.0469524" lon="-1.2497376"><ele>84.33333333333333</ele><time>2026-03-28T11:22:59.756Z</time></trkpt><trkpt lat="38.0469792" lon="-1.2496433"><ele>84.5</ele><time>2026-03-28T11:23:00.756Z</time></trkpt><trkpt lat="38.0470066" lon="-1.2495489"><ele>84.66666666666666</ele><time>2026-03-28T11:23:01.756Z</time></trkpt><trkpt lat="38.0470345" lon="-1.2494546"><ele>84.83333333333333</ele><time>2026-03-28T11:23:02.756Z</time></trkpt><trkpt lat="38.0470653" lon="-1.249363"><ele>85.0</ele><time>2026-03-28T11:23:03.755Z</time></trkpt><trkpt lat="38.0470979" lon="-1.2492727"><ele>85.0</ele><time>2026-03-28T11:23:04.756Z</time></trkpt><trkpt lat="38.0471338" lon="-1.2491854"><ele>85.0</ele><time>2026-03-28T11:23:05.755Z</time></trkpt><trkpt lat="38.0471719" lon="-1.2490973"><ele>85.0</ele><time>2026-03-28T11:23:06.756Z</time></trkpt><trkpt lat="38.047205" lon="-1.2490123"><ele>85.0</ele><time>2026-03-28T11:23:07.755Z</time></trkpt><trkpt lat="38.0472407" lon="-1.2489288"><ele>85.0</ele><time>2026-03-28T11:23:08.756Z</time></trkpt><trkpt lat="38.0472774" lon="-1.2488442"><ele>85.0</ele><time>2026-03-28T11:23:09.756Z</time></trkpt><trkpt lat="38.0473127" lon="-1.2487622"><ele>84.57142857142857</ele><time>2026-03-28T11:23:10.756Z</time></trkpt><trkpt lat="38.0473473" lon="-1.2486837"><ele>84.14285714285714</ele><time>2026-03-28T11:23:11.756Z</time></trkpt><trkpt lat="38.0473851" lon="-1.2486031"><ele>83.71428571428571</ele><time>2026-03-28T11:23:12.755Z</time></trkpt><trkpt lat="38.0474198" lon="-1.2485229"><ele>83.28571428571428</ele><time>2026-03-28T11:23:13.756Z</time></trkpt><trkpt lat="38.0474554" lon="-1.2484442"><ele>82.85714285714286</ele><time>2026-03-28T11:23:14.756Z</time></trkpt><trkpt lat="38.0474876" lon="-1.2483648"><ele>82.42857142857142</ele><time>2026-03-28T11:23:15.756Z</time></trkpt><trkpt lat="38.047521" lon="-1.2482838"><ele>82.0</ele><time>2026-03-28T11:23:16.756Z</time></trkpt><trkpt lat="38.0475525" lon="-1.2482065"><ele>81.99999999999999</ele><time>2026-03-28T11:23:17.755Z</time></trkpt><trkpt lat="38.0475841" lon="-1.2481304"><ele>82.0</ele><time>2026-03-28T11:23:18.756Z</time></trkpt><trkpt lat="38.047614" lon="-1.2480559"><ele>82.0</ele><time>2026-03-28T11:23:19.755Z</time></trkpt><trkpt lat="38.0476435" lon="-1.2479804"><ele>82.0</ele><time>2026-03-28T11:23:20.755Z</time></trkpt><trkpt lat="38.0476742" lon="-1.2479055"><ele>82.0</ele><time>2026-03-28T11:23:21.754Z</time></trkpt><trkpt lat="38.0477021" lon="-1.2478333"><ele>81.99999999999999</ele><time>2026-03-28T11:23:22.756Z</time></trkpt><trkpt lat="38.0477324" lon="-1.2477591"><ele>82.0</ele><time>2026-03-28T11:23:23.755Z</time></trkpt><trkpt lat="38.0477638" lon="-1.2476894"><ele>81.66666666666666</ele><time>2026-03-28T11:23:24.756Z</time></trkpt><trkpt lat="38.047793" lon="-1.2476172"><ele>81.33333333333333</ele><time>2026-03-28T11:23:25.756Z</time></trkpt><trkpt lat="38.0478494" lon="-1.2474742"><ele>81.0</ele><time>2026-03-28T11:23:27.756Z</time></trkpt><trkpt lat="38.0478814" lon="-1.2474052"><ele>80.66666666666667</ele><time>2026-03-28T11:23:28.755Z</time></trkpt><trkpt lat="38.0479125" lon="-1.2473343"><ele>80.33333333333334</ele><time>2026-03-28T11:23:29.756Z</time></trkpt><trkpt lat="38.0479457" lon="-1.2472636"><ele>80.0</ele><time>2026-03-28T11:23:30.756Z</time></trkpt><trkpt lat="38.0479998" lon="-1.2471232"><ele>79.8</ele><time>2026-03-28T11:23:32.755Z</time></trkpt><trkpt lat="38.0480554" lon="-1.2469916"><ele>79.6</ele><time>2026-03-28T11:23:34.755Z</time></trkpt><trkpt lat="38.0481143" lon="-1.2468689"><ele>79.4</ele><time>2026-03-28T11:23:36.755Z</time></trkpt><trkpt lat="38.0481852" lon="-1.2467563"><ele>79.2</ele><time>2026-03-28T11:23:38.756Z</time></trkpt><trkpt lat="38.048219" lon="-1.2466885"><ele>79.0</ele><time>2026-03-28T11:23:39.755Z</time></trkpt><trkpt lat="38.048277" lon="-1.2465581"><ele>79.5</ele><time>2026-03-28T11:23:41.755Z</time></trkpt><trkpt lat="38.0483541" lon="-1.2464359"><ele>80.0</ele><time>2026-03-28T11:23:43.756Z</time></trkpt><trkpt lat="38.0484373" lon="-1.246323"><ele>80.5</ele><time>2026-03-28T11:23:45.756Z</time></trkpt><trkpt lat="38.0485229" lon="-1.2462296"><ele>81.0</ele><time>2026-03-28T11:23:47.756Z</time></trkpt><trkpt lat="38.0486045" lon="-1.2461515"><ele>81.0</ele><time>2026-03-28T11:23:49.755Z</time></trkpt><trkpt lat="38.0486867" lon="-1.2460822"><ele>81.0</ele><time>2026-03-28T11:23:51.755Z</time></trkpt><trkpt lat="38.0487609" lon="-1.246013"><ele>81.0</ele><time>2026-03-28T11:23:53.754Z</time></trkpt><trkpt lat="38.0488302" lon="-1.2459439"><ele>81.0</ele><time>2026-03-28T11:23:55.755Z</time></trkpt><trkpt lat="38.0489175" lon="-1.2458813"><ele>81.0</ele><time>2026-03-28T11:23:57.757Z</time></trkpt><trkpt lat="38.0490067" lon="-1.245822"><ele>81.0</ele><time>2026-03-28T11:23:59.755Z</time></trkpt><trkpt lat="38.0490868" lon="-1.2457355"><ele>81.0</ele><time>2026-03-28T11:24:01.756Z</time></trkpt><trkpt lat="38.0491885" lon="-1.2456762"><ele>81.0</ele><time>2026-03-28T11:24:03.754Z</time></trkpt><trkpt lat="38.0492955" lon="-1.2456349"><ele>81.0</ele><time>2026-03-28T11:24:05.754Z</time></trkpt><trkpt lat="38.0493883" lon="-1.2455628"><ele>81.0</ele><time>2026-03-28T11:24:07.754Z</time></trkpt><trkpt lat="38.0494555" lon="-1.245489"><ele>81.5</ele><time>2026-03-28T11:24:09.756Z</time></trkpt><trkpt lat="38.0495089" lon="-1.2454018"><ele>82.0</ele><time>2026-03-28T11:24:11.756Z</time></trkpt><trkpt lat="38.0495573" lon="-1.2453157"><ele>82.5</ele><time>2026-03-28T11:24:13.756Z</time></trkpt><trkpt lat="38.0496043" lon="-1.245248"><ele>83.0</ele><time>2026-03-28T11:24:15.757Z</time></trkpt><trkpt lat="38.0496786" lon="-1.2452241"><ele>83.5</ele><time>2026-03-28T11:24:17.756Z</time></trkpt><trkpt lat="38.0497555" lon="-1.2452465"><ele>84.0</ele><time>2026-03-28T11:24:19.756Z</time></trkpt><trkpt lat="38.049813" lon="-1.2452892"><ele>84.0</ele><time>2026-03-28T11:24:21.755Z</time></trkpt><trkpt lat="38.0498994" lon="-1.245262"><ele>84.0</ele><time>2026-03-28T11:24:29.757Z</time></trkpt><trkpt lat="38.0499635" lon="-1.2453078"><ele>84.0</ele><time>2026-03-28T11:24:35.755Z</time></trkpt><trkpt lat="38.0499618" lon="-1.2453914"><ele>84.0</ele><time>2026-03-28T11:24:45.755Z</time></trkpt><trkpt lat="38.0499095" lon="-1.2454426"><ele>84.0</ele><time>2026-03-28T11:24:52.756Z</time></trkpt><trkpt lat="38.0498399" lon="-1.2454697"><ele>84.0</ele><time>2026-03-28T11:24:57.756Z</time></trkpt><trkpt lat="38.0497643" lon="-1.2454563"><ele>84.0</ele><time>2026-03-28T11:25:00.756Z</time></trkpt><trkpt lat="38.0496959" lon="-1.2454342"><ele>84.0</ele><time>2026-03-28T11:25:02.756Z</time></trkpt><trkpt lat="38.0496109" lon="-1.2454651"><ele>84.0</ele><time>2026-03-28T11:25:04.755Z</time></trkpt><trkpt lat="38.0495286" lon="-1.2454996"><ele>84.0</ele><time>2026-03-28T11:25:06.756Z</time></trkpt><trkpt lat="38.0494507" lon="-1.2455433"><ele>84.0</ele><time>2026-03-28T11:25:08.755Z</time></trkpt><trkpt lat="38.0493688" lon="-1.2455969"><ele>84.0</ele><time>2026-03-28T11:25:10.756Z</time></trkpt><trkpt lat="38.0492936" lon="-1.2456436"><ele>84.0</ele><time>2026-03-28T11:25:12.756Z</time></trkpt><trkpt lat="38.049212" lon="-1.2456856"><ele>84.16666666666667</ele><time>2026-03-28T11:25:14.756Z</time></trkpt><trkpt lat="38.0491324" lon="-1.2457252"><ele>84.33333333333333</ele><time>2026-03-28T11:25:16.755Z</time></trkpt><trkpt lat="38.0490713" lon="-1.245793"><ele>84.5</ele><time>2026-03-28T11:25:18.755Z</time></trkpt><trkpt lat="38.0490468" lon="-1.2458776"><ele>84.66666666666666</ele><time>2026-03-28T11:25:20.757Z</time></trkpt><trkpt lat="38.0490845" lon="-1.2459417"><ele>84.83333333333333</ele><time>2026-03-28T11:25:22.757Z</time></trkpt><trkpt lat="38.0491709" lon="-1.2459823"><ele>85.0</ele><time>2026-03-28T11:25:25.755Z</time></trkpt><trkpt lat="38.0492522" lon="-1.2460203"><ele>85.0</ele><time>2026-03-28T11:25:28.755Z</time></trkpt><trkpt lat="38.0493391" lon="-1.2460477"><ele>85.0</ele><time>2026-03-28T11:25:31.756Z</time></trkpt><trkpt lat="38.0494125" lon="-1.2460656"><ele>85.0</ele><time>2026-03-28T11:25:33.755Z</time></trkpt><trkpt lat="38.0495143" lon="-1.246069"><ele>85.0</ele><time>2026-03-28T11:25:35.756Z</time></trkpt><trkpt lat="38.049606" lon="-1.2460771"><ele>85.0</ele><time>2026-03-28T11:25:37.756Z</time></trkpt><trkpt lat="38.0496902" lon="-1.2460869"><ele>85.0</ele><time>2026-03-28T11:25:39.755Z</time></trkpt><trkpt lat="38.04977" lon="-1.2460954"><ele>85.0</ele><time>2026-03-28T11:25:41.755Z</time></trkpt><trkpt lat="38.0498486" lon="-1.2460924"><ele>85.0</ele><time>2026-03-28T11:25:43.757Z</time></trkpt><trkpt lat="38.049927" lon="-1.2460858"><ele>85.0</ele><time>2026-03-28T11:25:45.756Z</time></trkpt><trkpt lat="38.0500082" lon="-1.246086"><ele>85.0</ele><time>2026-03-28T11:25:47.756Z</time></trkpt><trkpt lat="38.0500861" lon="-1.246088"><ele>85.0</ele><time>2026-03-28T11:25:49.756Z</time></trkpt><trkpt lat="38.0501525" lon="-1.246038"><ele>85.0</ele><time>2026-03-28T11:25:53.756Z</time></trkpt><trkpt lat="38.0501598" lon="-1.2459526"><ele>85.0</ele><time>2026-03-28T11:25:55.756Z</time></trkpt><trkpt lat="38.0501314" lon="-1.2458237"><ele>85.0</ele><time>2026-03-28T11:25:57.755Z</time></trkpt><trkpt lat="38.050109" lon="-1.2456796"><ele>85.0</ele><time>2026-03-28T11:25:59.756Z</time></trkpt><trkpt lat="38.0500927" lon="-1.2455885"><ele>85.0</ele><time>2026-03-28T11:26:00.755Z</time></trkpt><trkpt lat="38.0500769" lon="-1.2454932"><ele>85.0</ele><time>2026-03-28T11:26:01.754Z</time></trkpt><trkpt lat="38.050061" lon="-1.2453919"><ele>85.0</ele><time>2026-03-28T11:26:02.757Z</time></trkpt><trkpt lat="38.0500435" lon="-1.2452901"><ele>85.0</ele><time>2026-03-28T11:26:03.756Z</time></trkpt><trkpt lat="38.0500273" lon="-1.2451893"><ele>85.0</ele><time>2026-03-28T11:26:04.754Z</time></trkpt><trkpt lat="38.0500149" lon="-1.2450855"><ele>85.0</ele><time>2026-03-28T11:26:05.755Z</time></trkpt><trkpt lat="38.0500127" lon="-1.2449838"><ele>85.0</ele><time>2026-03-28T11:26:06.756Z</time></trkpt><trkpt lat="38.0499957" lon="-1.2448999"><ele>85.0</ele><time>2026-03-28T11:26:07.754Z</time></trkpt><trkpt lat="38.0499866" lon="-1.2447949"><ele>85.0</ele><time>2026-03-28T11:26:08.756Z</time></trkpt><trkpt lat="38.0499567" lon="-1.2446923"><ele>85.0</ele><time>2026-03-28T11:26:09.755Z</time></trkpt><trkpt lat="38.0499456" lon="-1.2446024"><ele>85.0</ele><time>2026-03-28T11:26:10.754Z</time></trkpt><trkpt lat="38.0499311" lon="-1.2445238"><ele>85.0</ele><time>2026-03-28T11:26:11.756Z</time></trkpt><trkpt lat="38.0498996" lon="-1.2443825"><ele>85.0</ele><time>2026-03-28T11:26:13.755Z</time></trkpt><trkpt lat="38.0498782" lon="-1.2442379"><ele>85.0</ele><time>2026-03-28T11:26:15.754Z</time></trkpt><trkpt lat="38.0498541" lon="-1.2441054"><ele>85.0</ele><time>2026-03-28T11:26:17.754Z</time></trkpt><trkpt lat="38.0498349" lon="-1.2439728"><ele>85.0</ele><time>2026-03-28T11:26:19.755Z</time></trkpt><trkpt lat="38.0498136" lon="-1.2438364"><ele>85.0</ele><time>2026-03-28T11:26:21.754Z</time></trkpt><trkpt lat="38.0497829" lon="-1.2436956"><ele>85.0</ele><time>2026-03-28T11:26:23.755Z</time></trkpt><trkpt lat="38.0497511" lon="-1.2435674"><ele>84.8</ele><time>2026-03-28T11:26:25.756Z</time></trkpt><trkpt lat="38.0497332" lon="-1.2434323"><ele>84.6</ele><time>2026-03-28T11:26:27.756Z</time></trkpt><trkpt lat="38.0497119" lon="-1.2432923"><ele>84.4</ele><time>2026-03-28T11:26:29.756Z</time></trkpt><trkpt lat="38.0497026" lon="-1.2431738"><ele>84.2</ele><time>2026-03-28T11:26:31.754Z</time></trkpt><trkpt lat="38.049683" lon="-1.2430427"><ele>84.0</ele><time>2026-03-28T11:26:33.755Z</time></trkpt><trkpt lat="38.0496756" lon="-1.2429383"><ele>84.0</ele><time>2026-03-28T11:26:35.755Z</time></trkpt><trkpt lat="38.0496681" lon="-1.2428429"><ele>84.0</ele><time>2026-03-28T11:26:38.755Z</time></trkpt><trkpt lat="38.0496592" lon="-1.2427295"><ele>84.0</ele><time>2026-03-28T11:27:20.757Z</time></trkpt><trkpt lat="38.0496814" lon="-1.2426438"><ele>84.0</ele><time>2026-03-28T11:27:22.754Z</time></trkpt><trkpt lat="38.0497037" lon="-1.2425415"><ele>84.0</ele><time>2026-03-28T11:27:24.756Z</time></trkpt><trkpt lat="38.0497451" lon="-1.2424358"><ele>84.0</ele><time>2026-03-28T11:27:26.756Z</time></trkpt><trkpt lat="38.0497936" lon="-1.2423128"><ele>83.83333333333333</ele><time>2026-03-28T11:27:28.757Z</time></trkpt><trkpt lat="38.0498399" lon="-1.2421833"><ele>83.66666666666667</ele><time>2026-03-28T11:27:30.757Z</time></trkpt><trkpt lat="38.0498902" lon="-1.2420421"><ele>83.5</ele><time>2026-03-28T11:27:32.754Z</time></trkpt><trkpt lat="38.0499169" lon="-1.2419658"><ele>83.33333333333334</ele><time>2026-03-28T11:27:33.755Z</time></trkpt><trkpt lat="38.049947" lon="-1.2418929"><ele>83.16666666666667</ele><time>2026-03-28T11:27:34.755Z</time></trkpt><trkpt lat="38.0499725" lon="-1.2418127"><ele>83.0</ele><time>2026-03-28T11:27:35.756Z</time></trkpt><trkpt lat="38.0499965" lon="-1.2417368"><ele>83.25</ele><time>2026-03-28T11:27:36.755Z</time></trkpt><trkpt lat="38.0500476" lon="-1.2415955"><ele>83.5</ele><time>2026-03-28T11:27:38.756Z</time></trkpt><trkpt lat="38.0500976" lon="-1.2414622"><ele>83.75</ele><time>2026-03-28T11:27:40.754Z</time></trkpt><trkpt lat="38.0501336" lon="-1.2413175"><ele>84.0</ele><time>2026-03-28T11:27:42.755Z</time></trkpt><trkpt lat="38.0501874" lon="-1.2411767"><ele>84.0</ele><time>2026-03-28T11:27:44.754Z</time></trkpt><trkpt lat="38.050242" lon="-1.2410377"><ele>84.0</ele><time>2026-03-28T11:27:46.756Z</time></trkpt><trkpt lat="38.0502986" lon="-1.2408938"><ele>84.0</ele><time>2026-03-28T11:27:48.755Z</time></trkpt><trkpt lat="38.0503301" lon="-1.2408087"><ele>84.0</ele><time>2026-03-28T11:27:49.756Z</time></trkpt><trkpt lat="38.0503545" lon="-1.2407265"><ele>84.0</ele><time>2026-03-28T11:27:50.756Z</time></trkpt><trkpt lat="38.0503835" lon="-1.2406431"><ele>83.83333333333333</ele><time>2026-03-28T11:27:51.755Z</time></trkpt><trkpt lat="38.0504128" lon="-1.2405591"><ele>83.66666666666667</ele><time>2026-03-28T11:27:52.755Z</time></trkpt><trkpt lat="38.0504368" lon="-1.2404764"><ele>83.5</ele><time>2026-03-28T11:27:53.755Z</time></trkpt><trkpt lat="38.050462" lon="-1.2403953"><ele>83.33333333333334</ele><time>2026-03-28T11:27:54.755Z</time></trkpt><trkpt lat="38.0504877" lon="-1.2403199"><ele>83.16666666666667</ele><time>2026-03-28T11:27:55.755Z</time></trkpt><trkpt lat="38.0505283" lon="-1.2401784"><ele>83.0</ele><time>2026-03-28T11:27:57.754Z</time></trkpt><trkpt lat="38.0505687" lon="-1.2400419"><ele>83.0</ele><time>2026-03-28T11:27:59.755Z</time></trkpt><trkpt lat="38.0506231" lon="-1.2398985"><ele>83.0</ele><time>2026-03-28T11:28:01.756Z</time></trkpt><trkpt lat="38.0506549" lon="-1.2398269"><ele>83.0</ele><time>2026-03-28T11:28:02.755Z</time></trkpt><trkpt lat="38.0506871" lon="-1.2397481"><ele>83.0</ele><time>2026-03-28T11:28:03.754Z</time></trkpt><trkpt lat="38.0507263" lon="-1.2396681"><ele>83.0</ele><time>2026-03-28T11:28:04.755Z</time></trkpt><trkpt lat="38.0507573" lon="-1.239583"><ele>83.0</ele><time>2026-03-28T11:28:05.755Z</time></trkpt><trkpt lat="38.0507896" lon="-1.2394902"><ele>82.28571428571428</ele><time>2026-03-28T11:28:06.754Z</time></trkpt><trkpt lat="38.0508237" lon="-1.2394075"><ele>81.57142857142858</ele><time>2026-03-28T11:28:07.756Z</time></trkpt><trkpt lat="38.0508498" lon="-1.2393252"><ele>80.85714285714286</ele><time>2026-03-28T11:28:08.754Z</time></trkpt><trkpt lat="38.0508734" lon="-1.2392419"><ele>80.14285714285714</ele><time>2026-03-28T11:28:09.755Z</time></trkpt><trkpt lat="38.0509057" lon="-1.2391609"><ele>79.42857142857142</ele><time>2026-03-28T11:28:10.756Z</time></trkpt><trkpt lat="38.0509322" lon="-1.2390793"><ele>78.71428571428572</ele><time>2026-03-28T11:28:11.757Z</time></trkpt><trkpt lat="38.0509604" lon="-1.2389986"><ele>78.0</ele><time>2026-03-28T11:28:12.755Z</time></trkpt><trkpt lat="38.0509859" lon="-1.2389116"><ele>77.83333333333333</ele><time>2026-03-28T11:28:13.754Z</time></trkpt><trkpt lat="38.0510115" lon="-1.2388227"><ele>77.66666666666667</ele><time>2026-03-28T11:28:14.755Z</time></trkpt><trkpt lat="38.0510395" lon="-1.2387349"><ele>77.5</ele><time>2026-03-28T11:28:15.757Z</time></trkpt><trkpt lat="38.0510702" lon="-1.2386399"><ele>77.33333333333334</ele><time>2026-03-28T11:28:16.756Z</time></trkpt><trkpt lat="38.051102" lon="-1.2385498"><ele>77.16666666666667</ele><time>2026-03-28T11:28:17.755Z</time></trkpt><trkpt lat="38.0511315" lon="-1.2384597"><ele>77.0</ele><time>2026-03-28T11:28:18.755Z</time></trkpt><trkpt lat="38.0511601" lon="-1.2383741"><ele>77.0</ele><time>2026-03-28T11:28:19.756Z</time></trkpt><trkpt lat="38.0511897" lon="-1.2382854"><ele>77.0</ele><time>2026-03-28T11:28:20.756Z</time></trkpt><trkpt lat="38.0512175" lon="-1.2381982"><ele>77.0</ele><time>2026-03-28T11:28:21.755Z</time></trkpt><trkpt lat="38.0512423" lon="-1.2381115"><ele>77.0</ele><time>2026-03-28T11:28:22.756Z</time></trkpt><trkpt lat="38.0512701" lon="-1.2380244"><ele>77.0</ele><time>2026-03-28T11:28:23.754Z</time></trkpt><trkpt lat="38.0512983" lon="-1.2379362"><ele>77.0</ele><time>2026-03-28T11:28:24.755Z</time></trkpt><trkpt lat="38.0513264" lon="-1.2378542"><ele>77.0</ele><time>2026-03-28T11:28:25.756Z</time></trkpt><trkpt lat="38.0513542" lon="-1.2377665"><ele>76.85714285714286</ele><time>2026-03-28T11:28:26.754Z</time></trkpt><trkpt lat="38.0513839" lon="-1.2376835"><ele>76.71428571428572</ele><time>2026-03-28T11:28:27.755Z</time></trkpt><trkpt lat="38.0514049" lon="-1.237604"><ele>76.57142857142857</ele><time>2026-03-28T11:28:28.756Z</time></trkpt><trkpt lat="38.0514285" lon="-1.2375238"><ele>76.42857142857143</ele><time>2026-03-28T11:28:29.756Z</time></trkpt><trkpt lat="38.0514516" lon="-1.2374397"><ele>76.28571428571429</ele><time>2026-03-28T11:28:30.756Z</time></trkpt><trkpt lat="38.0514793" lon="-1.2373565"><ele>76.14285714285714</ele><time>2026-03-28T11:28:31.754Z</time></trkpt><trkpt lat="38.0515046" lon="-1.2372778"><ele>76.0</ele><time>2026-03-28T11:28:32.754Z</time></trkpt><trkpt lat="38.0515304" lon="-1.2371952"><ele>76.0</ele><time>2026-03-28T11:28:33.756Z</time></trkpt><trkpt lat="38.0515522" lon="-1.2371136"><ele>76.0</ele><time>2026-03-28T11:28:34.754Z</time></trkpt><trkpt lat="38.0515757" lon="-1.2370313"><ele>76.0</ele><time>2026-03-28T11:28:35.755Z</time></trkpt><trkpt lat="38.0516017" lon="-1.2369466"><ele>76.0</ele><time>2026-03-28T11:28:36.754Z</time></trkpt><trkpt lat="38.0516255" lon="-1.2368691"><ele>76.0</ele><time>2026-03-28T11:28:37.756Z</time></trkpt><trkpt lat="38.0516509" lon="-1.2367893"><ele>76.0</ele><time>2026-03-28T11:28:38.755Z</time></trkpt><trkpt lat="38.0516774" lon="-1.2367132"><ele>76.0</ele><time>2026-03-28T11:28:39.757Z</time></trkpt><trkpt lat="38.0516993" lon="-1.2366361"><ele>76.0</ele><time>2026-03-28T11:28:40.755Z</time></trkpt><trkpt lat="38.0517223" lon="-1.236553"><ele>76.0</ele><time>2026-03-28T11:28:41.755Z</time></trkpt><trkpt lat="38.0517479" lon="-1.2364773"><ele>76.0</ele><time>2026-03-28T11:28:42.755Z</time></trkpt><trkpt lat="38.0517737" lon="-1.2363998"><ele>76.0</ele><time>2026-03-28T11:28:43.755Z</time></trkpt><trkpt lat="38.0517981" lon="-1.2363191"><ele>76.0</ele><time>2026-03-28T11:28:44.756Z</time></trkpt><trkpt lat="38.0518228" lon="-1.2362408"><ele>76.0</ele><time>2026-03-28T11:28:45.754Z</time></trkpt><trkpt lat="38.051846" lon="-1.2361661"><ele>76.0</ele><time>2026-03-28T11:28:46.756Z</time></trkpt><trkpt lat="38.0518834" lon="-1.2360177"><ele>75.5</ele><time>2026-03-28T11:28:48.755Z</time></trkpt><trkpt lat="38.0519087" lon="-1.2358798"><ele>75.0</ele><time>2026-03-28T11:28:50.756Z</time></trkpt><trkpt lat="38.0519229" lon="-1.2357331"><ele>74.5</ele><time>2026-03-28T11:28:52.755Z</time></trkpt><trkpt lat="38.0519457" lon="-1.2355837"><ele>74.0</ele><time>2026-03-28T11:28:54.756Z</time></trkpt><trkpt lat="38.052014" lon="-1.2354583"><ele>73.85714285714286</ele><time>2026-03-28T11:28:56.757Z</time></trkpt><trkpt lat="38.0520884" lon="-1.2353391"><ele>73.71428571428571</ele><time>2026-03-28T11:28:58.755Z</time></trkpt><trkpt lat="38.0521098" lon="-1.2352608"><ele>73.57142857142857</ele><time>2026-03-28T11:28:59.755Z</time></trkpt><trkpt lat="38.0521334" lon="-1.2351841"><ele>73.42857142857143</ele><time>2026-03-28T11:29:00.756Z</time></trkpt><trkpt lat="38.0521591" lon="-1.2351105"><ele>73.28571428571429</ele><time>2026-03-28T11:29:01.756Z</time></trkpt><trkpt lat="38.0521846" lon="-1.2350294"><ele>73.14285714285714</ele><time>2026-03-28T11:29:02.754Z</time></trkpt><trkpt lat="38.0522073" lon="-1.2349517"><ele>73.0</ele><time>2026-03-28T11:29:03.756Z</time></trkpt><trkpt lat="38.0522301" lon="-1.234873"><ele>72.83333333333333</ele><time>2026-03-28T11:29:04.756Z</time></trkpt><trkpt lat="38.0522578" lon="-1.2347981"><ele>72.66666666666666</ele><time>2026-03-28T11:29:05.756Z</time></trkpt><trkpt lat="38.0522845" lon="-1.2347204"><ele>72.5</ele><time>2026-03-28T11:29:06.756Z</time></trkpt><trkpt lat="38.0523312" lon="-1.2345758"><ele>72.33333333333333</ele><time>2026-03-28T11:29:08.754Z</time></trkpt><trkpt lat="38.0523709" lon="-1.234425"><ele>72.16666666666667</ele><time>2026-03-28T11:29:10.754Z</time></trkpt><trkpt lat="38.0523942" lon="-1.2343495"><ele>72.0</ele><time>2026-03-28T11:29:11.756Z</time></trkpt><trkpt lat="38.0524416" lon="-1.2342079"><ele>71.8</ele><time>2026-03-28T11:29:13.755Z</time></trkpt><trkpt lat="38.0524866" lon="-1.2340705"><ele>71.6</ele><time>2026-03-28T11:29:15.756Z</time></trkpt><trkpt lat="38.0525311" lon="-1.2339421"><ele>71.39999999999999</ele><time>2026-03-28T11:29:17.755Z</time></trkpt><trkpt lat="38.0525745" lon="-1.2338164"><ele>71.2</ele><time>2026-03-28T11:29:19.756Z</time></trkpt><trkpt lat="38.0526211" lon="-1.2337019"><ele>71.0</ele><time>2026-03-28T11:29:21.756Z</time></trkpt><trkpt lat="38.0526736" lon="-1.2335786"><ele>71.0</ele><time>2026-03-28T11:29:23.754Z</time></trkpt><trkpt lat="38.0527234" lon="-1.2334573"><ele>71.0</ele><time>2026-03-28T11:29:25.757Z</time></trkpt><trkpt lat="38.0527698" lon="-1.2333487"><ele>71.0</ele><time>2026-03-28T11:29:27.754Z</time></trkpt><trkpt lat="38.052819" lon="-1.2332385"><ele>71.0</ele><time>2026-03-28T11:29:29.755Z</time></trkpt><trkpt lat="38.0528617" lon="-1.2331294"><ele>71.0</ele><time>2026-03-28T11:29:31.756Z</time></trkpt><trkpt lat="38.05291" lon="-1.2330189"><ele>71.16666666666667</ele><time>2026-03-28T11:29:33.756Z</time></trkpt><trkpt lat="38.0529608" lon="-1.2329156"><ele>71.33333333333334</ele><time>2026-03-28T11:29:35.755Z</time></trkpt><trkpt lat="38.0530095" lon="-1.2328172"><ele>71.5</ele><time>2026-03-28T11:29:37.755Z</time></trkpt><trkpt lat="38.0530568" lon="-1.2327197"><ele>71.66666666666667</ele><time>2026-03-28T11:29:39.755Z</time></trkpt><trkpt lat="38.0531021" lon="-1.2326288"><ele>71.83333333333333</ele><time>2026-03-28T11:29:41.755Z</time></trkpt><trkpt lat="38.0531384" lon="-1.2325483"><ele>72.0</ele><time>2026-03-28T11:29:43.755Z</time></trkpt><trkpt lat="38.0531769" lon="-1.2324701"><ele>72.0</ele><time>2026-03-28T11:29:45.756Z</time></trkpt><trkpt lat="38.0532117" lon="-1.2323936"><ele>72.0</ele><time>2026-03-28T11:29:47.755Z</time></trkpt><trkpt lat="38.0532571" lon="-1.2323185"><ele>72.0</ele><time>2026-03-28T11:29:49.755Z</time></trkpt><trkpt lat="38.0533002" lon="-1.2322399"><ele>72.0</ele><time>2026-03-28T11:29:51.755Z</time></trkpt><trkpt lat="38.0533353" lon="-1.2321565"><ele>72.0</ele><time>2026-03-28T11:29:53.756Z</time></trkpt><trkpt lat="38.0533767" lon="-1.2320719"><ele>72.0</ele><time>2026-03-28T11:29:55.755Z</time></trkpt><trkpt lat="38.0534157" lon="-1.2319822"><ele>71.66666666666667</ele><time>2026-03-28T11:29:57.757Z</time></trkpt><trkpt lat="38.0534553" lon="-1.2319007"><ele>71.33333333333333</ele><time>2026-03-28T11:29:59.755Z</time></trkpt><trkpt lat="38.0535016" lon="-1.2318226"><ele>71.0</ele><time>2026-03-28T11:30:01.756Z</time></trkpt><trkpt lat="38.0535432" lon="-1.2317359"><ele>70.66666666666666</ele><time>2026-03-28T11:30:03.756Z</time></trkpt><trkpt lat="38.0535805" lon="-1.2316529"><ele>70.33333333333333</ele><time>2026-03-28T11:30:05.756Z</time></trkpt><trkpt lat="38.0536251" lon="-1.2315654"><ele>70.0</ele><time>2026-03-28T11:30:07.756Z</time></trkpt><trkpt lat="38.0536619" lon="-1.231487"><ele>70.0</ele><time>2026-03-28T11:30:09.754Z</time></trkpt><trkpt lat="38.0537004" lon="-1.2314163"><ele>70.0</ele><time>2026-03-28T11:30:14.757Z</time></trkpt><trkpt lat="38.0537479" lon="-1.2313221"><ele>70.0</ele><time>2026-03-28T11:30:18.755Z</time></trkpt><trkpt lat="38.053804" lon="-1.2312226"><ele>70.0</ele><time>2026-03-28T11:30:21.755Z</time></trkpt><trkpt lat="38.0538522" lon="-1.2311409"><ele>70.0</ele><time>2026-03-28T11:30:23.754Z</time></trkpt><trkpt lat="38.0539032" lon="-1.231051"><ele>70.0</ele><time>2026-03-28T11:30:25.757Z</time></trkpt><trkpt lat="38.053943" lon="-1.2309478"><ele>70.0</ele><time>2026-03-28T11:30:27.756Z</time></trkpt><trkpt lat="38.0539889" lon="-1.2308538"><ele>70.0</ele><time>2026-03-28T11:30:29.755Z</time></trkpt><trkpt lat="38.0540325" lon="-1.2307558"><ele>70.0</ele><time>2026-03-28T11:30:31.754Z</time></trkpt><trkpt lat="38.0540811" lon="-1.2306745"><ele>70.0</ele><time>2026-03-28T11:30:33.755Z</time></trkpt><trkpt lat="38.0541125" lon="-1.2305687"><ele>70.0</ele><time>2026-03-28T11:30:35.755Z</time></trkpt><trkpt lat="38.0541542" lon="-1.2304516"><ele>70.0</ele><time>2026-03-28T11:30:37.754Z</time></trkpt><trkpt lat="38.0541921" lon="-1.2303279"><ele>70.16666666666666</ele><time>2026-03-28T11:30:39.755Z</time></trkpt><trkpt lat="38.0542212" lon="-1.2302023"><ele>70.33333333333333</ele><time>2026-03-28T11:30:41.754Z</time></trkpt><trkpt lat="38.0542403" lon="-1.2300749"><ele>70.5</ele><time>2026-03-28T11:30:43.755Z</time></trkpt><trkpt lat="38.0542598" lon="-1.2299652"><ele>70.66666666666667</ele><time>2026-03-28T11:30:45.756Z</time></trkpt><trkpt lat="38.0542745" lon="-1.2298781"><ele>70.83333333333334</ele><time>2026-03-28T11:30:47.755Z</time></trkpt><trkpt lat="38.0542872" lon="-1.2297977"><ele>71.0</ele><time>2026-03-28T11:30:49.755Z</time></trkpt><trkpt lat="38.0542987" lon="-1.2297057"><ele>71.16666666666667</ele><time>2026-03-28T11:30:52.754Z</time></trkpt><trkpt lat="38.0543049" lon="-1.2296253"><ele>71.33333333333334</ele><time>2026-03-28T11:31:02.754Z</time></trkpt><trkpt lat="38.0543658" lon="-1.2295429"><ele>71.5</ele><time>2026-03-28T11:31:26.755Z</time></trkpt><trkpt lat="38.0543966" lon="-1.2294401"><ele>71.66666666666667</ele><time>2026-03-28T11:31:29.755Z</time></trkpt><trkpt lat="38.0544054" lon="-1.229342"><ele>71.83333333333333</ele><time>2026-03-28T11:31:31.756Z</time></trkpt><trkpt lat="38.0544174" lon="-1.2292295"><ele>72.0</ele><time>2026-03-28T11:31:33.755Z</time></trkpt><trkpt lat="38.0544373" lon="-1.229103"><ele>72.0</ele><time>2026-03-28T11:31:35.756Z</time></trkpt><trkpt lat="38.0544704" lon="-1.2289831"><ele>72.0</ele><time>2026-03-28T11:31:37.755Z</time></trkpt><trkpt lat="38.0545063" lon="-1.2288612"><ele>72.0</ele><time>2026-03-28T11:31:39.755Z</time></trkpt><trkpt lat="38.0545359" lon="-1.2287348"><ele>72.0</ele><time>2026-03-28T11:31:41.756Z</time></trkpt><trkpt lat="38.0545568" lon="-1.2286083"><ele>72.0</ele><time>2026-03-28T11:31:43.754Z</time></trkpt><trkpt lat="38.0545753" lon="-1.2284875"><ele>72.0</ele><time>2026-03-28T11:31:45.755Z</time></trkpt><trkpt lat="38.0545956" lon="-1.2283661"><ele>72.0</ele><time>2026-03-28T11:31:47.755Z</time></trkpt><trkpt lat="38.0546199" lon="-1.2282401"><ele>72.0</ele><time>2026-03-28T11:31:49.757Z</time></trkpt><trkpt lat="38.0546437" lon="-1.2281199"><ele>72.0</ele><time>2026-03-28T11:31:51.757Z</time></trkpt><trkpt lat="38.054673" lon="-1.2280033"><ele>72.0</ele><time>2026-03-28T11:31:53.754Z</time></trkpt><trkpt lat="38.0546835" lon="-1.22789"><ele>72.0</ele><time>2026-03-28T11:31:55.757Z</time></trkpt><trkpt lat="38.0546746" lon="-1.2277837"><ele>72.0</ele><time>2026-03-28T11:31:57.756Z</time></trkpt><trkpt lat="38.0546621" lon="-1.2276792"><ele>72.0</ele><time>2026-03-28T11:31:59.754Z</time></trkpt><trkpt lat="38.0546705" lon="-1.2275757"><ele>72.0</ele><time>2026-03-28T11:32:01.756Z</time></trkpt><trkpt lat="38.0546863" lon="-1.227477"><ele>72.0</ele><time>2026-03-28T11:32:03.755Z</time></trkpt><trkpt lat="38.0546869" lon="-1.2273846"><ele>72.0</ele><time>2026-03-28T11:32:05.756Z</time></trkpt><trkpt lat="38.0546879" lon="-1.2273012"><ele>72.0</ele><time>2026-03-28T11:32:07.755Z</time></trkpt><trkpt lat="38.0547009" lon="-1.2272053"><ele>72.0</ele><time>2026-03-28T11:32:09.756Z</time></trkpt><trkpt lat="38.0547162" lon="-1.2270942"><ele>72.0</ele><time>2026-03-28T11:32:11.754Z</time></trkpt><trkpt lat="38.0547462" lon="-1.2269788"><ele>72.0</ele><time>2026-03-28T11:32:13.756Z</time></trkpt><trkpt lat="38.0547815" lon="-1.2268669"><ele>72.0</ele><time>2026-03-28T11:32:15.755Z</time></trkpt><trkpt lat="38.0548017" lon="-1.2267497"><ele>72.0</ele><time>2026-03-28T11:32:17.754Z</time></trkpt><trkpt lat="38.0548243" lon="-1.2266351"><ele>72.0</ele><time>2026-03-28T11:32:19.755Z</time></trkpt><trkpt lat="38.0548345" lon="-1.2265183"><ele>72.0</ele><time>2026-03-28T11:32:21.757Z</time></trkpt><trkpt lat="38.054852" lon="-1.2264011"><ele>72.0</ele><time>2026-03-28T11:32:23.756Z</time></trkpt><trkpt lat="38.0548764" lon="-1.2262875"><ele>72.0</ele><time>2026-03-28T11:32:25.754Z</time></trkpt><trkpt lat="38.0548965" lon="-1.2261802"><ele>71.83333333333333</ele><time>2026-03-28T11:32:27.755Z</time></trkpt><trkpt lat="38.0549075" lon="-1.2260628"><ele>71.66666666666667</ele><time>2026-03-28T11:32:29.755Z</time></trkpt><trkpt lat="38.0549145" lon="-1.2259512"><ele>71.5</ele><time>2026-03-28T11:32:31.754Z</time></trkpt><trkpt lat="38.0549158" lon="-1.2258458"><ele>71.33333333333334</ele><time>2026-03-28T11:32:33.754Z</time></trkpt><trkpt lat="38.0549278" lon="-1.2257421"><ele>71.16666666666667</ele><time>2026-03-28T11:32:36.755Z</time></trkpt><trkpt lat="38.0549517" lon="-1.2256241"><ele>71.0</ele><time>2026-03-28T11:32:40.757Z</time></trkpt><trkpt lat="38.0549567" lon="-1.2255105"><ele>70.16666666666667</ele><time>2026-03-28T11:32:42.755Z</time></trkpt><trkpt lat="38.0549678" lon="-1.2254059"><ele>69.33333333333334</ele><time>2026-03-28T11:32:44.755Z</time></trkpt><trkpt lat="38.0549874" lon="-1.225307"><ele>68.5</ele><time>2026-03-28T11:32:46.755Z</time></trkpt><trkpt lat="38.0550046" lon="-1.2251977"><ele>67.66666666666667</ele><time>2026-03-28T11:32:48.755Z</time></trkpt><trkpt lat="38.0550241" lon="-1.2250918"><ele>66.83333333333333</ele><time>2026-03-28T11:32:50.754Z</time></trkpt><trkpt lat="38.0550401" lon="-1.2249959"><ele>66.0</ele><time>2026-03-28T11:32:52.755Z</time></trkpt><trkpt lat="38.0550556" lon="-1.2249087"><ele>66.83333333333333</ele><time>2026-03-28T11:32:54.755Z</time></trkpt><trkpt lat="38.0550683" lon="-1.2248113"><ele>67.66666666666667</ele><time>2026-03-28T11:32:56.755Z</time></trkpt><trkpt lat="38.0550837" lon="-1.22471"><ele>68.5</ele><time>2026-03-28T11:32:58.755Z</time></trkpt><trkpt lat="38.0551015" lon="-1.2246049"><ele>69.33333333333334</ele><time>2026-03-28T11:33:00.754Z</time></trkpt><trkpt lat="38.0551207" lon="-1.2244968"><ele>70.16666666666667</ele><time>2026-03-28T11:33:02.754Z</time></trkpt><trkpt lat="38.0551407" lon="-1.2243883"><ele>71.0</ele><time>2026-03-28T11:33:04.755Z</time></trkpt><trkpt lat="38.0551615" lon="-1.2242883"><ele>71.0</ele><time>2026-03-28T11:33:06.755Z</time></trkpt><trkpt lat="38.0551669" lon="-1.2241868"><ele>71.0</ele><time>2026-03-28T11:33:08.757Z</time></trkpt><trkpt lat="38.055177" lon="-1.2240885"><ele>71.0</ele><time>2026-03-28T11:33:10.755Z</time></trkpt><trkpt lat="38.0551979" lon="-1.224006"><ele>71.0</ele><time>2026-03-28T11:33:12.756Z</time></trkpt><trkpt lat="38.0552406" lon="-1.2239461"><ele>71.0</ele><time>2026-03-28T11:33:14.755Z</time></trkpt><trkpt lat="38.0552969" lon="-1.2239101"><ele>71.0</ele><time>2026-03-28T11:33:16.756Z</time></trkpt><trkpt lat="38.0553639" lon="-1.2238367"><ele>71.0</ele><time>2026-03-28T11:33:19.755Z</time></trkpt><trkpt lat="38.0553927" lon="-1.2237379"><ele>71.33333333333334</ele><time>2026-03-28T11:33:22.755Z</time></trkpt><trkpt lat="38.0553966" lon="-1.2236372"><ele>71.66666666666667</ele><time>2026-03-28T11:33:26.757Z</time></trkpt><trkpt lat="38.0554007" lon="-1.223524"><ele>72.0</ele><time>2026-03-28T11:33:30.754Z</time></trkpt><trkpt lat="38.0554121" lon="-1.2234177"><ele>72.33333333333333</ele><time>2026-03-28T11:33:33.756Z</time></trkpt><trkpt lat="38.0554032" lon="-1.2232969"><ele>72.66666666666666</ele><time>2026-03-28T11:33:36.756Z</time></trkpt><trkpt lat="38.0553842" lon="-1.223211"><ele>73.0</ele><time>2026-03-28T11:33:38.756Z</time></trkpt><trkpt lat="38.0553483" lon="-1.2231393"><ele>73.16666666666666</ele><time>2026-03-28T11:33:40.755Z</time></trkpt><trkpt lat="38.0553231" lon="-1.2230606"><ele>73.33333333333333</ele><time>2026-03-28T11:33:42.755Z</time></trkpt><trkpt lat="38.0553317" lon="-1.2229712"><ele>73.5</ele><time>2026-03-28T11:33:44.754Z</time></trkpt><trkpt lat="38.0553511" lon="-1.2228702"><ele>73.66666666666667</ele><time>2026-03-28T11:33:46.756Z</time></trkpt><trkpt lat="38.0553683" lon="-1.2227685"><ele>73.83333333333334</ele><time>2026-03-28T11:33:48.755Z</time></trkpt><trkpt lat="38.0553843" lon="-1.222664"><ele>74.0</ele><time>2026-03-28T11:33:50.755Z</time></trkpt><trkpt lat="38.0553959" lon="-1.2225655"><ele>74.0</ele><time>2026-03-28T11:33:52.756Z</time></trkpt><trkpt lat="38.0554103" lon="-1.2224699"><ele>74.0</ele><time>2026-03-28T11:33:54.755Z</time></trkpt><trkpt lat="38.0554241" lon="-1.2223673"><ele>74.0</ele><time>2026-03-28T11:33:56.755Z</time></trkpt><trkpt lat="38.0554388" lon="-1.2222682"><ele>74.0</ele><time>2026-03-28T11:33:58.756Z</time></trkpt><trkpt lat="38.0554477" lon="-1.2221764"><ele>74.0</ele><time>2026-03-28T11:34:00.756Z</time></trkpt><trkpt lat="38.0554575" lon="-1.2220854"><ele>74.0</ele><time>2026-03-28T11:34:02.755Z</time></trkpt><trkpt lat="38.0554726" lon="-1.221985"><ele>73.83333333333334</ele><time>2026-03-28T11:34:04.755Z</time></trkpt><trkpt lat="38.0554886" lon="-1.2218839"><ele>73.66666666666667</ele><time>2026-03-28T11:34:06.755Z</time></trkpt><trkpt lat="38.0554985" lon="-1.2217812"><ele>73.5</ele><time>2026-03-28T11:34:08.756Z</time></trkpt><trkpt lat="38.055511" lon="-1.2216774"><ele>73.33333333333333</ele><time>2026-03-28T11:34:10.756Z</time></trkpt><trkpt lat="38.0555232" lon="-1.2215764"><ele>73.16666666666666</ele><time>2026-03-28T11:34:12.755Z</time></trkpt><trkpt lat="38.0555371" lon="-1.2214824"><ele>73.0</ele><time>2026-03-28T11:34:14.755Z</time></trkpt><trkpt lat="38.0555445" lon="-1.2213894"><ele>73.0</ele><time>2026-03-28T11:34:16.756Z</time></trkpt><trkpt lat="38.0555528" lon="-1.2212967"><ele>73.0</ele><time>2026-03-28T11:34:18.755Z</time></trkpt><trkpt lat="38.055568" lon="-1.2212042"><ele>73.0</ele><time>2026-03-28T11:34:20.754Z</time></trkpt><trkpt lat="38.0555801" lon="-1.2211145"><ele>73.0</ele><time>2026-03-28T11:34:22.755Z</time></trkpt><trkpt lat="38.0556074" lon="-1.2210326"><ele>73.0</ele><time>2026-03-28T11:34:24.755Z</time></trkpt><trkpt lat="38.0556991" lon="-1.2209973"><ele>73.0</ele><time>2026-03-28T11:34:27.755Z</time></trkpt><trkpt lat="38.0557643" lon="-1.2209685"><ele>73.57142857142857</ele><time>2026-03-28T11:34:29.755Z</time></trkpt><trkpt lat="38.0558331" lon="-1.2209304"><ele>74.14285714285714</ele><time>2026-03-28T11:34:31.757Z</time></trkpt><trkpt lat="38.0559079" lon="-1.2208982"><ele>74.71428571428572</ele><time>2026-03-28T11:34:33.757Z</time></trkpt><trkpt lat="38.055974" lon="-1.2208529"><ele>75.28571428571428</ele><time>2026-03-28T11:34:35.757Z</time></trkpt><trkpt lat="38.0560072" lon="-1.2207766"><ele>75.85714285714286</ele><time>2026-03-28T11:34:37.756Z</time></trkpt><trkpt lat="38.0560261" lon="-1.2206913"><ele>76.42857142857143</ele><time>2026-03-28T11:34:39.755Z</time></trkpt><trkpt lat="38.0560424" lon="-1.2206081"><ele>77.0</ele><time>2026-03-28T11:34:41.755Z</time></trkpt><trkpt lat="38.0560497" lon="-1.2205253"><ele>77.28571428571429</ele><time>2026-03-28T11:34:43.755Z</time></trkpt><trkpt lat="38.0560661" lon="-1.220438"><ele>77.57142857142857</ele><time>2026-03-28T11:34:45.755Z</time></trkpt><trkpt lat="38.056092" lon="-1.2203573"><ele>77.85714285714286</ele><time>2026-03-28T11:34:47.756Z</time></trkpt><trkpt lat="38.0561258" lon="-1.2202757"><ele>78.14285714285714</ele><time>2026-03-28T11:34:49.756Z</time></trkpt><trkpt lat="38.0561621" lon="-1.220209"><ele>78.42857142857143</ele><time>2026-03-28T11:34:51.756Z</time></trkpt><trkpt lat="38.0562027" lon="-1.2201346"><ele>78.71428571428572</ele><time>2026-03-28T11:34:53.755Z</time></trkpt><trkpt lat="38.0562493" lon="-1.2200597"><ele>79.0</ele><time>2026-03-28T11:34:55.754Z</time></trkpt><trkpt lat="38.0562911" lon="-1.2199943"><ele>79.00000000000001</ele><time>2026-03-28T11:34:57.757Z</time></trkpt><trkpt lat="38.0563389" lon="-1.219926"><ele>79.0</ele><time>2026-03-28T11:34:59.754Z</time></trkpt><trkpt lat="38.0563834" lon="-1.2198599"><ele>79.0</ele><time>2026-03-28T11:35:01.756Z</time></trkpt><trkpt lat="38.0564196" lon="-1.2197905"><ele>79.0</ele><time>2026-03-28T11:35:03.756Z</time></trkpt><trkpt lat="38.0564501" lon="-1.2197171"><ele>79.0</ele><time>2026-03-28T11:35:05.756Z</time></trkpt><trkpt lat="38.0565389" lon="-1.2196871"><ele>79.00000000000001</ele><time>2026-03-28T11:35:09.755Z</time></trkpt><trkpt lat="38.0566106" lon="-1.2196994"><ele>79.0</ele><time>2026-03-28T11:35:11.756Z</time></trkpt><trkpt lat="38.0566731" lon="-1.2197282"><ele>79.42857142857143</ele><time>2026-03-28T11:35:13.755Z</time></trkpt><trkpt lat="38.0567304" lon="-1.2197698"><ele>79.85714285714286</ele><time>2026-03-28T11:35:15.756Z</time></trkpt><trkpt lat="38.0567939" lon="-1.2198029"><ele>80.28571428571428</ele><time>2026-03-28T11:35:17.754Z</time></trkpt><trkpt lat="38.0568535" lon="-1.2198399"><ele>80.71428571428572</ele><time>2026-03-28T11:35:19.754Z</time></trkpt><trkpt lat="38.0569076" lon="-1.219881"><ele>81.14285714285714</ele><time>2026-03-28T11:35:21.754Z</time></trkpt><trkpt lat="38.0569729" lon="-1.2199314"><ele>81.57142857142857</ele><time>2026-03-28T11:35:23.755Z</time></trkpt><trkpt lat="38.0570369" lon="-1.2199821"><ele>82.0</ele><time>2026-03-28T11:35:25.755Z</time></trkpt><trkpt lat="38.0570995" lon="-1.2200417"><ele>82.0</ele><time>2026-03-28T11:35:27.755Z</time></trkpt><trkpt lat="38.0571665" lon="-1.2201061"><ele>82.0</ele><time>2026-03-28T11:35:29.755Z</time></trkpt><trkpt lat="38.0572327" lon="-1.2201777"><ele>82.0</ele><time>2026-03-28T11:35:31.754Z</time></trkpt><trkpt lat="38.0572975" lon="-1.2202475"><ele>82.0</ele><time>2026-03-28T11:35:33.756Z</time></trkpt><trkpt lat="38.0573665" lon="-1.2203098"><ele>82.0</ele><time>2026-03-28T11:35:35.755Z</time></trkpt><trkpt lat="38.0574364" lon="-1.2203679"><ele>82.0</ele><time>2026-03-28T11:35:37.754Z</time></trkpt><trkpt lat="38.0575227" lon="-1.2204115"><ele>81.39999999999999</ele><time>2026-03-28T11:35:39.754Z</time></trkpt><trkpt lat="38.05761" lon="-1.2204401"><ele>80.8</ele><time>2026-03-28T11:35:41.755Z</time></trkpt><trkpt lat="38.057702" lon="-1.2204591"><ele>80.2</ele><time>2026-03-28T11:35:43.755Z</time></trkpt><trkpt lat="38.057796" lon="-1.2204765"><ele>79.6</ele><time>2026-03-28T11:35:45.755Z</time></trkpt><trkpt lat="38.057887" lon="-1.2205011"><ele>79.0</ele><time>2026-03-28T11:35:47.755Z</time></trkpt><trkpt lat="38.0579773" lon="-1.220519"><ele>79.0</ele><time>2026-03-28T11:35:49.755Z</time></trkpt><trkpt lat="38.0580483" lon="-1.2205159"><ele>79.0</ele><time>2026-03-28T11:35:51.755Z</time></trkpt><trkpt lat="38.0581217" lon="-1.220484"><ele>79.0</ele><time>2026-03-28T11:35:53.755Z</time></trkpt><trkpt lat="38.058196" lon="-1.2204665"><ele>79.0</ele><time>2026-03-28T11:35:55.755Z</time></trkpt><trkpt lat="38.0582669" lon="-1.2204421"><ele>79.0</ele><time>2026-03-28T11:35:57.756Z</time></trkpt><trkpt lat="38.0583316" lon="-1.2203842"><ele>79.0</ele><time>2026-03-28T11:35:59.756Z</time></trkpt><trkpt lat="38.0584041" lon="-1.2203218"><ele>79.0</ele><time>2026-03-28T11:36:01.756Z</time></trkpt><trkpt lat="38.0584822" lon="-1.220248"><ele>79.0</ele><time>2026-03-28T11:36:03.756Z</time></trkpt><trkpt lat="38.0585635" lon="-1.2201818"><ele>79.0</ele><time>2026-03-28T11:36:05.756Z</time></trkpt><trkpt lat="38.0586442" lon="-1.2201216"><ele>79.0</ele><time>2026-03-28T11:36:07.755Z</time></trkpt><trkpt lat="38.0587251" lon="-1.2200601"><ele>79.0</ele><time>2026-03-28T11:36:09.755Z</time></trkpt><trkpt lat="38.0588019" lon="-1.2199905"><ele>79.0</ele><time>2026-03-28T11:36:11.755Z</time></trkpt><trkpt lat="38.0588805" lon="-1.2199263"><ele>79.0</ele><time>2026-03-28T11:36:13.755Z</time></trkpt><trkpt lat="38.0589526" lon="-1.2198616"><ele>79.0</ele><time>2026-03-28T11:36:15.756Z</time></trkpt><trkpt lat="38.0590132" lon="-1.2197942"><ele>79.0</ele><time>2026-03-28T11:36:17.756Z</time></trkpt><trkpt lat="38.0590785" lon="-1.2197255"><ele>79.0</ele><time>2026-03-28T11:36:19.755Z</time></trkpt><trkpt lat="38.0591398" lon="-1.2196579"><ele>79.0</ele><time>2026-03-28T11:36:21.755Z</time></trkpt><trkpt lat="38.0591989" lon="-1.2195895"><ele>79.83333333333333</ele><time>2026-03-28T11:36:23.756Z</time></trkpt><trkpt lat="38.059253" lon="-1.2195148"><ele>80.66666666666666</ele><time>2026-03-28T11:36:25.755Z</time></trkpt><trkpt lat="38.0593094" lon="-1.2194389"><ele>81.5</ele><time>2026-03-28T11:36:27.755Z</time></trkpt><trkpt lat="38.0593567" lon="-1.2193612"><ele>82.33333333333333</ele><time>2026-03-28T11:36:29.755Z</time></trkpt><trkpt lat="38.0594033" lon="-1.2192785"><ele>83.16666666666667</ele><time>2026-03-28T11:36:31.756Z</time></trkpt><trkpt lat="38.0594499" lon="-1.2191993"><ele>84.0</ele><time>2026-03-28T11:36:33.755Z</time></trkpt><trkpt lat="38.0594927" lon="-1.2191186"><ele>84.0</ele><time>2026-03-28T11:36:35.756Z</time></trkpt><trkpt lat="38.0595425" lon="-1.2190416"><ele>84.0</ele><time>2026-03-28T11:36:37.756Z</time></trkpt><trkpt lat="38.0595922" lon="-1.2189639"><ele>84.0</ele><time>2026-03-28T11:36:39.756Z</time></trkpt><trkpt lat="38.059643" lon="-1.2188816"><ele>84.0</ele><time>2026-03-28T11:36:41.755Z</time></trkpt><trkpt lat="38.0596957" lon="-1.2187966"><ele>84.0</ele><time>2026-03-28T11:36:43.755Z</time></trkpt><trkpt lat="38.0597493" lon="-1.2187199"><ele>84.0</ele><time>2026-03-28T11:36:45.756Z</time></trkpt><trkpt lat="38.0597978" lon="-1.2186367"><ele>84.5</ele><time>2026-03-28T11:36:47.754Z</time></trkpt><trkpt lat="38.0598463" lon="-1.2185612"><ele>85.0</ele><time>2026-03-28T11:36:49.755Z</time></trkpt><trkpt lat="38.0598943" lon="-1.2184804"><ele>85.5</ele><time>2026-03-28T11:36:51.755Z</time></trkpt><trkpt lat="38.0599343" lon="-1.2183999"><ele>86.0</ele><time>2026-03-28T11:36:53.755Z</time></trkpt><trkpt lat="38.0599336" lon="-1.2183087"><ele>86.5</ele><time>2026-03-28T11:36:55.755Z</time></trkpt><trkpt lat="38.0598926" lon="-1.2182349"><ele>87.0</ele><time>2026-03-28T11:36:57.755Z</time></trkpt><trkpt lat="38.0598448" lon="-1.2181376"><ele>87.16666666666667</ele><time>2026-03-28T11:37:00.755Z</time></trkpt><trkpt lat="38.0598101" lon="-1.2180594"><ele>87.33333333333333</ele><time>2026-03-28T11:37:03.756Z</time></trkpt><trkpt lat="38.0597428" lon="-1.2179759"><ele>87.5</ele><time>2026-03-28T11:37:12.754Z</time></trkpt><trkpt lat="38.0596877" lon="-1.2179"><ele>87.66666666666666</ele><time>2026-03-28T11:37:14.755Z</time></trkpt><trkpt lat="38.0596613" lon="-1.217787"><ele>87.83333333333333</ele><time>2026-03-28T11:37:16.756Z</time></trkpt><trkpt lat="38.0596609" lon="-1.2176536"><ele>88.0</ele><time>2026-03-28T11:37:18.755Z</time></trkpt><trkpt lat="38.0596103" lon="-1.2175286"><ele>88.0</ele><time>2026-03-28T11:37:20.755Z</time></trkpt><trkpt lat="38.0595234" lon="-1.2174259"><ele>88.0</ele><time>2026-03-28T11:37:22.755Z</time></trkpt><trkpt lat="38.0594274" lon="-1.217344"><ele>88.0</ele><time>2026-03-28T11:37:24.755Z</time></trkpt><trkpt lat="38.0593313" lon="-1.2172608"><ele>88.0</ele><time>2026-03-28T11:37:26.755Z</time></trkpt><trkpt lat="38.0592308" lon="-1.2171786"><ele>88.16666666666666</ele><time>2026-03-28T11:37:28.754Z</time></trkpt><trkpt lat="38.0591488" lon="-1.2171149"><ele>88.33333333333333</ele><time>2026-03-28T11:37:30.756Z</time></trkpt><trkpt lat="38.0590949" lon="-1.2170692"><ele>88.5</ele><time>2026-03-28T11:37:33.755Z</time></trkpt><trkpt lat="38.0590931" lon="-1.2169757"><ele>88.66666666666667</ele><time>2026-03-28T11:37:36.755Z</time></trkpt><trkpt lat="38.0591409" lon="-1.2168778"><ele>88.83333333333334</ele><time>2026-03-28T11:37:38.756Z</time></trkpt><trkpt lat="38.0591851" lon="-1.2167692"><ele>89.0</ele><time>2026-03-28T11:37:40.756Z</time></trkpt><trkpt lat="38.0592363" lon="-1.2166707"><ele>89.33333333333334</ele><time>2026-03-28T11:37:42.756Z</time></trkpt><trkpt lat="38.0592871" lon="-1.2165648"><ele>89.66666666666667</ele><time>2026-03-28T11:37:44.755Z</time></trkpt><trkpt lat="38.0593318" lon="-1.21647"><ele>90.0</ele><time>2026-03-28T11:37:46.756Z</time></trkpt><trkpt lat="38.0593729" lon="-1.2163792"><ele>90.33333333333333</ele><time>2026-03-28T11:37:48.755Z</time></trkpt><trkpt lat="38.0594142" lon="-1.2162879"><ele>90.66666666666666</ele><time>2026-03-28T11:37:50.755Z</time></trkpt><trkpt lat="38.0594621" lon="-1.2162038"><ele>91.0</ele><time>2026-03-28T11:37:52.755Z</time></trkpt><trkpt lat="38.0595031" lon="-1.2161179"><ele>91.5</ele><time>2026-03-28T11:37:54.755Z</time></trkpt><trkpt lat="38.0595278" lon="-1.2160369"><ele>92.0</ele><time>2026-03-28T11:37:56.755Z</time></trkpt><trkpt lat="38.0594758" lon="-1.2159365"><ele>92.5</ele><time>2026-03-28T11:37:59.754Z</time></trkpt><trkpt lat="38.0594105" lon="-1.2158859"><ele>93.0</ele><time>2026-03-28T11:38:01.755Z</time></trkpt><trkpt lat="38.0593353" lon="-1.2158327"><ele>93.5</ele><time>2026-03-28T11:38:03.756Z</time></trkpt><trkpt lat="38.0592612" lon="-1.2157871"><ele>94.0</ele><time>2026-03-28T11:38:05.754Z</time></trkpt><trkpt lat="38.0591868" lon="-1.2157431"><ele>93.83333333333333</ele><time>2026-03-28T11:38:07.755Z</time></trkpt><trkpt lat="38.0591079" lon="-1.2157395"><ele>93.66666666666666</ele><time>2026-03-28T11:38:09.757Z</time></trkpt><trkpt lat="38.059042" lon="-1.2157291"><ele>93.5</ele><time>2026-03-28T11:38:11.756Z</time></trkpt><trkpt lat="38.0589618" lon="-1.2156738"><ele>93.33333333333333</ele><time>2026-03-28T11:38:14.756Z</time></trkpt><trkpt lat="38.0589067" lon="-1.2156257"><ele>93.16666666666667</ele><time>2026-03-28T11:38:16.756Z</time></trkpt><trkpt lat="38.05885" lon="-1.2155683"><ele>93.0</ele><time>2026-03-28T11:38:19.755Z</time></trkpt><trkpt lat="38.0587776" lon="-1.2155137"><ele>93.0</ele><time>2026-03-28T11:38:25.754Z</time></trkpt><trkpt lat="38.0587008" lon="-1.2154515"><ele>93.0</ele><time>2026-03-28T11:38:27.754Z</time></trkpt><trkpt lat="38.0586318" lon="-1.2153834"><ele>93.0</ele><time>2026-03-28T11:38:29.755Z</time></trkpt><trkpt lat="38.0585608" lon="-1.2153258"><ele>93.0</ele><time>2026-03-28T11:38:31.754Z</time></trkpt><trkpt lat="38.0585035" lon="-1.2152741"><ele>93.0</ele><time>2026-03-28T11:38:35.756Z</time></trkpt><trkpt lat="38.0584345" lon="-1.215234"><ele>93.0</ele><time>2026-03-28T11:38:41.756Z</time></trkpt><trkpt lat="38.0583683" lon="-1.2152803"><ele>93.0</ele><time>2026-03-28T11:38:44.757Z</time></trkpt><trkpt lat="38.0583249" lon="-1.2153561"><ele>93.0</ele><time>2026-03-28T11:38:46.756Z</time></trkpt><trkpt lat="38.0582571" lon="-1.2154116"><ele>90.0</ele><time>2026-03-28T11:38:49.757Z</time></trkpt><trkpt lat="38.0581978" lon="-1.2153661"><ele>90.0</ele><time>2026-03-28T11:38:53.757Z</time></trkpt></trkseg></trk></gpx>